<?xml version='1.0' encoding='UTF-8'?><gpx version="1.1" creator="JPX - https://github.com/jenetics/jpx" xmlns="http://www.topografix.com/GPX/1/1"><trk><trkseg><trkpt lat="42.16400608687466" lon="14.685367483448376"><ele>51.0</ele><time>2026-03-29T09:14:42Z</time></trkpt><trkpt lat="42.164049856027724" lon="14.685302662783242"><ele>51.0</ele><time>2026-03-29T09:14:43Z</time></trkpt><trkpt lat="42.164096858337345" lon="14.685233053912988"><ele>51.0</ele><time>2026-03-29T09:14:44Z</time></trkpt><trkpt lat="42.164192470179344" lon="14.685091455889605"><ele>51.0</ele><time>2026-03-29T09:14:46Z</time></trkpt><trkpt lat="42.16425717898425" lon="14.68499375177418"><ele>51.0</ele><time>2026-03-29T09:14:47Z</time></trkpt><trkpt lat="42.16433031857752" lon="14.68488325698195"><ele>51.4</ele><time>2026-03-29T09:14:48Z</time></trkpt><trkpt lat="42.16440384349587" lon="14.684773550738704"><ele>51.8</ele><time>2026-03-29T09:14:49Z</time></trkpt><trkpt lat="42.16448160094793" lon="14.68466176700752"><ele>52.199999999999996</ele><time>2026-03-29T09:14:50Z</time></trkpt><trkpt lat="42.164554193667925" lon="14.68455740561449"><ele>52.599999999999994</ele><time>2026-03-29T09:14:50.999Z</time></trkpt><trkpt lat="42.16462621964315" lon="14.684456935469159"><ele>53.0</ele><time>2026-03-29T09:14:51.999Z</time></trkpt><trkpt lat="42.164702841246395" lon="14.684358208602465"><ele>53.00000000000001</ele><time>2026-03-29T09:14:52.999Z</time></trkpt><trkpt lat="42.16477418203779" lon="14.684273371264394"><ele>53.0</ele><time>2026-03-29T09:14:53.999Z</time></trkpt><trkpt lat="42.164837252427" lon="14.684200209077853"><ele>53.0</ele><time>2026-03-29T09:14:54.999Z</time></trkpt><trkpt lat="42.16489136510065" lon="14.684141066956391"><ele>53.0</ele><time>2026-03-29T09:14:55.999Z</time></trkpt><trkpt lat="42.16497172927421" lon="14.684056249411098"><ele>53.00000000000001</ele><time>2026-03-29T09:14:57.999Z</time></trkpt><trkpt lat="42.165024625813395" lon="14.683993054282132"><ele>53.0</ele><time>2026-03-29T09:15:00.999Z</time></trkpt><trkpt lat="42.165132416848074" lon="14.68390389476272"><ele>52.75</ele><time>2026-03-29T09:15:02.999Z</time></trkpt><trkpt lat="42.16518829579054" lon="14.683710389228455"><ele>52.5</ele><time>2026-03-29T09:15:03.999Z</time></trkpt><trkpt lat="42.165241373456034" lon="14.683544681314158"><ele>52.25</ele><time>2026-03-29T09:15:04.999Z</time></trkpt><trkpt lat="42.16529123804403" lon="14.683363739678956"><ele>52.0</ele><time>2026-03-29T09:15:05.999Z</time></trkpt><trkpt lat="42.16532797909038" lon="14.68319134115882"><ele>51.8</ele><time>2026-03-29T09:15:06.999Z</time></trkpt><trkpt lat="42.16536289880613" lon="14.683065128525433"><ele>51.6</ele><time>2026-03-29T09:15:07.999Z</time></trkpt><trkpt lat="42.165395815570115" lon="14.682961951749386"><ele>51.4</ele><time>2026-03-29T09:15:08.999Z</time></trkpt><trkpt lat="42.16542593297695" lon="14.68287624480204"><ele>51.199999999999996</ele><time>2026-03-29T09:15:09.999Z</time></trkpt><trkpt lat="42.165506432491824" lon="14.682776925806136"><ele>51.0</ele><time>2026-03-29T09:15:11.999Z</time></trkpt><trkpt lat="42.1655985610238" lon="14.682715350632884"><ele>51.0</ele><time>2026-03-29T09:15:13.999Z</time></trkpt><trkpt lat="42.16569381000179" lon="14.682789015546739"><ele>51.0</ele><time>2026-03-29T09:15:14.999Z</time></trkpt><trkpt lat="42.16577504263121" lon="14.682827024739657"><ele>51.0</ele><time>2026-03-29T09:15:15.999Z</time></trkpt><trkpt lat="42.16585826677425" lon="14.682850005854402"><ele>51.0</ele><time>2026-03-29T09:15:16.999Z</time></trkpt><trkpt lat="42.16594887658912" lon="14.682834158867495"><ele>51.0</ele><time>2026-03-29T09:15:17.999Z</time></trkpt><trkpt lat="42.16602662430189" lon="14.682774454551161"><ele>51.0</ele><time>2026-03-29T09:15:18.999Z</time></trkpt><trkpt lat="42.16608749657622" lon="14.682683120446226"><ele>51.0</ele><time>2026-03-29T09:15:19.999Z</time></trkpt><trkpt lat="42.1661275581615" lon="14.682575041086835"><ele>51.0</ele><time>2026-03-29T09:15:20.999Z</time></trkpt><trkpt lat="42.16614413415584" lon="14.682457106562202"><ele>51.0</ele><time>2026-03-29T09:15:21.999Z</time></trkpt><trkpt lat="42.16612245695503" lon="14.682340101293144"><ele>51.0</ele><time>2026-03-29T09:15:22.999Z</time></trkpt><trkpt lat="42.16609684278178" lon="14.682227657062043"><ele>51.0</ele><time>2026-03-29T09:15:23.999Z</time></trkpt><trkpt lat="42.1660416466393" lon="14.682128386973897"><ele>51.0</ele><time>2026-03-29T09:15:24.999Z</time></trkpt><trkpt lat="42.16596185011618" lon="14.682045754544564"><ele>51.0</ele><time>2026-03-29T09:15:25.999Z</time></trkpt><trkpt lat="42.16586315106142" lon="14.681970050336046"><ele>51.0</ele><time>2026-03-29T09:15:26.999Z</time></trkpt><trkpt lat="42.165771021370226" lon="14.681879871337248"><ele>51.0</ele><time>2026-03-29T09:15:27.999Z</time></trkpt><trkpt lat="42.16571373879254" lon="14.68175994621142"><ele>51.0</ele><time>2026-03-29T09:15:28.999Z</time></trkpt><trkpt lat="42.16568138128742" lon="14.68161238114079"><ele>51.5</ele><time>2026-03-29T09:15:29.999Z</time></trkpt><trkpt lat="42.16568167486362" lon="14.681439922236208"><ele>52.0</ele><time>2026-03-29T09:15:30.999Z</time></trkpt><trkpt lat="42.165647891121345" lon="14.681255058639833"><ele>52.5</ele><time>2026-03-29T09:15:31.999Z</time></trkpt><trkpt lat="42.165646349105195" lon="14.681015668501015"><ele>53.0</ele><time>2026-03-29T09:15:32.999Z</time></trkpt><trkpt lat="42.16562960817639" lon="14.680747563597512"><ele>53.66666666666667</ele><time>2026-03-29T09:15:33.999Z</time></trkpt><trkpt lat="42.165612363706714" lon="14.68047139458302"><ele>54.33333333333333</ele><time>2026-03-29T09:15:34.999Z</time></trkpt><trkpt lat="42.16558700326121" lon="14.680213154848026"><ele>55.0</ele><time>2026-03-29T09:15:35.999Z</time></trkpt><trkpt lat="42.16557489288858" lon="14.679951927304085"><ele>55.33333333333333</ele><time>2026-03-29T09:15:36.999Z</time></trkpt><trkpt lat="42.16555230519872" lon="14.679686807784183"><ele>55.66666666666667</ele><time>2026-03-29T09:15:37.999Z</time></trkpt><trkpt lat="42.165524437882794" lon="14.679421749710238"><ele>56.0</ele><time>2026-03-29T09:15:38.999Z</time></trkpt><trkpt lat="42.16548623635406" lon="14.67915529418186"><ele>56.333333333333336</ele><time>2026-03-29T09:15:39.999Z</time></trkpt><trkpt lat="42.16543934159594" lon="14.678880272690073"><ele>56.66666666666667</ele><time>2026-03-29T09:15:40.999Z</time></trkpt><trkpt lat="42.165391134439695" lon="14.67859914889516"><ele>57.0</ele><time>2026-03-29T09:15:41.999Z</time></trkpt><trkpt lat="42.16534425604468" lon="14.678303878197658"><ele>55.0</ele><time>2026-03-29T09:15:42.999Z</time></trkpt><trkpt lat="42.165312676005406" lon="14.677994071692613"><ele>53.0</ele><time>2026-03-29T09:15:43.999Z</time></trkpt><trkpt lat="42.16527876386811" lon="14.677676205153015"><ele>52.66666666666667</ele><time>2026-03-29T09:15:44.999Z</time></trkpt><trkpt lat="42.1651919351855" lon="14.677425792642275"><ele>52.33333333333333</ele><time>2026-03-29T09:15:46Z</time></trkpt><trkpt lat="42.16516867399287" lon="14.677173406352194"><ele>52.0</ele><time>2026-03-29T09:15:47Z</time></trkpt><trkpt lat="42.165151796319996" lon="14.676912619938332"><ele>54.5</ele><time>2026-03-29T09:15:48Z</time></trkpt><trkpt lat="42.165134649898455" lon="14.676551357312519"><ele>57.0</ele><time>2026-03-29T09:15:49Z</time></trkpt><trkpt lat="42.165111739383256" lon="14.676267096882466"><ele>58.0</ele><time>2026-03-29T09:15:50Z</time></trkpt><trkpt lat="42.16510202863016" lon="14.675972865569028"><ele>59.0</ele><time>2026-03-29T09:15:51Z</time></trkpt><trkpt lat="42.16508911267083" lon="14.675728832733956"><ele>60.0</ele><time>2026-03-29T09:15:52Z</time></trkpt><trkpt lat="42.1650776936732" lon="14.675494951486508"><ele>60.0</ele><time>2026-03-29T09:15:53Z</time></trkpt><trkpt lat="42.16507140522118" lon="14.675269941483412"><ele>60.0</ele><time>2026-03-29T09:15:54Z</time></trkpt><trkpt lat="42.16506560778207" lon="14.675046541781146"><ele>60.0</ele><time>2026-03-29T09:15:55Z</time></trkpt><trkpt lat="42.165054945477706" lon="14.674817544393248"><ele>60.0</ele><time>2026-03-29T09:15:56Z</time></trkpt><trkpt lat="42.165047844269225" lon="14.674579285771596"><ele>60.0</ele><time>2026-03-29T09:15:57Z</time></trkpt><trkpt lat="42.165035876739566" lon="14.67431223254287"><ele>60.0</ele><time>2026-03-29T09:15:58Z</time></trkpt><trkpt lat="42.1650149037611" lon="14.67401407296606"><ele>61.5</ele><time>2026-03-29T09:15:59Z</time></trkpt><trkpt lat="42.16499886171178" lon="14.673705161484577"><ele>63.0</ele><time>2026-03-29T09:16:00Z</time></trkpt><trkpt lat="42.164985687642776" lon="14.673405355711699"><ele>64.0</ele><time>2026-03-29T09:16:01Z</time></trkpt><trkpt lat="42.16497917773395" lon="14.673100613439786"><ele>65.0</ele><time>2026-03-29T09:16:02Z</time></trkpt><trkpt lat="42.16496758911978" lon="14.67279908020016"><ele>65.5</ele><time>2026-03-29T09:16:03Z</time></trkpt><trkpt lat="42.16495605129438" lon="14.67248974467031"><ele>66.0</ele><time>2026-03-29T09:16:04Z</time></trkpt><trkpt lat="42.164938720120134" lon="14.672178212627834"><ele>67.5</ele><time>2026-03-29T09:16:05Z</time></trkpt><trkpt lat="42.164926719878004" lon="14.67186768889934"><ele>69.0</ele><time>2026-03-29T09:16:06Z</time></trkpt><trkpt lat="42.16491528842905" lon="14.67154973803072"><ele>69.0</ele><time>2026-03-29T09:16:07Z</time></trkpt><trkpt lat="42.16490257765407" lon="14.671236218283727"><ele>69.0</ele><time>2026-03-29T09:16:08Z</time></trkpt><trkpt lat="42.164892297765704" lon="14.670925756699635"><ele>69.0</ele><time>2026-03-29T09:16:09Z</time></trkpt><trkpt lat="42.16488316286537" lon="14.67064459810665"><ele>69.0</ele><time>2026-03-29T09:16:10Z</time></trkpt><trkpt lat="42.16488238661713" lon="14.67038682216862"><ele>69.0</ele><time>2026-03-29T09:16:11Z</time></trkpt><trkpt lat="42.16487625990068" lon="14.670121005862722"><ele>68.66666666666667</ele><time>2026-03-29T09:16:12Z</time></trkpt><trkpt lat="42.16486743168351" lon="14.669850007363012"><ele>68.33333333333334</ele><time>2026-03-29T09:16:13Z</time></trkpt><trkpt lat="42.16486354346954" lon="14.669584379208453"><ele>68.0</ele><time>2026-03-29T09:16:14Z</time></trkpt><trkpt lat="42.16485963002794" lon="14.669328719079003"><ele>68.66666666666667</ele><time>2026-03-29T09:16:15Z</time></trkpt><trkpt lat="42.164870311131985" lon="14.66907776591947"><ele>69.33333333333333</ele><time>2026-03-29T09:16:16Z</time></trkpt><trkpt lat="42.16488970807659" lon="14.66881780759422"><ele>70.0</ele><time>2026-03-29T09:16:17Z</time></trkpt><trkpt lat="42.164921817066414" lon="14.668561487641478"><ele>70.66666666666666</ele><time>2026-03-29T09:16:18Z</time></trkpt><trkpt lat="42.164966994630014" lon="14.668304764239979"><ele>71.33333333333333</ele><time>2026-03-29T09:16:19Z</time></trkpt><trkpt lat="42.1650132265166" lon="14.66804796120246"><ele>72.0</ele><time>2026-03-29T09:16:20Z</time></trkpt><trkpt lat="42.165062616185224" lon="14.667792043784416"><ele>72.33333333333333</ele><time>2026-03-29T09:16:21Z</time></trkpt><trkpt lat="42.165108022724645" lon="14.667527324171575"><ele>72.66666666666666</ele><time>2026-03-29T09:16:22Z</time></trkpt><trkpt lat="42.16514814323451" lon="14.667267363285719"><ele>73.0</ele><time>2026-03-29T09:16:23Z</time></trkpt><trkpt lat="42.16518785348368" lon="14.667012255373985"><ele>73.33333333333333</ele><time>2026-03-29T09:16:24Z</time></trkpt><trkpt lat="42.16522722575209" lon="14.666764769991602"><ele>73.66666666666667</ele><time>2026-03-29T09:16:25Z</time></trkpt><trkpt lat="42.16526416690516" lon="14.666529230396195"><ele>74.0</ele><time>2026-03-29T09:16:26Z</time></trkpt><trkpt lat="42.16530690715003" lon="14.66629641812405"><ele>74.0</ele><time>2026-03-29T09:16:27Z</time></trkpt><trkpt lat="42.16535366081579" lon="14.666064891071484"><ele>74.0</ele><time>2026-03-29T09:16:28Z</time></trkpt><trkpt lat="42.16542393593687" lon="14.665850554314192"><ele>74.0</ele><time>2026-03-29T09:16:29Z</time></trkpt><trkpt lat="42.16548634929451" lon="14.665637242722347"><ele>74.0</ele><time>2026-03-29T09:16:30Z</time></trkpt><trkpt lat="42.165537337728" lon="14.665420630375223"><ele>74.0</ele><time>2026-03-29T09:16:31Z</time></trkpt><trkpt lat="42.165601806365316" lon="14.66521265931384"><ele>74.0</ele><time>2026-03-29T09:16:32Z</time></trkpt><trkpt lat="42.1656647570539" lon="14.66500455459969"><ele>74.0</ele><time>2026-03-29T09:16:33Z</time></trkpt><trkpt lat="42.16572614214308" lon="14.66479625459932"><ele>74.0</ele><time>2026-03-29T09:16:34Z</time></trkpt><trkpt lat="42.1657882743622" lon="14.664589304744272"><ele>74.0</ele><time>2026-03-29T09:16:35Z</time></trkpt><trkpt lat="42.165848417884746" lon="14.664384787307059"><ele>74.66666666666667</ele><time>2026-03-29T09:16:36Z</time></trkpt><trkpt lat="42.16590815492409" lon="14.664181912636115"><ele>75.33333333333333</ele><time>2026-03-29T09:16:37Z</time></trkpt><trkpt lat="42.16596640439773" lon="14.66398389039691"><ele>76.0</ele><time>2026-03-29T09:16:38Z</time></trkpt><trkpt lat="42.16601888266383" lon="14.663802736694835"><ele>76.0</ele><time>2026-03-29T09:16:39Z</time></trkpt><trkpt lat="42.166065355719006" lon="14.663635238567094"><ele>76.0</ele><time>2026-03-29T09:16:40Z</time></trkpt><trkpt lat="42.166109610677786" lon="14.663481721615149"><ele>76.0</ele><time>2026-03-29T09:16:41Z</time></trkpt><trkpt lat="42.16615666651816" lon="14.663324274931716"><ele>76.0</ele><time>2026-03-29T09:16:42Z</time></trkpt><trkpt lat="42.166202485547" lon="14.663173010856132"><ele>76.0</ele><time>2026-03-29T09:16:43Z</time></trkpt><trkpt lat="42.1662446698815" lon="14.663030362273515"><ele>76.0</ele><time>2026-03-29T09:16:44Z</time></trkpt><trkpt lat="42.16628649163021" lon="14.662910784843383"><ele>76.0</ele><time>2026-03-29T09:16:45Z</time></trkpt><trkpt lat="42.1663210545519" lon="14.662808266322097"><ele>76.0</ele><time>2026-03-29T09:16:45.999Z</time></trkpt><trkpt lat="42.166366023252536" lon="14.6627290555415"><ele>76.0</ele><time>2026-03-29T09:16:46.999Z</time></trkpt><trkpt lat="42.16642115294534" lon="14.662668890593318"><ele>76.0</ele><time>2026-03-29T09:16:47.999Z</time></trkpt><trkpt lat="42.16648579545728" lon="14.662611938005211"><ele>75.57142857142857</ele><time>2026-03-29T09:16:48.999Z</time></trkpt><trkpt lat="42.166548845487426" lon="14.662564726732228"><ele>75.14285714285715</ele><time>2026-03-29T09:16:49.999Z</time></trkpt><trkpt lat="42.166591239651424" lon="14.662501215665117"><ele>74.71428571428572</ele><time>2026-03-29T09:16:50.999Z</time></trkpt><trkpt lat="42.16661330936635" lon="14.662418113444435"><ele>74.28571428571428</ele><time>2026-03-29T09:16:51.999Z</time></trkpt><trkpt lat="42.16661729616279" lon="14.66231504641969"><ele>73.85714285714286</ele><time>2026-03-29T09:16:52.999Z</time></trkpt><trkpt lat="42.16660202937708" lon="14.662202322150737"><ele>73.42857142857143</ele><time>2026-03-29T09:16:53.999Z</time></trkpt><trkpt lat="42.16658014763795" lon="14.662090036439375"><ele>73.0</ele><time>2026-03-29T09:16:54.999Z</time></trkpt><trkpt lat="42.16658017401754" lon="14.661975224409536"><ele>73.2</ele><time>2026-03-29T09:16:55.999Z</time></trkpt><trkpt lat="42.16659917139383" lon="14.66185189960635"><ele>73.4</ele><time>2026-03-29T09:16:56.999Z</time></trkpt><trkpt lat="42.166634383285036" lon="14.661726794131628"><ele>73.60000000000001</ele><time>2026-03-29T09:16:57.999Z</time></trkpt><trkpt lat="42.16667697082716" lon="14.661586268934508"><ele>73.8</ele><time>2026-03-29T09:16:58.999Z</time></trkpt><trkpt lat="42.16672140307112" lon="14.661433786332163"><ele>74.0</ele><time>2026-03-29T09:16:59.999Z</time></trkpt><trkpt lat="42.16676510142496" lon="14.661285614246264"><ele>74.0</ele><time>2026-03-29T09:17:00.999Z</time></trkpt><trkpt lat="42.166809682802054" lon="14.661132169255849"><ele>74.0</ele><time>2026-03-29T09:17:01.999Z</time></trkpt><trkpt lat="42.166855336164645" lon="14.660977456683039"><ele>74.0</ele><time>2026-03-29T09:17:02.999Z</time></trkpt><trkpt lat="42.16690060416771" lon="14.660824965698083"><ele>74.0</ele><time>2026-03-29T09:17:03.999Z</time></trkpt><trkpt lat="42.16694486518817" lon="14.660665684607173"><ele>74.75</ele><time>2026-03-29T09:17:04.999Z</time></trkpt><trkpt lat="42.16699421247309" lon="14.660503570704545"><ele>75.5</ele><time>2026-03-29T09:17:05.999Z</time></trkpt><trkpt lat="42.16704064299831" lon="14.660339567832283"><ele>76.25</ele><time>2026-03-29T09:17:06.999Z</time></trkpt><trkpt lat="42.16708720224777" lon="14.660178703289622"><ele>77.0</ele><time>2026-03-29T09:17:07.999Z</time></trkpt><trkpt lat="42.16713602094336" lon="14.660011801158014"><ele>77.66666666666667</ele><time>2026-03-29T09:17:08.999Z</time></trkpt><trkpt lat="42.16718923347909" lon="14.659835429759552"><ele>78.33333333333333</ele><time>2026-03-29T09:17:09.999Z</time></trkpt><trkpt lat="42.16724514822745" lon="14.659640218335031"><ele>79.0</ele><time>2026-03-29T09:17:10.999Z</time></trkpt><trkpt lat="42.167305980143645" lon="14.659437205479946"><ele>78.0</ele><time>2026-03-29T09:17:11.999Z</time></trkpt><trkpt lat="42.167362562486346" lon="14.659246025694795"><ele>77.0</ele><time>2026-03-29T09:17:12.999Z</time></trkpt><trkpt lat="42.16741634151371" lon="14.65905673023246"><ele>76.0</ele><time>2026-03-29T09:17:13.999Z</time></trkpt><trkpt lat="42.16747033383074" lon="14.658868969852662"><ele>76.0</ele><time>2026-03-29T09:17:14.999Z</time></trkpt><trkpt lat="42.16752310565398" lon="14.658680210328495"><ele>76.0</ele><time>2026-03-29T09:17:15.999Z</time></trkpt><trkpt lat="42.16757952290812" lon="14.65848639892067"><ele>76.0</ele><time>2026-03-29T09:17:16.999Z</time></trkpt><trkpt lat="42.16762810931273" lon="14.65828590132078"><ele>76.33333333333333</ele><time>2026-03-29T09:17:17.999Z</time></trkpt><trkpt lat="42.167667244870806" lon="14.658078314768467"><ele>76.66666666666667</ele><time>2026-03-29T09:17:18.999Z</time></trkpt><trkpt lat="42.16769604797004" lon="14.65786688789531"><ele>77.0</ele><time>2026-03-29T09:17:19.999Z</time></trkpt><trkpt lat="42.1677137984281" lon="14.65764425188692"><ele>78.0</ele><time>2026-03-29T09:17:20.999Z</time></trkpt><trkpt lat="42.167725714046696" lon="14.657411309961226"><ele>79.0</ele><time>2026-03-29T09:17:21.999Z</time></trkpt><trkpt lat="42.167729224472254" lon="14.657173202530041"><ele>80.0</ele><time>2026-03-29T09:17:22.999Z</time></trkpt><trkpt lat="42.167716251946075" lon="14.656930454700559"><ele>80.0</ele><time>2026-03-29T09:17:23.999Z</time></trkpt><trkpt lat="42.16769441401531" lon="14.65668601719394"><ele>80.0</ele><time>2026-03-29T09:17:24.999Z</time></trkpt><trkpt lat="42.16765999221062" lon="14.656449497863317"><ele>80.0</ele><time>2026-03-29T09:17:25.999Z</time></trkpt><trkpt lat="42.16761417779364" lon="14.656219777653678"><ele>77.33333333333334</ele><time>2026-03-29T09:17:26.999Z</time></trkpt><trkpt lat="42.16755641685151" lon="14.655993474517853"><ele>74.66666666666667</ele><time>2026-03-29T09:17:27.999Z</time></trkpt><trkpt lat="42.16748801494212" lon="14.655773785820982"><ele>72.0</ele><time>2026-03-29T09:17:28.999Z</time></trkpt><trkpt lat="42.16740925985718" lon="14.655559723328366"><ele>72.0</ele><time>2026-03-29T09:17:29.999Z</time></trkpt><trkpt lat="42.16732069235552" lon="14.655352697822297"><ele>72.0</ele><time>2026-03-29T09:17:30.999Z</time></trkpt><trkpt lat="42.16722217962233" lon="14.65515251063787"><ele>72.0</ele><time>2026-03-29T09:17:31.999Z</time></trkpt><trkpt lat="42.167115051785856" lon="14.654966137677638"><ele>68.0</ele><time>2026-03-29T09:17:32.999Z</time></trkpt><trkpt lat="42.166998780502425" lon="14.654792121408377"><ele>64.0</ele><time>2026-03-29T09:17:33.999Z</time></trkpt><trkpt lat="42.16687519882409" lon="14.654627188832615"><ele>60.0</ele><time>2026-03-29T09:17:34.999Z</time></trkpt><trkpt lat="42.16674247769244" lon="14.654468186450362"><ele>60.0</ele><time>2026-03-29T09:17:35.999Z</time></trkpt><trkpt lat="42.166607318599254" lon="14.654325610905541"><ele>60.0</ele><time>2026-03-29T09:17:36.999Z</time></trkpt><trkpt lat="42.16646963964395" lon="14.65419616154811"><ele>60.0</ele><time>2026-03-29T09:17:37.999Z</time></trkpt><trkpt lat="42.16632775306987" lon="14.654071177977661"><ele>62.66666666666667</ele><time>2026-03-29T09:17:38.999Z</time></trkpt><trkpt lat="42.16618306657495" lon="14.653951124803777"><ele>65.33333333333334</ele><time>2026-03-29T09:17:39.999Z</time></trkpt><trkpt lat="42.16603388421724" lon="14.653831202642897"><ele>68.0</ele><time>2026-03-29T09:17:40.999Z</time></trkpt><trkpt lat="42.165881956606526" lon="14.653707394517157"><ele>65.0</ele><time>2026-03-29T09:17:41.999Z</time></trkpt><trkpt lat="42.165728045366805" lon="14.65357859820303"><ele>62.0</ele><time>2026-03-29T09:17:42.999Z</time></trkpt><trkpt lat="42.16557318251756" lon="14.653447391215149"><ele>59.0</ele><time>2026-03-29T09:17:43.999Z</time></trkpt><trkpt lat="42.16541410612585" lon="14.653313108848785"><ele>59.0</ele><time>2026-03-29T09:17:44.999Z</time></trkpt><trkpt lat="42.165262839833275" lon="14.653182761840108"><ele>59.0</ele><time>2026-03-29T09:17:45.999Z</time></trkpt><trkpt lat="42.16511176951345" lon="14.653050035069445"><ele>59.0</ele><time>2026-03-29T09:17:46.999Z</time></trkpt><trkpt lat="42.16496253327666" lon="14.652905721470189"><ele>53.66666666666667</ele><time>2026-03-29T09:17:47.999Z</time></trkpt><trkpt lat="42.164815547237374" lon="14.652741833902574"><ele>48.333333333333336</ele><time>2026-03-29T09:17:48.999Z</time></trkpt><trkpt lat="42.1646702732427" lon="14.65256276120937"><ele>43.0</ele><time>2026-03-29T09:17:49.999Z</time></trkpt><trkpt lat="42.16453024774127" lon="14.652367703551047"><ele>43.0</ele><time>2026-03-29T09:17:50.999Z</time></trkpt><trkpt lat="42.1643984219111" lon="14.65215874224541"><ele>43.0</ele><time>2026-03-29T09:17:52Z</time></trkpt><trkpt lat="42.16427873715768" lon="14.651933555514859"><ele>43.0</ele><time>2026-03-29T09:17:53Z</time></trkpt><trkpt lat="42.16417220750237" lon="14.65169523983293"><ele>38.66666666666667</ele><time>2026-03-29T09:17:54Z</time></trkpt><trkpt lat="42.16407385382896" lon="14.6514489311462"><ele>34.333333333333336</ele><time>2026-03-29T09:17:55Z</time></trkpt><trkpt lat="42.163983274775084" lon="14.651197639609396"><ele>30.0</ele><time>2026-03-29T09:17:56Z</time></trkpt><trkpt lat="42.163905105853445" lon="14.650936714305596"><ele>27.333333333333332</ele><time>2026-03-29T09:17:57Z</time></trkpt><trkpt lat="42.163841952940764" lon="14.65066571872908"><ele>24.666666666666664</ele><time>2026-03-29T09:17:58Z</time></trkpt><trkpt lat="42.16379473386142" lon="14.650388278656594"><ele>22.0</ele><time>2026-03-29T09:17:59Z</time></trkpt><trkpt lat="42.16376335500981" lon="14.650111353760055"><ele>22.0</ele><time>2026-03-29T09:18:00Z</time></trkpt><trkpt lat="42.163742913922" lon="14.649833185252984"><ele>22.0</ele><time>2026-03-29T09:18:01Z</time></trkpt><trkpt lat="42.16374113739255" lon="14.649558642557501"><ele>22.0</ele><time>2026-03-29T09:18:02Z</time></trkpt><trkpt lat="42.163751410825896" lon="14.649283805082264"><ele>22.0</ele><time>2026-03-29T09:18:03Z</time></trkpt><trkpt lat="42.16377034009175" lon="14.64901045850681"><ele>22.0</ele><time>2026-03-29T09:18:04Z</time></trkpt><trkpt lat="42.16379354283418" lon="14.648737328950956"><ele>22.0</ele><time>2026-03-29T09:18:05Z</time></trkpt><trkpt lat="42.16381936699776" lon="14.648466509069813"><ele>22.0</ele><time>2026-03-29T09:18:06Z</time></trkpt><trkpt lat="42.16384641121856" lon="14.648197550126167"><ele>22.0</ele><time>2026-03-29T09:18:07Z</time></trkpt><trkpt lat="42.1638682765302" lon="14.647935079963776"><ele>22.0</ele><time>2026-03-29T09:18:08Z</time></trkpt><trkpt lat="42.16389288521061" lon="14.647677162028353"><ele>21.333333333333332</ele><time>2026-03-29T09:18:09Z</time></trkpt><trkpt lat="42.16391491502151" lon="14.647423576549022"><ele>20.666666666666668</ele><time>2026-03-29T09:18:10Z</time></trkpt><trkpt lat="42.16393823192981" lon="14.647181289441443"><ele>20.0</ele><time>2026-03-29T09:18:11Z</time></trkpt><trkpt lat="42.163960308018375" lon="14.64695022898656"><ele>20.0</ele><time>2026-03-29T09:18:12Z</time></trkpt><trkpt lat="42.16398019939889" lon="14.64674700606794"><ele>20.0</ele><time>2026-03-29T09:18:13Z</time></trkpt><trkpt lat="42.1639929150179" lon="14.646594406981828"><ele>20.0</ele><time>2026-03-29T09:18:14Z</time></trkpt><trkpt lat="42.16400151168618" lon="14.646459428325908"><ele>20.0</ele><time>2026-03-29T09:18:15Z</time></trkpt><trkpt lat="42.16400943151213" lon="14.646322057185486"><ele>20.0</ele><time>2026-03-29T09:18:16Z</time></trkpt><trkpt lat="42.164015022969636" lon="14.646148122584085"><ele>20.0</ele><time>2026-03-29T09:18:17Z</time></trkpt><trkpt lat="42.16401718864515" lon="14.645933182519997"><ele>20.0</ele><time>2026-03-29T09:18:18Z</time></trkpt><trkpt lat="42.16401244364866" lon="14.645724509729506"><ele>20.0</ele><time>2026-03-29T09:18:19Z</time></trkpt><trkpt lat="42.16400835255727" lon="14.645523790356194"><ele>19.5</ele><time>2026-03-29T09:18:20Z</time></trkpt><trkpt lat="42.164005240196445" lon="14.64532293523482"><ele>19.0</ele><time>2026-03-29T09:18:21Z</time></trkpt><trkpt lat="42.16399610763667" lon="14.645117410446797"><ele>18.5</ele><time>2026-03-29T09:18:22Z</time></trkpt><trkpt lat="42.163989129409714" lon="14.644918164956039"><ele>18.0</ele><time>2026-03-29T09:18:23Z</time></trkpt><trkpt lat="42.16398668565923" lon="14.64471636140426"><ele>17.666666666666668</ele><time>2026-03-29T09:18:24Z</time></trkpt><trkpt lat="42.163976927041716" lon="14.644511767515393"><ele>17.333333333333336</ele><time>2026-03-29T09:18:25Z</time></trkpt><trkpt lat="42.16396845857039" lon="14.64429766757878"><ele>17.0</ele><time>2026-03-29T09:18:26Z</time></trkpt><trkpt lat="42.16395965690437" lon="14.644076155877732"><ele>17.0</ele><time>2026-03-29T09:18:27Z</time></trkpt><trkpt lat="42.16395290299845" lon="14.64385451441428"><ele>17.0</ele><time>2026-03-29T09:18:28Z</time></trkpt><trkpt lat="42.16394392461439" lon="14.643633953777051"><ele>17.0</ele><time>2026-03-29T09:18:29Z</time></trkpt><trkpt lat="42.1639375931482" lon="14.643417318354789"><ele>18.0</ele><time>2026-03-29T09:18:30Z</time></trkpt><trkpt lat="42.16393032891177" lon="14.643212280536591"><ele>19.0</ele><time>2026-03-29T09:18:31Z</time></trkpt><trkpt lat="42.16392308321319" lon="14.643009186141668"><ele>20.0</ele><time>2026-03-29T09:18:32Z</time></trkpt><trkpt lat="42.16391673175611" lon="14.642802837632889"><ele>20.0</ele><time>2026-03-29T09:18:33Z</time></trkpt><trkpt lat="42.16391302198477" lon="14.642591669123435"><ele>20.0</ele><time>2026-03-29T09:18:34Z</time></trkpt><trkpt lat="42.16391298750428" lon="14.642387907429518"><ele>20.0</ele><time>2026-03-29T09:18:35Z</time></trkpt><trkpt lat="42.16391326483074" lon="14.64219346991326"><ele>20.0</ele><time>2026-03-29T09:18:36Z</time></trkpt><trkpt lat="42.16391584288979" lon="14.642010536190813"><ele>20.0</ele><time>2026-03-29T09:18:37Z</time></trkpt><trkpt lat="42.16392662333419" lon="14.641848040310801"><ele>20.0</ele><time>2026-03-29T09:18:38Z</time></trkpt><trkpt lat="42.1639430899139" lon="14.641707318706663"><ele>20.0</ele><time>2026-03-29T09:18:39Z</time></trkpt><trkpt lat="42.16396274422418" lon="14.641559068153688"><ele>20.0</ele><time>2026-03-29T09:18:40Z</time></trkpt><trkpt lat="42.16399957650029" lon="14.64144687011326"><ele>20.0</ele><time>2026-03-29T09:18:41Z</time></trkpt><trkpt lat="42.16403220440844" lon="14.641365605584417"><ele>20.0</ele><time>2026-03-29T09:18:42Z</time></trkpt><trkpt lat="42.164110499392564" lon="14.641227315412685"><ele>20.0</ele><time>2026-03-29T09:18:43.999Z</time></trkpt><trkpt lat="42.16419024300139" lon="14.641135558816215"><ele>20.0</ele><time>2026-03-29T09:18:44.999Z</time></trkpt><trkpt lat="42.164266091529946" lon="14.641014402313786"><ele>20.0</ele><time>2026-03-29T09:18:45.999Z</time></trkpt><trkpt lat="42.16432487976092" lon="14.640895799863411"><ele>20.0</ele><time>2026-03-29T09:18:46.999Z</time></trkpt><trkpt lat="42.164399001957065" lon="14.640780818541403"><ele>20.0</ele><time>2026-03-29T09:18:47.999Z</time></trkpt><trkpt lat="42.16449557006878" lon="14.640684623623061"><ele>20.0</ele><time>2026-03-29T09:18:48.999Z</time></trkpt><trkpt lat="42.164621620572646" lon="14.640610615092932"><ele>20.0</ele><time>2026-03-29T09:18:49.999Z</time></trkpt><trkpt lat="42.164774811604886" lon="14.640543074330246"><ele>20.0</ele><time>2026-03-29T09:18:50.999Z</time></trkpt><trkpt lat="42.164966690681716" lon="14.640466408067773"><ele>20.0</ele><time>2026-03-29T09:18:51.999Z</time></trkpt><trkpt lat="42.16517964866631" lon="14.640423565938706"><ele>19.666666666666668</ele><time>2026-03-29T09:18:52.999Z</time></trkpt><trkpt lat="42.16538254851825" lon="14.640381680100429"><ele>19.333333333333332</ele><time>2026-03-29T09:18:53.999Z</time></trkpt><trkpt lat="42.16560116833901" lon="14.640341461747225"><ele>19.0</ele><time>2026-03-29T09:18:54.999Z</time></trkpt><trkpt lat="42.1658312307245" lon="14.64030146214678"><ele>18.5</ele><time>2026-03-29T09:18:55.999Z</time></trkpt><trkpt lat="42.16606454997955" lon="14.640244074829635"><ele>18.0</ele><time>2026-03-29T09:18:56.999Z</time></trkpt><trkpt lat="42.16629545125096" lon="14.640213172488867"><ele>18.0</ele><time>2026-03-29T09:18:57.999Z</time></trkpt><trkpt lat="42.1665196521473" lon="14.640179954391359"><ele>18.0</ele><time>2026-03-29T09:18:58.999Z</time></trkpt><trkpt lat="42.16674732452575" lon="14.640142056813314"><ele>17.5</ele><time>2026-03-29T09:18:59.999Z</time></trkpt><trkpt lat="42.166977540852734" lon="14.640101382622722"><ele>17.0</ele><time>2026-03-29T09:19:00.999Z</time></trkpt><trkpt lat="42.16720331126067" lon="14.640066844069114"><ele>17.0</ele><time>2026-03-29T09:19:01.999Z</time></trkpt><trkpt lat="42.16742627870734" lon="14.640025707846524"><ele>17.0</ele><time>2026-03-29T09:19:02.999Z</time></trkpt><trkpt lat="42.16765123687256" lon="14.639986674387796"><ele>17.0</ele><time>2026-03-29T09:19:03.999Z</time></trkpt><trkpt lat="42.16786883033645" lon="14.639950095471653"><ele>17.0</ele><time>2026-03-29T09:19:04.999Z</time></trkpt><trkpt lat="42.16808705843173" lon="14.63993347307849"><ele>17.0</ele><time>2026-03-29T09:19:05.999Z</time></trkpt><trkpt lat="42.16829352791083" lon="14.639899755638302"><ele>17.333333333333336</ele><time>2026-03-29T09:19:06.999Z</time></trkpt><trkpt lat="42.16849767363204" lon="14.639866417677732"><ele>17.666666666666668</ele><time>2026-03-29T09:19:07.999Z</time></trkpt><trkpt lat="42.16869003867658" lon="14.639835003559448"><ele>18.0</ele><time>2026-03-29T09:19:08.999Z</time></trkpt><trkpt lat="42.16887029468555" lon="14.639805750432371"><ele>18.0</ele><time>2026-03-29T09:19:09.999Z</time></trkpt><trkpt lat="42.16905392819757" lon="14.639776356548337"><ele>18.0</ele><time>2026-03-29T09:19:10.999Z</time></trkpt><trkpt lat="42.16923372530792" lon="14.639747576748633"><ele>18.0</ele><time>2026-03-29T09:19:11.999Z</time></trkpt><trkpt lat="42.169414468787906" lon="14.639718222316823"><ele>18.0</ele><time>2026-03-29T09:19:12.999Z</time></trkpt><trkpt lat="42.169595791051286" lon="14.639688146828169"><ele>18.0</ele><time>2026-03-29T09:19:13.999Z</time></trkpt><trkpt lat="42.16976365302322" lon="14.639660303964389"><ele>18.0</ele><time>2026-03-29T09:19:14.999Z</time></trkpt><trkpt lat="42.16991201806268" lon="14.639635696626451"><ele>17.6</ele><time>2026-03-29T09:19:15.999Z</time></trkpt><trkpt lat="42.17002434093024" lon="14.639617065916465"><ele>17.200000000000003</ele><time>2026-03-29T09:19:16.999Z</time></trkpt><trkpt lat="42.170115436168786" lon="14.639601956133598"><ele>16.8</ele><time>2026-03-29T09:19:17.999Z</time></trkpt><trkpt lat="42.17018942568129" lon="14.639589683711982"><ele>16.400000000000002</ele><time>2026-03-29T09:19:18.999Z</time></trkpt><trkpt lat="42.17026825157581" lon="14.639566694883719"><ele>16.0</ele><time>2026-03-29T09:19:19.999Z</time></trkpt><trkpt lat="42.170385646879986" lon="14.639538659919218"><ele>16.0</ele><time>2026-03-29T09:19:21.999Z</time></trkpt><trkpt lat="42.170496339230944" lon="14.639538776694096"><ele>16.0</ele><time>2026-03-29T09:19:23.999Z</time></trkpt><trkpt lat="42.17056202792705" lon="14.639527881105554"><ele>16.0</ele><time>2026-03-29T09:19:25.999Z</time></trkpt><trkpt lat="42.17052754611444" lon="14.63924462867371"><ele>16.0</ele><time>2026-03-29T09:19:28.999Z</time></trkpt><trkpt lat="42.17051898630535" lon="14.63911493938837"><ele>16.0</ele><time>2026-03-29T09:19:30.999Z</time></trkpt><trkpt lat="42.170511506813526" lon="14.63901101364433"><ele>16.0</ele><time>2026-03-29T09:19:32.999Z</time></trkpt><trkpt lat="42.170503793565146" lon="14.638897852165481"><ele>16.0</ele><time>2026-03-29T09:19:35.999Z</time></trkpt><trkpt lat="42.1706461440113" lon="14.638780521444732"><ele>16.0</ele><time>2026-03-29T09:19:36.999Z</time></trkpt><trkpt lat="42.17067746625555" lon="14.638861354693914"><ele>16.0</ele><time>2026-03-29T09:19:37.999Z</time></trkpt><trkpt lat="42.1708991236367" lon="14.638959690483759"><ele>16.0</ele><time>2026-03-29T09:21:51.999Z</time></trkpt><trkpt lat="42.170912853764264" lon="14.639134128262123"><ele>16.0</ele><time>2026-03-29T09:21:53.999Z</time></trkpt><trkpt lat="42.17091978535911" lon="14.639220264414368"><ele>16.0</ele><time>2026-03-29T09:21:54.999Z</time></trkpt><trkpt lat="42.170929029718025" lon="14.63933514010067"><ele>16.0</ele><time>2026-03-29T09:21:56.999Z</time></trkpt><trkpt lat="42.17094346385714" lon="14.639438545720699"><ele>16.0</ele><time>2026-03-29T09:22:12Z</time></trkpt><trkpt lat="42.17105993400568" lon="14.639439109066577"><ele>16.0</ele><time>2026-03-29T09:22:13Z</time></trkpt><trkpt lat="42.17117454644911" lon="14.63941805099754"><ele>16.0</ele><time>2026-03-29T09:22:14Z</time></trkpt><trkpt lat="42.17132261318594" lon="14.639385916292925"><ele>16.0</ele><time>2026-03-29T09:22:15Z</time></trkpt><trkpt lat="42.17147807234531" lon="14.639354715568382"><ele>16.0</ele><time>2026-03-29T09:22:16Z</time></trkpt><trkpt lat="42.1716733970553" lon="14.639323026907762"><ele>15.666666666666666</ele><time>2026-03-29T09:22:17Z</time></trkpt><trkpt lat="42.17186851581948" lon="14.639291961666084"><ele>15.333333333333332</ele><time>2026-03-29T09:22:18Z</time></trkpt><trkpt lat="42.172068240288404" lon="14.639281072533887"><ele>15.0</ele><time>2026-03-29T09:22:19Z</time></trkpt><trkpt lat="42.1794762885129" lon="14.641422282437942"><ele>13.6</ele><time>2026-03-29T09:23:19.999Z</time></trkpt><trkpt lat="42.17956300939536" lon="14.641476576533755"><ele>12.2</ele><time>2026-03-29T09:23:20.999Z</time></trkpt><trkpt lat="42.17964681177864" lon="14.641539669788287"><ele>10.8</ele><time>2026-03-29T09:23:21.999Z</time></trkpt><trkpt lat="42.179721551683215" lon="14.641616393194402"><ele>9.4</ele><time>2026-03-29T09:23:22.999Z</time></trkpt><trkpt lat="42.17977119396028" lon="14.6417238392798"><ele>8.0</ele><time>2026-03-29T09:23:23.999Z</time></trkpt><trkpt lat="42.179838982811056" lon="14.641807312051453"><ele>8.0</ele><time>2026-03-29T09:23:24.999Z</time></trkpt><trkpt lat="42.179892708533174" lon="14.641904088710097"><ele>8.0</ele><time>2026-03-29T09:23:25.999Z</time></trkpt><trkpt lat="42.179948793862934" lon="14.642001803830128"><ele>8.0</ele><time>2026-03-29T09:23:26.999Z</time></trkpt><trkpt lat="42.18000273244895" lon="14.6421092326782"><ele>8.0</ele><time>2026-03-29T09:23:27.999Z</time></trkpt><trkpt lat="42.18004983980739" lon="14.642216122481907"><ele>8.0</ele><time>2026-03-29T09:23:28.999Z</time></trkpt><trkpt lat="42.180091201764185" lon="14.642327089535039"><ele>7.999999999999999</ele><time>2026-03-29T09:23:29.999Z</time></trkpt><trkpt lat="42.180125573471756" lon="14.642436411471547"><ele>8.0</ele><time>2026-03-29T09:23:30.999Z</time></trkpt><trkpt lat="42.18015393735185" lon="14.642542472720647"><ele>8.0</ele><time>2026-03-29T09:23:31.999Z</time></trkpt><trkpt lat="42.18017450338712" lon="14.642652144976383"><ele>8.0</ele><time>2026-03-29T09:23:32.999Z</time></trkpt><trkpt lat="42.1801826567575" lon="14.64275735808134"><ele>7.999999999999999</ele><time>2026-03-29T09:23:33.999Z</time></trkpt><trkpt lat="42.18018337969316" lon="14.64286142325863"><ele>8.0</ele><time>2026-03-29T09:23:34.999Z</time></trkpt><trkpt lat="42.18018079348291" lon="14.643019410909503"><ele>7.857142857142857</ele><time>2026-03-29T09:23:36.999Z</time></trkpt><trkpt lat="42.18018475252942" lon="14.64310831771307"><ele>7.7142857142857135</ele><time>2026-03-29T09:23:37.999Z</time></trkpt><trkpt lat="42.18018915793067" lon="14.64320148461289"><ele>7.571428571428571</ele><time>2026-03-29T09:23:38.999Z</time></trkpt><trkpt lat="42.180191725755485" lon="14.643296051589797"><ele>7.428571428571429</ele><time>2026-03-29T09:23:39.999Z</time></trkpt><trkpt lat="42.1801944965069" lon="14.643391225159654"><ele>7.285714285714286</ele><time>2026-03-29T09:23:40.999Z</time></trkpt><trkpt lat="42.180195998625024" lon="14.643482688196661"><ele>7.142857142857142</ele><time>2026-03-29T09:23:41.999Z</time></trkpt><trkpt lat="42.180194359069525" lon="14.643569100729009"><ele>7.0</ele><time>2026-03-29T09:23:42.999Z</time></trkpt><trkpt lat="42.18019095127382" lon="14.64365453290717"><ele>7.000000000000001</ele><time>2026-03-29T09:23:43.999Z</time></trkpt><trkpt lat="42.180207302762476" lon="14.643817444024663"><ele>7.0</ele><time>2026-03-29T09:23:45.999Z</time></trkpt><trkpt lat="42.18024062839232" lon="14.643890770439814"><ele>7.0</ele><time>2026-03-29T09:23:46.999Z</time></trkpt><trkpt lat="42.18027741686222" lon="14.643972420323921"><ele>7.0</ele><time>2026-03-29T09:23:47.999Z</time></trkpt><trkpt lat="42.18035179215894" lon="14.644042856204988"><ele>7.000000000000001</ele><time>2026-03-29T09:23:48.999Z</time></trkpt><trkpt lat="42.18041671125497" lon="14.644057272162625"><ele>7.0</ele><time>2026-03-29T09:23:49.999Z</time></trkpt><trkpt lat="42.180498973354446" lon="14.644073350176692"><ele>7.0</ele><time>2026-03-29T09:23:50.999Z</time></trkpt><trkpt lat="42.18058731537087" lon="14.644130449439427"><ele>6.999999999999999</ele><time>2026-03-29T09:23:51.999Z</time></trkpt><trkpt lat="42.18067781907822" lon="14.644166246309464"><ele>6.999999999999999</ele><time>2026-03-29T09:23:52.999Z</time></trkpt><trkpt lat="42.180776452845244" lon="14.644205819701881"><ele>7.0</ele><time>2026-03-29T09:23:53.999Z</time></trkpt><trkpt lat="42.18089609348734" lon="14.644255986308718"><ele>7.0</ele><time>2026-03-29T09:23:54.999Z</time></trkpt><trkpt lat="42.18103755997412" lon="14.644315997094886"><ele>7.0</ele><time>2026-03-29T09:23:55.999Z</time></trkpt><trkpt lat="42.181185142632344" lon="14.644379469731705"><ele>7.0</ele><time>2026-03-29T09:23:56.999Z</time></trkpt><trkpt lat="42.18133115804959" lon="14.644417313425343"><ele>7.0</ele><time>2026-03-29T09:23:57.999Z</time></trkpt><trkpt lat="42.18146136804608" lon="14.644481876221121"><ele>7.0</ele><time>2026-03-29T09:23:58.999Z</time></trkpt><trkpt lat="42.18158443613809" lon="14.644531798603717"><ele>7.0</ele><time>2026-03-29T09:23:59.999Z</time></trkpt><trkpt lat="42.181702394526106" lon="14.6445621549161"><ele>7.0</ele><time>2026-03-29T09:24:00.999Z</time></trkpt><trkpt lat="42.18181486031712" lon="14.644594672250284"><ele>7.0</ele><time>2026-03-29T09:24:01.999Z</time></trkpt><trkpt lat="42.18192217575887" lon="14.64461854647722"><ele>7.0</ele><time>2026-03-29T09:24:02.999Z</time></trkpt><trkpt lat="42.18202850484661" lon="14.644634032193242"><ele>7.000000000000001</ele><time>2026-03-29T09:24:03.999Z</time></trkpt><trkpt lat="42.182128229735646" lon="14.644648077901227"><ele>7.0</ele><time>2026-03-29T09:24:04.999Z</time></trkpt><trkpt lat="42.182211905641275" lon="14.644652722597533"><ele>7.0</ele><time>2026-03-29T09:24:05.999Z</time></trkpt><trkpt lat="42.18228698353132" lon="14.644656368379914"><ele>7.0</ele><time>2026-03-29T09:24:06.999Z</time></trkpt><trkpt lat="42.18235456909932" lon="14.64465618942253"><ele>7.000000000000001</ele><time>2026-03-29T09:24:07.999Z</time></trkpt><trkpt lat="42.18243595275836" lon="14.644651006078357"><ele>7.0</ele><time>2026-03-29T09:24:08.999Z</time></trkpt><trkpt lat="42.18253043173986" lon="14.644637282485542"><ele>6.8</ele><time>2026-03-29T09:24:10Z</time></trkpt><trkpt lat="42.18262751054251" lon="14.644631053011462"><ele>6.6</ele><time>2026-03-29T09:24:11Z</time></trkpt><trkpt lat="42.182702949764746" lon="14.644632688253234"><ele>6.3999999999999995</ele><time>2026-03-29T09:24:12Z</time></trkpt><trkpt lat="42.18283067668384" lon="14.644635045777472"><ele>6.199999999999999</ele><time>2026-03-29T09:24:14Z</time></trkpt><trkpt lat="42.18293398243485" lon="14.644627958628936"><ele>6.0</ele><time>2026-03-29T09:24:15Z</time></trkpt><trkpt lat="42.18307607192819" lon="14.64462467656896"><ele>5.333333333333333</ele><time>2026-03-29T09:24:16Z</time></trkpt><trkpt lat="42.18322321441466" lon="14.644617927055537"><ele>4.666666666666666</ele><time>2026-03-29T09:24:17Z</time></trkpt><trkpt lat="42.18338494748832" lon="14.644608977399237"><ele>4.0</ele><time>2026-03-29T09:24:18Z</time></trkpt><trkpt lat="42.1835525312284" lon="14.644599703992496"><ele>3.0</ele><time>2026-03-29T09:24:19Z</time></trkpt><trkpt lat="42.19066158845452" lon="14.644495249908104"><ele>2.8</ele><time>2026-03-29T09:25:19.999Z</time></trkpt><trkpt lat="42.190763079733536" lon="14.644459164184887"><ele>2.5999999999999996</ele><time>2026-03-29T09:25:21.999Z</time></trkpt><trkpt lat="42.190867219713795" lon="14.644402203091126"><ele>2.4000000000000004</ele><time>2026-03-29T09:25:23.999Z</time></trkpt><trkpt lat="42.19096230170836" lon="14.644359517864913"><ele>2.2</ele><time>2026-03-29T09:25:25.999Z</time></trkpt><trkpt lat="42.1910434329965" lon="14.644286539659268"><ele>2.0</ele><time>2026-03-29T09:25:27.999Z</time></trkpt><trkpt lat="42.19113347810793" lon="14.644205592437098"><ele>2.0</ele><time>2026-03-29T09:25:29.999Z</time></trkpt><trkpt lat="42.191198344482686" lon="14.644111632566597"><ele>2.0</ele><time>2026-03-29T09:25:31.999Z</time></trkpt><trkpt lat="42.19126453371932" lon="14.643997961650463"><ele>2.0</ele><time>2026-03-29T09:25:33.999Z</time></trkpt><trkpt lat="42.191336059732556" lon="14.643849908915831"><ele>2.0</ele><time>2026-03-29T09:25:35.999Z</time></trkpt><trkpt lat="42.1913711255606" lon="14.643775510750915"><ele>2.0</ele><time>2026-03-29T09:25:36.999Z</time></trkpt><trkpt lat="42.19143918484186" lon="14.643646142830866"><ele>1.6666666666666665</ele><time>2026-03-29T09:25:38.999Z</time></trkpt><trkpt lat="42.19150965244855" lon="14.643521898487961"><ele>1.3333333333333333</ele><time>2026-03-29T09:25:40.999Z</time></trkpt><trkpt lat="42.19159393016456" lon="14.643398191525925"><ele>1.0</ele><time>2026-03-29T09:25:42.999Z</time></trkpt><trkpt lat="42.19164124892975" lon="14.643340504926986"><ele>0.6666666666666666</ele><time>2026-03-29T09:25:43.999Z</time></trkpt><trkpt lat="42.19169390811381" lon="14.643289563057786"><ele>0.3333333333333333</ele><time>2026-03-29T09:25:44.999Z</time></trkpt><trkpt lat="42.191749069907" lon="14.643236713587381"><ele>0.0</ele><time>2026-03-29T09:25:45.999Z</time></trkpt><trkpt lat="42.1917975951402" lon="14.643181111868914"><ele>0.0</ele><time>2026-03-29T09:25:46.999Z</time></trkpt><trkpt lat="42.191889179193666" lon="14.64306616051455"><ele>0.0</ele><time>2026-03-29T09:25:48.999Z</time></trkpt><trkpt lat="42.19193599593434" lon="14.643005271395609"><ele>0.0</ele><time>2026-03-29T09:25:49.999Z</time></trkpt><trkpt lat="42.19197962992961" lon="14.642940433052306"><ele>0.0</ele><time>2026-03-29T09:25:50.999Z</time></trkpt><trkpt lat="42.19202539263023" lon="14.642873700995628"><ele>0.0</ele><time>2026-03-29T09:25:51.999Z</time></trkpt><trkpt lat="42.19207158391423" lon="14.642808734139866"><ele>0.0</ele><time>2026-03-29T09:25:52.999Z</time></trkpt><trkpt lat="42.192116250357515" lon="14.642746958951887"><ele>0.0</ele><time>2026-03-29T09:25:53.999Z</time></trkpt><trkpt lat="42.19219538788904" lon="14.642647081224013"><ele>0.0</ele><time>2026-03-29T09:25:55.999Z</time></trkpt><trkpt lat="42.19226003020469" lon="14.642583213415785"><ele>0.0</ele><time>2026-03-29T09:25:57.999Z</time></trkpt><trkpt lat="42.192344431654966" lon="14.642466156603742"><ele>0.0</ele><time>2026-03-29T09:25:59.999Z</time></trkpt><trkpt lat="42.192394908747325" lon="14.642347207302505"><ele>0.0</ele><time>2026-03-29T09:26:00.999Z</time></trkpt><trkpt lat="42.19244249781011" lon="14.642193729644905"><ele>0.0</ele><time>2026-03-29T09:26:01.999Z</time></trkpt><trkpt lat="42.19248154011653" lon="14.642048104382173"><ele>0.0</ele><time>2026-03-29T09:26:02.999Z</time></trkpt><trkpt lat="42.19251928336998" lon="14.641905197590855"><ele>0.0</ele><time>2026-03-29T09:26:03.999Z</time></trkpt><trkpt lat="42.19255768910253" lon="14.641759782529126"><ele>0.0</ele><time>2026-03-29T09:26:04.999Z</time></trkpt><trkpt lat="42.192597356296304" lon="14.641606838054209"><ele>0.0</ele><time>2026-03-29T09:26:05.999Z</time></trkpt><trkpt lat="42.192638866018584" lon="14.641446593446911"><ele>0.0</ele><time>2026-03-29T09:26:06.999Z</time></trkpt><trkpt lat="42.192682101005495" lon="14.641279688662113"><ele>0.0</ele><time>2026-03-29T09:26:07.999Z</time></trkpt><trkpt lat="42.19272743444929" lon="14.641104779260013"><ele>0.0</ele><time>2026-03-29T09:26:08.999Z</time></trkpt><trkpt lat="42.19277167718271" lon="14.640934784864426"><ele>0.0</ele><time>2026-03-29T09:26:09.999Z</time></trkpt><trkpt lat="42.19281615573832" lon="14.64076388426407"><ele>0.0</ele><time>2026-03-29T09:26:10.999Z</time></trkpt><trkpt lat="42.192861959334046" lon="14.640587892550698"><ele>0.0</ele><time>2026-03-29T09:26:11.999Z</time></trkpt><trkpt lat="42.192908911151235" lon="14.640407488853374"><ele>0.0</ele><time>2026-03-29T09:26:12.999Z</time></trkpt><trkpt lat="42.19295659583598" lon="14.64022426924931"><ele>-0.3333333333333333</ele><time>2026-03-29T09:26:13.999Z</time></trkpt><trkpt lat="42.19300629985154" lon="14.640035134108336"><ele>-0.6666666666666666</ele><time>2026-03-29T09:26:14.999Z</time></trkpt><trkpt lat="42.193057089990454" lon="14.639842927030456"><ele>-1.0</ele><time>2026-03-29T09:26:16Z</time></trkpt><trkpt lat="42.19310859277858" lon="14.639648023055916"><ele>-1.0</ele><time>2026-03-29T09:26:17Z</time></trkpt><trkpt lat="42.193159747551015" lon="14.639454435894535"><ele>-1.0</ele><time>2026-03-29T09:26:18Z</time></trkpt><trkpt lat="42.193210790960094" lon="14.639261056140926"><ele>-1.0</ele><time>2026-03-29T09:26:19Z</time></trkpt><trkpt lat="42.1958913177554" lon="14.629551993144677"><ele>-0.16666666666666663</ele><time>2026-03-29T09:27:19.999Z</time></trkpt><trkpt lat="42.1959242291192" lon="14.629436426636545"><ele>0.6666666666666666</ele><time>2026-03-29T09:27:20.999Z</time></trkpt><trkpt lat="42.19596530106332" lon="14.629321877111682"><ele>1.5</ele><time>2026-03-29T09:27:21.999Z</time></trkpt><trkpt lat="42.19599770833122" lon="14.629214598940804"><ele>2.333333333333333</ele><time>2026-03-29T09:27:22.999Z</time></trkpt><trkpt lat="42.196016769739835" lon="14.629123207655873"><ele>3.1666666666666665</ele><time>2026-03-29T09:27:23.999Z</time></trkpt><trkpt lat="42.196015885158445" lon="14.629037241189444"><ele>4.0</ele><time>2026-03-29T09:27:24.999Z</time></trkpt><trkpt lat="42.19599283738385" lon="14.628939356252575"><ele>4.0</ele><time>2026-03-29T09:27:25.999Z</time></trkpt><trkpt lat="42.19594096225441" lon="14.628832035297801"><ele>4.0</ele><time>2026-03-29T09:27:26.999Z</time></trkpt><trkpt lat="42.19588071980782" lon="14.628697782499438"><ele>4.0</ele><time>2026-03-29T09:27:27.999Z</time></trkpt><trkpt lat="42.19582361167788" lon="14.628538558591965"><ele>4.0</ele><time>2026-03-29T09:27:28.999Z</time></trkpt><trkpt lat="42.195767556648086" lon="14.628383763012065"><ele>4.0</ele><time>2026-03-29T09:27:29.999Z</time></trkpt><trkpt lat="42.19570308422506" lon="14.628234704530728"><ele>4.0</ele><time>2026-03-29T09:27:30.999Z</time></trkpt><trkpt lat="42.195624545397" lon="14.628092602505873"><ele>4.0</ele><time>2026-03-29T09:27:31.999Z</time></trkpt><trkpt lat="42.19554523238177" lon="14.627955280205992"><ele>4.0</ele><time>2026-03-29T09:27:32.999Z</time></trkpt><trkpt lat="42.195474559042054" lon="14.627815904818402"><ele>5.25</ele><time>2026-03-29T09:27:33.999Z</time></trkpt><trkpt lat="42.19541757411939" lon="14.627684904682058"><ele>6.5</ele><time>2026-03-29T09:27:34.999Z</time></trkpt><trkpt lat="42.195356825293125" lon="14.627557013599708"><ele>7.75</ele><time>2026-03-29T09:27:35.999Z</time></trkpt><trkpt lat="42.19527492592666" lon="14.6274329770165"><ele>9.0</ele><time>2026-03-29T09:27:36.999Z</time></trkpt><trkpt lat="42.19519006278871" lon="14.627354045295533"><ele>9.0</ele><time>2026-03-29T09:27:37.999Z</time></trkpt><trkpt lat="42.19509458273334" lon="14.627297231952836"><ele>9.0</ele><time>2026-03-29T09:27:38.999Z</time></trkpt><trkpt lat="42.19499776641251" lon="14.627278839774421"><ele>9.0</ele><time>2026-03-29T09:27:39.999Z</time></trkpt><trkpt lat="42.194901252609405" lon="14.627291991288407"><ele>9.0</ele><time>2026-03-29T09:27:40.999Z</time></trkpt><trkpt lat="42.19481047110073" lon="14.62732716827268"><ele>9.0</ele><time>2026-03-29T09:27:41.999Z</time></trkpt><trkpt lat="42.19473513236545" lon="14.627350983080786"><ele>9.2</ele><time>2026-03-29T09:27:42.999Z</time></trkpt><trkpt lat="42.194619272602665" lon="14.627355276971302"><ele>9.4</ele><time>2026-03-29T09:27:44.999Z</time></trkpt><trkpt lat="42.19457619450955" lon="14.62719929114333"><ele>9.6</ele><time>2026-03-29T09:27:45.999Z</time></trkpt><trkpt lat="42.19454341523661" lon="14.627100802071308"><ele>9.8</ele><time>2026-03-29T09:27:46.999Z</time></trkpt><trkpt lat="42.19449924585033" lon="14.627013797789822"><ele>10.0</ele><time>2026-03-29T09:27:47.999Z</time></trkpt><trkpt lat="42.194538195079915" lon="14.626846538787511"><ele>10.25</ele><time>2026-03-29T09:27:48.999Z</time></trkpt><trkpt lat="42.194567745316476" lon="14.626697325896785"><ele>10.5</ele><time>2026-03-29T09:27:49.999Z</time></trkpt><trkpt lat="42.194613609260834" lon="14.626523301045697"><ele>10.75</ele><time>2026-03-29T09:27:50.999Z</time></trkpt><trkpt lat="42.194667652949626" lon="14.626321898707626"><ele>11.0</ele><time>2026-03-29T09:27:51.999Z</time></trkpt><trkpt lat="42.19471435990785" lon="14.626120296664721"><ele>11.0</ele><time>2026-03-29T09:27:52.999Z</time></trkpt><trkpt lat="42.19475958551025" lon="14.625903854819917"><ele>11.0</ele><time>2026-03-29T09:27:53.999Z</time></trkpt><trkpt lat="42.19480712683227" lon="14.62567890954352"><ele>11.0</ele><time>2026-03-29T09:27:54.999Z</time></trkpt><trkpt lat="42.19485384419982" lon="14.625459845248361"><ele>10.666666666666666</ele><time>2026-03-29T09:27:55.999Z</time></trkpt><trkpt lat="42.19490130293926" lon="14.625261386645759"><ele>10.333333333333334</ele><time>2026-03-29T09:27:56.999Z</time></trkpt><trkpt lat="42.19495236651283" lon="14.625071364729807"><ele>10.0</ele><time>2026-03-29T09:27:57.999Z</time></trkpt><trkpt lat="42.19500852219928" lon="14.624889018691885"><ele>10.0</ele><time>2026-03-29T09:27:58.999Z</time></trkpt><trkpt lat="42.19507763086482" lon="14.62471384745286"><ele>10.0</ele><time>2026-03-29T09:27:59.999Z</time></trkpt><trkpt lat="42.195166518559915" lon="14.624552829418288"><ele>10.0</ele><time>2026-03-29T09:28:00.999Z</time></trkpt><trkpt lat="42.195278245094286" lon="14.624407586989165"><ele>10.333333333333334</ele><time>2026-03-29T09:28:01.999Z</time></trkpt><trkpt lat="42.1954203263817" lon="14.624311467448939"><ele>10.666666666666666</ele><time>2026-03-29T09:28:02.999Z</time></trkpt><trkpt lat="42.19555876344568" lon="14.624189004868366"><ele>11.0</ele><time>2026-03-29T09:28:03.999Z</time></trkpt><trkpt lat="42.1957171607194" lon="14.624095626297821"><ele>11.0</ele><time>2026-03-29T09:28:04.999Z</time></trkpt><trkpt lat="42.19588128409826" lon="14.623992970715438"><ele>11.0</ele><time>2026-03-29T09:28:05.999Z</time></trkpt><trkpt lat="42.19604320817027" lon="14.62388090519103"><ele>11.0</ele><time>2026-03-29T09:28:06.999Z</time></trkpt><trkpt lat="42.19619371530817" lon="14.623756786076779"><ele>11.666666666666666</ele><time>2026-03-29T09:28:07.999Z</time></trkpt><trkpt lat="42.1963348178715" lon="14.623613414544504"><ele>12.333333333333332</ele><time>2026-03-29T09:28:08.999Z</time></trkpt><trkpt lat="42.196469430800846" lon="14.623445709986601"><ele>13.0</ele><time>2026-03-29T09:28:09.999Z</time></trkpt><trkpt lat="42.19659618311205" lon="14.62325969772104"><ele>13.666666666666666</ele><time>2026-03-29T09:28:10.999Z</time></trkpt><trkpt lat="42.19671060608643" lon="14.623062035365413"><ele>14.333333333333332</ele><time>2026-03-29T09:28:11.999Z</time></trkpt><trkpt lat="42.19680791890129" lon="14.622850736127607"><ele>15.0</ele><time>2026-03-29T09:28:12.999Z</time></trkpt><trkpt lat="42.19688924242147" lon="14.62262668087421"><ele>16.0</ele><time>2026-03-29T09:28:13.999Z</time></trkpt><trkpt lat="42.19695692659369" lon="14.62239001335662"><ele>17.0</ele><time>2026-03-29T09:28:14.999Z</time></trkpt><trkpt lat="42.19701181274514" lon="14.622144938999101"><ele>18.0</ele><time>2026-03-29T09:28:15.999Z</time></trkpt><trkpt lat="42.19705497721151" lon="14.621882569255561"><ele>18.333333333333332</ele><time>2026-03-29T09:28:16.999Z</time></trkpt><trkpt lat="42.197095266853346" lon="14.62159597017426"><ele>18.666666666666664</ele><time>2026-03-29T09:28:17.999Z</time></trkpt><trkpt lat="42.19713860307161" lon="14.621296120072355"><ele>19.0</ele><time>2026-03-29T09:28:18.999Z</time></trkpt><trkpt lat="42.19858203348655" lon="14.604882018481423"><ele>19.0</ele><time>2026-03-29T09:29:19.999Z</time></trkpt><trkpt lat="42.19857605701019" lon="14.604612500426635"><ele>19.0</ele><time>2026-03-29T09:29:20.999Z</time></trkpt><trkpt lat="42.19858818768134" lon="14.604343158513338"><ele>19.0</ele><time>2026-03-29T09:29:21.999Z</time></trkpt><trkpt lat="42.198613909188545" lon="14.604070068179878"><ele>18.333333333333332</ele><time>2026-03-29T09:29:22.999Z</time></trkpt><trkpt lat="42.198649519292296" lon="14.60379273804265"><ele>17.666666666666668</ele><time>2026-03-29T09:29:23.999Z</time></trkpt><trkpt lat="42.19869149561751" lon="14.603516598101885"><ele>17.0</ele><time>2026-03-29T09:29:24.999Z</time></trkpt><trkpt lat="42.19873331705634" lon="14.603237027355107"><ele>17.0</ele><time>2026-03-29T09:29:25.999Z</time></trkpt><trkpt lat="42.19877187322951" lon="14.6029547128088"><ele>17.0</ele><time>2026-03-29T09:29:26.999Z</time></trkpt><trkpt lat="42.19881034793681" lon="14.602673329606121"><ele>17.0</ele><time>2026-03-29T09:29:27.999Z</time></trkpt><trkpt lat="42.19886564001204" lon="14.602402456982313"><ele>17.0</ele><time>2026-03-29T09:29:28.999Z</time></trkpt><trkpt lat="42.19890421552774" lon="14.602136707930127"><ele>17.0</ele><time>2026-03-29T09:29:29.999Z</time></trkpt><trkpt lat="42.19894226767932" lon="14.601886613506071"><ele>17.0</ele><time>2026-03-29T09:29:30.999Z</time></trkpt><trkpt lat="42.198971060406606" lon="14.601638232523486"><ele>15.0</ele><time>2026-03-29T09:29:31.999Z</time></trkpt><trkpt lat="42.199028292111144" lon="14.601403338199008"><ele>13.0</ele><time>2026-03-29T09:29:32.999Z</time></trkpt><trkpt lat="42.19909589333028" lon="14.60117453567295"><ele>11.0</ele><time>2026-03-29T09:29:33.999Z</time></trkpt><trkpt lat="42.199180547144294" lon="14.60095091708297"><ele>11.0</ele><time>2026-03-29T09:29:34.999Z</time></trkpt><trkpt lat="42.19927817176484" lon="14.600746011646917"><ele>11.0</ele><time>2026-03-29T09:29:35.999Z</time></trkpt><trkpt lat="42.19938460828147" lon="14.60055683127406"><ele>11.0</ele><time>2026-03-29T09:29:36.999Z</time></trkpt><trkpt lat="42.19950699487175" lon="14.600379408343775"><ele>12.0</ele><time>2026-03-29T09:29:37.999Z</time></trkpt><trkpt lat="42.199641670058895" lon="14.600212849242075"><ele>13.0</ele><time>2026-03-29T09:29:38.999Z</time></trkpt><trkpt lat="42.19980218308744" lon="14.60008014496985"><ele>14.0</ele><time>2026-03-29T09:29:39.999Z</time></trkpt><trkpt lat="42.199954783065195" lon="14.599911076987857"><ele>12.0</ele><time>2026-03-29T09:29:40.999Z</time></trkpt><trkpt lat="42.20012461258477" lon="14.599760888183768"><ele>10.0</ele><time>2026-03-29T09:29:41.999Z</time></trkpt><trkpt lat="42.20029680326703" lon="14.599608310522509"><ele>8.0</ele><time>2026-03-29T09:29:42.999Z</time></trkpt><trkpt lat="42.20046649296427" lon="14.59945807730123"><ele>7.666666666666666</ele><time>2026-03-29T09:29:43.999Z</time></trkpt><trkpt lat="42.200631448155605" lon="14.599313368734354"><ele>7.333333333333334</ele><time>2026-03-29T09:29:44.999Z</time></trkpt><trkpt lat="42.20080406616867" lon="14.599180488424995"><ele>7.0</ele><time>2026-03-29T09:29:45.999Z</time></trkpt><trkpt lat="42.20097046783552" lon="14.599031797058842"><ele>6.333333333333334</ele><time>2026-03-29T09:29:46.999Z</time></trkpt><trkpt lat="42.20113825723737" lon="14.598882175233447"><ele>5.666666666666667</ele><time>2026-03-29T09:29:47.999Z</time></trkpt><trkpt lat="42.20129552366067" lon="14.598716040167805"><ele>5.0</ele><time>2026-03-29T09:29:48.999Z</time></trkpt><trkpt lat="42.20146232055988" lon="14.598575094320344"><ele>5.333333333333334</ele><time>2026-03-29T09:29:49.999Z</time></trkpt><trkpt lat="42.20163071624104" lon="14.598439945012188"><ele>5.666666666666667</ele><time>2026-03-29T09:29:50.999Z</time></trkpt><trkpt lat="42.201808331738405" lon="14.598334867096431"><ele>6.0</ele><time>2026-03-29T09:29:51.999Z</time></trkpt><trkpt lat="42.201970897612206" lon="14.59819808896605"><ele>6.0</ele><time>2026-03-29T09:29:52.999Z</time></trkpt><trkpt lat="42.20214235744056" lon="14.598088181859513"><ele>6.0</ele><time>2026-03-29T09:29:53.999Z</time></trkpt><trkpt lat="42.20231238352161" lon="14.59797683859889"><ele>6.0</ele><time>2026-03-29T09:29:54.999Z</time></trkpt><trkpt lat="42.20248332000521" lon="14.59786501005542"><ele>5.333333333333333</ele><time>2026-03-29T09:29:55.999Z</time></trkpt><trkpt lat="42.20264860036807" lon="14.59775226574343"><ele>4.666666666666666</ele><time>2026-03-29T09:29:56.999Z</time></trkpt><trkpt lat="42.20281371109294" lon="14.597643858896351"><ele>4.0</ele><time>2026-03-29T09:29:57.999Z</time></trkpt><trkpt lat="42.20298100404145" lon="14.597555910305095"><ele>4.0</ele><time>2026-03-29T09:29:58.999Z</time></trkpt><trkpt lat="42.203133901932226" lon="14.597431349621413"><ele>4.0</ele><time>2026-03-29T09:29:59.999Z</time></trkpt><trkpt lat="42.20329020163607" lon="14.597329045835163"><ele>4.0</ele><time>2026-03-29T09:30:00.999Z</time></trkpt><trkpt lat="42.2034421807734" lon="14.59722672118099"><ele>4.25</ele><time>2026-03-29T09:30:01.999Z</time></trkpt><trkpt lat="42.20358511897628" lon="14.59713578190581"><ele>4.5</ele><time>2026-03-29T09:30:02.999Z</time></trkpt><trkpt lat="42.20371790568079" lon="14.597046833639155"><ele>4.75</ele><time>2026-03-29T09:30:03.999Z</time></trkpt><trkpt lat="42.20384625193383" lon="14.596965132545217"><ele>5.0</ele><time>2026-03-29T09:30:04.999Z</time></trkpt><trkpt lat="42.20396417452493" lon="14.596883161573487"><ele>5.4</ele><time>2026-03-29T09:30:05.999Z</time></trkpt><trkpt lat="42.204067535573685" lon="14.596809175432394"><ele>5.8</ele><time>2026-03-29T09:30:06.999Z</time></trkpt><trkpt lat="42.204163215593475" lon="14.59675060150398"><ele>6.199999999999999</ele><time>2026-03-29T09:30:07.999Z</time></trkpt><trkpt lat="42.20425476594521" lon="14.596716039214503"><ele>6.6</ele><time>2026-03-29T09:30:08.999Z</time></trkpt><trkpt lat="42.204338701142866" lon="14.596704375937088"><ele>7.0</ele><time>2026-03-29T09:30:09.999Z</time></trkpt><trkpt lat="42.204414401451494" lon="14.596705467822586"><ele>7.0</ele><time>2026-03-29T09:30:10.999Z</time></trkpt><trkpt lat="42.204482461095594" lon="14.596685112311222"><ele>6.999999999999999</ele><time>2026-03-29T09:30:11.999Z</time></trkpt><trkpt lat="42.20455036146141" lon="14.596618725742507"><ele>6.999999999999999</ele><time>2026-03-29T09:30:12.999Z</time></trkpt><trkpt lat="42.204615729438025" lon="14.596509131440683"><ele>7.0</ele><time>2026-03-29T09:30:13.999Z</time></trkpt><trkpt lat="42.20470344079099" lon="14.596406458090128"><ele>7.0</ele><time>2026-03-29T09:30:14.999Z</time></trkpt><trkpt lat="42.204831359054786" lon="14.596315351770027"><ele>8.666666666666668</ele><time>2026-03-29T09:30:15.999Z</time></trkpt><trkpt lat="42.20498514299253" lon="14.596213514382061"><ele>10.333333333333334</ele><time>2026-03-29T09:30:16.999Z</time></trkpt><trkpt lat="42.20513607834772" lon="14.596108809588513"><ele>12.0</ele><time>2026-03-29T09:30:17.999Z</time></trkpt><trkpt lat="42.20530048539201" lon="14.595994218351988"><ele>22.0</ele><time>2026-03-29T09:30:18.999Z</time></trkpt><trkpt lat="42.21340636472144" lon="14.584012015343996"><ele>22.0</ele><time>2026-03-29T09:31:19.999Z</time></trkpt><trkpt lat="42.21349744548294" lon="14.58377887158962"><ele>22.0</ele><time>2026-03-29T09:31:20.999Z</time></trkpt><trkpt lat="42.21358774680926" lon="14.583550092175765"><ele>22.0</ele><time>2026-03-29T09:31:21.999Z</time></trkpt><trkpt lat="42.21367062131232" lon="14.583342155475638"><ele>22.75</ele><time>2026-03-29T09:31:22.999Z</time></trkpt><trkpt lat="42.21375993810109" lon="14.583176950682331"><ele>23.5</ele><time>2026-03-29T09:31:23.999Z</time></trkpt><trkpt lat="42.213822895618044" lon="14.583011814043875"><ele>24.25</ele><time>2026-03-29T09:31:24.999Z</time></trkpt><trkpt lat="42.21389946920071" lon="14.582869560204825"><ele>25.0</ele><time>2026-03-29T09:31:25.999Z</time></trkpt><trkpt lat="42.21397427701936" lon="14.582731246878172"><ele>23.5</ele><time>2026-03-29T09:31:26.999Z</time></trkpt><trkpt lat="42.2140468269756" lon="14.58259758688556"><ele>22.0</ele><time>2026-03-29T09:31:27.999Z</time></trkpt><trkpt lat="42.21411715620007" lon="14.582459903553465"><ele>20.5</ele><time>2026-03-29T09:31:28.999Z</time></trkpt><trkpt lat="42.214185587257134" lon="14.58231935509316"><ele>19.0</ele><time>2026-03-29T09:31:29.999Z</time></trkpt><trkpt lat="42.21425630983648" lon="14.582180568666352"><ele>19.0</ele><time>2026-03-29T09:31:30.999Z</time></trkpt><trkpt lat="42.21433451675502" lon="14.582032709353863"><ele>19.0</ele><time>2026-03-29T09:31:31.999Z</time></trkpt><trkpt lat="42.21441437343699" lon="14.581873892485762"><ele>19.0</ele><time>2026-03-29T09:31:32.999Z</time></trkpt><trkpt lat="42.21449780047864" lon="14.581708133618987"><ele>19.0</ele><time>2026-03-29T09:31:33.999Z</time></trkpt><trkpt lat="42.21458547832973" lon="14.581541845144308"><ele>19.0</ele><time>2026-03-29T09:31:34.999Z</time></trkpt><trkpt lat="42.21466421390423" lon="14.581380209809371"><ele>19.0</ele><time>2026-03-29T09:31:35.999Z</time></trkpt><trkpt lat="42.21474617936716" lon="14.58121814388589"><ele>19.0</ele><time>2026-03-29T09:31:36.999Z</time></trkpt><trkpt lat="42.21483196850402" lon="14.581053077424892"><ele>19.0</ele><time>2026-03-29T09:31:37.999Z</time></trkpt><trkpt lat="42.21491759214952" lon="14.580885276374044"><ele>19.0</ele><time>2026-03-29T09:31:38.999Z</time></trkpt><trkpt lat="42.21500474545783" lon="14.580713326452377"><ele>19.0</ele><time>2026-03-29T09:31:39.999Z</time></trkpt><trkpt lat="42.21509289737709" lon="14.580540608039577"><ele>19.0</ele><time>2026-03-29T09:31:40.999Z</time></trkpt><trkpt lat="42.215191448473206" lon="14.580380433811735"><ele>20.0</ele><time>2026-03-29T09:31:41.999Z</time></trkpt><trkpt lat="42.21527466617843" lon="14.580219144244857"><ele>21.0</ele><time>2026-03-29T09:31:42.999Z</time></trkpt><trkpt lat="42.215354026841226" lon="14.580063407836326"><ele>22.0</ele><time>2026-03-29T09:31:43.999Z</time></trkpt><trkpt lat="42.2154322776126" lon="14.579910179779272"><ele>23.0</ele><time>2026-03-29T09:31:44.999Z</time></trkpt><trkpt lat="42.21550003100018" lon="14.579751343319801"><ele>23.0</ele><time>2026-03-29T09:31:45.999Z</time></trkpt><trkpt lat="42.21557126966586" lon="14.579602011999256"><ele>23.0</ele><time>2026-03-29T09:31:46.999Z</time></trkpt><trkpt lat="42.2156592933981" lon="14.579465645032167"><ele>23.0</ele><time>2026-03-29T09:31:47.999Z</time></trkpt><trkpt lat="42.21572186223236" lon="14.57930591114019"><ele>23.0</ele><time>2026-03-29T09:31:48.999Z</time></trkpt><trkpt lat="42.21580278195108" lon="14.57915603377954"><ele>22.75</ele><time>2026-03-29T09:31:49.999Z</time></trkpt><trkpt lat="42.2158890066557" lon="14.578998278689994"><ele>22.5</ele><time>2026-03-29T09:31:50.999Z</time></trkpt><trkpt lat="42.21596765186163" lon="14.578838329117556"><ele>22.25</ele><time>2026-03-29T09:31:51.999Z</time></trkpt><trkpt lat="42.21604901543781" lon="14.578667155331875"><ele>22.0</ele><time>2026-03-29T09:31:52.999Z</time></trkpt><trkpt lat="42.216148428032504" lon="14.578509818399255"><ele>22.0</ele><time>2026-03-29T09:31:53.999Z</time></trkpt><trkpt lat="42.21623641399602" lon="14.578337031044978"><ele>22.0</ele><time>2026-03-29T09:31:54.999Z</time></trkpt><trkpt lat="42.2163113422099" lon="14.578154013315421"><ele>22.0</ele><time>2026-03-29T09:31:55.999Z</time></trkpt><trkpt lat="42.21639970540809" lon="14.57798195858596"><ele>21.5</ele><time>2026-03-29T09:31:56.999Z</time></trkpt><trkpt lat="42.21647365506595" lon="14.577828458949224"><ele>21.0</ele><time>2026-03-29T09:31:57.999Z</time></trkpt><trkpt lat="42.216559277863254" lon="14.577697943389909"><ele>20.5</ele><time>2026-03-29T09:31:58.999Z</time></trkpt><trkpt lat="42.21662633470406" lon="14.577567386045692"><ele>20.0</ele><time>2026-03-29T09:31:59.999Z</time></trkpt><trkpt lat="42.21667644332016" lon="14.577435168174269"><ele>20.0</ele><time>2026-03-29T09:32:00.999Z</time></trkpt><trkpt lat="42.216732912858035" lon="14.577321232097946"><ele>20.0</ele><time>2026-03-29T09:32:01.999Z</time></trkpt><trkpt lat="42.216789381360826" lon="14.577194841432151"><ele>20.0</ele><time>2026-03-29T09:32:02.999Z</time></trkpt><trkpt lat="42.21683965172297" lon="14.577060775412813"><ele>20.0</ele><time>2026-03-29T09:32:03.999Z</time></trkpt><trkpt lat="42.21688329046201" lon="14.576919362986947"><ele>20.0</ele><time>2026-03-29T09:32:04.999Z</time></trkpt><trkpt lat="42.216912385469264" lon="14.5767732435077"><ele>22.5</ele><time>2026-03-29T09:32:05.999Z</time></trkpt><trkpt lat="42.21693144119609" lon="14.576616405931526"><ele>25.0</ele><time>2026-03-29T09:32:06.999Z</time></trkpt><trkpt lat="42.21694518752374" lon="14.576456995800667"><ele>27.5</ele><time>2026-03-29T09:32:07.999Z</time></trkpt><trkpt lat="42.21695519956626" lon="14.57630004267794"><ele>30.0</ele><time>2026-03-29T09:32:08.999Z</time></trkpt><trkpt lat="42.21696155326144" lon="14.576149314129104"><ele>30.0</ele><time>2026-03-29T09:32:09.999Z</time></trkpt><trkpt lat="42.21696669600935" lon="14.576001026516279"><ele>30.0</ele><time>2026-03-29T09:32:10.999Z</time></trkpt><trkpt lat="42.216975595022994" lon="14.575846340500762"><ele>30.0</ele><time>2026-03-29T09:32:11.999Z</time></trkpt><trkpt lat="42.21699076568176" lon="14.575684559866133"><ele>30.0</ele><time>2026-03-29T09:32:12.999Z</time></trkpt><trkpt lat="42.21701594072967" lon="14.575526324186363"><ele>30.0</ele><time>2026-03-29T09:32:13.999Z</time></trkpt><trkpt lat="42.21705892616051" lon="14.575371016499414"><ele>30.0</ele><time>2026-03-29T09:32:14.999Z</time></trkpt><trkpt lat="42.21712441875547" lon="14.575228469379645"><ele>30.0</ele><time>2026-03-29T09:32:15.999Z</time></trkpt><trkpt lat="42.217209598544365" lon="14.575098535930483"><ele>30.0</ele><time>2026-03-29T09:32:16.999Z</time></trkpt><trkpt lat="42.217307515755834" lon="14.574979949266664"><ele>25.5</ele><time>2026-03-29T09:32:17.999Z</time></trkpt><trkpt lat="42.21741393709458" lon="14.574876094948326"><ele>21.0</ele><time>2026-03-29T09:32:18.999Z</time></trkpt><trkpt lat="42.22288688406471" lon="14.564135761717313"><ele>19.5</ele><time>2026-03-29T09:33:20Z</time></trkpt><trkpt lat="42.22301944294856" lon="14.56383833246335"><ele>18.0</ele><time>2026-03-29T09:33:21Z</time></trkpt><trkpt lat="42.22315237854486" lon="14.563541182342608"><ele>15.0</ele><time>2026-03-29T09:33:22Z</time></trkpt><trkpt lat="42.223264323725225" lon="14.563288285923697"><ele>12.0</ele><time>2026-03-29T09:33:23Z</time></trkpt><trkpt lat="42.22335992571046" lon="14.563070905501569"><ele>9.0</ele><time>2026-03-29T09:33:24Z</time></trkpt><trkpt lat="42.223436675916375" lon="14.562866078753954"><ele>11.666666666666668</ele><time>2026-03-29T09:33:25Z</time></trkpt><trkpt lat="42.223533298453" lon="14.562650706875628"><ele>14.333333333333334</ele><time>2026-03-29T09:33:25.999Z</time></trkpt><trkpt lat="42.22363590894117" lon="14.562425583941472"><ele>17.0</ele><time>2026-03-29T09:33:26.999Z</time></trkpt><trkpt lat="42.22373810288424" lon="14.562198063431197"><ele>18.666666666666668</ele><time>2026-03-29T09:33:27.999Z</time></trkpt><trkpt lat="42.223835156066514" lon="14.561985930680944"><ele>20.333333333333332</ele><time>2026-03-29T09:33:28.999Z</time></trkpt><trkpt lat="42.22392044894517" lon="14.561785662601071"><ele>22.0</ele><time>2026-03-29T09:33:29.999Z</time></trkpt><trkpt lat="42.224012215261745" lon="14.561566285372562"><ele>19.666666666666664</ele><time>2026-03-29T09:33:30.999Z</time></trkpt><trkpt lat="42.22411089676678" lon="14.561328551132954"><ele>17.333333333333332</ele><time>2026-03-29T09:33:31.999Z</time></trkpt><trkpt lat="42.22423192032258" lon="14.56109925524807"><ele>15.0</ele><time>2026-03-29T09:33:32.999Z</time></trkpt><trkpt lat="42.224338812883225" lon="14.56085839848738"><ele>15.0</ele><time>2026-03-29T09:33:33.999Z</time></trkpt><trkpt lat="42.224435294257674" lon="14.56061304508318"><ele>15.0</ele><time>2026-03-29T09:33:34.999Z</time></trkpt><trkpt lat="42.224546980900435" lon="14.560378424557367"><ele>15.0</ele><time>2026-03-29T09:33:35.999Z</time></trkpt><trkpt lat="42.22465273091234" lon="14.560137809479953"><ele>15.666666666666668</ele><time>2026-03-29T09:33:36.999Z</time></trkpt><trkpt lat="42.22475601494687" lon="14.559888606175566"><ele>16.333333333333336</ele><time>2026-03-29T09:33:37.999Z</time></trkpt><trkpt lat="42.2248655369565" lon="14.559629485278856"><ele>17.0</ele><time>2026-03-29T09:33:38.999Z</time></trkpt><trkpt lat="42.22497876123445" lon="14.559366986771963"><ele>13.0</ele><time>2026-03-29T09:33:39.999Z</time></trkpt><trkpt lat="42.22508521743219" lon="14.559099858838954"><ele>9.0</ele><time>2026-03-29T09:33:40.999Z</time></trkpt><trkpt lat="42.22519113197712" lon="14.558831073780679"><ele>11.0</ele><time>2026-03-29T09:33:41.999Z</time></trkpt><trkpt lat="42.22530574749966" lon="14.558553159590293"><ele>13.0</ele><time>2026-03-29T09:33:42.999Z</time></trkpt><trkpt lat="42.22542041157807" lon="14.558273609595213"><ele>13.0</ele><time>2026-03-29T09:33:43.999Z</time></trkpt><trkpt lat="42.22553578351765" lon="14.557991710097689"><ele>13.0</ele><time>2026-03-29T09:33:44.999Z</time></trkpt><trkpt lat="42.22564886600649" lon="14.557711769092395"><ele>11.0</ele><time>2026-03-29T09:33:45.999Z</time></trkpt><trkpt lat="42.22576509130675" lon="14.557427644446088"><ele>9.0</ele><time>2026-03-29T09:33:46.999Z</time></trkpt><trkpt lat="42.225879368391475" lon="14.557143683485332"><ele>12.5</ele><time>2026-03-29T09:33:47.999Z</time></trkpt><trkpt lat="42.22599085595191" lon="14.556859046033534"><ele>16.0</ele><time>2026-03-29T09:33:48.999Z</time></trkpt><trkpt lat="42.22610056995466" lon="14.55657809434245"><ele>16.0</ele><time>2026-03-29T09:33:49.999Z</time></trkpt><trkpt lat="42.22621461037689" lon="14.556297136314692"><ele>16.0</ele><time>2026-03-29T09:33:50.999Z</time></trkpt><trkpt lat="42.2263290458216" lon="14.55601762170566"><ele>20.0</ele><time>2026-03-29T09:33:51.999Z</time></trkpt><trkpt lat="42.22644536848282" lon="14.555742698352796"><ele>24.0</ele><time>2026-03-29T09:33:52.999Z</time></trkpt><trkpt lat="42.22656177131801" lon="14.555469099451274"><ele>18.5</ele><time>2026-03-29T09:33:53.999Z</time></trkpt><trkpt lat="42.22668203136518" lon="14.555199803930664"><ele>13.0</ele><time>2026-03-29T09:33:54.999Z</time></trkpt><trkpt lat="42.22680647807732" lon="14.554942402322665"><ele>13.0</ele><time>2026-03-29T09:33:55.999Z</time></trkpt><trkpt lat="42.2269305505949" lon="14.554688370637068"><ele>13.0</ele><time>2026-03-29T09:33:56.999Z</time></trkpt><trkpt lat="42.22705467116781" lon="14.554432379490313"><ele>19.0</ele><time>2026-03-29T09:33:57.999Z</time></trkpt><trkpt lat="42.227176998935434" lon="14.554177725971384"><ele>25.0</ele><time>2026-03-29T09:33:58.999Z</time></trkpt><trkpt lat="42.22730006717635" lon="14.553917024909566"><ele>18.5</ele><time>2026-03-29T09:33:59.999Z</time></trkpt><trkpt lat="42.22742288720172" lon="14.553653623572085"><ele>12.0</ele><time>2026-03-29T09:34:00.999Z</time></trkpt><trkpt lat="42.22754737359823" lon="14.553393101375326"><ele>12.0</ele><time>2026-03-29T09:34:01.999Z</time></trkpt><trkpt lat="42.22767422010436" lon="14.553135419610506"><ele>12.0</ele><time>2026-03-29T09:34:02.999Z</time></trkpt><trkpt lat="42.22779988505852" lon="14.55287935036102"><ele>16.0</ele><time>2026-03-29T09:34:03.999Z</time></trkpt><trkpt lat="42.22792264565768" lon="14.552634521434069"><ele>20.0</ele><time>2026-03-29T09:34:04.999Z</time></trkpt><trkpt lat="42.22803499447614" lon="14.552409255366573"><ele>24.0</ele><time>2026-03-29T09:34:05.999Z</time></trkpt><trkpt lat="42.22814276154668" lon="14.552190045271882"><ele>19.333333333333332</ele><time>2026-03-29T09:34:06.999Z</time></trkpt><trkpt lat="42.228258714456764" lon="14.551985431966033"><ele>14.666666666666668</ele><time>2026-03-29T09:34:07.999Z</time></trkpt><trkpt lat="42.228386294125755" lon="14.551797005123804"><ele>10.0</ele><time>2026-03-29T09:34:08.999Z</time></trkpt><trkpt lat="42.22851585146908" lon="14.551620354010012"><ele>10.0</ele><time>2026-03-29T09:34:09.999Z</time></trkpt><trkpt lat="42.22864281383147" lon="14.551448482459769"><ele>10.0</ele><time>2026-03-29T09:34:10.999Z</time></trkpt><trkpt lat="42.22876101274127" lon="14.551251234077828"><ele>10.0</ele><time>2026-03-29T09:34:11.999Z</time></trkpt><trkpt lat="42.22886680951646" lon="14.551031686347175"><ele>10.0</ele><time>2026-03-29T09:34:12.999Z</time></trkpt><trkpt lat="42.22896867707953" lon="14.550798815829122"><ele>10.0</ele><time>2026-03-29T09:34:13.999Z</time></trkpt><trkpt lat="42.229079341780285" lon="14.55056409048827"><ele>10.0</ele><time>2026-03-29T09:34:14.999Z</time></trkpt><trkpt lat="42.22919118873004" lon="14.550327545802629"><ele>10.0</ele><time>2026-03-29T09:34:15.999Z</time></trkpt><trkpt lat="42.22930414150589" lon="14.55009379260138"><ele>10.0</ele><time>2026-03-29T09:34:16.999Z</time></trkpt><trkpt lat="42.22941266287083" lon="14.549855875150902"><ele>10.0</ele><time>2026-03-29T09:34:17.999Z</time></trkpt><trkpt lat="42.22952194361228" lon="14.549624005750806"><ele>3.0</ele><time>2026-03-29T09:34:18.999Z</time></trkpt><trkpt lat="42.236634403634994" lon="14.535601969182327"><ele>2.5</ele><time>2026-03-29T09:35:20Z</time></trkpt><trkpt lat="42.23675501858395" lon="14.535339060129491"><ele>2.0</ele><time>2026-03-29T09:35:21Z</time></trkpt><trkpt lat="42.236874611255764" lon="14.535076710239775"><ele>2.0</ele><time>2026-03-29T09:35:22Z</time></trkpt><trkpt lat="42.23699288163421" lon="14.53481186693597"><ele>2.0</ele><time>2026-03-29T09:35:23Z</time></trkpt><trkpt lat="42.237110019605836" lon="14.534550590168891"><ele>2.333333333333333</ele><time>2026-03-29T09:35:24Z</time></trkpt><trkpt lat="42.237229296669234" lon="14.534292685261706"><ele>2.6666666666666665</ele><time>2026-03-29T09:35:25Z</time></trkpt><trkpt lat="42.23734790545465" lon="14.53403752900257"><ele>3.0</ele><time>2026-03-29T09:35:25.999Z</time></trkpt><trkpt lat="42.23746494528323" lon="14.533777783720216"><ele>3.0</ele><time>2026-03-29T09:35:26.999Z</time></trkpt><trkpt lat="42.23758061830112" lon="14.533517320884645"><ele>3.0</ele><time>2026-03-29T09:35:27.999Z</time></trkpt><trkpt lat="42.23770003683041" lon="14.533253506034077"><ele>3.0</ele><time>2026-03-29T09:35:28.999Z</time></trkpt><trkpt lat="42.23782059874781" lon="14.532990700738509"><ele>3.0</ele><time>2026-03-29T09:35:29.999Z</time></trkpt><trkpt lat="42.23794225976366" lon="14.532726870449109"><ele>3.5</ele><time>2026-03-29T09:35:30.999Z</time></trkpt><trkpt lat="42.23806200059823" lon="14.532461748615287"><ele>4.0</ele><time>2026-03-29T09:35:31.999Z</time></trkpt><trkpt lat="42.238183268114724" lon="14.53219285970246"><ele>3.0</ele><time>2026-03-29T09:35:32.999Z</time></trkpt><trkpt lat="42.238304201646024" lon="14.531922817999916"><ele>2.0</ele><time>2026-03-29T09:35:33.999Z</time></trkpt><trkpt lat="42.23842629567317" lon="14.531649082409542"><ele>2.0</ele><time>2026-03-29T09:35:34.999Z</time></trkpt><trkpt lat="42.23855162984346" lon="14.53137469518968"><ele>2.0</ele><time>2026-03-29T09:35:35.999Z</time></trkpt><trkpt lat="42.238677561734384" lon="14.531098707177481"><ele>1.0</ele><time>2026-03-29T09:35:36.999Z</time></trkpt><trkpt lat="42.23880352524085" lon="14.530822226464329"><ele>0.0</ele><time>2026-03-29T09:35:37.999Z</time></trkpt><trkpt lat="42.23892932202076" lon="14.530543577977696"><ele>0.5</ele><time>2026-03-29T09:35:38.999Z</time></trkpt><trkpt lat="42.23905451428598" lon="14.530268150111615"><ele>1.0</ele><time>2026-03-29T09:35:39.999Z</time></trkpt><trkpt lat="42.2391770161828" lon="14.529995690522409"><ele>1.0</ele><time>2026-03-29T09:35:40.999Z</time></trkpt><trkpt lat="42.239299671789404" lon="14.529722839332901"><ele>1.0</ele><time>2026-03-29T09:35:41.999Z</time></trkpt><trkpt lat="42.239420771561726" lon="14.529454198340163"><ele>1.0</ele><time>2026-03-29T09:35:42.999Z</time></trkpt><trkpt lat="42.23954151135867" lon="14.529188448721243"><ele>1.0</ele><time>2026-03-29T09:35:43.999Z</time></trkpt><trkpt lat="42.23966205897219" lon="14.528926270644567"><ele>1.0</ele><time>2026-03-29T09:35:44.999Z</time></trkpt><trkpt lat="42.23977944353606" lon="14.52866722839876"><ele>1.0</ele><time>2026-03-29T09:35:45.999Z</time></trkpt><trkpt lat="42.23989589571975" lon="14.528407337505035"><ele>0.5</ele><time>2026-03-29T09:35:46.999Z</time></trkpt><trkpt lat="42.240013568966106" lon="14.528148710436449"><ele>0.0</ele><time>2026-03-29T09:35:47.999Z</time></trkpt><trkpt lat="42.24012873891195" lon="14.527887141614048"><ele>0.0</ele><time>2026-03-29T09:35:48.999Z</time></trkpt><trkpt lat="42.24024328168242" lon="14.52763074988089"><ele>0.0</ele><time>2026-03-29T09:35:49.999Z</time></trkpt><trkpt lat="42.24035644738459" lon="14.527382248797883"><ele>0.0</ele><time>2026-03-29T09:35:50.999Z</time></trkpt><trkpt lat="42.2404697094556" lon="14.527143136573546"><ele>0.0</ele><time>2026-03-29T09:35:51.999Z</time></trkpt><trkpt lat="42.24057326813738" lon="14.526913658559563"><ele>0.0</ele><time>2026-03-29T09:35:52.999Z</time></trkpt><trkpt lat="42.240675415149795" lon="14.526687938601267"><ele>0.0</ele><time>2026-03-29T09:35:53.999Z</time></trkpt><trkpt lat="42.24077509852139" lon="14.526465435913765"><ele>0.3333333333333333</ele><time>2026-03-29T09:35:54.999Z</time></trkpt><trkpt lat="42.24087273573609" lon="14.526249577443515"><ele>0.6666666666666666</ele><time>2026-03-29T09:35:55.999Z</time></trkpt><trkpt lat="42.240967521889345" lon="14.526039890474346"><ele>1.0</ele><time>2026-03-29T09:35:56.999Z</time></trkpt><trkpt lat="42.2410515873081" lon="14.525852434421774"><ele>1.0</ele><time>2026-03-29T09:35:57.999Z</time></trkpt><trkpt lat="42.24114050241321" lon="14.525699519322409"><ele>1.0</ele><time>2026-03-29T09:35:58.999Z</time></trkpt><trkpt lat="42.24119911065156" lon="14.525535217133097"><ele>1.0</ele><time>2026-03-29T09:35:59.999Z</time></trkpt><trkpt lat="42.2412657739936" lon="14.525390196707885"><ele>1.0</ele><time>2026-03-29T09:36:00.999Z</time></trkpt><trkpt lat="42.24132227301187" lon="14.525253718762642"><ele>1.0</ele><time>2026-03-29T09:36:01.999Z</time></trkpt><trkpt lat="42.24137806491099" lon="14.525129622248741"><ele>1.0</ele><time>2026-03-29T09:36:02.999Z</time></trkpt><trkpt lat="42.24143586979074" lon="14.525007607332546"><ele>1.0</ele><time>2026-03-29T09:36:03.999Z</time></trkpt><trkpt lat="42.241490655912536" lon="14.524877666627445"><ele>1.0</ele><time>2026-03-29T09:36:04.999Z</time></trkpt><trkpt lat="42.24156496041427" lon="14.524751227293812"><ele>1.0</ele><time>2026-03-29T09:36:05.999Z</time></trkpt><trkpt lat="42.241624451770775" lon="14.524616393106559"><ele>1.5</ele><time>2026-03-29T09:36:06.999Z</time></trkpt><trkpt lat="42.241683855916456" lon="14.524477078183859"><ele>2.0</ele><time>2026-03-29T09:36:07.999Z</time></trkpt><trkpt lat="42.24174049391457" lon="14.524338495909447"><ele>2.5</ele><time>2026-03-29T09:36:08.999Z</time></trkpt><trkpt lat="42.24179097477471" lon="14.524200922832073"><ele>3.0</ele><time>2026-03-29T09:36:09.999Z</time></trkpt><trkpt lat="42.24183388011136" lon="14.524066802892158"><ele>3.0</ele><time>2026-03-29T09:36:10.999Z</time></trkpt><trkpt lat="42.24187075445795" lon="14.523946801792102"><ele>3.0</ele><time>2026-03-29T09:36:11.999Z</time></trkpt><trkpt lat="42.24190515179516" lon="14.523831450420362"><ele>3.0</ele><time>2026-03-29T09:36:12.999Z</time></trkpt><trkpt lat="42.2419361224624" lon="14.523726664825194"><ele>3.0</ele><time>2026-03-29T09:36:13.999Z</time></trkpt><trkpt lat="42.24196334668441" lon="14.523642559786746"><ele>3.0</ele><time>2026-03-29T09:36:14.999Z</time></trkpt><trkpt lat="42.242013252134406" lon="14.52348847657314"><ele>2.5</ele><time>2026-03-29T09:36:16.999Z</time></trkpt><trkpt lat="42.24208111397448" lon="14.523407739522895"><ele>2.0</ele><time>2026-03-29T09:36:18.999Z</time></trkpt><trkpt lat="42.24832213249351" lon="14.511993888555256"><ele>6.666666666666666</ele><time>2026-03-29T09:37:20Z</time></trkpt><trkpt lat="42.24845981303418" lon="14.511764201210806"><ele>11.333333333333332</ele><time>2026-03-29T09:37:21Z</time></trkpt><trkpt lat="42.24859993412594" lon="14.511532387329163"><ele>16.0</ele><time>2026-03-29T09:37:22Z</time></trkpt><trkpt lat="42.24874091787266" lon="14.511303313211805"><ele>15.666666666666666</ele><time>2026-03-29T09:37:23Z</time></trkpt><trkpt lat="42.24887253296239" lon="14.511081547425654"><ele>15.333333333333332</ele><time>2026-03-29T09:37:24Z</time></trkpt><trkpt lat="42.249004721247516" lon="14.5108638897788"><ele>15.0</ele><time>2026-03-29T09:37:25Z</time></trkpt><trkpt lat="42.24913701708393" lon="14.51065277153758"><ele>15.0</ele><time>2026-03-29T09:37:26Z</time></trkpt><trkpt lat="42.249263394188866" lon="14.51044308927026"><ele>15.0</ele><time>2026-03-29T09:37:27Z</time></trkpt><trkpt lat="42.24938743744335" lon="14.510246061940936"><ele>15.0</ele><time>2026-03-29T09:37:28Z</time></trkpt><trkpt lat="42.24950205262512" lon="14.510062938748094"><ele>16.0</ele><time>2026-03-29T09:37:29Z</time></trkpt><trkpt lat="42.24962028775867" lon="14.509887424686521"><ele>17.0</ele><time>2026-03-29T09:37:30Z</time></trkpt><trkpt lat="42.24974563777337" lon="14.509717208431631"><ele>18.0</ele><time>2026-03-29T09:37:31Z</time></trkpt><trkpt lat="42.24988638011958" lon="14.509571062606847"><ele>18.0</ele><time>2026-03-29T09:37:32Z</time></trkpt><trkpt lat="42.25001807261476" lon="14.509384658738911"><ele>18.0</ele><time>2026-03-29T09:37:33Z</time></trkpt><trkpt lat="42.25016343627324" lon="14.509211547886778"><ele>18.0</ele><time>2026-03-29T09:37:34Z</time></trkpt><trkpt lat="42.25029186745687" lon="14.509056648464878"><ele>18.0</ele><time>2026-03-29T09:37:35Z</time></trkpt><trkpt lat="42.25042168098437" lon="14.508903979175832"><ele>18.0</ele><time>2026-03-29T09:37:36Z</time></trkpt><trkpt lat="42.250547276717235" lon="14.508754823345916"><ele>18.0</ele><time>2026-03-29T09:37:37Z</time></trkpt><trkpt lat="42.25067162448925" lon="14.508608136233859"><ele>17.666666666666668</ele><time>2026-03-29T09:37:38Z</time></trkpt><trkpt lat="42.250791593158326" lon="14.508465574206786"><ele>17.333333333333336</ele><time>2026-03-29T09:37:39Z</time></trkpt><trkpt lat="42.25091042878797" lon="14.508325538826734"><ele>17.0</ele><time>2026-03-29T09:37:40Z</time></trkpt><trkpt lat="42.251021184729964" lon="14.508193613238921"><ele>17.0</ele><time>2026-03-29T09:37:41Z</time></trkpt><trkpt lat="42.25112557326664" lon="14.508066828328031"><ele>17.0</ele><time>2026-03-29T09:37:42Z</time></trkpt><trkpt lat="42.251230342579404" lon="14.507945097780631"><ele>17.0</ele><time>2026-03-29T09:37:42.999Z</time></trkpt><trkpt lat="42.25132307116166" lon="14.50783252918931"><ele>17.0</ele><time>2026-03-29T09:37:43.999Z</time></trkpt><trkpt lat="42.25140429619852" lon="14.507723143414616"><ele>15.25</ele><time>2026-03-29T09:37:44.999Z</time></trkpt><trkpt lat="42.25149621677195" lon="14.507622164382449"><ele>13.5</ele><time>2026-03-29T09:37:45.999Z</time></trkpt><trkpt lat="42.251590946810666" lon="14.507528704859611"><ele>11.75</ele><time>2026-03-29T09:37:46.999Z</time></trkpt><trkpt lat="42.25167786744199" lon="14.507419332224886"><ele>10.0</ele><time>2026-03-29T09:37:47.999Z</time></trkpt><trkpt lat="42.251771921081556" lon="14.507310045558574"><ele>10.0</ele><time>2026-03-29T09:37:48.999Z</time></trkpt><trkpt lat="42.25184813542863" lon="14.507210257645198"><ele>10.0</ele><time>2026-03-29T09:37:49.999Z</time></trkpt><trkpt lat="42.25191346457124" lon="14.507130756071327"><ele>10.0</ele><time>2026-03-29T09:37:50.999Z</time></trkpt><trkpt lat="42.25197115975623" lon="14.50707400440302"><ele>10.0</ele><time>2026-03-29T09:37:51.999Z</time></trkpt><trkpt lat="42.25202434823012" lon="14.507024059350806"><ele>10.0</ele><time>2026-03-29T09:37:52.999Z</time></trkpt><trkpt lat="42.25208905393865" lon="14.506956865452967"><ele>10.0</ele><time>2026-03-29T09:37:54.999Z</time></trkpt><trkpt lat="42.25214133171992" lon="14.506907690085875"><ele>10.8</ele><time>2026-03-29T09:37:56.999Z</time></trkpt><trkpt lat="42.25220717354512" lon="14.506863915963821"><ele>11.6</ele><time>2026-03-29T09:37:57.999Z</time></trkpt><trkpt lat="42.25229993863073" lon="14.506816419397529"><ele>12.399999999999999</ele><time>2026-03-29T09:37:58.999Z</time></trkpt><trkpt lat="42.252398039915185" lon="14.506752638978176"><ele>13.2</ele><time>2026-03-29T09:37:59.999Z</time></trkpt><trkpt lat="42.25250533490549" lon="14.506676427989156"><ele>14.0</ele><time>2026-03-29T09:38:00.999Z</time></trkpt><trkpt lat="42.252623215498446" lon="14.506603647498475"><ele>14.0</ele><time>2026-03-29T09:38:01.999Z</time></trkpt><trkpt lat="42.252737013501054" lon="14.506535376556394"><ele>14.0</ele><time>2026-03-29T09:38:02.999Z</time></trkpt><trkpt lat="42.25286536822755" lon="14.506459578600706"><ele>14.0</ele><time>2026-03-29T09:38:03.999Z</time></trkpt><trkpt lat="42.252997103561334" lon="14.50638020644161"><ele>14.0</ele><time>2026-03-29T09:38:04.999Z</time></trkpt><trkpt lat="42.25313438757319" lon="14.50629765566412"><ele>14.666666666666668</ele><time>2026-03-29T09:38:05.999Z</time></trkpt><trkpt lat="42.25328746551799" lon="14.506230898020942"><ele>15.333333333333332</ele><time>2026-03-29T09:38:06.999Z</time></trkpt><trkpt lat="42.253446693632505" lon="14.506168686182288"><ele>16.0</ele><time>2026-03-29T09:38:07.999Z</time></trkpt><trkpt lat="42.253609193975315" lon="14.506099673647771"><ele>16.0</ele><time>2026-03-29T09:38:08.999Z</time></trkpt><trkpt lat="42.25377314083176" lon="14.506022251694864"><ele>16.0</ele><time>2026-03-29T09:38:09.999Z</time></trkpt><trkpt lat="42.253938036866664" lon="14.505929797256663"><ele>16.0</ele><time>2026-03-29T09:38:10.999Z</time></trkpt><trkpt lat="42.2540983540087" lon="14.505817625027829"><ele>13.666666666666666</ele><time>2026-03-29T09:38:11.999Z</time></trkpt><trkpt lat="42.25425486567003" lon="14.505693257499036"><ele>11.333333333333332</ele><time>2026-03-29T09:38:12.999Z</time></trkpt><trkpt lat="42.25441224919851" lon="14.505566629208971"><ele>9.0</ele><time>2026-03-29T09:38:13.999Z</time></trkpt><trkpt lat="42.25456889781128" lon="14.505441939394622"><ele>10.333333333333332</ele><time>2026-03-29T09:38:14.999Z</time></trkpt><trkpt lat="42.254725936916394" lon="14.505317910552957"><ele>11.666666666666666</ele><time>2026-03-29T09:38:15.999Z</time></trkpt><trkpt lat="42.25487433064814" lon="14.505198718118605"><ele>13.0</ele><time>2026-03-29T09:38:16.999Z</time></trkpt><trkpt lat="42.255007705806" lon="14.505089885501361"><ele>13.0</ele><time>2026-03-29T09:38:17.999Z</time></trkpt><trkpt lat="42.255126865166275" lon="14.504984002836023"><ele>13.0</ele><time>2026-03-29T09:38:18.999Z</time></trkpt><trkpt lat="42.26329273519658" lon="14.500313007322612"><ele>13.857142857142858</ele><time>2026-03-29T09:39:20Z</time></trkpt><trkpt lat="42.26336948105517" lon="14.500326450273104"><ele>14.714285714285715</ele><time>2026-03-29T09:39:21Z</time></trkpt><trkpt lat="42.26343953597583" lon="14.500338208645585"><ele>15.571428571428571</ele><time>2026-03-29T09:39:22Z</time></trkpt><trkpt lat="42.26350730638969" lon="14.500369417057774"><ele>16.42857142857143</ele><time>2026-03-29T09:39:23Z</time></trkpt><trkpt lat="42.26357643046786" lon="14.50038104484816"><ele>17.28571428571429</ele><time>2026-03-29T09:39:24Z</time></trkpt><trkpt lat="42.263640330076036" lon="14.500372367736864"><ele>18.142857142857142</ele><time>2026-03-29T09:39:25Z</time></trkpt><trkpt lat="42.26370504571426" lon="14.500388604915136"><ele>19.0</ele><time>2026-03-29T09:39:26Z</time></trkpt><trkpt lat="42.26380033847993" lon="14.500399564828333"><ele>16.8</ele><time>2026-03-29T09:39:28Z</time></trkpt><trkpt lat="42.26386501198907" lon="14.500421286676255"><ele>14.599999999999998</ele><time>2026-03-29T09:40:04.999Z</time></trkpt><trkpt lat="42.264002963002646" lon="14.500433365934462"><ele>12.4</ele><time>2026-03-29T09:40:06.999Z</time></trkpt><trkpt lat="42.26410095855278" lon="14.500470246396436"><ele>10.2</ele><time>2026-03-29T09:40:07.999Z</time></trkpt><trkpt lat="42.26421622910213" lon="14.500489691952692"><ele>8.0</ele><time>2026-03-29T09:40:08.999Z</time></trkpt><trkpt lat="42.26436014634628" lon="14.50051396993815"><ele>8.333333333333332</ele><time>2026-03-29T09:40:09.999Z</time></trkpt><trkpt lat="42.26450550486063" lon="14.500538537697492"><ele>8.666666666666666</ele><time>2026-03-29T09:40:10.999Z</time></trkpt><trkpt lat="42.264660735353864" lon="14.500564615224942"><ele>9.0</ele><time>2026-03-29T09:40:11.999Z</time></trkpt><trkpt lat="42.26482498741998" lon="14.500592208300402"><ele>9.0</ele><time>2026-03-29T09:40:12.999Z</time></trkpt><trkpt lat="42.26499379259953" lon="14.50062077523514"><ele>9.0</ele><time>2026-03-29T09:40:13.999Z</time></trkpt><trkpt lat="42.26516501400173" lon="14.500649839354228"><ele>9.0</ele><time>2026-03-29T09:40:14.999Z</time></trkpt><trkpt lat="42.265331089983285" lon="14.500678030065318"><ele>9.0</ele><time>2026-03-29T09:40:15.999Z</time></trkpt><trkpt lat="42.26549021475977" lon="14.500705040836927"><ele>9.0</ele><time>2026-03-29T09:40:16.999Z</time></trkpt><trkpt lat="42.26564143634061" lon="14.500730710060047"><ele>9.0</ele><time>2026-03-29T09:40:17.999Z</time></trkpt><trkpt lat="42.26579213761731" lon="14.500751872752264"><ele>33.0</ele><time>2026-03-29T09:40:18.999Z</time></trkpt><trkpt lat="42.2747208495322" lon="14.496037612658006"><ele>27.0</ele><time>2026-03-29T09:41:20Z</time></trkpt><trkpt lat="42.274872600092245" lon="14.495850727466769"><ele>21.0</ele><time>2026-03-29T09:41:21Z</time></trkpt><trkpt lat="42.27502567929395" lon="14.4956579813048"><ele>15.0</ele><time>2026-03-29T09:41:22Z</time></trkpt><trkpt lat="42.275182903701015" lon="14.49545897196268"><ele>13.0</ele><time>2026-03-29T09:41:23Z</time></trkpt><trkpt lat="42.27534330664381" lon="14.495256955768596"><ele>11.0</ele><time>2026-03-29T09:41:24Z</time></trkpt><trkpt lat="42.27550398503067" lon="14.49504903585578"><ele>9.0</ele><time>2026-03-29T09:41:25Z</time></trkpt><trkpt lat="42.27566420056257" lon="14.49483900088167"><ele>9.0</ele><time>2026-03-29T09:41:26Z</time></trkpt><trkpt lat="42.27582720892143" lon="14.494625688208378"><ele>9.0</ele><time>2026-03-29T09:41:27Z</time></trkpt><trkpt lat="42.27598969809026" lon="14.49441055460145"><ele>7.333333333333333</ele><time>2026-03-29T09:41:28Z</time></trkpt><trkpt lat="42.27615003064877" lon="14.49419572322698"><ele>5.666666666666666</ele><time>2026-03-29T09:41:29Z</time></trkpt><trkpt lat="42.27630120294616" lon="14.493983040129711"><ele>4.0</ele><time>2026-03-29T09:41:30Z</time></trkpt><trkpt lat="42.276452924791336" lon="14.493763891266587"><ele>4.0</ele><time>2026-03-29T09:41:31Z</time></trkpt><trkpt lat="42.27660815647409" lon="14.493546401073294"><ele>4.0</ele><time>2026-03-29T09:41:32Z</time></trkpt><trkpt lat="42.276765217118694" lon="14.493327618096375"><ele>4.0</ele><time>2026-03-29T09:41:33Z</time></trkpt><trkpt lat="42.276922180052594" lon="14.49311041204556"><ele>4.0</ele><time>2026-03-29T09:41:34Z</time></trkpt><trkpt lat="42.27707789681823" lon="14.492896607113828"><ele>4.0</ele><time>2026-03-29T09:41:35Z</time></trkpt><trkpt lat="42.277234317497005" lon="14.492684871333951"><ele>4.0</ele><time>2026-03-29T09:41:36Z</time></trkpt><trkpt lat="42.27739183386685" lon="14.492480902197988"><ele>4.0</ele><time>2026-03-29T09:41:37Z</time></trkpt><trkpt lat="42.277566160786" lon="14.492284755099586"><ele>4.0</ele><time>2026-03-29T09:41:38Z</time></trkpt><trkpt lat="42.27774221413654" lon="14.49210676412375"><ele>4.0</ele><time>2026-03-29T09:41:38.999Z</time></trkpt><trkpt lat="42.27793311145028" lon="14.4919337394863"><ele>7.0</ele><time>2026-03-29T09:41:39.999Z</time></trkpt><trkpt lat="42.278125235352235" lon="14.49175312072884"><ele>10.0</ele><time>2026-03-29T09:41:40.999Z</time></trkpt><trkpt lat="42.27831595695069" lon="14.49156555786056"><ele>10.0</ele><time>2026-03-29T09:41:41.999Z</time></trkpt><trkpt lat="42.27850389451406" lon="14.491374537960898"><ele>10.0</ele><time>2026-03-29T09:41:42.999Z</time></trkpt><trkpt lat="42.27869151705695" lon="14.491180729102457"><ele>11.0</ele><time>2026-03-29T09:41:43.999Z</time></trkpt><trkpt lat="42.27888271385283" lon="14.490990451084723"><ele>12.0</ele><time>2026-03-29T09:41:44.999Z</time></trkpt><trkpt lat="42.27907444026792" lon="14.490800765329539"><ele>12.0</ele><time>2026-03-29T09:41:45.999Z</time></trkpt><trkpt lat="42.27926492728811" lon="14.490606111473458"><ele>12.0</ele><time>2026-03-29T09:41:46.999Z</time></trkpt><trkpt lat="42.279453180820234" lon="14.49040988678112"><ele>14.5</ele><time>2026-03-29T09:41:47.999Z</time></trkpt><trkpt lat="42.279639297313956" lon="14.490216512968326"><ele>17.0</ele><time>2026-03-29T09:41:48.999Z</time></trkpt><trkpt lat="42.279823391690336" lon="14.490022238782478"><ele>17.0</ele><time>2026-03-29T09:41:49.999Z</time></trkpt><trkpt lat="42.280006065150076" lon="14.489836041673055"><ele>17.0</ele><time>2026-03-29T09:41:50.999Z</time></trkpt><trkpt lat="42.28018911204999" lon="14.489651061717076"><ele>16.666666666666668</ele><time>2026-03-29T09:41:51.999Z</time></trkpt><trkpt lat="42.28037039920963" lon="14.489471532514298"><ele>16.333333333333332</ele><time>2026-03-29T09:41:52.999Z</time></trkpt><trkpt lat="42.28053979586757" lon="14.489300125098195"><ele>16.0</ele><time>2026-03-29T09:41:53.999Z</time></trkpt><trkpt lat="42.280698293862635" lon="14.48912517036233"><ele>16.0</ele><time>2026-03-29T09:41:54.999Z</time></trkpt><trkpt lat="42.280848263931595" lon="14.48893987312607"><ele>16.0</ele><time>2026-03-29T09:41:55.999Z</time></trkpt><trkpt lat="42.28098749025061" lon="14.48873691301524"><ele>16.0</ele><time>2026-03-29T09:41:56.999Z</time></trkpt><trkpt lat="42.28111313516122" lon="14.488517509782456"><ele>17.666666666666664</ele><time>2026-03-29T09:41:57.999Z</time></trkpt><trkpt lat="42.28123438582718" lon="14.488287907944096"><ele>19.333333333333332</ele><time>2026-03-29T09:41:58.999Z</time></trkpt><trkpt lat="42.28135851212439" lon="14.488061697607263"><ele>21.0</ele><time>2026-03-29T09:41:59.999Z</time></trkpt><trkpt lat="42.281488065986785" lon="14.487840638696875"><ele>21.0</ele><time>2026-03-29T09:42:00.999Z</time></trkpt><trkpt lat="42.28161792677443" lon="14.487617454048255"><ele>21.0</ele><time>2026-03-29T09:42:01.999Z</time></trkpt><trkpt lat="42.28174735491736" lon="14.48739060749389"><ele>21.0</ele><time>2026-03-29T09:42:02.999Z</time></trkpt><trkpt lat="42.281877584489024" lon="14.487162127916275"><ele>22.666666666666664</ele><time>2026-03-29T09:42:03.999Z</time></trkpt><trkpt lat="42.28200643793994" lon="14.486930712352597"><ele>24.333333333333332</ele><time>2026-03-29T09:42:04.999Z</time></trkpt><trkpt lat="42.28213481679878" lon="14.48669819474867"><ele>26.0</ele><time>2026-03-29T09:42:05.999Z</time></trkpt><trkpt lat="42.28226687526932" lon="14.486465265342128"><ele>25.0</ele><time>2026-03-29T09:42:06.999Z</time></trkpt><trkpt lat="42.282400489476004" lon="14.486235406962166"><ele>24.0</ele><time>2026-03-29T09:42:07.999Z</time></trkpt><trkpt lat="42.282531428262104" lon="14.486003432847179"><ele>23.0</ele><time>2026-03-29T09:42:08.999Z</time></trkpt><trkpt lat="42.28266318281133" lon="14.485769112991214"><ele>23.0</ele><time>2026-03-29T09:42:09.999Z</time></trkpt><trkpt lat="42.282796310636996" lon="14.485533549440774"><ele>23.0</ele><time>2026-03-29T09:42:10.999Z</time></trkpt><trkpt lat="42.282929053737135" lon="14.485302022443795"><ele>23.0</ele><time>2026-03-29T09:42:11.999Z</time></trkpt><trkpt lat="42.2830630377244" lon="14.485077276857153"><ele>21.666666666666668</ele><time>2026-03-29T09:42:12.999Z</time></trkpt><trkpt lat="42.28320772993915" lon="14.484872199018774"><ele>20.333333333333332</ele><time>2026-03-29T09:42:13.999Z</time></trkpt><trkpt lat="42.28336666236599" lon="14.484687157023487"><ele>19.0</ele><time>2026-03-29T09:42:14.999Z</time></trkpt><trkpt lat="42.2835392376056" lon="14.484516547948571"><ele>19.0</ele><time>2026-03-29T09:42:15.999Z</time></trkpt><trkpt lat="42.28372044875947" lon="14.484358786741057"><ele>19.0</ele><time>2026-03-29T09:42:16.999Z</time></trkpt><trkpt lat="42.28389606617919" lon="14.484201274626384"><ele>19.0</ele><time>2026-03-29T09:42:17.999Z</time></trkpt><trkpt lat="42.28406284844666" lon="14.484032729478823"><ele>27.0</ele><time>2026-03-29T09:42:18.999Z</time></trkpt><trkpt lat="42.2908786283214" lon="14.472457100415294"><ele>27.0</ele><time>2026-03-29T09:43:20Z</time></trkpt><trkpt lat="42.290906629165484" lon="14.4722709559339"><ele>27.0</ele><time>2026-03-29T09:43:21Z</time></trkpt><trkpt lat="42.29097720444244" lon="14.472115868777784"><ele>27.0</ele><time>2026-03-29T09:43:22Z</time></trkpt><trkpt lat="42.291045148006084" lon="14.471951946067096"><ele>27.0</ele><time>2026-03-29T09:43:23Z</time></trkpt><trkpt lat="42.291154903714805" lon="14.471814460104216"><ele>28.0</ele><time>2026-03-29T09:43:24Z</time></trkpt><trkpt lat="42.29129503235544" lon="14.471712583659073"><ele>29.0</ele><time>2026-03-29T09:43:25Z</time></trkpt><trkpt lat="42.29144668772904" lon="14.4715977008051"><ele>30.0</ele><time>2026-03-29T09:43:26Z</time></trkpt><trkpt lat="42.29160732527482" lon="14.471459271886122"><ele>30.0</ele><time>2026-03-29T09:43:27Z</time></trkpt><trkpt lat="42.291781159339976" lon="14.471334168030875"><ele>30.0</ele><time>2026-03-29T09:43:28Z</time></trkpt><trkpt lat="42.29193914869509" lon="14.471210676146814"><ele>30.0</ele><time>2026-03-29T09:43:29Z</time></trkpt><trkpt lat="42.29207850875468" lon="14.471098988953495"><ele>31.666666666666664</ele><time>2026-03-29T09:43:30Z</time></trkpt><trkpt lat="42.29220023802723" lon="14.470973333207379"><ele>33.33333333333333</ele><time>2026-03-29T09:43:31Z</time></trkpt><trkpt lat="42.29230597720558" lon="14.470817593493678"><ele>35.0</ele><time>2026-03-29T09:43:32Z</time></trkpt><trkpt lat="42.29240201869817" lon="14.47062464751184"><ele>37.666666666666664</ele><time>2026-03-29T09:43:33Z</time></trkpt><trkpt lat="42.29248662683332" lon="14.47040695708458"><ele>40.333333333333336</ele><time>2026-03-29T09:43:34Z</time></trkpt><trkpt lat="42.292574075049714" lon="14.470182408812466"><ele>43.0</ele><time>2026-03-29T09:43:35Z</time></trkpt><trkpt lat="42.292678290919255" lon="14.469969514675476"><ele>43.0</ele><time>2026-03-29T09:43:36Z</time></trkpt><trkpt lat="42.29279832580945" lon="14.469777635763537"><ele>43.0</ele><time>2026-03-29T09:43:37Z</time></trkpt><trkpt lat="42.292927571353175" lon="14.469599198375523"><ele>43.0</ele><time>2026-03-29T09:43:38Z</time></trkpt><trkpt lat="42.293066699803724" lon="14.46943280506049"><ele>42.333333333333336</ele><time>2026-03-29T09:43:38.999Z</time></trkpt><trkpt lat="42.29321795152645" lon="14.46929039091681"><ele>41.666666666666664</ele><time>2026-03-29T09:43:39.999Z</time></trkpt><trkpt lat="42.29337397147733" lon="14.469172030472713"><ele>41.0</ele><time>2026-03-29T09:43:40.999Z</time></trkpt><trkpt lat="42.293521455465886" lon="14.469068175024194"><ele>41.0</ele><time>2026-03-29T09:43:41.999Z</time></trkpt><trkpt lat="42.293650289708694" lon="14.46896513601536"><ele>41.0</ele><time>2026-03-29T09:43:42.999Z</time></trkpt><trkpt lat="42.293761359771246" lon="14.468849185561805"><ele>41.0</ele><time>2026-03-29T09:43:43.999Z</time></trkpt><trkpt lat="42.293860442129485" lon="14.468701377145273"><ele>41.0</ele><time>2026-03-29T09:43:44.999Z</time></trkpt><trkpt lat="42.29394598458136" lon="14.468525601593326"><ele>40.666666666666664</ele><time>2026-03-29T09:43:45.999Z</time></trkpt><trkpt lat="42.294000693853064" lon="14.46832049020415"><ele>40.333333333333336</ele><time>2026-03-29T09:43:46.999Z</time></trkpt><trkpt lat="42.29403072442906" lon="14.468096930638104"><ele>40.0</ele><time>2026-03-29T09:43:47.999Z</time></trkpt><trkpt lat="42.29404149247723" lon="14.467863636930051"><ele>40.0</ele><time>2026-03-29T09:43:48.999Z</time></trkpt><trkpt lat="42.29404808392367" lon="14.467630059257626"><ele>40.0</ele><time>2026-03-29T09:43:49.999Z</time></trkpt><trkpt lat="42.29408106031903" lon="14.467408841314246"><ele>40.0</ele><time>2026-03-29T09:43:50.999Z</time></trkpt><trkpt lat="42.29416746010778" lon="14.467212328609122"><ele>42.0</ele><time>2026-03-29T09:43:51.999Z</time></trkpt><trkpt lat="42.29425059590977" lon="14.466989210853985"><ele>44.0</ele><time>2026-03-29T09:43:52.999Z</time></trkpt><trkpt lat="42.29436098662568" lon="14.466760540307442"><ele>46.0</ele><time>2026-03-29T09:43:53.999Z</time></trkpt><trkpt lat="42.294470859328996" lon="14.466520847579343"><ele>46.333333333333336</ele><time>2026-03-29T09:43:54.999Z</time></trkpt><trkpt lat="42.29458299635564" lon="14.466272830250857"><ele>46.666666666666664</ele><time>2026-03-29T09:43:55.999Z</time></trkpt><trkpt lat="42.29468702539934" lon="14.466033115508052"><ele>47.0</ele><time>2026-03-29T09:43:56.999Z</time></trkpt><trkpt lat="42.294788105954204" lon="14.465808842736013"><ele>47.0</ele><time>2026-03-29T09:43:57.999Z</time></trkpt><trkpt lat="42.29489314964917" lon="14.465581397333127"><ele>47.0</ele><time>2026-03-29T09:43:58.999Z</time></trkpt><trkpt lat="42.29499860365569" lon="14.465351916525375"><ele>47.0</ele><time>2026-03-29T09:43:59.999Z</time></trkpt><trkpt lat="42.29510471780998" lon="14.465122092431582"><ele>47.666666666666664</ele><time>2026-03-29T09:44:00.999Z</time></trkpt><trkpt lat="42.29520590691109" lon="14.464897904035789"><ele>48.33333333333333</ele><time>2026-03-29T09:44:01.999Z</time></trkpt><trkpt lat="42.29529905671466" lon="14.464697643073105"><ele>49.0</ele><time>2026-03-29T09:44:02.999Z</time></trkpt><trkpt lat="42.29539797051926" lon="14.46452038632892"><ele>47.666666666666664</ele><time>2026-03-29T09:44:03.999Z</time></trkpt><trkpt lat="42.295530526747775" lon="14.464389419701732"><ele>46.33333333333333</ele><time>2026-03-29T09:44:04.999Z</time></trkpt><trkpt lat="42.29567609504166" lon="14.464268761280993"><ele>45.0</ele><time>2026-03-29T09:44:05.999Z</time></trkpt><trkpt lat="42.29582621305661" lon="14.464135684699569"><ele>45.0</ele><time>2026-03-29T09:44:06.999Z</time></trkpt><trkpt lat="42.295987524229474" lon="14.464020890619894"><ele>45.0</ele><time>2026-03-29T09:44:07.999Z</time></trkpt><trkpt lat="42.29613243121217" lon="14.46390469900621"><ele>45.0</ele><time>2026-03-29T09:44:08.999Z</time></trkpt><trkpt lat="42.296263526703136" lon="14.463787423275443"><ele>48.0</ele><time>2026-03-29T09:44:09.999Z</time></trkpt><trkpt lat="42.296385484873376" lon="14.463654979928693"><ele>51.0</ele><time>2026-03-29T09:44:10.999Z</time></trkpt><trkpt lat="42.29649016483984" lon="14.463494676269208"><ele>54.0</ele><time>2026-03-29T09:44:11.999Z</time></trkpt><trkpt lat="42.29657968939611" lon="14.4633059508223"><ele>50.666666666666664</ele><time>2026-03-29T09:44:12.999Z</time></trkpt><trkpt lat="42.29666407343268" lon="14.46312139263196"><ele>47.33333333333333</ele><time>2026-03-29T09:44:13.999Z</time></trkpt><trkpt lat="42.29676248792279" lon="14.462969511929824"><ele>44.0</ele><time>2026-03-29T09:44:14.999Z</time></trkpt><trkpt lat="42.29688169752625" lon="14.462849620901546"><ele>44.0</ele><time>2026-03-29T09:44:15.999Z</time></trkpt><trkpt lat="42.297022417908224" lon="14.462751237041923"><ele>44.0</ele><time>2026-03-29T09:44:16.999Z</time></trkpt><trkpt lat="42.29717741190978" lon="14.462673299160802"><ele>44.0</ele><time>2026-03-29T09:44:17.999Z</time></trkpt><trkpt lat="42.29734121176452" lon="14.462627292274556"><ele>28.0</ele><time>2026-03-29T09:44:18.999Z</time></trkpt><trkpt lat="42.3030714314355" lon="14.453638035920848"><ele>24.0</ele><time>2026-03-29T09:45:20Z</time></trkpt><trkpt lat="42.30318069254747" lon="14.453467130228834"><ele>20.0</ele><time>2026-03-29T09:45:21Z</time></trkpt><trkpt lat="42.303285304204145" lon="14.453279664154827"><ele>16.0</ele><time>2026-03-29T09:45:22Z</time></trkpt><trkpt lat="42.303382273786355" lon="14.453070098755829"><ele>19.0</ele><time>2026-03-29T09:45:23Z</time></trkpt><trkpt lat="42.30348080009867" lon="14.452839103210943"><ele>22.0</ele><time>2026-03-29T09:45:24Z</time></trkpt><trkpt lat="42.30358289154827" lon="14.452599419005473"><ele>25.0</ele><time>2026-03-29T09:45:25Z</time></trkpt><trkpt lat="42.303681954576994" lon="14.452368953290893"><ele>25.0</ele><time>2026-03-29T09:45:26Z</time></trkpt><trkpt lat="42.303781284938836" lon="14.45214713113696"><ele>25.0</ele><time>2026-03-29T09:45:27Z</time></trkpt><trkpt lat="42.30388039962576" lon="14.451940660289987"><ele>25.0</ele><time>2026-03-29T09:45:28Z</time></trkpt><trkpt lat="42.303968811113194" lon="14.451734632965778"><ele>23.0</ele><time>2026-03-29T09:45:29Z</time></trkpt><trkpt lat="42.30407327102157" lon="14.451533157723935"><ele>21.0</ele><time>2026-03-29T09:45:30Z</time></trkpt><trkpt lat="42.30418122581109" lon="14.45134342222268"><ele>19.0</ele><time>2026-03-29T09:45:31Z</time></trkpt><trkpt lat="42.304305642883186" lon="14.451181916428318"><ele>19.0</ele><time>2026-03-29T09:45:32Z</time></trkpt><trkpt lat="42.30444327536963" lon="14.451030408248984"><ele>19.0</ele><time>2026-03-29T09:45:33Z</time></trkpt><trkpt lat="42.30457845322432" lon="14.450859938893402"><ele>19.0</ele><time>2026-03-29T09:45:34Z</time></trkpt><trkpt lat="42.30473486492207" lon="14.450702193374582"><ele>16.0</ele><time>2026-03-29T09:45:35Z</time></trkpt><trkpt lat="42.30490005518954" lon="14.45053787702469"><ele>13.0</ele><time>2026-03-29T09:45:36Z</time></trkpt><trkpt lat="42.30506080035997" lon="14.450370443102399"><ele>10.0</ele><time>2026-03-29T09:45:37Z</time></trkpt><trkpt lat="42.30522125754405" lon="14.450213897009741"><ele>10.0</ele><time>2026-03-29T09:45:38Z</time></trkpt><trkpt lat="42.30539320809123" lon="14.450076480766057"><ele>10.0</ele><time>2026-03-29T09:45:39Z</time></trkpt><trkpt lat="42.30554733106015" lon="14.449902711221855"><ele>10.0</ele><time>2026-03-29T09:45:40Z</time></trkpt><trkpt lat="42.30570261950161" lon="14.449752720764787"><ele>11.0</ele><time>2026-03-29T09:45:41Z</time></trkpt><trkpt lat="42.30584585470516" lon="14.449610279193411"><ele>12.0</ele><time>2026-03-29T09:45:42Z</time></trkpt><trkpt lat="42.305981083606056" lon="14.449468896807403"><ele>13.0</ele><time>2026-03-29T09:45:43Z</time></trkpt><trkpt lat="42.30610969825421" lon="14.449330632828364"><ele>13.0</ele><time>2026-03-29T09:45:44Z</time></trkpt><trkpt lat="42.3062298315871" lon="14.449196414983788"><ele>13.0</ele><time>2026-03-29T09:45:45Z</time></trkpt><trkpt lat="42.30633125690027" lon="14.449063882584587"><ele>13.0</ele><time>2026-03-29T09:45:46Z</time></trkpt><trkpt lat="42.30641635564714" lon="14.448926523602534"><ele>13.0</ele><time>2026-03-29T09:45:46.999Z</time></trkpt><trkpt lat="42.306495578214395" lon="14.448778170997365"><ele>13.75</ele><time>2026-03-29T09:45:47.999Z</time></trkpt><trkpt lat="42.306577902525184" lon="14.448638645769543"><ele>14.5</ele><time>2026-03-29T09:45:48.999Z</time></trkpt><trkpt lat="42.30666238583925" lon="14.448502627022737"><ele>15.25</ele><time>2026-03-29T09:45:49.999Z</time></trkpt><trkpt lat="42.30674626696336" lon="14.448367178766636"><ele>16.0</ele><time>2026-03-29T09:45:50.999Z</time></trkpt><trkpt lat="42.30683131095838" lon="14.448234419011744"><ele>16.0</ele><time>2026-03-29T09:45:51.999Z</time></trkpt><trkpt lat="42.306916293362086" lon="14.448102532893278"><ele>16.0</ele><time>2026-03-29T09:45:52.999Z</time></trkpt><trkpt lat="42.30700132067641" lon="14.447975030995039"><ele>16.0</ele><time>2026-03-29T09:45:53.999Z</time></trkpt><trkpt lat="42.30708780390292" lon="14.44785686630977"><ele>16.0</ele><time>2026-03-29T09:45:54.999Z</time></trkpt><trkpt lat="42.30717764423116" lon="14.44774374148815"><ele>15.0</ele><time>2026-03-29T09:45:55.999Z</time></trkpt><trkpt lat="42.30726794597619" lon="14.447639840514341"><ele>14.0</ele><time>2026-03-29T09:45:56.999Z</time></trkpt><trkpt lat="42.30736538522669" lon="14.447551306441888"><ele>13.0</ele><time>2026-03-29T09:45:57.999Z</time></trkpt><trkpt lat="42.30746575724407" lon="14.447477406205017"><ele>12.0</ele><time>2026-03-29T09:45:58.999Z</time></trkpt><trkpt lat="42.307562199089055" lon="14.44740615445053"><ele>12.0</ele><time>2026-03-29T09:45:59.999Z</time></trkpt><trkpt lat="42.30764545856898" lon="14.44732073517711"><ele>12.0</ele><time>2026-03-29T09:46:00.999Z</time></trkpt><trkpt lat="42.30771895189785" lon="14.447225836887743"><ele>12.0</ele><time>2026-03-29T09:46:01.999Z</time></trkpt><trkpt lat="42.30778789591504" lon="14.447112650618815"><ele>12.0</ele><time>2026-03-29T09:46:02.999Z</time></trkpt><trkpt lat="42.307855481990956" lon="14.44698619519814"><ele>12.0</ele><time>2026-03-29T09:46:03.999Z</time></trkpt><trkpt lat="42.3079094749827" lon="14.446866876742469"><ele>11.6</ele><time>2026-03-29T09:46:04.999Z</time></trkpt><trkpt lat="42.307976892892775" lon="14.446768855826194"><ele>11.2</ele><time>2026-03-29T09:46:05.999Z</time></trkpt><trkpt lat="42.30803020759666" lon="14.446669319740566"><ele>10.8</ele><time>2026-03-29T09:46:06.999Z</time></trkpt><trkpt lat="42.30808009050242" lon="14.446576341048042"><ele>10.4</ele><time>2026-03-29T09:46:07.999Z</time></trkpt><trkpt lat="42.30811855164373" lon="14.446465882311733"><ele>10.0</ele><time>2026-03-29T09:46:08.999Z</time></trkpt><trkpt lat="42.30817250996479" lon="14.446367123458666"><ele>10.0</ele><time>2026-03-29T09:46:09.999Z</time></trkpt><trkpt lat="42.30821451591282" lon="14.446270089504932"><ele>10.0</ele><time>2026-03-29T09:46:10.999Z</time></trkpt><trkpt lat="42.30823717109731" lon="14.446175322597714"><ele>10.0</ele><time>2026-03-29T09:46:11.999Z</time></trkpt><trkpt lat="42.308245134225785" lon="14.44609011957253"><ele>10.0</ele><time>2026-03-29T09:46:12.999Z</time></trkpt><trkpt lat="42.30823149034752" lon="14.445973470552303"><ele>10.0</ele><time>2026-03-29T09:46:14.999Z</time></trkpt><trkpt lat="42.308202666477754" lon="14.445830934249662"><ele>10.0</ele><time>2026-03-29T09:46:17.999Z</time></trkpt><trkpt lat="42.308182555055446" lon="14.445739528158951"><ele>17.0</ele><time>2026-03-29T09:46:18.999Z</time></trkpt><trkpt lat="42.311963317238416" lon="14.440321445764377"><ele>17.0</ele><time>2026-03-29T09:47:20Z</time></trkpt><trkpt lat="42.31206874734041" lon="14.440117376237845"><ele>17.0</ele><time>2026-03-29T09:47:21Z</time></trkpt><trkpt lat="42.31217609784378" lon="14.43990184846813"><ele>17.0</ele><time>2026-03-29T09:47:22Z</time></trkpt><trkpt lat="42.312285279474764" lon="14.439688986442386"><ele>16.333333333333336</ele><time>2026-03-29T09:47:23Z</time></trkpt><trkpt lat="42.312393078731766" lon="14.439478736044348"><ele>15.666666666666668</ele><time>2026-03-29T09:47:24Z</time></trkpt><trkpt lat="42.31250059754408" lon="14.439271488611928"><ele>15.0</ele><time>2026-03-29T09:47:25Z</time></trkpt><trkpt lat="42.312603883649786" lon="14.439060024422872"><ele>15.0</ele><time>2026-03-29T09:47:26Z</time></trkpt><trkpt lat="42.31270964561678" lon="14.438857114580522"><ele>15.0</ele><time>2026-03-29T09:47:27Z</time></trkpt><trkpt lat="42.312823428365114" lon="14.43866628701058"><ele>15.0</ele><time>2026-03-29T09:47:28Z</time></trkpt><trkpt lat="42.312946319328695" lon="14.438485231672104"><ele>14.333333333333332</ele><time>2026-03-29T09:47:29Z</time></trkpt><trkpt lat="42.3130822588181" lon="14.4383186946309"><ele>13.666666666666666</ele><time>2026-03-29T09:47:30Z</time></trkpt><trkpt lat="42.313231131817155" lon="14.438167540488447"><ele>13.0</ele><time>2026-03-29T09:47:31Z</time></trkpt><trkpt lat="42.31339102281822" lon="14.438020290358514"><ele>16.333333333333332</ele><time>2026-03-29T09:47:32Z</time></trkpt><trkpt lat="42.31355485657882" lon="14.43787703652878"><ele>19.666666666666668</ele><time>2026-03-29T09:47:33Z</time></trkpt><trkpt lat="42.313716866440004" lon="14.43774183299065"><ele>23.0</ele><time>2026-03-29T09:47:34Z</time></trkpt><trkpt lat="42.31386405468839" lon="14.437621726822847"><ele>22.0</ele><time>2026-03-29T09:47:35Z</time></trkpt><trkpt lat="42.31401201588826" lon="14.43749345918207"><ele>21.0</ele><time>2026-03-29T09:47:36Z</time></trkpt><trkpt lat="42.31416454961184" lon="14.43735403458726"><ele>20.0</ele><time>2026-03-29T09:47:37Z</time></trkpt><trkpt lat="42.31432265393665" lon="14.437204556050293"><ele>21.666666666666668</ele><time>2026-03-29T09:47:38Z</time></trkpt><trkpt lat="42.314488330350684" lon="14.437053782287302"><ele>23.333333333333336</ele><time>2026-03-29T09:47:39Z</time></trkpt><trkpt lat="42.3146497592228" lon="14.43691581736066"><ele>25.0</ele><time>2026-03-29T09:47:40Z</time></trkpt><trkpt lat="42.314803515388924" lon="14.436784193657225"><ele>25.0</ele><time>2026-03-29T09:47:41Z</time></trkpt><trkpt lat="42.31496276988027" lon="14.43665790432055"><ele>25.0</ele><time>2026-03-29T09:47:42Z</time></trkpt><trkpt lat="42.31516171206918" lon="14.436554372884615"><ele>25.0</ele><time>2026-03-29T09:47:43Z</time></trkpt><trkpt lat="42.31536433180649" lon="14.436429218446754"><ele>27.333333333333336</ele><time>2026-03-29T09:47:44Z</time></trkpt><trkpt lat="42.315560610942626" lon="14.436285710381819"><ele>29.666666666666664</ele><time>2026-03-29T09:47:45Z</time></trkpt><trkpt lat="42.31575911805691" lon="14.436174663453265"><ele>32.0</ele><time>2026-03-29T09:47:46Z</time></trkpt><trkpt lat="42.31595964043161" lon="14.436059379825384"><ele>32.0</ele><time>2026-03-29T09:47:47Z</time></trkpt><trkpt lat="42.316149750320584" lon="14.435936778943777"><ele>32.0</ele><time>2026-03-29T09:47:48Z</time></trkpt><trkpt lat="42.316336589450565" lon="14.435807259443106"><ele>32.0</ele><time>2026-03-29T09:47:49Z</time></trkpt><trkpt lat="42.31651448655849" lon="14.43565948023206"><ele>33.0</ele><time>2026-03-29T09:47:50Z</time></trkpt><trkpt lat="42.316685027039505" lon="14.435483913731906"><ele>34.0</ele><time>2026-03-29T09:47:51Z</time></trkpt><trkpt lat="42.3168568533332" lon="14.43528931260907"><ele>35.0</ele><time>2026-03-29T09:47:52Z</time></trkpt><trkpt lat="42.31703198851771" lon="14.435083109332473"><ele>35.0</ele><time>2026-03-29T09:47:53Z</time></trkpt><trkpt lat="42.317204330597995" lon="14.434865749974612"><ele>35.0</ele><time>2026-03-29T09:47:54Z</time></trkpt><trkpt lat="42.317374105230215" lon="14.434647849203186"><ele>32.0</ele><time>2026-03-29T09:47:54.999Z</time></trkpt><trkpt lat="42.3175435333993" lon="14.434433000903311"><ele>29.0</ele><time>2026-03-29T09:47:55.999Z</time></trkpt><trkpt lat="42.31771412389653" lon="14.434221811900738"><ele>29.0</ele><time>2026-03-29T09:47:56.999Z</time></trkpt><trkpt lat="42.31788686021799" lon="14.43401095166904"><ele>29.0</ele><time>2026-03-29T09:47:57.999Z</time></trkpt><trkpt lat="42.318059237192436" lon="14.43379922896632"><ele>30.5</ele><time>2026-03-29T09:47:58.999Z</time></trkpt><trkpt lat="42.318231247009564" lon="14.433587310652072"><ele>32.0</ele><time>2026-03-29T09:47:59.999Z</time></trkpt><trkpt lat="42.31839653978041" lon="14.433371554639693"><ele>32.0</ele><time>2026-03-29T09:48:00.999Z</time></trkpt><trkpt lat="42.318553107467" lon="14.433155465576068"><ele>32.0</ele><time>2026-03-29T09:48:01.999Z</time></trkpt><trkpt lat="42.31870082481522" lon="14.432934855210561"><ele>32.0</ele><time>2026-03-29T09:48:02.999Z</time></trkpt><trkpt lat="42.3188388529707" lon="14.432720977061647"><ele>31.666666666666664</ele><time>2026-03-29T09:48:03.999Z</time></trkpt><trkpt lat="42.31896472558611" lon="14.432512125827987"><ele>31.333333333333336</ele><time>2026-03-29T09:48:04.999Z</time></trkpt><trkpt lat="42.31907552285592" lon="14.432295117410614"><ele>31.0</ele><time>2026-03-29T09:48:05.999Z</time></trkpt><trkpt lat="42.319164338537604" lon="14.432053603657057"><ele>33.66666666666667</ele><time>2026-03-29T09:48:06.999Z</time></trkpt><trkpt lat="42.31923117399952" lon="14.431791384297206"><ele>36.333333333333336</ele><time>2026-03-29T09:48:07.999Z</time></trkpt><trkpt lat="42.31928554460399" lon="14.431512816978936"><ele>39.0</ele><time>2026-03-29T09:48:08.999Z</time></trkpt><trkpt lat="42.31933392528401" lon="14.431228483748852"><ele>40.666666666666664</ele><time>2026-03-29T09:48:09.999Z</time></trkpt><trkpt lat="42.319386980719486" lon="14.430937855088608"><ele>42.33333333333333</ele><time>2026-03-29T09:48:10.999Z</time></trkpt><trkpt lat="42.31944900146286" lon="14.430653196980478"><ele>44.0</ele><time>2026-03-29T09:48:11.999Z</time></trkpt><trkpt lat="42.319506374455095" lon="14.430365288048918"><ele>45.33333333333333</ele><time>2026-03-29T09:48:12.999Z</time></trkpt><trkpt lat="42.31955932777825" lon="14.430077064850808"><ele>46.666666666666664</ele><time>2026-03-29T09:48:13.999Z</time></trkpt><trkpt lat="42.319613761106524" lon="14.429797592158467"><ele>48.0</ele><time>2026-03-29T09:48:14.999Z</time></trkpt><trkpt lat="42.319673654363065" lon="14.42952818804223"><ele>46.333333333333336</ele><time>2026-03-29T09:48:15.999Z</time></trkpt><trkpt lat="42.319747952858314" lon="14.429259664917307"><ele>44.66666666666667</ele><time>2026-03-29T09:48:16.999Z</time></trkpt><trkpt lat="42.31984694680795" lon="14.429005881532957"><ele>43.0</ele><time>2026-03-29T09:48:17.999Z</time></trkpt><trkpt lat="42.31997148858447" lon="14.428766495219856"><ele>29.0</ele><time>2026-03-29T09:48:18.999Z</time></trkpt><trkpt lat="42.32335388702374" lon="14.417486020526644"><ele>29.0</ele><time>2026-03-29T09:49:19.999Z</time></trkpt><trkpt lat="42.3233434583906" lon="14.417281576751845"><ele>29.0</ele><time>2026-03-29T09:49:21Z</time></trkpt><trkpt lat="42.32335799898342" lon="14.417063627110096"><ele>29.0</ele><time>2026-03-29T09:49:22Z</time></trkpt><trkpt lat="42.323372655330765" lon="14.416840452220109"><ele>30.0</ele><time>2026-03-29T09:49:23Z</time></trkpt><trkpt lat="42.32338092986395" lon="14.416623072548633"><ele>31.0</ele><time>2026-03-29T09:49:24Z</time></trkpt><trkpt lat="42.32338814009322" lon="14.416417875978958"><ele>32.0</ele><time>2026-03-29T09:49:25Z</time></trkpt><trkpt lat="42.323400553645904" lon="14.416248414025727"><ele>33.0</ele><time>2026-03-29T09:49:26Z</time></trkpt><trkpt lat="42.32342685871315" lon="14.416114474433316"><ele>34.599999999999994</ele><time>2026-03-29T09:49:27Z</time></trkpt><trkpt lat="42.32347743942917" lon="14.416012692122123"><ele>36.199999999999996</ele><time>2026-03-29T09:49:28Z</time></trkpt><trkpt lat="42.32356469065629" lon="14.415937526040596"><ele>37.8</ele><time>2026-03-29T09:49:29Z</time></trkpt><trkpt lat="42.32367695198638" lon="14.415910730415614"><ele>39.4</ele><time>2026-03-29T09:49:30Z</time></trkpt><trkpt lat="42.323793133323115" lon="14.415933694541005"><ele>41.0</ele><time>2026-03-29T09:49:31Z</time></trkpt><trkpt lat="42.323896160740254" lon="14.416007740706075"><ele>41.25</ele><time>2026-03-29T09:49:32Z</time></trkpt><trkpt lat="42.32396971550969" lon="14.416126646348848"><ele>41.5</ele><time>2026-03-29T09:49:33Z</time></trkpt><trkpt lat="42.32399292481543" lon="14.416280170755812"><ele>41.75</ele><time>2026-03-29T09:49:34Z</time></trkpt><trkpt lat="42.32396897727345" lon="14.416439113155285"><ele>42.0</ele><time>2026-03-29T09:49:35Z</time></trkpt><trkpt lat="42.323919707246084" lon="14.416585395042173"><ele>41.0</ele><time>2026-03-29T09:49:36Z</time></trkpt><trkpt lat="42.323912885882635" lon="14.416725460736094"><ele>40.0</ele><time>2026-03-29T09:49:37Z</time></trkpt><trkpt lat="42.3239498309846" lon="14.416866384043535"><ele>39.0</ele><time>2026-03-29T09:49:38Z</time></trkpt><trkpt lat="42.324029661020326" lon="14.416983868921719"><ele>38.0</ele><time>2026-03-29T09:49:39Z</time></trkpt><trkpt lat="42.32414614069968" lon="14.417073308872803"><ele>35.0</ele><time>2026-03-29T09:49:40Z</time></trkpt><trkpt lat="42.324280137963505" lon="14.417153402758304"><ele>32.0</ele><time>2026-03-29T09:49:41Z</time></trkpt><trkpt lat="42.32442011548258" lon="14.41723746920601"><ele>29.0</ele><time>2026-03-29T09:49:42Z</time></trkpt><trkpt lat="42.32455699745724" lon="14.41733074057216"><ele>29.0</ele><time>2026-03-29T09:49:43Z</time></trkpt><trkpt lat="42.3246886520499" lon="14.417418987833148"><ele>29.0</ele><time>2026-03-29T09:49:44Z</time></trkpt><trkpt lat="42.32481354599993" lon="14.417512916116062"><ele>29.0</ele><time>2026-03-29T09:49:45Z</time></trkpt><trkpt lat="42.32494074734042" lon="14.41760541487081"><ele>29.0</ele><time>2026-03-29T09:49:46Z</time></trkpt><trkpt lat="42.32506506390751" lon="14.417695599851978"><ele>32.75</ele><time>2026-03-29T09:49:47Z</time></trkpt><trkpt lat="42.32518374863649" lon="14.417773680180623"><ele>36.5</ele><time>2026-03-29T09:49:48Z</time></trkpt><trkpt lat="42.325300557431405" lon="14.417827465983851"><ele>40.25</ele><time>2026-03-29T09:49:49Z</time></trkpt><trkpt lat="42.32542034127333" lon="14.417829601921582"><ele>44.0</ele><time>2026-03-29T09:49:50Z</time></trkpt><trkpt lat="42.32553819215869" lon="14.41778469468703"><ele>45.0</ele><time>2026-03-29T09:49:51Z</time></trkpt><trkpt lat="42.32565405103548" lon="14.417697976240344"><ele>46.0</ele><time>2026-03-29T09:49:52Z</time></trkpt><trkpt lat="42.32575335049111" lon="14.417580702505086"><ele>47.0</ele><time>2026-03-29T09:49:53Z</time></trkpt><trkpt lat="42.325833415272974" lon="14.417436689774808"><ele>48.0</ele><time>2026-03-29T09:49:54Z</time></trkpt><trkpt lat="42.3259063411241" lon="14.41728363445458"><ele>50.0</ele><time>2026-03-29T09:49:55Z</time></trkpt><trkpt lat="42.325983268219666" lon="14.41714109491839"><ele>52.0</ele><time>2026-03-29T09:49:56Z</time></trkpt><trkpt lat="42.32605590422969" lon="14.41702874802272"><ele>54.0</ele><time>2026-03-29T09:49:57Z</time></trkpt><trkpt lat="42.32610449814036" lon="14.416945569174185"><ele>56.0</ele><time>2026-03-29T09:49:58Z</time></trkpt><trkpt lat="42.326205547256876" lon="14.416778855689955"><ele>56.0</ele><time>2026-03-29T09:50:00Z</time></trkpt><trkpt lat="42.32628648401187" lon="14.416640953937836"><ele>56.0</ele><time>2026-03-29T09:50:00.999Z</time></trkpt><trkpt lat="42.32637752870208" lon="14.416489084431628"><ele>56.0</ele><time>2026-03-29T09:50:01.999Z</time></trkpt><trkpt lat="42.32646356512167" lon="14.416340708262977"><ele>56.0</ele><time>2026-03-29T09:50:02.999Z</time></trkpt><trkpt lat="42.32658185862225" lon="14.416230159521414"><ele>59.0</ele><time>2026-03-29T09:50:03.999Z</time></trkpt><trkpt lat="42.326723961253364" lon="14.416160310753414"><ele>62.0</ele><time>2026-03-29T09:50:04.999Z</time></trkpt><trkpt lat="42.32687550541554" lon="14.416134682656258"><ele>65.0</ele><time>2026-03-29T09:50:05.999Z</time></trkpt><trkpt lat="42.32702856873723" lon="14.416150456808008"><ele>65.0</ele><time>2026-03-29T09:50:06.999Z</time></trkpt><trkpt lat="42.32717410949305" lon="14.416214772833063"><ele>65.0</ele><time>2026-03-29T09:50:07.999Z</time></trkpt><trkpt lat="42.327295360616084" lon="14.416303425928223"><ele>65.0</ele><time>2026-03-29T09:50:08.999Z</time></trkpt><trkpt lat="42.32739317985674" lon="14.41637427903423"><ele>65.0</ele><time>2026-03-29T09:50:09.999Z</time></trkpt><trkpt lat="42.32747073002609" lon="14.41641908176798"><ele>65.0</ele><time>2026-03-29T09:50:10.999Z</time></trkpt><trkpt lat="42.32754868362211" lon="14.416484601287896"><ele>65.0</ele><time>2026-03-29T09:50:12.999Z</time></trkpt><trkpt lat="42.3276188232313" lon="14.41653068023306"><ele>65.0</ele><time>2026-03-29T09:50:18.999Z</time></trkpt><trkpt lat="42.33525180600177" lon="14.41692732517088"><ele>65.6</ele><time>2026-03-29T09:51:19.999Z</time></trkpt><trkpt lat="42.33524439238772" lon="14.416780125382134"><ele>66.2</ele><time>2026-03-29T09:51:20.999Z</time></trkpt><trkpt lat="42.33522813744699" lon="14.416636977832852"><ele>66.8</ele><time>2026-03-29T09:51:21.999Z</time></trkpt><trkpt lat="42.33522210522046" lon="14.416509327736847"><ele>67.4</ele><time>2026-03-29T09:51:22.999Z</time></trkpt><trkpt lat="42.33521993961116" lon="14.416392602168456"><ele>68.0</ele><time>2026-03-29T09:51:23.999Z</time></trkpt><trkpt lat="42.3352159010911" lon="14.41628157649361"><ele>68.0</ele><time>2026-03-29T09:51:24.999Z</time></trkpt><trkpt lat="42.33521882780108" lon="14.416175326129032"><ele>68.0</ele><time>2026-03-29T09:51:25.999Z</time></trkpt><trkpt lat="42.33524595435694" lon="14.41607666826947"><ele>68.0</ele><time>2026-03-29T09:51:27Z</time></trkpt><trkpt lat="42.33530913887367" lon="14.415990675726443"><ele>68.0</ele><time>2026-03-29T09:51:28Z</time></trkpt><trkpt lat="42.33540755698819" lon="14.41595259699422"><ele>68.0</ele><time>2026-03-29T09:51:29Z</time></trkpt><trkpt lat="42.335498622640955" lon="14.415892930812925"><ele>67.5</ele><time>2026-03-29T09:51:30Z</time></trkpt><trkpt lat="42.335600201250294" lon="14.415861026674099"><ele>67.0</ele><time>2026-03-29T09:51:31Z</time></trkpt><trkpt lat="42.33569845209508" lon="14.415800724786084"><ele>66.5</ele><time>2026-03-29T09:51:32Z</time></trkpt><trkpt lat="42.33579926117527" lon="14.415701657373653"><ele>66.0</ele><time>2026-03-29T09:51:33Z</time></trkpt><trkpt lat="42.33590224824471" lon="14.415574153749832"><ele>66.5</ele><time>2026-03-29T09:51:34Z</time></trkpt><trkpt lat="42.33599821485303" lon="14.415415188890226"><ele>67.0</ele><time>2026-03-29T09:51:35Z</time></trkpt><trkpt lat="42.33608374136792" lon="14.415255996899683"><ele>67.5</ele><time>2026-03-29T09:51:36Z</time></trkpt><trkpt lat="42.336167326738384" lon="14.415109597515288"><ele>68.0</ele><time>2026-03-29T09:51:37Z</time></trkpt><trkpt lat="42.33625234325983" lon="14.4149601689922"><ele>68.0</ele><time>2026-03-29T09:51:38Z</time></trkpt><trkpt lat="42.33633707751999" lon="14.414796329848263"><ele>68.0</ele><time>2026-03-29T09:51:39Z</time></trkpt><trkpt lat="42.33641742572275" lon="14.414620548458283"><ele>68.0</ele><time>2026-03-29T09:51:40Z</time></trkpt><trkpt lat="42.336489239898114" lon="14.414447802029612"><ele>68.0</ele><time>2026-03-29T09:51:41Z</time></trkpt><trkpt lat="42.336557232221615" lon="14.414290582692"><ele>67.25</ele><time>2026-03-29T09:51:42Z</time></trkpt><trkpt lat="42.336631670698566" lon="14.414140763781859"><ele>66.5</ele><time>2026-03-29T09:51:43Z</time></trkpt><trkpt lat="42.33671448142739" lon="14.413988289153743"><ele>65.75</ele><time>2026-03-29T09:51:44Z</time></trkpt><trkpt lat="42.336807589062346" lon="14.413835535860088"><ele>65.0</ele><time>2026-03-29T09:51:45Z</time></trkpt><trkpt lat="42.33690992427923" lon="14.413695468026328"><ele>65.0</ele><time>2026-03-29T09:51:46Z</time></trkpt><trkpt lat="42.337020410400186" lon="14.413567711461225"><ele>65.0</ele><time>2026-03-29T09:51:47Z</time></trkpt><trkpt lat="42.3371283306313" lon="14.413456297962808"><ele>65.0</ele><time>2026-03-29T09:51:48Z</time></trkpt><trkpt lat="42.33722903174625" lon="14.41335553610742"><ele>65.0</ele><time>2026-03-29T09:51:49Z</time></trkpt><trkpt lat="42.33731895062759" lon="14.41326464495094"><ele>63.8</ele><time>2026-03-29T09:51:50Z</time></trkpt><trkpt lat="42.33739804811941" lon="14.413176941438794"><ele>62.6</ele><time>2026-03-29T09:51:51Z</time></trkpt><trkpt lat="42.337465498672834" lon="14.413090030302326"><ele>61.400000000000006</ele><time>2026-03-29T09:51:52Z</time></trkpt><trkpt lat="42.33751492759104" lon="14.412978281199987"><ele>60.2</ele><time>2026-03-29T09:51:53Z</time></trkpt><trkpt lat="42.33754167062459" lon="14.41284172130967"><ele>59.0</ele><time>2026-03-29T09:51:54Z</time></trkpt><trkpt lat="42.337544517485675" lon="14.41268774395082"><ele>58.25</ele><time>2026-03-29T09:51:55Z</time></trkpt><trkpt lat="42.33754497595457" lon="14.412533139211762"><ele>57.5</ele><time>2026-03-29T09:51:56Z</time></trkpt><trkpt lat="42.337576953348616" lon="14.412377727865675"><ele>56.75</ele><time>2026-03-29T09:51:57Z</time></trkpt><trkpt lat="42.33766047987767" lon="14.412238197070316"><ele>56.0</ele><time>2026-03-29T09:51:58Z</time></trkpt><trkpt lat="42.33774195050157" lon="14.412108524281026"><ele>57.5</ele><time>2026-03-29T09:51:59Z</time></trkpt><trkpt lat="42.33781314762981" lon="14.411975296268027"><ele>59.0</ele><time>2026-03-29T09:52:00Z</time></trkpt><trkpt lat="42.337892451945315" lon="14.411865027765412"><ele>60.5</ele><time>2026-03-29T09:52:01Z</time></trkpt><trkpt lat="42.33798344501365" lon="14.411778081682415"><ele>62.0</ele><time>2026-03-29T09:52:01.999Z</time></trkpt><trkpt lat="42.338095540856365" lon="14.41171921441939"><ele>59.0</ele><time>2026-03-29T09:52:02.999Z</time></trkpt><trkpt lat="42.33822119309667" lon="14.411694527938675"><ele>56.0</ele><time>2026-03-29T09:52:03.999Z</time></trkpt><trkpt lat="42.33835043935968" lon="14.411683664737303"><ele>53.0</ele><time>2026-03-29T09:52:04.999Z</time></trkpt><trkpt lat="42.33848310695088" lon="14.411648781535371"><ele>50.0</ele><time>2026-03-29T09:52:05.999Z</time></trkpt><trkpt lat="42.33861429583693" lon="14.411595876268402"><ele>50.0</ele><time>2026-03-29T09:52:06.999Z</time></trkpt><trkpt lat="42.338748343004774" lon="14.41152549946994"><ele>50.0</ele><time>2026-03-29T09:52:07.999Z</time></trkpt><trkpt lat="42.338879003141884" lon="14.41144915408765"><ele>50.0</ele><time>2026-03-29T09:52:08.999Z</time></trkpt><trkpt lat="42.338999915211694" lon="14.41135993478439"><ele>50.0</ele><time>2026-03-29T09:52:09.999Z</time></trkpt><trkpt lat="42.33911931279308" lon="14.41126806296043"><ele>46.0</ele><time>2026-03-29T09:52:10.999Z</time></trkpt><trkpt lat="42.33923415699167" lon="14.411201846135318"><ele>42.0</ele><time>2026-03-29T09:52:11.999Z</time></trkpt><trkpt lat="42.33935157558561" lon="14.411166630245878"><ele>38.0</ele><time>2026-03-29T09:52:12.999Z</time></trkpt><trkpt lat="42.33948892052966" lon="14.41116625688191"><ele>34.0</ele><time>2026-03-29T09:52:13.999Z</time></trkpt><trkpt lat="42.339631894871005" lon="14.41118181676103"><ele>33.25</ele><time>2026-03-29T09:52:14.999Z</time></trkpt><trkpt lat="42.3397705370848" lon="14.411196402501211"><ele>32.5</ele><time>2026-03-29T09:52:15.999Z</time></trkpt><trkpt lat="42.3399047672122" lon="14.411201929816832"><ele>31.75</ele><time>2026-03-29T09:52:16.999Z</time></trkpt><trkpt lat="42.34003684922328" lon="14.411185103834276"><ele>31.0</ele><time>2026-03-29T09:52:17.999Z</time></trkpt><trkpt lat="42.340172555411826" lon="14.411150615910985"><ele>39.0</ele><time>2026-03-29T09:52:18.999Z</time></trkpt><trkpt lat="42.34404395034718" lon="14.403968942368923"><ele>37.333333333333336</ele><time>2026-03-29T09:53:19.999Z</time></trkpt><trkpt lat="42.34393187784184" lon="14.403729002870522"><ele>35.66666666666667</ele><time>2026-03-29T09:53:20.999Z</time></trkpt><trkpt lat="42.343827133366574" lon="14.403470184804013"><ele>34.0</ele><time>2026-03-29T09:53:21.999Z</time></trkpt><trkpt lat="42.34373364333353" lon="14.403222710337808"><ele>40.333333333333336</ele><time>2026-03-29T09:53:22.999Z</time></trkpt><trkpt lat="42.343647175463474" lon="14.402979795123702"><ele>46.66666666666667</ele><time>2026-03-29T09:53:23.999Z</time></trkpt><trkpt lat="42.34357542241992" lon="14.402732231372452"><ele>53.0</ele><time>2026-03-29T09:53:24.999Z</time></trkpt><trkpt lat="42.3435144285632" lon="14.402481453330136"><ele>53.0</ele><time>2026-03-29T09:53:25.999Z</time></trkpt><trkpt lat="42.34347375634641" lon="14.402252282459171"><ele>53.0</ele><time>2026-03-29T09:53:26.999Z</time></trkpt><trkpt lat="42.34342146939671" lon="14.402005880486117"><ele>53.0</ele><time>2026-03-29T09:53:27.999Z</time></trkpt><trkpt lat="42.3434102324311" lon="14.401741710223233"><ele>59.333333333333336</ele><time>2026-03-29T09:53:28.999Z</time></trkpt><trkpt lat="42.34339402133069" lon="14.401484290599958"><ele>65.66666666666667</ele><time>2026-03-29T09:53:29.999Z</time></trkpt><trkpt lat="42.34338772941911" lon="14.401237030616231"><ele>72.0</ele><time>2026-03-29T09:53:30.999Z</time></trkpt><trkpt lat="42.343393014074934" lon="14.40100085950402"><ele>75.0</ele><time>2026-03-29T09:53:31.999Z</time></trkpt><trkpt lat="42.34340718720618" lon="14.400760518537409"><ele>78.0</ele><time>2026-03-29T09:53:33.066Z</time></trkpt><trkpt lat="42.34342820536434" lon="14.400544364560428"><ele>81.0</ele><time>2026-03-29T09:53:34.056Z</time></trkpt><trkpt lat="42.34394223570191" lon="14.3984322336902"><ele>73.66666666666667</ele><time>2026-03-29T09:53:41.999Z</time></trkpt><trkpt lat="42.34401791403173" lon="14.398182964666793"><ele>66.33333333333334</ele><time>2026-03-29T09:53:43Z</time></trkpt><trkpt lat="42.34408331530292" lon="14.397965904264625"><ele>59.0</ele><time>2026-03-29T09:53:43.999Z</time></trkpt><trkpt lat="42.34413739100057" lon="14.397736680879122"><ele>57.66666666666667</ele><time>2026-03-29T09:53:44.999Z</time></trkpt><trkpt lat="42.344192297664456" lon="14.397466208053768"><ele>56.33333333333333</ele><time>2026-03-29T09:53:46Z</time></trkpt><trkpt lat="42.34425357084587" lon="14.397207978269783"><ele>55.0</ele><time>2026-03-29T09:53:46.999Z</time></trkpt><trkpt lat="42.34430759451303" lon="14.396958499881555"><ele>58.0</ele><time>2026-03-29T09:53:47.999Z</time></trkpt><trkpt lat="42.344374085316716" lon="14.39669983822225"><ele>61.0</ele><time>2026-03-29T09:53:48.999Z</time></trkpt><trkpt lat="42.34444372711545" lon="14.396425748290815"><ele>64.0</ele><time>2026-03-29T09:53:49.999Z</time></trkpt><trkpt lat="42.344515204233055" lon="14.396156524320192"><ele>66.0</ele><time>2026-03-29T09:53:50.999Z</time></trkpt><trkpt lat="42.34458957828113" lon="14.395883439557826"><ele>68.0</ele><time>2026-03-29T09:53:51.999Z</time></trkpt><trkpt lat="42.34466339669681" lon="14.395612808680777"><ele>70.0</ele><time>2026-03-29T09:53:52.999Z</time></trkpt><trkpt lat="42.344730540384" lon="14.395334937024902"><ele>68.66666666666666</ele><time>2026-03-29T09:53:53.999Z</time></trkpt><trkpt lat="42.34479946669707" lon="14.395057729395223"><ele>67.33333333333333</ele><time>2026-03-29T09:53:54.999Z</time></trkpt><trkpt lat="42.34487234679617" lon="14.394787230547056"><ele>66.0</ele><time>2026-03-29T09:53:55.999Z</time></trkpt><trkpt lat="42.34494542753111" lon="14.394519124737307"><ele>66.0</ele><time>2026-03-29T09:53:56.999Z</time></trkpt><trkpt lat="42.34501642543339" lon="14.394250560084515"><ele>66.0</ele><time>2026-03-29T09:53:57.999Z</time></trkpt><trkpt lat="42.34508683164718" lon="14.393982470316706"><ele>66.0</ele><time>2026-03-29T09:53:58.999Z</time></trkpt><trkpt lat="42.34515668240204" lon="14.393715367070188"><ele>69.33333333333333</ele><time>2026-03-29T09:53:59.999Z</time></trkpt><trkpt lat="42.345228460542856" lon="14.393451769322192"><ele>72.66666666666666</ele><time>2026-03-29T09:54:00.999Z</time></trkpt><trkpt lat="42.34529676457414" lon="14.393188647796032"><ele>76.0</ele><time>2026-03-29T09:54:01.999Z</time></trkpt><trkpt lat="42.34536341163422" lon="14.392924169909104"><ele>77.33333333333333</ele><time>2026-03-29T09:54:02.999Z</time></trkpt><trkpt lat="42.345432943826935" lon="14.392662223313573"><ele>78.66666666666667</ele><time>2026-03-29T09:54:03.999Z</time></trkpt><trkpt lat="42.34550213927547" lon="14.392401820502936"><ele>80.0</ele><time>2026-03-29T09:54:04.999Z</time></trkpt><trkpt lat="42.34557013237684" lon="14.392141197596839"><ele>81.0</ele><time>2026-03-29T09:54:05.999Z</time></trkpt><trkpt lat="42.34563733989769" lon="14.391883368380459"><ele>82.0</ele><time>2026-03-29T09:54:06.999Z</time></trkpt><trkpt lat="42.34570173876392" lon="14.39163133328759"><ele>83.0</ele><time>2026-03-29T09:54:07.999Z</time></trkpt><trkpt lat="42.34576699709048" lon="14.39138318031599"><ele>83.66666666666667</ele><time>2026-03-29T09:54:08.999Z</time></trkpt><trkpt lat="42.345835094907585" lon="14.39113735581723"><ele>84.33333333333333</ele><time>2026-03-29T09:54:09.999Z</time></trkpt><trkpt lat="42.34589918156919" lon="14.390891891746724"><ele>85.0</ele><time>2026-03-29T09:54:10.999Z</time></trkpt><trkpt lat="42.34596309114166" lon="14.390645207306182"><ele>85.33333333333333</ele><time>2026-03-29T09:54:11.999Z</time></trkpt><trkpt lat="42.34602629353186" lon="14.390401422847942"><ele>85.66666666666667</ele><time>2026-03-29T09:54:12.999Z</time></trkpt><trkpt lat="42.346092256990836" lon="14.390159837713137"><ele>86.0</ele><time>2026-03-29T09:54:13.999Z</time></trkpt><trkpt lat="42.34616216323423" lon="14.38991622039219"><ele>86.0</ele><time>2026-03-29T09:54:14.999Z</time></trkpt><trkpt lat="42.34623937743333" lon="14.389671921330077"><ele>86.0</ele><time>2026-03-29T09:54:15.999Z</time></trkpt><trkpt lat="42.34633238554475" lon="14.389453845640883"><ele>86.0</ele><time>2026-03-29T09:54:16.999Z</time></trkpt><trkpt lat="42.346436213914046" lon="14.389252663269065"><ele>84.5</ele><time>2026-03-29T09:54:17.999Z</time></trkpt><trkpt lat="42.346550238509415" lon="14.389068464061587"><ele>83.0</ele><time>2026-03-29T09:54:18.999Z</time></trkpt><trkpt lat="42.35741843162529" lon="14.384428395456457"><ele>79.0</ele><time>2026-03-29T09:55:19.999Z</time></trkpt><trkpt lat="42.35761771341874" lon="14.384349070184715"><ele>75.0</ele><time>2026-03-29T09:55:20.999Z</time></trkpt><trkpt lat="42.357816016550125" lon="14.384277406819153"><ele>71.0</ele><time>2026-03-29T09:55:21.999Z</time></trkpt><trkpt lat="42.35800899735729" lon="14.384203111022492"><ele>72.33333333333334</ele><time>2026-03-29T09:55:22.999Z</time></trkpt><trkpt lat="42.358200812336854" lon="14.384127434755456"><ele>73.66666666666667</ele><time>2026-03-29T09:55:23.999Z</time></trkpt><trkpt lat="42.35839079131433" lon="14.38405114130098"><ele>75.0</ele><time>2026-03-29T09:55:24.999Z</time></trkpt><trkpt lat="42.358577389189705" lon="14.3839791380982"><ele>75.0</ele><time>2026-03-29T09:55:25.999Z</time></trkpt><trkpt lat="42.35876354747268" lon="14.383915346527294"><ele>75.0</ele><time>2026-03-29T09:55:26.999Z</time></trkpt><trkpt lat="42.35894266826284" lon="14.383839314751143"><ele>75.0</ele><time>2026-03-29T09:55:27.999Z</time></trkpt><trkpt lat="42.35911908352402" lon="14.383770791943451"><ele>75.0</ele><time>2026-03-29T09:55:28.999Z</time></trkpt><trkpt lat="42.359288704929" lon="14.383697498092712"><ele>75.0</ele><time>2026-03-29T09:55:29.999Z</time></trkpt><trkpt lat="42.359464843427574" lon="14.383634674715655"><ele>75.0</ele><time>2026-03-29T09:55:30.999Z</time></trkpt><trkpt lat="42.35962688842003" lon="14.383570327652079"><ele>75.0</ele><time>2026-03-29T09:55:31.999Z</time></trkpt><trkpt lat="42.35978558977153" lon="14.383501836505562"><ele>75.0</ele><time>2026-03-29T09:55:32.999Z</time></trkpt><trkpt lat="42.35995377041794" lon="14.383438403738882"><ele>75.0</ele><time>2026-03-29T09:55:33.999Z</time></trkpt><trkpt lat="42.360122490726994" lon="14.383374517718416"><ele>75.0</ele><time>2026-03-29T09:55:34.999Z</time></trkpt><trkpt lat="42.360286465558914" lon="14.383309703352392"><ele>75.0</ele><time>2026-03-29T09:55:35.999Z</time></trkpt><trkpt lat="42.36044422242252" lon="14.383250921014614"><ele>75.0</ele><time>2026-03-29T09:55:36.999Z</time></trkpt><trkpt lat="42.36058950559962" lon="14.383196136914135"><ele>74.6</ele><time>2026-03-29T09:55:37.999Z</time></trkpt><trkpt lat="42.360723767096324" lon="14.3831522295635"><ele>74.2</ele><time>2026-03-29T09:55:38.999Z</time></trkpt><trkpt lat="42.36084438283083" lon="14.383117417382664"><ele>73.8</ele><time>2026-03-29T09:55:39.999Z</time></trkpt><trkpt lat="42.36094778149373" lon="14.383095145756174"><ele>73.4</ele><time>2026-03-29T09:55:40.999Z</time></trkpt><trkpt lat="42.36102933990745" lon="14.383082755005786"><ele>73.0</ele><time>2026-03-29T09:55:41.999Z</time></trkpt><trkpt lat="42.36110571673724" lon="14.383081605885973"><ele>73.0</ele><time>2026-03-29T09:55:42.999Z</time></trkpt><trkpt lat="42.36117358205096" lon="14.383085430090329"><ele>73.0</ele><time>2026-03-29T09:55:43.999Z</time></trkpt><trkpt lat="42.36124822417244" lon="14.383105299663468"><ele>73.0</ele><time>2026-03-29T09:55:46.999Z</time></trkpt><trkpt lat="42.36134156517126" lon="14.383156552534036"><ele>73.0</ele><time>2026-03-29T09:55:48.999Z</time></trkpt><trkpt lat="42.36146222815377" lon="14.38315219549059"><ele>73.0</ele><time>2026-03-29T09:55:50.999Z</time></trkpt><trkpt lat="42.3615241442699" lon="14.383110074006467"><ele>73.0</ele><time>2026-03-29T09:55:51.999Z</time></trkpt><trkpt lat="42.36159367189766" lon="14.383054521428841"><ele>73.0</ele><time>2026-03-29T09:55:52.999Z</time></trkpt><trkpt lat="42.361670338690345" lon="14.383018802295782"><ele>73.0</ele><time>2026-03-29T09:55:53.999Z</time></trkpt><trkpt lat="42.36176533401077" lon="14.382989661578229"><ele>73.0</ele><time>2026-03-29T09:55:54.999Z</time></trkpt><trkpt lat="42.361871812192426" lon="14.382983858838811"><ele>73.0</ele><time>2026-03-29T09:55:55.999Z</time></trkpt><trkpt lat="42.36198496768677" lon="14.382973239487084"><ele>73.0</ele><time>2026-03-29T09:55:56.999Z</time></trkpt><trkpt lat="42.36209291170901" lon="14.382963616977792"><ele>72.75</ele><time>2026-03-29T09:55:57.999Z</time></trkpt><trkpt lat="42.36220946163605" lon="14.382962622029162"><ele>72.5</ele><time>2026-03-29T09:55:58.999Z</time></trkpt><trkpt lat="42.362334278336895" lon="14.38294846425158"><ele>72.25</ele><time>2026-03-29T09:55:59.999Z</time></trkpt><trkpt lat="42.36247041011247" lon="14.382936376709393"><ele>72.0</ele><time>2026-03-29T09:56:00.999Z</time></trkpt><trkpt lat="42.36260603873809" lon="14.382922369428714"><ele>72.0</ele><time>2026-03-29T09:56:01.999Z</time></trkpt><trkpt lat="42.362745528718506" lon="14.382909304072054"><ele>72.0</ele><time>2026-03-29T09:56:02.999Z</time></trkpt><trkpt lat="42.362898082229314" lon="14.382895936826662"><ele>72.0</ele><time>2026-03-29T09:56:03.999Z</time></trkpt><trkpt lat="42.36305673621768" lon="14.382884916672687"><ele>71.33333333333333</ele><time>2026-03-29T09:56:04.999Z</time></trkpt><trkpt lat="42.3632296453055" lon="14.38286229912803"><ele>70.66666666666666</ele><time>2026-03-29T09:56:05.999Z</time></trkpt><trkpt lat="42.36343388097643" lon="14.3828635373649"><ele>70.0</ele><time>2026-03-29T09:56:06.999Z</time></trkpt><trkpt lat="42.36363941874503" lon="14.382822957745406"><ele>70.0</ele><time>2026-03-29T09:56:07.999Z</time></trkpt><trkpt lat="42.36385564011836" lon="14.38280715138544"><ele>70.0</ele><time>2026-03-29T09:56:08.999Z</time></trkpt><trkpt lat="42.36408016433767" lon="14.382790965234662"><ele>70.0</ele><time>2026-03-29T09:56:09.999Z</time></trkpt><trkpt lat="42.364306813075075" lon="14.382773259823985"><ele>69.0</ele><time>2026-03-29T09:56:10.999Z</time></trkpt><trkpt lat="42.36453060491822" lon="14.382753182063036"><ele>68.0</ele><time>2026-03-29T09:56:11.999Z</time></trkpt><trkpt lat="42.36475209775086" lon="14.382733771378811"><ele>67.0</ele><time>2026-03-29T09:56:12.999Z</time></trkpt><trkpt lat="42.36496831696739" lon="14.382715294695648"><ele>66.66666666666666</ele><time>2026-03-29T09:56:13.999Z</time></trkpt><trkpt lat="42.365176748394504" lon="14.382696930137481"><ele>66.33333333333333</ele><time>2026-03-29T09:56:14.999Z</time></trkpt><trkpt lat="42.36538490380979" lon="14.382678814051607"><ele>66.0</ele><time>2026-03-29T09:56:15.999Z</time></trkpt><trkpt lat="42.36559355432635" lon="14.382664574908672"><ele>66.0</ele><time>2026-03-29T09:56:16.999Z</time></trkpt><trkpt lat="42.3658020616908" lon="14.38264805420652"><ele>66.0</ele><time>2026-03-29T09:56:17.999Z</time></trkpt><trkpt lat="42.36600861563833" lon="14.382627012957684"><ele>66.0</ele><time>2026-03-29T09:56:18.999Z</time></trkpt><trkpt lat="42.37334996533137" lon="14.377371720584033"><ele>63.0</ele><time>2026-03-29T09:57:19.999Z</time></trkpt><trkpt lat="42.373427016694365" lon="14.3772136745414"><ele>60.0</ele><time>2026-03-29T09:57:20.999Z</time></trkpt><trkpt lat="42.37350091706053" lon="14.377041619507933"><ele>57.0</ele><time>2026-03-29T09:57:21.999Z</time></trkpt><trkpt lat="42.373574641220934" lon="14.376853321642312"><ele>54.0</ele><time>2026-03-29T09:57:22.999Z</time></trkpt><trkpt lat="42.37363857009751" lon="14.376656390100745"><ele>54.0</ele><time>2026-03-29T09:57:23.999Z</time></trkpt><trkpt lat="42.37369562021884" lon="14.376461618120915"><ele>54.0</ele><time>2026-03-29T09:57:24.999Z</time></trkpt><trkpt lat="42.37374963355932" lon="14.376259553259418"><ele>54.0</ele><time>2026-03-29T09:57:25.999Z</time></trkpt><trkpt lat="42.3738019623448" lon="14.37604519867453"><ele>49.666666666666664</ele><time>2026-03-29T09:57:26.999Z</time></trkpt><trkpt lat="42.37385597521195" lon="14.375829159723644"><ele>45.33333333333333</ele><time>2026-03-29T09:57:27.999Z</time></trkpt><trkpt lat="42.373910328523806" lon="14.375615401063786"><ele>41.0</ele><time>2026-03-29T09:57:28.999Z</time></trkpt><trkpt lat="42.373962116421765" lon="14.37541292431743"><ele>41.0</ele><time>2026-03-29T09:57:29.999Z</time></trkpt><trkpt lat="42.37401068241682" lon="14.375207656412329"><ele>41.0</ele><time>2026-03-29T09:57:30.999Z</time></trkpt><trkpt lat="42.37405455572357" lon="14.37499830044808"><ele>41.0</ele><time>2026-03-29T09:57:31.999Z</time></trkpt><trkpt lat="42.37409296267643" lon="14.37478348282071"><ele>41.0</ele><time>2026-03-29T09:57:32.999Z</time></trkpt><trkpt lat="42.374122895340484" lon="14.374572731821981"><ele>41.0</ele><time>2026-03-29T09:57:33.999Z</time></trkpt><trkpt lat="42.3741480254858" lon="14.37436299951099"><ele>41.0</ele><time>2026-03-29T09:57:34.999Z</time></trkpt><trkpt lat="42.37416251267333" lon="14.374138283089042"><ele>41.0</ele><time>2026-03-29T09:57:35.999Z</time></trkpt><trkpt lat="42.37416496385595" lon="14.373910365070955"><ele>41.0</ele><time>2026-03-29T09:57:36.999Z</time></trkpt><trkpt lat="42.37416496521822" lon="14.373697356970856"><ele>41.0</ele><time>2026-03-29T09:57:37.999Z</time></trkpt><trkpt lat="42.374170843021865" lon="14.373484282709121"><ele>39.666666666666664</ele><time>2026-03-29T09:57:38.999Z</time></trkpt><trkpt lat="42.3741740716212" lon="14.373263732439156"><ele>38.333333333333336</ele><time>2026-03-29T09:57:39.999Z</time></trkpt><trkpt lat="42.37417843288612" lon="14.373052164469046"><ele>37.0</ele><time>2026-03-29T09:57:40.999Z</time></trkpt><trkpt lat="42.374187613940954" lon="14.372842375932654"><ele>34.66666666666667</ele><time>2026-03-29T09:57:41.999Z</time></trkpt><trkpt lat="42.37420804068254" lon="14.3726289905437"><ele>32.333333333333336</ele><time>2026-03-29T09:57:42.999Z</time></trkpt><trkpt lat="42.37424244871835" lon="14.372414371209306"><ele>30.0</ele><time>2026-03-29T09:57:43.999Z</time></trkpt><trkpt lat="42.37429544253236" lon="14.37220108404986"><ele>26.0</ele><time>2026-03-29T09:57:45Z</time></trkpt><trkpt lat="42.37436387950554" lon="14.371990761868494"><ele>22.0</ele><time>2026-03-29T09:57:46Z</time></trkpt><trkpt lat="42.374448421857316" lon="14.371793050084245"><ele>18.0</ele><time>2026-03-29T09:57:47Z</time></trkpt><trkpt lat="42.3745420211085" lon="14.371611128414674"><ele>18.0</ele><time>2026-03-29T09:57:48Z</time></trkpt><trkpt lat="42.374652107395846" lon="14.371437334559664"><ele>18.0</ele><time>2026-03-29T09:57:49Z</time></trkpt><trkpt lat="42.37477282054937" lon="14.371273631844536"><ele>18.0</ele><time>2026-03-29T09:57:50Z</time></trkpt><trkpt lat="42.3749024805391" lon="14.371126319248978"><ele>16.333333333333332</ele><time>2026-03-29T09:57:51Z</time></trkpt><trkpt lat="42.37504518654562" lon="14.370995011993303"><ele>14.666666666666666</ele><time>2026-03-29T09:57:52Z</time></trkpt><trkpt lat="42.37519939689912" lon="14.370878037753249"><ele>13.0</ele><time>2026-03-29T09:57:53Z</time></trkpt><trkpt lat="42.37536529487327" lon="14.370775971362606"><ele>13.0</ele><time>2026-03-29T09:57:54Z</time></trkpt><trkpt lat="42.37553901143941" lon="14.370686320752267"><ele>13.0</ele><time>2026-03-29T09:57:55Z</time></trkpt><trkpt lat="42.37571021323781" lon="14.37061054607216"><ele>13.0</ele><time>2026-03-29T09:57:56Z</time></trkpt><trkpt lat="42.37587290778978" lon="14.3705348797243"><ele>15.666666666666666</ele><time>2026-03-29T09:57:57Z</time></trkpt><trkpt lat="42.37602635815067" lon="14.370455950708937"><ele>18.333333333333332</ele><time>2026-03-29T09:57:58Z</time></trkpt><trkpt lat="42.37618290743236" lon="14.370375121013083"><ele>21.0</ele><time>2026-03-29T09:57:59Z</time></trkpt><trkpt lat="42.37634513427899" lon="14.37029411747197"><ele>19.333333333333332</ele><time>2026-03-29T09:58:00Z</time></trkpt><trkpt lat="42.37650671073049" lon="14.370215868045499"><ele>17.666666666666664</ele><time>2026-03-29T09:58:01Z</time></trkpt><trkpt lat="42.376666474219014" lon="14.370135955730708"><ele>16.0</ele><time>2026-03-29T09:58:02Z</time></trkpt><trkpt lat="42.37682476211085" lon="14.370051549234157"><ele>16.0</ele><time>2026-03-29T09:58:03Z</time></trkpt><trkpt lat="42.37698063211436" lon="14.369960190804326"><ele>16.0</ele><time>2026-03-29T09:58:04Z</time></trkpt><trkpt lat="42.37713082991166" lon="14.369855451152059"><ele>16.0</ele><time>2026-03-29T09:58:05Z</time></trkpt><trkpt lat="42.37727084019072" lon="14.369736261573015"><ele>15.333333333333332</ele><time>2026-03-29T09:58:06Z</time></trkpt><trkpt lat="42.37740499476769" lon="14.369604375330956"><ele>14.666666666666668</ele><time>2026-03-29T09:58:07Z</time></trkpt><trkpt lat="42.37753551423497" lon="14.369467257353676"><ele>14.0</ele><time>2026-03-29T09:58:08Z</time></trkpt><trkpt lat="42.377663083215104" lon="14.369335813474006"><ele>14.0</ele><time>2026-03-29T09:58:09Z</time></trkpt><trkpt lat="42.37779027839342" lon="14.369207412549036"><ele>14.0</ele><time>2026-03-29T09:58:09.999Z</time></trkpt><trkpt lat="42.37792212590705" lon="14.369075408980711"><ele>14.0</ele><time>2026-03-29T09:58:10.999Z</time></trkpt><trkpt lat="42.378068748213614" lon="14.368918607885252"><ele>12.333333333333334</ele><time>2026-03-29T09:58:11.999Z</time></trkpt><trkpt lat="42.37823877232022" lon="14.36876041294163"><ele>10.666666666666668</ele><time>2026-03-29T09:58:12.999Z</time></trkpt><trkpt lat="42.378406592194814" lon="14.36859087424351"><ele>9.0</ele><time>2026-03-29T09:58:13.999Z</time></trkpt><trkpt lat="42.378575120817935" lon="14.368420619476538"><ele>9.0</ele><time>2026-03-29T09:58:14.999Z</time></trkpt><trkpt lat="42.378723789888504" lon="14.368243010258293"><ele>9.0</ele><time>2026-03-29T09:58:15.999Z</time></trkpt><trkpt lat="42.37886906040023" lon="14.368098148724542"><ele>9.0</ele><time>2026-03-29T09:58:16.999Z</time></trkpt><trkpt lat="42.37900064105021" lon="14.367964068405968"><ele>9.0</ele><time>2026-03-29T09:58:17.999Z</time></trkpt><trkpt lat="42.379122673437394" lon="14.36784375114903"><ele>9.0</ele><time>2026-03-29T09:58:18.999Z</time></trkpt><trkpt lat="42.38506687077336" lon="14.357598332909431"><ele>7.333333333333333</ele><time>2026-03-29T09:59:19.999Z</time></trkpt><trkpt lat="42.38517162118231" lon="14.357458963842491"><ele>5.666666666666666</ele><time>2026-03-29T09:59:20.999Z</time></trkpt><trkpt lat="42.385269920250565" lon="14.357307717805384"><ele>4.0</ele><time>2026-03-29T09:59:21.999Z</time></trkpt><trkpt lat="42.38538297123147" lon="14.35715815001519"><ele>4.0</ele><time>2026-03-29T09:59:22.999Z</time></trkpt><trkpt lat="42.38548465303849" lon="14.356984370668455"><ele>4.0</ele><time>2026-03-29T09:59:23.999Z</time></trkpt><trkpt lat="42.385585677920695" lon="14.3568002146218"><ele>4.0</ele><time>2026-03-29T09:59:24.999Z</time></trkpt><trkpt lat="42.385674736177485" lon="14.35660552543687"><ele>3.6666666666666665</ele><time>2026-03-29T09:59:25.999Z</time></trkpt><trkpt lat="42.385779140547555" lon="14.356425963135568"><ele>3.333333333333333</ele><time>2026-03-29T09:59:26.999Z</time></trkpt><trkpt lat="42.38588209213792" lon="14.356247194393879"><ele>3.0</ele><time>2026-03-29T09:59:27.999Z</time></trkpt><trkpt lat="42.385985104285524" lon="14.356062467199992"><ele>3.0</ele><time>2026-03-29T09:59:28.999Z</time></trkpt><trkpt lat="42.38608784981232" lon="14.355875850008715"><ele>3.0</ele><time>2026-03-29T09:59:29.999Z</time></trkpt><trkpt lat="42.38618173628249" lon="14.355694553247023"><ele>3.0</ele><time>2026-03-29T09:59:30.999Z</time></trkpt><trkpt lat="42.386271078027626" lon="14.355502204071817"><ele>3.666666666666667</ele><time>2026-03-29T09:59:31.999Z</time></trkpt><trkpt lat="42.38635272290707" lon="14.355289570188592"><ele>4.333333333333334</ele><time>2026-03-29T09:59:32.999Z</time></trkpt><trkpt lat="42.38643323246115" lon="14.355082758486171"><ele>5.0</ele><time>2026-03-29T09:59:33.999Z</time></trkpt><trkpt lat="42.386513491627255" lon="14.354877150603556"><ele>6.666666666666667</ele><time>2026-03-29T09:59:34.999Z</time></trkpt><trkpt lat="42.38659645356992" lon="14.35466461454483"><ele>8.333333333333334</ele><time>2026-03-29T09:59:35.999Z</time></trkpt><trkpt lat="42.38668218325454" lon="14.354455012373794"><ele>10.0</ele><time>2026-03-29T09:59:36.999Z</time></trkpt><trkpt lat="42.38677121953434" lon="14.354246886174385"><ele>10.0</ele><time>2026-03-29T09:59:37.999Z</time></trkpt><trkpt lat="42.38688779950796" lon="14.354042004467008"><ele>10.0</ele><time>2026-03-29T09:59:38.999Z</time></trkpt><trkpt lat="42.38700732235595" lon="14.353812766388321"><ele>10.0</ele><time>2026-03-29T09:59:39.999Z</time></trkpt><trkpt lat="42.387133503840026" lon="14.353578194718896"><ele>10.666666666666668</ele><time>2026-03-29T09:59:40.999Z</time></trkpt><trkpt lat="42.38726288184973" lon="14.353341249688581"><ele>11.333333333333334</ele><time>2026-03-29T09:59:41.999Z</time></trkpt><trkpt lat="42.38738555729723" lon="14.353091540211393"><ele>12.0</ele><time>2026-03-29T09:59:42.999Z</time></trkpt><trkpt lat="42.38752555933279" lon="14.352851034354169"><ele>12.0</ele><time>2026-03-29T09:59:43.999Z</time></trkpt><trkpt lat="42.387655353247325" lon="14.3526094670513"><ele>12.0</ele><time>2026-03-29T09:59:44.999Z</time></trkpt><trkpt lat="42.38778339617837" lon="14.352375002396128"><ele>12.0</ele><time>2026-03-29T09:59:45.999Z</time></trkpt><trkpt lat="42.387912672434474" lon="14.352143893576352"><ele>9.333333333333334</ele><time>2026-03-29T09:59:46.999Z</time></trkpt><trkpt lat="42.388043427019774" lon="14.351914322954235"><ele>6.666666666666666</ele><time>2026-03-29T09:59:47.999Z</time></trkpt><trkpt lat="42.38816958329486" lon="14.351682097610922"><ele>4.0</ele><time>2026-03-29T09:59:48.999Z</time></trkpt><trkpt lat="42.388293857399624" lon="14.351450168950779"><ele>6.333333333333333</ele><time>2026-03-29T09:59:49.999Z</time></trkpt><trkpt lat="42.38841825435654" lon="14.35121663181108"><ele>8.666666666666666</ele><time>2026-03-29T09:59:51Z</time></trkpt><trkpt lat="42.38854151501725" lon="14.35099359205772"><ele>11.0</ele><time>2026-03-29T09:59:52Z</time></trkpt><trkpt lat="42.388664375141936" lon="14.350771862984471"><ele>11.0</ele><time>2026-03-29T09:59:53Z</time></trkpt><trkpt lat="42.3887880581888" lon="14.350550775721725"><ele>11.0</ele><time>2026-03-29T09:59:54Z</time></trkpt><trkpt lat="42.388910186686324" lon="14.350330090923618"><ele>11.0</ele><time>2026-03-29T09:59:55Z</time></trkpt><trkpt lat="42.389029204096325" lon="14.350111137585221"><ele>9.666666666666666</ele><time>2026-03-29T09:59:56Z</time></trkpt><trkpt lat="42.389147245923866" lon="14.34989259754476"><ele>8.333333333333334</ele><time>2026-03-29T09:59:57Z</time></trkpt><trkpt lat="42.389264482722346" lon="14.34967766585194"><ele>7.0</ele><time>2026-03-29T09:59:58Z</time></trkpt><trkpt lat="42.389380037579016" lon="14.349463143122419"><ele>7.0</ele><time>2026-03-29T09:59:59Z</time></trkpt><trkpt lat="42.389496777523256" lon="14.349252898966762"><ele>7.0</ele><time>2026-03-29T10:00:00Z</time></trkpt><trkpt lat="42.38961377824724" lon="14.34904071195866"><ele>7.0</ele><time>2026-03-29T10:00:01Z</time></trkpt><trkpt lat="42.38973014044353" lon="14.348829784418422"><ele>5.0</ele><time>2026-03-29T10:00:02Z</time></trkpt><trkpt lat="42.389844300058364" lon="14.348626931913724"><ele>3.0</ele><time>2026-03-29T10:00:03Z</time></trkpt><trkpt lat="42.38995256341772" lon="14.34842731070888"><ele>1.0</ele><time>2026-03-29T10:00:04Z</time></trkpt><trkpt lat="42.39006251360868" lon="14.34823025841735"><ele>3.0</ele><time>2026-03-29T10:00:05Z</time></trkpt><trkpt lat="42.39016727946645" lon="14.348040318976256"><ele>5.0</ele><time>2026-03-29T10:00:06Z</time></trkpt><trkpt lat="42.390276705503716" lon="14.347842250310288"><ele>7.0</ele><time>2026-03-29T10:00:07Z</time></trkpt><trkpt lat="42.390390719897326" lon="14.347643233790862"><ele>7.0</ele><time>2026-03-29T10:00:08Z</time></trkpt><trkpt lat="42.390503047129975" lon="14.347444195884382"><ele>7.0</ele><time>2026-03-29T10:00:09Z</time></trkpt><trkpt lat="42.39060843449719" lon="14.34724766795519"><ele>7.0</ele><time>2026-03-29T10:00:10Z</time></trkpt><trkpt lat="42.39071633628423" lon="14.347053266082264"><ele>7.0</ele><time>2026-03-29T10:00:11Z</time></trkpt><trkpt lat="42.390823811772535" lon="14.346864185313281"><ele>7.0</ele><time>2026-03-29T10:00:12Z</time></trkpt><trkpt lat="42.39093041299011" lon="14.346675512183797"><ele>7.0</ele><time>2026-03-29T10:00:13Z</time></trkpt><trkpt lat="42.39103482447524" lon="14.346491785881055"><ele>10.0</ele><time>2026-03-29T10:00:14Z</time></trkpt><trkpt lat="42.39113802970737" lon="14.346309047912081"><ele>13.0</ele><time>2026-03-29T10:00:15Z</time></trkpt><trkpt lat="42.3912374888815" lon="14.346128598046187"><ele>16.0</ele><time>2026-03-29T10:00:16Z</time></trkpt><trkpt lat="42.391335882208594" lon="14.345951071264983"><ele>15.0</ele><time>2026-03-29T10:00:17Z</time></trkpt><trkpt lat="42.39143193270635" lon="14.345778857339623"><ele>14.0</ele><time>2026-03-29T10:00:18Z</time></trkpt><trkpt lat="42.39152330968121" lon="14.345610922941518"><ele>13.0</ele><time>2026-03-29T10:00:19Z</time></trkpt><trkpt lat="42.395312242042515" lon="14.336588481789974"><ele>13.0</ele><time>2026-03-29T10:01:19.999Z</time></trkpt><trkpt lat="42.39538143919539" lon="14.33641833343196"><ele>13.0</ele><time>2026-03-29T10:01:20.999Z</time></trkpt><trkpt lat="42.395446607274245" lon="14.336250750470494"><ele>13.0</ele><time>2026-03-29T10:01:21.999Z</time></trkpt><trkpt lat="42.39551694614821" lon="14.336079122597663"><ele>13.0</ele><time>2026-03-29T10:01:22.999Z</time></trkpt><trkpt lat="42.395590238245155" lon="14.33590194066519"><ele>11.25</ele><time>2026-03-29T10:01:23.999Z</time></trkpt><trkpt lat="42.39565917382043" lon="14.335725243126664"><ele>9.5</ele><time>2026-03-29T10:01:24.999Z</time></trkpt><trkpt lat="42.39572680294694" lon="14.335561519027534"><ele>7.75</ele><time>2026-03-29T10:01:25.999Z</time></trkpt><trkpt lat="42.39579005382628" lon="14.335398710233278"><ele>6.0</ele><time>2026-03-29T10:01:26.999Z</time></trkpt><trkpt lat="42.39585455972466" lon="14.335242228972023"><ele>6.0</ele><time>2026-03-29T10:01:27.999Z</time></trkpt><trkpt lat="42.395923993912355" lon="14.335086410011394"><ele>6.0</ele><time>2026-03-29T10:01:28.999Z</time></trkpt><trkpt lat="42.395988601159274" lon="14.334920421263588"><ele>6.0</ele><time>2026-03-29T10:01:29.999Z</time></trkpt><trkpt lat="42.39605363012352" lon="14.334749256943443"><ele>6.0</ele><time>2026-03-29T10:01:30.999Z</time></trkpt><trkpt lat="42.39612447019862" lon="14.334582814847478"><ele>7.25</ele><time>2026-03-29T10:01:31.999Z</time></trkpt><trkpt lat="42.396196956827566" lon="14.334415923564421"><ele>8.5</ele><time>2026-03-29T10:01:32.999Z</time></trkpt><trkpt lat="42.396260413712454" lon="14.33424280459226"><ele>9.75</ele><time>2026-03-29T10:01:33.999Z</time></trkpt><trkpt lat="42.39632316273557" lon="14.334071161436393"><ele>11.0</ele><time>2026-03-29T10:01:34.999Z</time></trkpt><trkpt lat="42.396396639560116" lon="14.333907849185579"><ele>9.25</ele><time>2026-03-29T10:01:35.999Z</time></trkpt><trkpt lat="42.39646866557184" lon="14.33374655904635"><ele>7.5</ele><time>2026-03-29T10:01:36.999Z</time></trkpt><trkpt lat="42.396531865365574" lon="14.333574096338037"><ele>5.75</ele><time>2026-03-29T10:01:37.999Z</time></trkpt><trkpt lat="42.39661304432513" lon="14.333414504149525"><ele>4.0</ele><time>2026-03-29T10:01:38.999Z</time></trkpt><trkpt lat="42.39667230575804" lon="14.333240098887021"><ele>4.0</ele><time>2026-03-29T10:01:39.999Z</time></trkpt><trkpt lat="42.396745395965134" lon="14.333081367654307"><ele>4.0</ele><time>2026-03-29T10:01:40.999Z</time></trkpt><trkpt lat="42.396812492647655" lon="14.33291238062229"><ele>4.0</ele><time>2026-03-29T10:01:41.999Z</time></trkpt><trkpt lat="42.39687938464002" lon="14.332743407015178"><ele>4.0</ele><time>2026-03-29T10:01:42.999Z</time></trkpt><trkpt lat="42.396949058120676" lon="14.332583739422372"><ele>3.75</ele><time>2026-03-29T10:01:43.999Z</time></trkpt><trkpt lat="42.39701980316399" lon="14.332434366035276"><ele>3.5</ele><time>2026-03-29T10:01:44.999Z</time></trkpt><trkpt lat="42.397083974557354" lon="14.332284286934886"><ele>3.25</ele><time>2026-03-29T10:01:45.999Z</time></trkpt><trkpt lat="42.397143687704336" lon="14.332124813690065"><ele>3.0</ele><time>2026-03-29T10:01:46.999Z</time></trkpt><trkpt lat="42.397212188529195" lon="14.331951797456414"><ele>3.0</ele><time>2026-03-29T10:01:47.999Z</time></trkpt><trkpt lat="42.397286036627264" lon="14.33177632305625"><ele>3.0</ele><time>2026-03-29T10:01:48.999Z</time></trkpt><trkpt lat="42.39735717381181" lon="14.331614191970296"><ele>3.0</ele><time>2026-03-29T10:01:49.999Z</time></trkpt><trkpt lat="42.39742306788889" lon="14.331451056794261"><ele>3.0</ele><time>2026-03-29T10:01:50.999Z</time></trkpt><trkpt lat="42.39748946595503" lon="14.331287425930165"><ele>3.75</ele><time>2026-03-29T10:01:51.999Z</time></trkpt><trkpt lat="42.39755537956244" lon="14.331128303337207"><ele>4.5</ele><time>2026-03-29T10:01:52.999Z</time></trkpt><trkpt lat="42.39762104517968" lon="14.330973958094344"><ele>5.25</ele><time>2026-03-29T10:01:53.999Z</time></trkpt><trkpt lat="42.397687259054905" lon="14.330817318552953"><ele>6.0</ele><time>2026-03-29T10:01:54.999Z</time></trkpt><trkpt lat="42.39775443248567" lon="14.330656757966011"><ele>5.25</ele><time>2026-03-29T10:01:55.999Z</time></trkpt><trkpt lat="42.39782387198054" lon="14.330492004625796"><ele>4.5</ele><time>2026-03-29T10:01:57Z</time></trkpt><trkpt lat="42.39789345016872" lon="14.330326996785049"><ele>3.75</ele><time>2026-03-29T10:01:58Z</time></trkpt><trkpt lat="42.39796079587448" lon="14.330165806397238"><ele>3.0</ele><time>2026-03-29T10:01:59Z</time></trkpt><trkpt lat="42.39802783227738" lon="14.33000520588287"><ele>3.0</ele><time>2026-03-29T10:02:00Z</time></trkpt><trkpt lat="42.39809391557794" lon="14.329844177506557"><ele>3.0</ele><time>2026-03-29T10:02:01Z</time></trkpt><trkpt lat="42.39815766666135" lon="14.329682987215095"><ele>3.0</ele><time>2026-03-29T10:02:02Z</time></trkpt><trkpt lat="42.39822219015132" lon="14.329523494893655"><ele>3.0</ele><time>2026-03-29T10:02:03Z</time></trkpt><trkpt lat="42.3982860986215" lon="14.329365328658762"><ele>3.25</ele><time>2026-03-29T10:02:04Z</time></trkpt><trkpt lat="42.398349954309474" lon="14.329207145178794"><ele>3.5</ele><time>2026-03-29T10:02:05Z</time></trkpt><trkpt lat="42.3984133304488" lon="14.329050102863654"><ele>3.75</ele><time>2026-03-29T10:02:06Z</time></trkpt><trkpt lat="42.39847634705308" lon="14.328895317617162"><ele>4.0</ele><time>2026-03-29T10:02:07Z</time></trkpt><trkpt lat="42.39853758278999" lon="14.32874170531525"><ele>5.0</ele><time>2026-03-29T10:02:08Z</time></trkpt><trkpt lat="42.39859455187706" lon="14.328599351444321"><ele>6.0</ele><time>2026-03-29T10:02:09Z</time></trkpt><trkpt lat="42.39865324317664" lon="14.32845217103432"><ele>7.0</ele><time>2026-03-29T10:02:10Z</time></trkpt><trkpt lat="42.398722810095144" lon="14.328291127585034"><ele>8.0</ele><time>2026-03-29T10:02:11Z</time></trkpt><trkpt lat="42.39878918398925" lon="14.328127124470678"><ele>6.5</ele><time>2026-03-29T10:02:12Z</time></trkpt><trkpt lat="42.398849348439605" lon="14.32796986458449"><ele>5.0</ele><time>2026-03-29T10:02:13Z</time></trkpt><trkpt lat="42.398908798856795" lon="14.327815486689458"><ele>3.5</ele><time>2026-03-29T10:02:14Z</time></trkpt><trkpt lat="42.39896863563817" lon="14.327663508032717"><ele>2.0</ele><time>2026-03-29T10:02:15Z</time></trkpt><trkpt lat="42.39903103765547" lon="14.327507769358043"><ele>2.0</ele><time>2026-03-29T10:02:16Z</time></trkpt><trkpt lat="42.399089494484315" lon="14.327347921127766"><ele>2.0</ele><time>2026-03-29T10:02:17Z</time></trkpt><trkpt lat="42.39914353048773" lon="14.327181708209523"><ele>2.0</ele><time>2026-03-29T10:02:18Z</time></trkpt><trkpt lat="42.3992000724457" lon="14.327011632918234"><ele>2.0</ele><time>2026-03-29T10:02:19Z</time></trkpt><trkpt lat="42.40213646146273" lon="14.320644222902787"><ele>2.333333333333333</ele><time>2026-03-29T10:03:19.999Z</time></trkpt><trkpt lat="42.40214481160381" lon="14.320545814777546"><ele>2.6666666666666665</ele><time>2026-03-29T10:03:27.999Z</time></trkpt><trkpt lat="42.40216011529487" lon="14.32040271459689"><ele>3.0</ele><time>2026-03-29T10:03:33.999Z</time></trkpt><trkpt lat="42.40217833034411" lon="14.320311407507395"><ele>3.333333333333333</ele><time>2026-03-29T10:03:34.999Z</time></trkpt><trkpt lat="42.402200966806284" lon="14.320221031436526"><ele>3.6666666666666665</ele><time>2026-03-29T10:03:35.999Z</time></trkpt><trkpt lat="42.4022253184862" lon="14.320117342159833"><ele>4.0</ele><time>2026-03-29T10:03:36.999Z</time></trkpt><trkpt lat="42.40224792270116" lon="14.320006740203716"><ele>4.0</ele><time>2026-03-29T10:03:37.999Z</time></trkpt><trkpt lat="42.4022849121714" lon="14.319902748376673"><ele>4.0</ele><time>2026-03-29T10:03:38.999Z</time></trkpt><trkpt lat="42.402320468612366" lon="14.31978552070852"><ele>4.0</ele><time>2026-03-29T10:03:39.999Z</time></trkpt><trkpt lat="42.4023599500069" lon="14.319679947862605"><ele>4.0</ele><time>2026-03-29T10:03:40.999Z</time></trkpt><trkpt lat="42.402408130443206" lon="14.31957094444527"><ele>4.0</ele><time>2026-03-29T10:03:41.999Z</time></trkpt><trkpt lat="42.40245357031355" lon="14.319463412149444"><ele>4.0</ele><time>2026-03-29T10:03:42.999Z</time></trkpt><trkpt lat="42.40250380935195" lon="14.319363217845735"><ele>4.0</ele><time>2026-03-29T10:03:43.999Z</time></trkpt><trkpt lat="42.402554134088206" lon="14.319259561091213"><ele>4.0</ele><time>2026-03-29T10:03:44.999Z</time></trkpt><trkpt lat="42.40260784023111" lon="14.319150006934132"><ele>4.0</ele><time>2026-03-29T10:03:45.999Z</time></trkpt><trkpt lat="42.40267156568617" lon="14.319028612073279"><ele>4.0</ele><time>2026-03-29T10:03:46.999Z</time></trkpt><trkpt lat="42.40272935758193" lon="14.3188957186573"><ele>4.0</ele><time>2026-03-29T10:03:47.999Z</time></trkpt><trkpt lat="42.402782548779214" lon="14.31878088188913"><ele>4.0</ele><time>2026-03-29T10:03:48.999Z</time></trkpt><trkpt lat="42.40284108575617" lon="14.31865042785378"><ele>4.0</ele><time>2026-03-29T10:03:49.999Z</time></trkpt><trkpt lat="42.40290763312107" lon="14.318513666364387"><ele>4.0</ele><time>2026-03-29T10:03:50.999Z</time></trkpt><trkpt lat="42.40297263842355" lon="14.318384669344576"><ele>4.0</ele><time>2026-03-29T10:03:51.999Z</time></trkpt><trkpt lat="42.4030371512982" lon="14.318255799980403"><ele>4.0</ele><time>2026-03-29T10:03:52.999Z</time></trkpt><trkpt lat="42.403102462090835" lon="14.318120428712835"><ele>4.0</ele><time>2026-03-29T10:03:53.999Z</time></trkpt><trkpt lat="42.40316985340003" lon="14.31798278845971"><ele>4.0</ele><time>2026-03-29T10:03:54.999Z</time></trkpt><trkpt lat="42.40323794852418" lon="14.31785218168848"><ele>4.0</ele><time>2026-03-29T10:03:55.999Z</time></trkpt><trkpt lat="42.403298260425004" lon="14.317722746590176"><ele>4.0</ele><time>2026-03-29T10:03:56.999Z</time></trkpt><trkpt lat="42.40336233417937" lon="14.317587664361053"><ele>4.0</ele><time>2026-03-29T10:03:57.999Z</time></trkpt><trkpt lat="42.403424230620246" lon="14.317453671887211"><ele>4.0</ele><time>2026-03-29T10:03:58.999Z</time></trkpt><trkpt lat="42.40348845019971" lon="14.317324380912673"><ele>4.0</ele><time>2026-03-29T10:03:59.999Z</time></trkpt><trkpt lat="42.40355260772645" lon="14.317196496700825"><ele>4.0</ele><time>2026-03-29T10:04:00.999Z</time></trkpt><trkpt lat="42.40361631203579" lon="14.317066989598501"><ele>4.0</ele><time>2026-03-29T10:04:01.999Z</time></trkpt><trkpt lat="42.40368251926435" lon="14.316919652885755"><ele>4.0</ele><time>2026-03-29T10:04:03Z</time></trkpt><trkpt lat="42.40375316319399" lon="14.31677009230766"><ele>4.0</ele><time>2026-03-29T10:04:04Z</time></trkpt><trkpt lat="42.403820031978846" lon="14.316640794860803"><ele>3.75</ele><time>2026-03-29T10:04:05Z</time></trkpt><trkpt lat="42.403882308758426" lon="14.316515811306486"><ele>3.5</ele><time>2026-03-29T10:04:06Z</time></trkpt><trkpt lat="42.40394610761791" lon="14.316377966202847"><ele>3.25</ele><time>2026-03-29T10:04:07Z</time></trkpt><trkpt lat="42.40402224918925" lon="14.31623900966606"><ele>3.0</ele><time>2026-03-29T10:04:08Z</time></trkpt><trkpt lat="42.4040959339058" lon="14.316086492210273"><ele>4.0</ele><time>2026-03-29T10:04:09Z</time></trkpt><trkpt lat="42.40417741752659" lon="14.31591783213858"><ele>5.0</ele><time>2026-03-29T10:04:10Z</time></trkpt><trkpt lat="42.40426158157624" lon="14.315743625533438"><ele>6.0</ele><time>2026-03-29T10:04:11Z</time></trkpt><trkpt lat="42.404343711283275" lon="14.315571689870897"><ele>6.75</ele><time>2026-03-29T10:04:12Z</time></trkpt><trkpt lat="42.40441491790699" lon="14.3153880135099"><ele>7.5</ele><time>2026-03-29T10:04:12.999Z</time></trkpt><trkpt lat="42.40449687089689" lon="14.315220833804169"><ele>8.25</ele><time>2026-03-29T10:04:13.999Z</time></trkpt><trkpt lat="42.40456914905964" lon="14.315067793936933"><ele>9.0</ele><time>2026-03-29T10:04:14.999Z</time></trkpt><trkpt lat="42.40463318679063" lon="14.314939465236163"><ele>8.5</ele><time>2026-03-29T10:04:15.999Z</time></trkpt><trkpt lat="42.404692752307184" lon="14.314817123381891"><ele>8.0</ele><time>2026-03-29T10:04:16.999Z</time></trkpt><trkpt lat="42.40475429945864" lon="14.314690673035665"><ele>7.5</ele><time>2026-03-29T10:04:17.999Z</time></trkpt><trkpt lat="42.404814788365776" lon="14.31456553616111"><ele>7.0</ele><time>2026-03-29T10:04:18.999Z</time></trkpt><trkpt lat="42.40941426881283" lon="14.305924403734483"><ele>6.833333333333334</ele><time>2026-03-29T10:05:19.999Z</time></trkpt><trkpt lat="42.40946440837946" lon="14.30584832275189"><ele>6.666666666666667</ele><time>2026-03-29T10:05:20.999Z</time></trkpt><trkpt lat="42.40951284057826" lon="14.305776759892124"><ele>6.5</ele><time>2026-03-29T10:05:21.999Z</time></trkpt><trkpt lat="42.409559317850345" lon="14.305711867239458"><ele>6.333333333333334</ele><time>2026-03-29T10:05:22.999Z</time></trkpt><trkpt lat="42.40963378246564" lon="14.305597193832122"><ele>6.166666666666667</ele><time>2026-03-29T10:05:24.999Z</time></trkpt><trkpt lat="42.40970664865872" lon="14.305486773565395"><ele>6.0</ele><time>2026-03-29T10:05:26.999Z</time></trkpt><trkpt lat="42.409753797767074" lon="14.305415867206683"><ele>6.0</ele><time>2026-03-29T10:05:27.999Z</time></trkpt><trkpt lat="42.4098082037098" lon="14.305336072339168"><ele>6.0</ele><time>2026-03-29T10:05:28.999Z</time></trkpt><trkpt lat="42.40986204514327" lon="14.305241832102839"><ele>6.0</ele><time>2026-03-29T10:05:29.999Z</time></trkpt><trkpt lat="42.40991997615858" lon="14.305148181265984"><ele>6.0</ele><time>2026-03-29T10:05:30.999Z</time></trkpt><trkpt lat="42.40998011643427" lon="14.305059648373549"><ele>6.0</ele><time>2026-03-29T10:05:31.999Z</time></trkpt><trkpt lat="42.41003892885601" lon="14.304967127273502"><ele>6.0</ele><time>2026-03-29T10:05:32.999Z</time></trkpt><trkpt lat="42.410098638514874" lon="14.304881162398853"><ele>6.0</ele><time>2026-03-29T10:05:33.999Z</time></trkpt><trkpt lat="42.41016973833552" lon="14.304806346995163"><ele>6.0</ele><time>2026-03-29T10:05:34.999Z</time></trkpt><trkpt lat="42.410233534957015" lon="14.304709790723917"><ele>6.0</ele><time>2026-03-29T10:05:35.999Z</time></trkpt><trkpt lat="42.410287390308014" lon="14.304594912972757"><ele>6.0</ele><time>2026-03-29T10:05:36.999Z</time></trkpt><trkpt lat="42.410356919032964" lon="14.304490182280366"><ele>6.0</ele><time>2026-03-29T10:05:37.999Z</time></trkpt><trkpt lat="42.4104291089123" lon="14.304382128107898"><ele>5.8</ele><time>2026-03-29T10:05:38.999Z</time></trkpt><trkpt lat="42.41050315262139" lon="14.304271787073526"><ele>5.6</ele><time>2026-03-29T10:05:39.999Z</time></trkpt><trkpt lat="42.41057737824182" lon="14.304158813517965"><ele>5.4</ele><time>2026-03-29T10:05:40.999Z</time></trkpt><trkpt lat="42.410648111917354" lon="14.304050657523753"><ele>5.2</ele><time>2026-03-29T10:05:41.999Z</time></trkpt><trkpt lat="42.41073165530788" lon="14.303955843914826"><ele>5.0</ele><time>2026-03-29T10:05:42.999Z</time></trkpt><trkpt lat="42.41080603842515" lon="14.303844312174455"><ele>6.0</ele><time>2026-03-29T10:05:43.999Z</time></trkpt><trkpt lat="42.41087065193702" lon="14.303715857997165"><ele>7.0</ele><time>2026-03-29T10:05:44.999Z</time></trkpt><trkpt lat="42.41095751246985" lon="14.303617189664473"><ele>8.0</ele><time>2026-03-29T10:05:45.999Z</time></trkpt><trkpt lat="42.41103537085739" lon="14.303500446949874"><ele>9.0</ele><time>2026-03-29T10:05:46.999Z</time></trkpt><trkpt lat="42.41111580978526" lon="14.303379835050654"><ele>9.0</ele><time>2026-03-29T10:05:47.999Z</time></trkpt><trkpt lat="42.4111972193475" lon="14.303257767589109"><ele>9.0</ele><time>2026-03-29T10:05:48.999Z</time></trkpt><trkpt lat="42.411275292860324" lon="14.303140702487388"><ele>9.0</ele><time>2026-03-29T10:05:49.999Z</time></trkpt><trkpt lat="42.41135428122523" lon="14.303021913890191"><ele>9.0</ele><time>2026-03-29T10:05:50.999Z</time></trkpt><trkpt lat="42.41142582671869" lon="14.302888018120813"><ele>8.5</ele><time>2026-03-29T10:05:51.999Z</time></trkpt><trkpt lat="42.41150813285434" lon="14.302768325710899"><ele>8.0</ele><time>2026-03-29T10:05:52.999Z</time></trkpt><trkpt lat="42.41159347071306" lon="14.302638801255451"><ele>7.5</ele><time>2026-03-29T10:05:53.999Z</time></trkpt><trkpt lat="42.41170820233111" lon="14.302492205179924"><ele>7.0</ele><time>2026-03-29T10:05:54.999Z</time></trkpt><trkpt lat="42.411814389790464" lon="14.302333479487789"><ele>9.0</ele><time>2026-03-29T10:05:55.999Z</time></trkpt><trkpt lat="42.41191635588706" lon="14.302181062500557"><ele>11.0</ele><time>2026-03-29T10:05:56.999Z</time></trkpt><trkpt lat="42.41201692085599" lon="14.302031847373893"><ele>13.0</ele><time>2026-03-29T10:05:57.999Z</time></trkpt><trkpt lat="42.41210174322465" lon="14.301854553277392"><ele>11.75</ele><time>2026-03-29T10:05:58.999Z</time></trkpt><trkpt lat="42.41221007499359" lon="14.301716508713671"><ele>10.5</ele><time>2026-03-29T10:05:59.999Z</time></trkpt><trkpt lat="42.41231283772018" lon="14.30156794943522"><ele>9.25</ele><time>2026-03-29T10:06:00.999Z</time></trkpt><trkpt lat="42.41240972914954" lon="14.301423858025013"><ele>8.0</ele><time>2026-03-29T10:06:01.999Z</time></trkpt><trkpt lat="42.41250589162949" lon="14.301279604487734"><ele>8.0</ele><time>2026-03-29T10:06:02.999Z</time></trkpt><trkpt lat="42.41260006905768" lon="14.301140258646367"><ele>8.0</ele><time>2026-03-29T10:06:03.999Z</time></trkpt><trkpt lat="42.412689983781426" lon="14.301003558415482"><ele>8.0</ele><time>2026-03-29T10:06:04.999Z</time></trkpt><trkpt lat="42.41277887860396" lon="14.300870574081523"><ele>8.0</ele><time>2026-03-29T10:06:05.999Z</time></trkpt><trkpt lat="42.412873039839035" lon="14.300739888003282"><ele>8.0</ele><time>2026-03-29T10:06:06.999Z</time></trkpt><trkpt lat="42.41296659985879" lon="14.30060516027714"><ele>8.0</ele><time>2026-03-29T10:06:07.999Z</time></trkpt><trkpt lat="42.41304927549688" lon="14.300471144594281"><ele>8.0</ele><time>2026-03-29T10:06:08.999Z</time></trkpt><trkpt lat="42.413135491870754" lon="14.300347682107612"><ele>8.0</ele><time>2026-03-29T10:06:09.999Z</time></trkpt><trkpt lat="42.41322276111118" lon="14.300216807848832"><ele>8.5</ele><time>2026-03-29T10:06:10.999Z</time></trkpt><trkpt lat="42.413309517965054" lon="14.300088630673708"><ele>9.0</ele><time>2026-03-29T10:06:11.999Z</time></trkpt><trkpt lat="42.41339693445558" lon="14.299955699037403"><ele>9.5</ele><time>2026-03-29T10:06:12.999Z</time></trkpt><trkpt lat="42.413486728864115" lon="14.299828170651768"><ele>10.0</ele><time>2026-03-29T10:06:13.999Z</time></trkpt><trkpt lat="42.41357451755125" lon="14.299698006962053"><ele>10.0</ele><time>2026-03-29T10:06:14.999Z</time></trkpt><trkpt lat="42.41365648212404" lon="14.29956930376086"><ele>10.0</ele><time>2026-03-29T10:06:15.999Z</time></trkpt><trkpt lat="42.41374646518675" lon="14.299458729481122"><ele>10.0</ele><time>2026-03-29T10:06:16.999Z</time></trkpt><trkpt lat="42.41382487529525" lon="14.299341950979512"><ele>10.0</ele><time>2026-03-29T10:06:17.999Z</time></trkpt><trkpt lat="42.41389478109135" lon="14.299211015104838"><ele>11.0</ele><time>2026-03-29T10:06:18.999Z</time></trkpt><trkpt lat="42.41714113983618" lon="14.294882215961007"><ele>11.166666666666666</ele><time>2026-03-29T10:07:19.999Z</time></trkpt><trkpt lat="42.41720802270772" lon="14.294819303079505"><ele>11.333333333333332</ele><time>2026-03-29T10:07:21.999Z</time></trkpt><trkpt lat="42.41727863708492" lon="14.2947733425846"><ele>11.5</ele><time>2026-03-29T10:07:23.999Z</time></trkpt><trkpt lat="42.417322690240916" lon="14.294706511665998"><ele>11.666666666666666</ele><time>2026-03-29T10:07:25.999Z</time></trkpt><trkpt lat="42.4173893043116" lon="14.294648453121773"><ele>11.833333333333334</ele><time>2026-03-29T10:07:27.999Z</time></trkpt><trkpt lat="42.41746031089508" lon="14.294585459000857"><ele>12.0</ele><time>2026-03-29T10:07:29.999Z</time></trkpt><trkpt lat="42.41752929739097" lon="14.29452212512679"><ele>12.0</ele><time>2026-03-29T10:07:31.999Z</time></trkpt><trkpt lat="42.41759974791887" lon="14.29445652177396"><ele>12.0</ele><time>2026-03-29T10:07:33.999Z</time></trkpt><trkpt lat="42.417671751666234" lon="14.294388051650428"><ele>12.0</ele><time>2026-03-29T10:07:35.999Z</time></trkpt><trkpt lat="42.41775388216154" lon="14.294314978280559"><ele>12.0</ele><time>2026-03-29T10:07:37.999Z</time></trkpt><trkpt lat="42.41783652545459" lon="14.294239793388725"><ele>12.0</ele><time>2026-03-29T10:07:39.999Z</time></trkpt><trkpt lat="42.417900595284216" lon="14.294173319633291"><ele>12.0</ele><time>2026-03-29T10:07:41.999Z</time></trkpt><trkpt lat="42.41796176747462" lon="14.294113601843375"><ele>12.0</ele><time>2026-03-29T10:07:43.999Z</time></trkpt><trkpt lat="42.418048111411984" lon="14.29403676580679"><ele>12.0</ele><time>2026-03-29T10:07:45.999Z</time></trkpt><trkpt lat="42.41812835735276" lon="14.293964100764828"><ele>12.0</ele><time>2026-03-29T10:07:47.999Z</time></trkpt><trkpt lat="42.41820678313791" lon="14.293873741866197"><ele>12.0</ele><time>2026-03-29T10:07:49.999Z</time></trkpt><trkpt lat="42.41828235587109" lon="14.29378187727918"><ele>12.0</ele><time>2026-03-29T10:07:51.999Z</time></trkpt><trkpt lat="42.41835688188998" lon="14.29366636068776"><ele>12.0</ele><time>2026-03-29T10:07:53.999Z</time></trkpt><trkpt lat="42.418401687103" lon="14.293598115723341"><ele>12.0</ele><time>2026-03-29T10:07:54.999Z</time></trkpt><trkpt lat="42.41847793475943" lon="14.293463307457063"><ele>12.0</ele><time>2026-03-29T10:07:56.999Z</time></trkpt><trkpt lat="42.418560495136944" lon="14.293333455429861"><ele>12.0</ele><time>2026-03-29T10:07:58.999Z</time></trkpt><trkpt lat="42.41863736390916" lon="14.29320284346436"><ele>12.0</ele><time>2026-03-29T10:08:00.999Z</time></trkpt><trkpt lat="42.418679497575134" lon="14.293130645673571"><ele>12.0</ele><time>2026-03-29T10:08:02.999Z</time></trkpt><trkpt lat="42.41873585805156" lon="14.293065232898345"><ele>12.0</ele><time>2026-03-29T10:08:07.999Z</time></trkpt><trkpt lat="42.41881421114946" lon="14.292936143893746"><ele>12.0</ele><time>2026-03-29T10:08:09.999Z</time></trkpt><trkpt lat="42.418868779251405" lon="14.292819999908332"><ele>12.0</ele><time>2026-03-29T10:08:11.999Z</time></trkpt><trkpt lat="42.41895693204873" lon="14.292700773093701"><ele>11.25</ele><time>2026-03-29T10:08:13.999Z</time></trkpt><trkpt lat="42.41900754265373" lon="14.292617265578775"><ele>10.5</ele><time>2026-03-29T10:08:14.999Z</time></trkpt><trkpt lat="42.41905081451142" lon="14.292545867153626"><ele>9.75</ele><time>2026-03-29T10:08:15.999Z</time></trkpt><trkpt lat="42.41910635957547" lon="14.292422837227308"><ele>9.0</ele><time>2026-03-29T10:08:17.999Z</time></trkpt><trkpt lat="42.419884137547" lon="14.289975891242904"><ele>9.0</ele><time>2026-03-29T10:09:19.999Z</time></trkpt><trkpt lat="42.41988826419816" lon="14.28985047888993"><ele>9.0</ele><time>2026-03-29T10:09:23.999Z</time></trkpt><trkpt lat="42.41990785235354" lon="14.289723447507873"><ele>9.0</ele><time>2026-03-29T10:09:26.999Z</time></trkpt><trkpt lat="42.41992279084183" lon="14.289609628288199"><ele>9.0</ele><time>2026-03-29T10:09:28.999Z</time></trkpt><trkpt lat="42.41994215246578" lon="14.289486068273392"><ele>9.0</ele><time>2026-03-29T10:09:30.999Z</time></trkpt><trkpt lat="42.41997191219914" lon="14.289365780825877"><ele>9.166666666666666</ele><time>2026-03-29T10:09:32.999Z</time></trkpt><trkpt lat="42.419989556613835" lon="14.289270514304745"><ele>9.333333333333334</ele><time>2026-03-29T10:09:34.999Z</time></trkpt><trkpt lat="42.42001545443206" lon="14.289167139751738"><ele>9.5</ele><time>2026-03-29T10:09:36.999Z</time></trkpt><trkpt lat="42.42004818079945" lon="14.289060410837312"><ele>9.666666666666668</ele><time>2026-03-29T10:09:38.999Z</time></trkpt><trkpt lat="42.420085648785886" lon="14.28895105411796"><ele>9.833333333333334</ele><time>2026-03-29T10:09:40.999Z</time></trkpt><trkpt lat="42.42012914255349" lon="14.288835270309972"><ele>10.0</ele><time>2026-03-29T10:09:42.999Z</time></trkpt><trkpt lat="42.4201747736819" lon="14.28872300895624"><ele>10.333333333333334</ele><time>2026-03-29T10:09:44.999Z</time></trkpt><trkpt lat="42.42020978349676" lon="14.28863012441411"><ele>10.666666666666668</ele><time>2026-03-29T10:09:46.999Z</time></trkpt><trkpt lat="42.42025008889144" lon="14.288517443075227"><ele>11.0</ele><time>2026-03-29T10:09:52.999Z</time></trkpt><trkpt lat="42.42031278162686" lon="14.288368492078655"><ele>11.333333333333334</ele><time>2026-03-29T10:09:54.999Z</time></trkpt><trkpt lat="42.42035702799312" lon="14.288274889672842"><ele>11.666666666666666</ele><time>2026-03-29T10:09:55.999Z</time></trkpt><trkpt lat="42.42038445235326" lon="14.288190094883108"><ele>12.0</ele><time>2026-03-29T10:09:56.999Z</time></trkpt><trkpt lat="42.42043954488708" lon="14.288052213935536"><ele>11.5</ele><time>2026-03-29T10:09:58.999Z</time></trkpt><trkpt lat="42.420487092465635" lon="14.287940841976141"><ele>11.0</ele><time>2026-03-29T10:10:00.999Z</time></trkpt><trkpt lat="42.420523393454275" lon="14.287838657785176"><ele>10.5</ele><time>2026-03-29T10:10:02.999Z</time></trkpt><trkpt lat="42.4205624446753" lon="14.287739781242205"><ele>10.0</ele><time>2026-03-29T10:10:04.999Z</time></trkpt><trkpt lat="42.42059522687625" lon="14.287651434896626"><ele>9.5</ele><time>2026-03-29T10:10:06.999Z</time></trkpt><trkpt lat="42.42063415661814" lon="14.2875613578949"><ele>9.0</ele><time>2026-03-29T10:10:08.999Z</time></trkpt><trkpt lat="42.42067076463946" lon="14.287458559654866"><ele>9.0</ele><time>2026-03-29T10:10:10.999Z</time></trkpt><trkpt lat="42.420713592101336" lon="14.287366896795717"><ele>9.0</ele><time>2026-03-29T10:10:12.999Z</time></trkpt><trkpt lat="42.420746864267876" lon="14.28726997048106"><ele>9.0</ele><time>2026-03-29T10:10:14.999Z</time></trkpt><trkpt lat="42.420789208611325" lon="14.287163437033932"><ele>9.0</ele><time>2026-03-29T10:10:16.999Z</time></trkpt><trkpt lat="42.420832741976724" lon="14.28705690705897"><ele>9.0</ele><time>2026-03-29T10:10:18.999Z</time></trkpt><trkpt lat="42.422496592644826" lon="14.2828755947934"><ele>7.75</ele><time>2026-03-29T10:11:19.999Z</time></trkpt><trkpt lat="42.42254737241341" lon="14.282772484191595"><ele>6.5</ele><time>2026-03-29T10:11:20.999Z</time></trkpt><trkpt lat="42.422618087071136" lon="14.282555181924105"><ele>5.25</ele><time>2026-03-29T10:11:22.999Z</time></trkpt><trkpt lat="42.42265930777757" lon="14.282441724684862"><ele>4.0</ele><time>2026-03-29T10:11:23.999Z</time></trkpt><trkpt lat="42.42270456702828" lon="14.282312245056849"><ele>4.0</ele><time>2026-03-29T10:11:24.999Z</time></trkpt><trkpt lat="42.42274557654031" lon="14.282191470744829"><ele>4.0</ele><time>2026-03-29T10:11:25.999Z</time></trkpt><trkpt lat="42.422790187295156" lon="14.28207409479651"><ele>4.0</ele><time>2026-03-29T10:11:26.999Z</time></trkpt><trkpt lat="42.42283873650865" lon="14.281951652876302"><ele>4.0</ele><time>2026-03-29T10:11:27.999Z</time></trkpt><trkpt lat="42.4228882313404" lon="14.281834024887944"><ele>4.0</ele><time>2026-03-29T10:11:28.999Z</time></trkpt><trkpt lat="42.422930102557025" lon="14.281720946263105"><ele>4.0</ele><time>2026-03-29T10:11:29.999Z</time></trkpt><trkpt lat="42.422963722465646" lon="14.281623198279876"><ele>3.9999999999999996</ele><time>2026-03-29T10:11:30.999Z</time></trkpt><trkpt lat="42.422998665202705" lon="14.28153109284293"><ele>4.0</ele><time>2026-03-29T10:11:31.999Z</time></trkpt><trkpt lat="42.423034905865016" lon="14.281447470246395"><ele>4.0</ele><time>2026-03-29T10:11:32.999Z</time></trkpt><trkpt lat="42.42307036521216" lon="14.281357892087703"><ele>3.9999999999999996</ele><time>2026-03-29T10:11:33.999Z</time></trkpt><trkpt lat="42.42310180485589" lon="14.281274332647266"><ele>4.0</ele><time>2026-03-29T10:11:34.999Z</time></trkpt><trkpt lat="42.4231342402399" lon="14.281181271708142"><ele>4.0</ele><time>2026-03-29T10:11:36.999Z</time></trkpt><trkpt lat="42.4231670190059" lon="14.281091832587556"><ele>3.6</ele><time>2026-03-29T10:11:39.999Z</time></trkpt><trkpt lat="42.42320621136246" lon="14.28099335035173"><ele>3.2</ele><time>2026-03-29T10:11:42.999Z</time></trkpt><trkpt lat="42.42325860460261" lon="14.280843833182828"><ele>2.8000000000000003</ele><time>2026-03-29T10:11:44.999Z</time></trkpt><trkpt lat="42.423305095491806" lon="14.280724456860353"><ele>2.4000000000000004</ele><time>2026-03-29T10:11:46.999Z</time></trkpt><trkpt lat="42.42335188774193" lon="14.280619162343642"><ele>2.0</ele><time>2026-03-29T10:11:49.999Z</time></trkpt><trkpt lat="42.42339189245129" lon="14.28051337492644"><ele>1.8333333333333333</ele><time>2026-03-29T10:11:51.999Z</time></trkpt><trkpt lat="42.4234280353579" lon="14.280439791627328"><ele>1.6666666666666665</ele><time>2026-03-29T10:11:56.999Z</time></trkpt><trkpt lat="42.42346439299623" lon="14.280355730975035"><ele>1.5</ele><time>2026-03-29T10:11:58.999Z</time></trkpt><trkpt lat="42.423515633807526" lon="14.280264791048737"><ele>1.3333333333333333</ele><time>2026-03-29T10:12:00.999Z</time></trkpt><trkpt lat="42.42356840520222" lon="14.280117283618253"><ele>1.1666666666666665</ele><time>2026-03-29T10:12:02.999Z</time></trkpt><trkpt lat="42.42360275551038" lon="14.280018122699625"><ele>1.0</ele><time>2026-03-29T10:12:03.999Z</time></trkpt><trkpt lat="42.42363275943994" lon="14.2799347112467"><ele>1.0</ele><time>2026-03-29T10:12:04.999Z</time></trkpt><trkpt lat="42.42366871188693" lon="14.279837117105979"><ele>1.0</ele><time>2026-03-29T10:12:05.999Z</time></trkpt><trkpt lat="42.42371753423655" lon="14.279720167684092"><ele>1.0</ele><time>2026-03-29T10:12:06.999Z</time></trkpt><trkpt lat="42.42376659066892" lon="14.279616087457182"><ele>1.0</ele><time>2026-03-29T10:12:07.999Z</time></trkpt><trkpt lat="42.42382448364272" lon="14.279505628598384"><ele>1.0</ele><time>2026-03-29T10:12:08.999Z</time></trkpt><trkpt lat="42.423880429031044" lon="14.279393894397268"><ele>1.2000000000000002</ele><time>2026-03-29T10:12:09.999Z</time></trkpt><trkpt lat="42.42393724659413" lon="14.279277470858892"><ele>1.4000000000000001</ele><time>2026-03-29T10:12:10.999Z</time></trkpt><trkpt lat="42.4239954790541" lon="14.279160346955473"><ele>1.6</ele><time>2026-03-29T10:12:11.999Z</time></trkpt><trkpt lat="42.42405256616963" lon="14.279047213293738"><ele>1.8</ele><time>2026-03-29T10:12:12.999Z</time></trkpt><trkpt lat="42.424103363561905" lon="14.278944973823503"><ele>2.0</ele><time>2026-03-29T10:12:13.999Z</time></trkpt><trkpt lat="42.42414578520911" lon="14.278865533548815"><ele>2.0</ele><time>2026-03-29T10:12:14.999Z</time></trkpt><trkpt lat="42.42420847140692" lon="14.278732432952033"><ele>2.0</ele><time>2026-03-29T10:12:16.999Z</time></trkpt><trkpt lat="42.42426883358238" lon="14.27861709716139"><ele>2.0</ele><time>2026-03-29T10:12:18.999Z</time></trkpt><trkpt lat="42.42727324084418" lon="14.273759758611517"><ele>2.5</ele><time>2026-03-29T10:13:19.999Z</time></trkpt><trkpt lat="42.427368180449534" lon="14.273614425138502"><ele>3.0</ele><time>2026-03-29T10:13:20.999Z</time></trkpt><trkpt lat="42.42746381343788" lon="14.27347195279478"><ele>3.5</ele><time>2026-03-29T10:13:21.999Z</time></trkpt><trkpt lat="42.427555683490205" lon="14.273328402405962"><ele>4.0</ele><time>2026-03-29T10:13:22.999Z</time></trkpt><trkpt lat="42.42765371566728" lon="14.273182307262548"><ele>4.0</ele><time>2026-03-29T10:13:23.999Z</time></trkpt><trkpt lat="42.42774797841286" lon="14.27303664256638"><ele>4.0</ele><time>2026-03-29T10:13:24.999Z</time></trkpt><trkpt lat="42.42784045920955" lon="14.272890401052067"><ele>4.0</ele><time>2026-03-29T10:13:25.999Z</time></trkpt><trkpt lat="42.42793289483108" lon="14.27274491590273"><ele>4.0</ele><time>2026-03-29T10:13:26.999Z</time></trkpt><trkpt lat="42.428017733688485" lon="14.272609115285658"><ele>4.0</ele><time>2026-03-29T10:13:27.999Z</time></trkpt><trkpt lat="42.42810953885103" lon="14.272478660712112"><ele>4.0</ele><time>2026-03-29T10:13:28.999Z</time></trkpt><trkpt lat="42.42819781872914" lon="14.272348551299594"><ele>4.0</ele><time>2026-03-29T10:13:29.999Z</time></trkpt><trkpt lat="42.428291018865856" lon="14.272211013476234"><ele>4.0</ele><time>2026-03-29T10:13:30.999Z</time></trkpt><trkpt lat="42.42837958200474" lon="14.272072555027133"><ele>4.75</ele><time>2026-03-29T10:13:31.999Z</time></trkpt><trkpt lat="42.42848117284286" lon="14.271924035771564"><ele>5.5</ele><time>2026-03-29T10:13:32.999Z</time></trkpt><trkpt lat="42.42861978166198" lon="14.27173482524883"><ele>6.25</ele><time>2026-03-29T10:13:33.999Z</time></trkpt><trkpt lat="42.42865938955061" lon="14.271646222673034"><ele>7.0</ele><time>2026-03-29T10:13:34.999Z</time></trkpt><trkpt lat="42.42875540982453" lon="14.271498710915028"><ele>6.5</ele><time>2026-03-29T10:13:35.999Z</time></trkpt><trkpt lat="42.4288513697397" lon="14.271350282824402"><ele>6.0</ele><time>2026-03-29T10:13:36.999Z</time></trkpt><trkpt lat="42.4289512983791" lon="14.271200462392104"><ele>5.5</ele><time>2026-03-29T10:13:37.999Z</time></trkpt><trkpt lat="42.42905009310382" lon="14.27105421337859"><ele>5.0</ele><time>2026-03-29T10:13:38.999Z</time></trkpt><trkpt lat="42.42914659853922" lon="14.270902131664219"><ele>5.0</ele><time>2026-03-29T10:13:39.999Z</time></trkpt><trkpt lat="42.429229597537066" lon="14.270770435062133"><ele>5.0</ele><time>2026-03-29T10:13:40.999Z</time></trkpt><trkpt lat="42.429300344895765" lon="14.27065291184504"><ele>5.0</ele><time>2026-03-29T10:13:41.999Z</time></trkpt><trkpt lat="42.42936662813614" lon="14.270556184735314"><ele>5.0</ele><time>2026-03-29T10:13:42.999Z</time></trkpt><trkpt lat="42.42943639110614" lon="14.270446671614843"><ele>5.0</ele><time>2026-03-29T10:13:43.999Z</time></trkpt><trkpt lat="42.42950871952239" lon="14.270337138349413"><ele>5.0</ele><time>2026-03-29T10:13:44.999Z</time></trkpt><trkpt lat="42.42957709156647" lon="14.27023443114828"><ele>5.0</ele><time>2026-03-29T10:13:45.999Z</time></trkpt><trkpt lat="42.42964558933466" lon="14.2701309577288"><ele>5.0</ele><time>2026-03-29T10:13:46.999Z</time></trkpt><trkpt lat="42.42972315570635" lon="14.270021869356546"><ele>5.0</ele><time>2026-03-29T10:13:47.999Z</time></trkpt><trkpt lat="42.42980744212657" lon="14.269893903034632"><ele>5.0</ele><time>2026-03-29T10:13:48.999Z</time></trkpt><trkpt lat="42.42989404998826" lon="14.269764088132806"><ele>5.0</ele><time>2026-03-29T10:13:49.999Z</time></trkpt><trkpt lat="42.42997220179162" lon="14.269641404393415"><ele>5.0</ele><time>2026-03-29T10:13:50.999Z</time></trkpt><trkpt lat="42.43004071033934" lon="14.269532059539376"><ele>5.0</ele><time>2026-03-29T10:13:51.999Z</time></trkpt><trkpt lat="42.430101098265204" lon="14.269439534537216"><ele>5.0</ele><time>2026-03-29T10:13:52.999Z</time></trkpt><trkpt lat="42.43015921811945" lon="14.269353431021218"><ele>5.0</ele><time>2026-03-29T10:13:53.999Z</time></trkpt><trkpt lat="42.43021551901182" lon="14.269262806533236"><ele>5.0</ele><time>2026-03-29T10:13:54.999Z</time></trkpt><trkpt lat="42.43026901218662" lon="14.269175308724847"><ele>5.0</ele><time>2026-03-29T10:13:55.999Z</time></trkpt><trkpt lat="42.43033361505121" lon="14.269079678192526"><ele>5.0</ele><time>2026-03-29T10:13:56.999Z</time></trkpt><trkpt lat="42.43039650426786" lon="14.268987964956521"><ele>5.0</ele><time>2026-03-29T10:13:57.999Z</time></trkpt><trkpt lat="42.430462293840705" lon="14.268887781247548"><ele>5.0</ele><time>2026-03-29T10:13:58.999Z</time></trkpt><trkpt lat="42.43053057479641" lon="14.268783506752648"><ele>4.6</ele><time>2026-03-29T10:13:59.999Z</time></trkpt><trkpt lat="42.430606004414194" lon="14.268672245664556"><ele>4.2</ele><time>2026-03-29T10:14:00.999Z</time></trkpt><trkpt lat="42.430679279774424" lon="14.268561344475273"><ele>3.8</ele><time>2026-03-29T10:14:01.999Z</time></trkpt><trkpt lat="42.430748820221744" lon="14.268456577067926"><ele>3.4</ele><time>2026-03-29T10:14:02.999Z</time></trkpt><trkpt lat="42.43082510820132" lon="14.26834191638473"><ele>3.0</ele><time>2026-03-29T10:14:03.999Z</time></trkpt><trkpt lat="42.43090209917901" lon="14.268219718514551"><ele>4.0</ele><time>2026-03-29T10:14:04.999Z</time></trkpt><trkpt lat="42.43098046123133" lon="14.268099753293676"><ele>5.0</ele><time>2026-03-29T10:14:05.999Z</time></trkpt><trkpt lat="42.43106078872436" lon="14.267976015105935"><ele>6.0</ele><time>2026-03-29T10:14:06.999Z</time></trkpt><trkpt lat="42.43114020811631" lon="14.267850724913876"><ele>7.0</ele><time>2026-03-29T10:14:07.999Z</time></trkpt><trkpt lat="42.43122233501644" lon="14.26772653674205"><ele>6.25</ele><time>2026-03-29T10:14:08.999Z</time></trkpt><trkpt lat="42.43130767941005" lon="14.267597261991245"><ele>5.5</ele><time>2026-03-29T10:14:09.999Z</time></trkpt><trkpt lat="42.43139464082716" lon="14.267467295309444"><ele>4.75</ele><time>2026-03-29T10:14:10.999Z</time></trkpt><trkpt lat="42.43147764854291" lon="14.267340491122734"><ele>4.0</ele><time>2026-03-29T10:14:11.999Z</time></trkpt><trkpt lat="42.43155710066454" lon="14.267215619512859"><ele>4.0</ele><time>2026-03-29T10:14:12.999Z</time></trkpt><trkpt lat="42.43163441819947" lon="14.267096381320483"><ele>4.0</ele><time>2026-03-29T10:14:13.999Z</time></trkpt><trkpt lat="42.431709189708414" lon="14.266976738250001"><ele>4.0</ele><time>2026-03-29T10:14:14.999Z</time></trkpt><trkpt lat="42.431783404774514" lon="14.266861964427939"><ele>4.0</ele><time>2026-03-29T10:14:15.999Z</time></trkpt><trkpt lat="42.431857356735584" lon="14.266752987214561"><ele>4.0</ele><time>2026-03-29T10:14:16.999Z</time></trkpt><trkpt lat="42.43192583258497" lon="14.266645006134116"><ele>4.0</ele><time>2026-03-29T10:14:17.999Z</time></trkpt><trkpt lat="42.4319917109608" lon="14.266542555204534"><ele>4.0</ele><time>2026-03-29T10:14:18.999Z</time></trkpt><trkpt lat="42.43610504599499" lon="14.260456941146284"><ele>3.9999999999999996</ele><time>2026-03-29T10:15:19.999Z</time></trkpt><trkpt lat="42.436201882855784" lon="14.260389830996498"><ele>4.0</ele><time>2026-03-29T10:15:21.999Z</time></trkpt><trkpt lat="42.43623977798376" lon="14.260319778055875"><ele>4.0</ele><time>2026-03-29T10:15:22.999Z</time></trkpt><trkpt lat="42.43626257729302" lon="14.260228631151355"><ele>4.0</ele><time>2026-03-29T10:15:23.999Z</time></trkpt><trkpt lat="42.43628403261765" lon="14.26012804655836"><ele>3.9999999999999996</ele><time>2026-03-29T10:15:24.999Z</time></trkpt><trkpt lat="42.436305768711655" lon="14.260025826539916"><ele>4.0</ele><time>2026-03-29T10:15:25.999Z</time></trkpt><trkpt lat="42.43633756112785" lon="14.259909322497537"><ele>4.0</ele><time>2026-03-29T10:15:26.999Z</time></trkpt><trkpt lat="42.43639385273226" lon="14.259792098357684"><ele>4.0</ele><time>2026-03-29T10:15:27.999Z</time></trkpt><trkpt lat="42.436466012062375" lon="14.25967518351106"><ele>4.0</ele><time>2026-03-29T10:15:28.999Z</time></trkpt><trkpt lat="42.43654687296944" lon="14.259551887301575"><ele>4.0</ele><time>2026-03-29T10:15:29.999Z</time></trkpt><trkpt lat="42.436640173457775" lon="14.259414277176521"><ele>4.0</ele><time>2026-03-29T10:15:30.999Z</time></trkpt><trkpt lat="42.43672807728314" lon="14.259277133050055"><ele>4.0</ele><time>2026-03-29T10:15:31.999Z</time></trkpt><trkpt lat="42.43681717161315" lon="14.259142987405413"><ele>4.0</ele><time>2026-03-29T10:15:32.999Z</time></trkpt><trkpt lat="42.43690379778882" lon="14.259010293495908"><ele>4.0</ele><time>2026-03-29T10:15:33.999Z</time></trkpt><trkpt lat="42.43698524803952" lon="14.25888460836229"><ele>4.25</ele><time>2026-03-29T10:15:34.999Z</time></trkpt><trkpt lat="42.43706748034194" lon="14.258758207470198"><ele>4.5</ele><time>2026-03-29T10:15:35.999Z</time></trkpt><trkpt lat="42.43715182448519" lon="14.258628039851379"><ele>4.75</ele><time>2026-03-29T10:15:36.999Z</time></trkpt><trkpt lat="42.437234358445714" lon="14.258503913186074"><ele>5.0</ele><time>2026-03-29T10:15:37.999Z</time></trkpt><trkpt lat="42.43730857902084" lon="14.258389110168258"><ele>5.0</ele><time>2026-03-29T10:15:38.999Z</time></trkpt><trkpt lat="42.43737872151668" lon="14.258281195704043"><ele>5.0</ele><time>2026-03-29T10:15:39.999Z</time></trkpt><trkpt lat="42.43744887252549" lon="14.258171095392669"><ele>5.0</ele><time>2026-03-29T10:15:40.999Z</time></trkpt><trkpt lat="42.437526110221256" lon="14.258057910630626"><ele>5.0</ele><time>2026-03-29T10:15:41.999Z</time></trkpt><trkpt lat="42.43760162104229" lon="14.257943629481245"><ele>5.0</ele><time>2026-03-29T10:15:42.999Z</time></trkpt><trkpt lat="42.43767406950314" lon="14.257830357644071"><ele>5.0</ele><time>2026-03-29T10:15:43.999Z</time></trkpt><trkpt lat="42.43774743485839" lon="14.257721338585714"><ele>5.0</ele><time>2026-03-29T10:15:44.999Z</time></trkpt><trkpt lat="42.43781076949308" lon="14.25761688858413"><ele>5.0</ele><time>2026-03-29T10:15:45.999Z</time></trkpt><trkpt lat="42.43787475798249" lon="14.25751700834602"><ele>5.0</ele><time>2026-03-29T10:15:46.999Z</time></trkpt><trkpt lat="42.437934652604206" lon="14.257423234185733"><ele>5.0</ele><time>2026-03-29T10:15:47.999Z</time></trkpt><trkpt lat="42.4379880995447" lon="14.257340207957508"><ele>4.8</ele><time>2026-03-29T10:15:48.999Z</time></trkpt><trkpt lat="42.43803209110072" lon="14.257267637313149"><ele>4.6</ele><time>2026-03-29T10:15:49.999Z</time></trkpt><trkpt lat="42.43811406307293" lon="14.257144696903843"><ele>4.4</ele><time>2026-03-29T10:15:51.999Z</time></trkpt><trkpt lat="42.43816252281916" lon="14.257070720848509"><ele>4.2</ele><time>2026-03-29T10:15:52.999Z</time></trkpt><trkpt lat="42.4382184804261" lon="14.2569874493824"><ele>4.0</ele><time>2026-03-29T10:15:53.999Z</time></trkpt><trkpt lat="42.43828656071394" lon="14.25688201118809"><ele>4.0</ele><time>2026-03-29T10:15:54.999Z</time></trkpt><trkpt lat="42.438367694508166" lon="14.256760216195397"><ele>4.0</ele><time>2026-03-29T10:15:55.999Z</time></trkpt><trkpt lat="42.438440540700554" lon="14.256649218018337"><ele>4.0</ele><time>2026-03-29T10:15:56.999Z</time></trkpt><trkpt lat="42.43851015041316" lon="14.25654240806134"><ele>4.0</ele><time>2026-03-29T10:15:57.999Z</time></trkpt><trkpt lat="42.43857280407714" lon="14.25644265715731"><ele>4.0</ele><time>2026-03-29T10:15:58.999Z</time></trkpt><trkpt lat="42.438635668745654" lon="14.256347461165014"><ele>4.2</ele><time>2026-03-29T10:15:59.999Z</time></trkpt><trkpt lat="42.43869825166291" lon="14.256252543445948"><ele>4.4</ele><time>2026-03-29T10:16:00.999Z</time></trkpt><trkpt lat="42.438766464630234" lon="14.256150124750327"><ele>4.6</ele><time>2026-03-29T10:16:01.999Z</time></trkpt><trkpt lat="42.4388335482119" lon="14.256045856848775"><ele>4.8</ele><time>2026-03-29T10:16:02.999Z</time></trkpt><trkpt lat="42.438900831128585" lon="14.255944253605232"><ele>5.0</ele><time>2026-03-29T10:16:03.999Z</time></trkpt><trkpt lat="42.43897220187678" lon="14.255835737938087"><ele>4.6</ele><time>2026-03-29T10:16:04.999Z</time></trkpt><trkpt lat="42.439043781259116" lon="14.255727990905694"><ele>4.2</ele><time>2026-03-29T10:16:05.999Z</time></trkpt><trkpt lat="42.439113975769864" lon="14.255618275221805"><ele>3.8</ele><time>2026-03-29T10:16:06.999Z</time></trkpt><trkpt lat="42.43918915533124" lon="14.255507547169032"><ele>3.4</ele><time>2026-03-29T10:16:07.999Z</time></trkpt><trkpt lat="42.439259826474455" lon="14.255400597696552"><ele>3.0</ele><time>2026-03-29T10:16:08.999Z</time></trkpt><trkpt lat="42.43932040560042" lon="14.255301762198954"><ele>3.0</ele><time>2026-03-29T10:16:09.999Z</time></trkpt><trkpt lat="42.439390017334176" lon="14.255195605558754"><ele>3.0</ele><time>2026-03-29T10:16:10.999Z</time></trkpt><trkpt lat="42.43946137573847" lon="14.255085466441441"><ele>3.0</ele><time>2026-03-29T10:16:11.999Z</time></trkpt><trkpt lat="42.43952566998518" lon="14.254988386658015"><ele>3.0</ele><time>2026-03-29T10:16:12.999Z</time></trkpt><trkpt lat="42.439581261515855" lon="14.25490763541429"><ele>3.0</ele><time>2026-03-29T10:16:13.999Z</time></trkpt><trkpt lat="42.439646118856444" lon="14.254819730412391"><ele>4.0</ele><time>2026-03-29T10:16:15.999Z</time></trkpt><trkpt lat="42.439710945836566" lon="14.254747581509973"><ele>5.0</ele><time>2026-03-29T10:16:17.999Z</time></trkpt><trkpt lat="42.44370498100415" lon="14.248872733291922"><ele>5.25</ele><time>2026-03-29T10:17:19.999Z</time></trkpt><trkpt lat="42.44378411770709" lon="14.248762056559181"><ele>5.5</ele><time>2026-03-29T10:17:20.999Z</time></trkpt><trkpt lat="42.44387281384943" lon="14.248645365353516"><ele>5.75</ele><time>2026-03-29T10:17:21.999Z</time></trkpt><trkpt lat="42.443961701085925" lon="14.248533669705413"><ele>6.0</ele><time>2026-03-29T10:17:22.999Z</time></trkpt><trkpt lat="42.44405435350733" lon="14.24841701054175"><ele>5.5</ele><time>2026-03-29T10:17:23.999Z</time></trkpt><trkpt lat="42.4441492914433" lon="14.248291357607204"><ele>5.0</ele><time>2026-03-29T10:17:24.999Z</time></trkpt><trkpt lat="42.44423839099972" lon="14.248174977235708"><ele>4.5</ele><time>2026-03-29T10:17:25.999Z</time></trkpt><trkpt lat="42.44431709128241" lon="14.248064535881586"><ele>4.0</ele><time>2026-03-29T10:17:26.999Z</time></trkpt><trkpt lat="42.4443939212253" lon="14.247966735875124"><ele>4.0</ele><time>2026-03-29T10:17:27.999Z</time></trkpt><trkpt lat="42.44447341135781" lon="14.24786534306351"><ele>4.0</ele><time>2026-03-29T10:17:28.999Z</time></trkpt><trkpt lat="42.44455033518032" lon="14.247762281900036"><ele>4.0</ele><time>2026-03-29T10:17:29.999Z</time></trkpt><trkpt lat="42.444629671250865" lon="14.247666707405873"><ele>4.0</ele><time>2026-03-29T10:17:30.999Z</time></trkpt><trkpt lat="42.44470475526323" lon="14.247563935933075"><ele>4.0</ele><time>2026-03-29T10:17:31.999Z</time></trkpt><trkpt lat="42.44478192446045" lon="14.247465756604962"><ele>4.0</ele><time>2026-03-29T10:17:32.999Z</time></trkpt><trkpt lat="42.44486401317254" lon="14.247356435858034"><ele>4.0</ele><time>2026-03-29T10:17:33.999Z</time></trkpt><trkpt lat="42.44494321959144" lon="14.247257750232308"><ele>4.0</ele><time>2026-03-29T10:17:34.999Z</time></trkpt><trkpt lat="42.4450192431725" lon="14.247157415867843"><ele>4.0</ele><time>2026-03-29T10:17:35.999Z</time></trkpt><trkpt lat="42.445100095894546" lon="14.247051814811394"><ele>4.0</ele><time>2026-03-29T10:17:36.999Z</time></trkpt><trkpt lat="42.44517675642323" lon="14.24694451054098"><ele>4.0</ele><time>2026-03-29T10:17:37.999Z</time></trkpt><trkpt lat="42.44524849704581" lon="14.246843014250544"><ele>4.0</ele><time>2026-03-29T10:17:38.999Z</time></trkpt><trkpt lat="42.44532962203336" lon="14.246740806378085"><ele>4.0</ele><time>2026-03-29T10:17:39.999Z</time></trkpt><trkpt lat="42.44541881980789" lon="14.24664680559818"><ele>4.0</ele><time>2026-03-29T10:17:40.999Z</time></trkpt><trkpt lat="42.44549858084753" lon="14.24654202816429"><ele>4.0</ele><time>2026-03-29T10:17:41.999Z</time></trkpt><trkpt lat="42.445572086254025" lon="14.246443653899536"><ele>3.9999999999999996</ele><time>2026-03-29T10:17:42.999Z</time></trkpt><trkpt lat="42.445622489388" lon="14.246345380976752"><ele>4.0</ele><time>2026-03-29T10:17:43.999Z</time></trkpt><trkpt lat="42.44569213047542" lon="14.246282518002657"><ele>4.0</ele><time>2026-03-29T10:17:44.999Z</time></trkpt><trkpt lat="42.44575116151294" lon="14.246200677654063"><ele>4.0</ele><time>2026-03-29T10:17:45.999Z</time></trkpt><trkpt lat="42.445793258712015" lon="14.246117206137283"><ele>3.9999999999999996</ele><time>2026-03-29T10:17:46.999Z</time></trkpt><trkpt lat="42.44586369867782" lon="14.246033448462395"><ele>4.0</ele><time>2026-03-29T10:17:48.999Z</time></trkpt><trkpt lat="42.445927663404596" lon="14.245970657174013"><ele>4.0</ele><time>2026-03-29T10:17:52.999Z</time></trkpt><trkpt lat="42.4460260146632" lon="14.245890156231434"><ele>4.0</ele><time>2026-03-29T10:17:54.999Z</time></trkpt><trkpt lat="42.44610430487773" lon="14.245786450424797"><ele>4.0</ele><time>2026-03-29T10:17:56.999Z</time></trkpt><trkpt lat="42.44611718327314" lon="14.24564303113452"><ele>4.0</ele><time>2026-03-29T10:17:58.999Z</time></trkpt><trkpt lat="42.44606133832021" lon="14.245547768888795"><ele>4.0</ele><time>2026-03-29T10:18:00.999Z</time></trkpt><trkpt lat="42.44602075394441" lon="14.245474957154673"><ele>3.6666666666666665</ele><time>2026-03-29T10:18:01.999Z</time></trkpt><trkpt lat="42.44598103866345" lon="14.245404658662073"><ele>3.333333333333333</ele><time>2026-03-29T10:18:02.999Z</time></trkpt><trkpt lat="42.445949963890214" lon="14.245315079151597"><ele>3.0</ele><time>2026-03-29T10:18:03.999Z</time></trkpt><trkpt lat="42.445933291259166" lon="14.24520675218519"><ele>2.6666666666666665</ele><time>2026-03-29T10:18:04.999Z</time></trkpt><trkpt lat="42.44592689505489" lon="14.245087656507934"><ele>2.333333333333333</ele><time>2026-03-29T10:18:05.999Z</time></trkpt><trkpt lat="42.445925048866194" lon="14.244958732373759"><ele>2.0</ele><time>2026-03-29T10:18:06.999Z</time></trkpt><trkpt lat="42.44592804298841" lon="14.244819659344847"><ele>2.0</ele><time>2026-03-29T10:18:07.999Z</time></trkpt><trkpt lat="42.44593481335476" lon="14.244660059014992"><ele>2.0</ele><time>2026-03-29T10:18:08.999Z</time></trkpt><trkpt lat="42.445958125286424" lon="14.244427903879952"><ele>2.0</ele><time>2026-03-29T10:18:09.999Z</time></trkpt><trkpt lat="42.44596809632135" lon="14.244171980815707"><ele>1.75</ele><time>2026-03-29T10:18:11Z</time></trkpt><trkpt lat="42.4459767094557" lon="14.243950910332305"><ele>1.5</ele><time>2026-03-29T10:18:12Z</time></trkpt><trkpt lat="42.44598455209605" lon="14.243749615995123"><ele>1.25</ele><time>2026-03-29T10:18:13Z</time></trkpt><trkpt lat="42.44597623655774" lon="14.243572894113017"><ele>1.0</ele><time>2026-03-29T10:18:14Z</time></trkpt><trkpt lat="42.44598277567841" lon="14.243412383537537"><ele>1.0</ele><time>2026-03-29T10:18:15Z</time></trkpt><trkpt lat="42.44599008164825" lon="14.243267186283042"><ele>1.0</ele><time>2026-03-29T10:18:16Z</time></trkpt><trkpt lat="42.44599685226518" lon="14.243151137434408"><ele>1.0</ele><time>2026-03-29T10:18:17Z</time></trkpt><trkpt lat="42.4460097637975" lon="14.243058957936126"><ele>1.0</ele><time>2026-03-29T10:18:18Z</time></trkpt><trkpt lat="42.44602832706874" lon="14.242973161210696"><ele>1.0</ele><time>2026-03-29T10:18:19Z</time></trkpt><trkpt lat="42.442214127201204" lon="14.232062595169154"><ele>7.0</ele><time>2026-03-29T10:19:20Z</time></trkpt><trkpt lat="42.44214079359352" lon="14.231793974861597"><ele>13.0</ele><time>2026-03-29T10:19:21Z</time></trkpt><trkpt lat="42.44207651927801" lon="14.231513790433016"><ele>19.0</ele><time>2026-03-29T10:19:22Z</time></trkpt><trkpt lat="42.44201732430434" lon="14.231206982411567"><ele>20.666666666666664</ele><time>2026-03-29T10:19:23Z</time></trkpt><trkpt lat="42.44196314531865" lon="14.230896419392788"><ele>22.333333333333332</ele><time>2026-03-29T10:19:24Z</time></trkpt><trkpt lat="42.44191562351864" lon="14.230629868795045"><ele>24.0</ele><time>2026-03-29T10:19:25Z</time></trkpt><trkpt lat="42.441876196924206" lon="14.230405285078264"><ele>24.75</ele><time>2026-03-29T10:19:26Z</time></trkpt><trkpt lat="42.44183392831542" lon="14.230210802639439"><ele>25.5</ele><time>2026-03-29T10:19:27Z</time></trkpt><trkpt lat="42.44177454817914" lon="14.23005122829052"><ele>26.25</ele><time>2026-03-29T10:19:28Z</time></trkpt><trkpt lat="42.44168443245347" lon="14.229918015023875"><ele>27.0</ele><time>2026-03-29T10:19:29Z</time></trkpt><trkpt lat="42.44157400288532" lon="14.229817036753273"><ele>26.25</ele><time>2026-03-29T10:19:30Z</time></trkpt><trkpt lat="42.441456705044715" lon="14.229748560923206"><ele>25.5</ele><time>2026-03-29T10:19:31Z</time></trkpt><trkpt lat="42.44132604086402" lon="14.229714575884463"><ele>24.75</ele><time>2026-03-29T10:19:32Z</time></trkpt><trkpt lat="42.441192610087775" lon="14.229721209258539"><ele>24.0</ele><time>2026-03-29T10:19:33Z</time></trkpt><trkpt lat="42.44106394070233" lon="14.229766416454087"><ele>25.5</ele><time>2026-03-29T10:19:34Z</time></trkpt><trkpt lat="42.44094705849058" lon="14.229845693966936"><ele>27.0</ele><time>2026-03-29T10:19:35Z</time></trkpt><trkpt lat="42.44084910755774" lon="14.2299524029479"><ele>28.5</ele><time>2026-03-29T10:19:36Z</time></trkpt><trkpt lat="42.44076947212983" lon="14.230084292652538"><ele>30.0</ele><time>2026-03-29T10:19:37Z</time></trkpt><trkpt lat="42.440706366325784" lon="14.230230403165859"><ele>30.0</ele><time>2026-03-29T10:19:38Z</time></trkpt><trkpt lat="42.44066954257346" lon="14.230396177552038"><ele>30.0</ele><time>2026-03-29T10:19:39Z</time></trkpt><trkpt lat="42.440656898957705" lon="14.2305770549076"><ele>30.0</ele><time>2026-03-29T10:19:40Z</time></trkpt><trkpt lat="42.440673243706875" lon="14.230770826118452"><ele>30.0</ele><time>2026-03-29T10:19:41Z</time></trkpt><trkpt lat="42.44070727418875" lon="14.230972614360887"><ele>30.333333333333336</ele><time>2026-03-29T10:19:42Z</time></trkpt><trkpt lat="42.44074716945918" lon="14.231189046824328"><ele>30.666666666666668</ele><time>2026-03-29T10:19:43Z</time></trkpt><trkpt lat="42.440794089477464" lon="14.231412222555576"><ele>31.0</ele><time>2026-03-29T10:19:44Z</time></trkpt><trkpt lat="42.44085673871041" lon="14.231623683751346"><ele>31.25</ele><time>2026-03-29T10:19:45Z</time></trkpt><trkpt lat="42.44092836319089" lon="14.231815010588647"><ele>31.5</ele><time>2026-03-29T10:19:46Z</time></trkpt><trkpt lat="42.4409951133075" lon="14.231995592350636"><ele>31.75</ele><time>2026-03-29T10:19:47Z</time></trkpt><trkpt lat="42.44104299577701" lon="14.232168166003753"><ele>32.0</ele><time>2026-03-29T10:19:48Z</time></trkpt><trkpt lat="42.44107098293992" lon="14.232339167723174"><ele>32.0</ele><time>2026-03-29T10:19:49Z</time></trkpt><trkpt lat="42.44107610828673" lon="14.232500049647705"><ele>32.0</ele><time>2026-03-29T10:19:50Z</time></trkpt><trkpt lat="42.441069499446975" lon="14.232649900226201"><ele>32.0</ele><time>2026-03-29T10:19:51Z</time></trkpt><trkpt lat="42.441062275700986" lon="14.232800735403682"><ele>32.0</ele><time>2026-03-29T10:19:52Z</time></trkpt><trkpt lat="42.44106225636405" lon="14.232995927845193"><ele>33.666666666666664</ele><time>2026-03-29T10:19:53Z</time></trkpt><trkpt lat="42.44105889727662" lon="14.23323511176387"><ele>35.333333333333336</ele><time>2026-03-29T10:19:54Z</time></trkpt><trkpt lat="42.44103282663889" lon="14.23348463302207"><ele>37.0</ele><time>2026-03-29T10:19:55Z</time></trkpt><trkpt lat="42.441001406147045" lon="14.233731186290735"><ele>36.66666666666667</ele><time>2026-03-29T10:19:56Z</time></trkpt><trkpt lat="42.440962673609796" lon="14.234006150531453"><ele>36.333333333333336</ele><time>2026-03-29T10:19:57Z</time></trkpt><trkpt lat="42.44092212458344" lon="14.234285170752994"><ele>36.0</ele><time>2026-03-29T10:19:58Z</time></trkpt><trkpt lat="42.440868842640796" lon="14.23455206455127"><ele>35.666666666666664</ele><time>2026-03-29T10:19:59Z</time></trkpt><trkpt lat="42.44082602426363" lon="14.234812848432842"><ele>35.33333333333333</ele><time>2026-03-29T10:20:00Z</time></trkpt><trkpt lat="42.44078198255216" lon="14.23508108316928"><ele>35.0</ele><time>2026-03-29T10:20:01Z</time></trkpt><trkpt lat="42.44073604587086" lon="14.235360858887885"><ele>35.0</ele><time>2026-03-29T10:20:02Z</time></trkpt><trkpt lat="42.440691083506216" lon="14.235634700730834"><ele>35.0</ele><time>2026-03-29T10:20:03Z</time></trkpt><trkpt lat="42.44064538873163" lon="14.23591300321301"><ele>35.0</ele><time>2026-03-29T10:20:04.061Z</time></trkpt><trkpt lat="42.440603041578925" lon="14.236165531605664"><ele>35.33333333333333</ele><time>2026-03-29T10:20:05.058Z</time></trkpt><trkpt lat="42.44055869198282" lon="14.236429788046024"><ele>35.666666666666664</ele><time>2026-03-29T10:20:06.058Z</time></trkpt><trkpt lat="42.440514946663335" lon="14.236690444030483"><ele>36.0</ele><time>2026-03-29T10:20:07.061Z</time></trkpt><trkpt lat="42.44047031388335" lon="14.236957636825709"><ele>44.5</ele><time>2026-03-29T10:20:08.055Z</time></trkpt><trkpt lat="42.44042652135935" lon="14.23722307994918"><ele>53.0</ele><time>2026-03-29T10:20:09.038Z</time></trkpt><trkpt lat="42.439943197218376" lon="14.239871842077395"><ele>88.0</ele><time>2026-03-29T10:20:12.326Z</time></trkpt><trkpt lat="42.439785" lon="14.2405359"><ele>12.0</ele><time>2026-03-29T10:20:13.327Z</time></trkpt><trkpt lat="42.41906944567801" lon="14.275067654540338"><ele>12.0</ele><time>2026-03-29T10:23:20Z</time></trkpt><trkpt lat="42.41895578686151" lon="14.275240477308705"><ele>12.0</ele><time>2026-03-29T10:23:21Z</time></trkpt><trkpt lat="42.41884314939584" lon="14.275413962666617"><ele>12.0</ele><time>2026-03-29T10:23:22Z</time></trkpt><trkpt lat="42.418732408217735" lon="14.27558846977959"><ele>15.0</ele><time>2026-03-29T10:23:23Z</time></trkpt><trkpt lat="42.418617459480956" lon="14.275761896433094"><ele>18.0</ele><time>2026-03-29T10:23:24Z</time></trkpt><trkpt lat="42.41850158419785" lon="14.275937414035486"><ele>21.0</ele><time>2026-03-29T10:23:25Z</time></trkpt><trkpt lat="42.41837774253857" lon="14.276131717441016"><ele>21.0</ele><time>2026-03-29T10:23:26Z</time></trkpt><trkpt lat="42.41824161386854" lon="14.276342280745288"><ele>21.0</ele><time>2026-03-29T10:23:27Z</time></trkpt><trkpt lat="42.418126725592934" lon="14.276526213138887"><ele>21.0</ele><time>2026-03-29T10:23:28Z</time></trkpt><trkpt lat="42.41801672840479" lon="14.276694554575588"><ele>32.33333333333333</ele><time>2026-03-29T10:23:29Z</time></trkpt><trkpt lat="42.4179020469116" lon="14.276863127289657"><ele>43.666666666666664</ele><time>2026-03-29T10:23:30Z</time></trkpt><trkpt lat="42.41778559194706" lon="14.277033488344237"><ele>55.0</ele><time>2026-03-29T10:23:31Z</time></trkpt><trkpt lat="42.41767538220042" lon="14.277201151347663"><ele>63.666666666666664</ele><time>2026-03-29T10:23:32Z</time></trkpt><trkpt lat="42.417557401365606" lon="14.2773745604401"><ele>72.33333333333333</ele><time>2026-03-29T10:23:33Z</time></trkpt><trkpt lat="42.417433722893264" lon="14.277556543417203"><ele>81.0</ele><time>2026-03-29T10:23:34.061Z</time></trkpt><trkpt lat="42.41731953755034" lon="14.277726738238016"><ele>117.0</ele><time>2026-03-29T10:23:35.062Z</time></trkpt><trkpt lat="42.41600116825333" lon="14.279805040570087"><ele>117.0</ele><time>2026-03-29T10:23:38.328Z</time></trkpt><trkpt lat="42.4155979827666" lon="14.280458482262716"><ele>115.0</ele><time>2026-03-29T10:23:39.328Z</time></trkpt><trkpt lat="42.41521168678284" lon="14.281130318943458"><ele>113.0</ele><time>2026-03-29T10:23:40.328Z</time></trkpt><trkpt lat="42.41483961462286" lon="14.281816620084786"><ele>113.0</ele><time>2026-03-29T10:23:41.328Z</time></trkpt><trkpt lat="42.414749" lon="14.2819959"><ele>113.0</ele><time>2026-03-29T10:23:42.324Z</time></trkpt><trkpt lat="42.40865419456017" lon="14.29751403770426"><ele>90.33333333333333</ele><time>2026-03-29T10:25:20.001Z</time></trkpt><trkpt lat="42.4085498300992" lon="14.297686657511106"><ele>67.66666666666666</ele><time>2026-03-29T10:25:21.001Z</time></trkpt><trkpt lat="42.408444756632825" lon="14.297855421952528"><ele>45.0</ele><time>2026-03-29T10:25:22.001Z</time></trkpt><trkpt lat="42.40834148493649" lon="14.298023415331151"><ele>43.333333333333336</ele><time>2026-03-29T10:25:23.001Z</time></trkpt><trkpt lat="42.4082386741815" lon="14.298192123811285"><ele>41.66666666666667</ele><time>2026-03-29T10:25:24.001Z</time></trkpt><trkpt lat="42.40813126883541" lon="14.29836313427002"><ele>40.0</ele><time>2026-03-29T10:25:25.001Z</time></trkpt><trkpt lat="42.40802109137312" lon="14.298534002967319"><ele>39.333333333333336</ele><time>2026-03-29T10:25:26.001Z</time></trkpt><trkpt lat="42.40790710730172" lon="14.298706040199363"><ele>38.666666666666664</ele><time>2026-03-29T10:25:27.001Z</time></trkpt><trkpt lat="42.407791078865976" lon="14.298880399665597"><ele>38.0</ele><time>2026-03-29T10:25:28.001Z</time></trkpt><trkpt lat="42.40767604122901" lon="14.299051316829583"><ele>38.0</ele><time>2026-03-29T10:25:29.001Z</time></trkpt><trkpt lat="42.40756036176092" lon="14.299223288867976"><ele>38.0</ele><time>2026-03-29T10:25:30.001Z</time></trkpt><trkpt lat="42.40744024967821" lon="14.29940131230694"><ele>38.0</ele><time>2026-03-29T10:25:31.001Z</time></trkpt><trkpt lat="42.40731906734411" lon="14.299581234563313"><ele>37.33333333333333</ele><time>2026-03-29T10:25:32.001Z</time></trkpt><trkpt lat="42.40719150371397" lon="14.299766189482831"><ele>36.666666666666664</ele><time>2026-03-29T10:25:33.001Z</time></trkpt><trkpt lat="42.40705426055808" lon="14.299961146231139"><ele>36.0</ele><time>2026-03-29T10:25:34.001Z</time></trkpt><trkpt lat="42.40692110858861" lon="14.300147681571694"><ele>35.666666666666664</ele><time>2026-03-29T10:25:35.001Z</time></trkpt><trkpt lat="42.40678910967079" lon="14.30033000672862"><ele>35.33333333333333</ele><time>2026-03-29T10:25:36.001Z</time></trkpt><trkpt lat="42.40665627163767" lon="14.300516460042957"><ele>35.0</ele><time>2026-03-29T10:25:37.001Z</time></trkpt><trkpt lat="42.40652933705346" lon="14.300705951661723"><ele>34.666666666666664</ele><time>2026-03-29T10:25:38.001Z</time></trkpt><trkpt lat="42.40642146842921" lon="14.300913577878198"><ele>34.333333333333336</ele><time>2026-03-29T10:25:39.001Z</time></trkpt><trkpt lat="42.40629740222314" lon="14.301105451055856"><ele>34.0</ele><time>2026-03-29T10:25:40.001Z</time></trkpt><trkpt lat="42.40617317398754" lon="14.301292923843116"><ele>34.0</ele><time>2026-03-29T10:25:41.001Z</time></trkpt><trkpt lat="42.40605171073786" lon="14.301467001501385"><ele>34.0</ele><time>2026-03-29T10:25:42.001Z</time></trkpt><trkpt lat="42.4059333390263" lon="14.301641026759537"><ele>34.0</ele><time>2026-03-29T10:25:43.001Z</time></trkpt><trkpt lat="42.4058190120475" lon="14.301809366772122"><ele>34.0</ele><time>2026-03-29T10:25:44.001Z</time></trkpt><trkpt lat="42.40570147727346" lon="14.301980547768716"><ele>34.0</ele><time>2026-03-29T10:25:45.001Z</time></trkpt><trkpt lat="42.40558506477827" lon="14.30215404377753"><ele>34.0</ele><time>2026-03-29T10:25:46.001Z</time></trkpt><trkpt lat="42.40547002449438" lon="14.302326722417904"><ele>31.666666666666668</ele><time>2026-03-29T10:25:47.001Z</time></trkpt><trkpt lat="42.40535842926999" lon="14.302493344199435"><ele>29.333333333333336</ele><time>2026-03-29T10:25:48.001Z</time></trkpt><trkpt lat="42.40525189509579" lon="14.302650564883669"><ele>27.0</ele><time>2026-03-29T10:25:49.001Z</time></trkpt><trkpt lat="42.40514940389221" lon="14.302806068954137"><ele>27.0</ele><time>2026-03-29T10:25:50.001Z</time></trkpt><trkpt lat="42.405040907588244" lon="14.30297218081537"><ele>27.0</ele><time>2026-03-29T10:25:51.001Z</time></trkpt><trkpt lat="42.40491808328622" lon="14.30316016234278"><ele>27.0</ele><time>2026-03-29T10:25:52.001Z</time></trkpt><trkpt lat="42.40479240431534" lon="14.303359867430913"><ele>26.333333333333336</ele><time>2026-03-29T10:25:53.001Z</time></trkpt><trkpt lat="42.40465879897324" lon="14.303539390700042"><ele>25.666666666666668</ele><time>2026-03-29T10:25:54.001Z</time></trkpt><trkpt lat="42.404544354415506" lon="14.303720810957783"><ele>25.0</ele><time>2026-03-29T10:25:55.001Z</time></trkpt><trkpt lat="42.40443034818932" lon="14.303901809718884"><ele>26.0</ele><time>2026-03-29T10:25:56.001Z</time></trkpt><trkpt lat="42.40431197178309" lon="14.304101091053319"><ele>27.0</ele><time>2026-03-29T10:25:57.001Z</time></trkpt><trkpt lat="42.404194942822954" lon="14.304296984090342"><ele>28.0</ele><time>2026-03-29T10:25:58.001Z</time></trkpt><trkpt lat="42.40408133556232" lon="14.304506054229156"><ele>28.0</ele><time>2026-03-29T10:25:59.001Z</time></trkpt><trkpt lat="42.4039627729448" lon="14.304702424854467"><ele>28.0</ele><time>2026-03-29T10:26:00.001Z</time></trkpt><trkpt lat="42.40385042904058" lon="14.304909812111774"><ele>28.0</ele><time>2026-03-29T10:26:01.001Z</time></trkpt><trkpt lat="42.403743381697545" lon="14.305119770096978"><ele>26.666666666666668</ele><time>2026-03-29T10:26:02.001Z</time></trkpt><trkpt lat="42.403631351691345" lon="14.305327457243777"><ele>25.333333333333336</ele><time>2026-03-29T10:26:03.001Z</time></trkpt><trkpt lat="42.40351727944068" lon="14.30554162642019"><ele>24.0</ele><time>2026-03-29T10:26:04.001Z</time></trkpt><trkpt lat="42.40341062473183" lon="14.305768262882195"><ele>24.0</ele><time>2026-03-29T10:26:05.001Z</time></trkpt><trkpt lat="42.40330515462233" lon="14.305992224526234"><ele>24.0</ele><time>2026-03-29T10:26:06.001Z</time></trkpt><trkpt lat="42.40319975021029" lon="14.30621264215451"><ele>24.0</ele><time>2026-03-29T10:26:07.001Z</time></trkpt><trkpt lat="42.403084727220254" lon="14.306417766011506"><ele>24.0</ele><time>2026-03-29T10:26:08.001Z</time></trkpt><trkpt lat="42.402997801442616" lon="14.306640802625997"><ele>24.0</ele><time>2026-03-29T10:26:09.001Z</time></trkpt><trkpt lat="42.402896151038604" lon="14.306855347023012"><ele>24.0</ele><time>2026-03-29T10:26:10.001Z</time></trkpt><trkpt lat="42.402803463205" lon="14.307063959311503"><ele>22.666666666666668</ele><time>2026-03-29T10:26:11.001Z</time></trkpt><trkpt lat="42.402711491644354" lon="14.30727765936613"><ele>21.333333333333336</ele><time>2026-03-29T10:26:12.001Z</time></trkpt><trkpt lat="42.40261342320863" lon="14.30749656500396"><ele>20.0</ele><time>2026-03-29T10:26:13.001Z</time></trkpt><trkpt lat="42.402524302212704" lon="14.30771299264808"><ele>20.0</ele><time>2026-03-29T10:26:14.001Z</time></trkpt><trkpt lat="42.40243263724166" lon="14.307918967981742"><ele>20.0</ele><time>2026-03-29T10:26:15.001Z</time></trkpt><trkpt lat="42.402342971918145" lon="14.30812783116818"><ele>20.0</ele><time>2026-03-29T10:26:16.001Z</time></trkpt><trkpt lat="42.40225059800831" lon="14.30833562160312"><ele>23.0</ele><time>2026-03-29T10:26:17.001Z</time></trkpt><trkpt lat="42.40215751612342" lon="14.308540300677976"><ele>26.0</ele><time>2026-03-29T10:26:18.001Z</time></trkpt><trkpt lat="42.40206598663861" lon="14.308748676233158"><ele>29.0</ele><time>2026-03-29T10:26:19.001Z</time></trkpt><trkpt lat="42.39785258576541" lon="14.318568218415562"><ele>24.999999999999996</ele><time>2026-03-29T10:27:20.001Z</time></trkpt><trkpt lat="42.39788229701467" lon="14.318671652819397"><ele>21.0</ele><time>2026-03-29T10:27:22.001Z</time></trkpt><trkpt lat="42.397952413298135" lon="14.31872888833217"><ele>17.0</ele><time>2026-03-29T10:27:24.001Z</time></trkpt><trkpt lat="42.39804722574446" lon="14.318758960944313"><ele>13.0</ele><time>2026-03-29T10:27:26.001Z</time></trkpt><trkpt lat="42.39810946496676" lon="14.318776662341893"><ele>9.0</ele><time>2026-03-29T10:27:27.001Z</time></trkpt><trkpt lat="42.39817136107652" lon="14.318798292488342"><ele>5.0</ele><time>2026-03-29T10:27:28.001Z</time></trkpt><trkpt lat="42.3982831257646" lon="14.318845165365074"><ele>5.0</ele><time>2026-03-29T10:27:30.001Z</time></trkpt><trkpt lat="42.398386510915834" lon="14.318877018235394"><ele>5.0</ele><time>2026-03-29T10:27:32.001Z</time></trkpt><trkpt lat="42.39848760588664" lon="14.318902830915377"><ele>5.0</ele><time>2026-03-29T10:27:34.001Z</time></trkpt><trkpt lat="42.39858681097452" lon="14.3189304632435"><ele>5.0</ele><time>2026-03-29T10:27:36.001Z</time></trkpt><trkpt lat="42.39870109599303" lon="14.318956776804077"><ele>5.0</ele><time>2026-03-29T10:27:38.001Z</time></trkpt><trkpt lat="42.39877101252227" lon="14.31897498854232"><ele>5.0</ele><time>2026-03-29T10:27:39.001Z</time></trkpt><trkpt lat="42.39883995565702" lon="14.318993073553402"><ele>5.0</ele><time>2026-03-29T10:27:40.001Z</time></trkpt><trkpt lat="42.398904555280566" lon="14.319006936209433"><ele>5.0</ele><time>2026-03-29T10:27:41.001Z</time></trkpt><trkpt lat="42.398975341046494" lon="14.31902130232798"><ele>5.0</ele><time>2026-03-29T10:27:42.001Z</time></trkpt><trkpt lat="42.399075433241634" lon="14.31903522100004"><ele>5.0</ele><time>2026-03-29T10:27:43.001Z</time></trkpt><trkpt lat="42.39917922702126" lon="14.319061236433754"><ele>5.0</ele><time>2026-03-29T10:27:44.001Z</time></trkpt><trkpt lat="42.39925215333488" lon="14.319085894905664"><ele>5.0</ele><time>2026-03-29T10:27:45.001Z</time></trkpt><trkpt lat="42.39934376245206" lon="14.31911451962725"><ele>5.0</ele><time>2026-03-29T10:27:47.001Z</time></trkpt><trkpt lat="42.399425404752854" lon="14.319133300618484"><ele>5.0</ele><time>2026-03-29T10:27:49.001Z</time></trkpt><trkpt lat="42.39952127990034" lon="14.319155994096915"><ele>5.0</ele><time>2026-03-29T10:27:51.001Z</time></trkpt><trkpt lat="42.399594753250334" lon="14.319169019115478"><ele>5.0</ele><time>2026-03-29T10:27:52.001Z</time></trkpt><trkpt lat="42.39969614268632" lon="14.319186006508005"><ele>5.0</ele><time>2026-03-29T10:27:53.001Z</time></trkpt><trkpt lat="42.399817613428674" lon="14.319217443039893"><ele>5.0</ele><time>2026-03-29T10:27:54.001Z</time></trkpt><trkpt lat="42.399939045155925" lon="14.319258836177465"><ele>5.0</ele><time>2026-03-29T10:27:55.001Z</time></trkpt><trkpt lat="42.400056067769185" lon="14.319297462396582"><ele>5.0</ele><time>2026-03-29T10:27:56.001Z</time></trkpt><trkpt lat="42.400172211363525" lon="14.319330515466897"><ele>5.0</ele><time>2026-03-29T10:27:57.001Z</time></trkpt><trkpt lat="42.40028254331338" lon="14.319357092916972"><ele>5.0</ele><time>2026-03-29T10:27:58.001Z</time></trkpt><trkpt lat="42.40038678943518" lon="14.319383376037717"><ele>5.0</ele><time>2026-03-29T10:27:59.001Z</time></trkpt><trkpt lat="42.40048433189516" lon="14.319408774456946"><ele>5.0</ele><time>2026-03-29T10:28:00.001Z</time></trkpt><trkpt lat="42.40057481247917" lon="14.319435855829838"><ele>5.0</ele><time>2026-03-29T10:28:01.001Z</time></trkpt><trkpt lat="42.40065365814532" lon="14.319461432332698"><ele>5.0</ele><time>2026-03-29T10:28:02.001Z</time></trkpt><trkpt lat="42.400721535577375" lon="14.319489040918869"><ele>5.0</ele><time>2026-03-29T10:28:03.001Z</time></trkpt><trkpt lat="42.40078648070252" lon="14.319516280032975"><ele>5.0</ele><time>2026-03-29T10:28:04.001Z</time></trkpt><trkpt lat="42.40084679936812" lon="14.319544974366556"><ele>5.0</ele><time>2026-03-29T10:28:05.001Z</time></trkpt><trkpt lat="42.400956575787966" lon="14.319607749521666"><ele>5.0</ele><time>2026-03-29T10:28:07.001Z</time></trkpt><trkpt lat="42.4010133226481" lon="14.319648722542041"><ele>5.0</ele><time>2026-03-29T10:28:08.001Z</time></trkpt><trkpt lat="42.401120718824494" lon="14.319720946386212"><ele>5.0</ele><time>2026-03-29T10:28:10.001Z</time></trkpt><trkpt lat="42.40122299314019" lon="14.3197989268375"><ele>5.0</ele><time>2026-03-29T10:28:12.001Z</time></trkpt><trkpt lat="42.401314384464264" lon="14.319868661153881"><ele>5.0</ele><time>2026-03-29T10:28:14.001Z</time></trkpt><trkpt lat="42.4014021175536" lon="14.319935103504854"><ele>5.0</ele><time>2026-03-29T10:28:16.001Z</time></trkpt><trkpt lat="42.40148141453356" lon="14.319995631135534"><ele>5.0</ele><time>2026-03-29T10:28:18.001Z</time></trkpt><trkpt lat="42.39764535672077" lon="14.330869106200216"><ele>5.333333333333334</ele><time>2026-03-29T10:29:20Z</time></trkpt><trkpt lat="42.3975586480423" lon="14.33107936270753"><ele>5.666666666666667</ele><time>2026-03-29T10:29:21Z</time></trkpt><trkpt lat="42.39746970285767" lon="14.331290922021862"><ele>6.0</ele><time>2026-03-29T10:29:22Z</time></trkpt><trkpt lat="42.39738415816143" lon="14.331498296998985"><ele>5.0</ele><time>2026-03-29T10:29:23Z</time></trkpt><trkpt lat="42.397303792909966" lon="14.331699951603198"><ele>4.0</ele><time>2026-03-29T10:29:24Z</time></trkpt><trkpt lat="42.397219809854256" lon="14.33189860274814"><ele>3.0</ele><time>2026-03-29T10:29:25Z</time></trkpt><trkpt lat="42.39713671796608" lon="14.3320982476774"><ele>4.333333333333334</ele><time>2026-03-29T10:29:26Z</time></trkpt><trkpt lat="42.397054734421964" lon="14.332295720508938"><ele>5.666666666666667</ele><time>2026-03-29T10:29:27Z</time></trkpt><trkpt lat="42.39697415018777" lon="14.33248827241584"><ele>7.0</ele><time>2026-03-29T10:29:28Z</time></trkpt><trkpt lat="42.39689333913895" lon="14.332678226147934"><ele>7.0</ele><time>2026-03-29T10:29:29Z</time></trkpt><trkpt lat="42.396813554554384" lon="14.332865376760319"><ele>7.0</ele><time>2026-03-29T10:29:30.001Z</time></trkpt><trkpt lat="42.39673633399453" lon="14.333053578497667"><ele>7.0</ele><time>2026-03-29T10:29:31.001Z</time></trkpt><trkpt lat="42.396658436886554" lon="14.333237847541639"><ele>6.0</ele><time>2026-03-29T10:29:32.001Z</time></trkpt><trkpt lat="42.39657941894498" lon="14.333421295055098"><ele>5.0</ele><time>2026-03-29T10:29:33.001Z</time></trkpt><trkpt lat="42.39650205666271" lon="14.333607198162108"><ele>4.0</ele><time>2026-03-29T10:29:34.001Z</time></trkpt><trkpt lat="42.3964262522122" lon="14.333791015996024"><ele>3.0</ele><time>2026-03-29T10:29:35.001Z</time></trkpt><trkpt lat="42.39635496525085" lon="14.333982887482794"><ele>2.0</ele><time>2026-03-29T10:29:36.001Z</time></trkpt><trkpt lat="42.39624542693757" lon="14.334205258651945"><ele>1.0</ele><time>2026-03-29T10:29:37.001Z</time></trkpt><trkpt lat="42.39614000152469" lon="14.334463972446276"><ele>3.5</ele><time>2026-03-29T10:29:38.001Z</time></trkpt><trkpt lat="42.39602622042358" lon="14.33474380392045"><ele>6.0</ele><time>2026-03-29T10:29:39.001Z</time></trkpt><trkpt lat="42.395921088825496" lon="14.335002683415906"><ele>6.0</ele><time>2026-03-29T10:29:40.001Z</time></trkpt><trkpt lat="42.39581096767323" lon="14.335274097730872"><ele>6.0</ele><time>2026-03-29T10:29:41.001Z</time></trkpt><trkpt lat="42.395693901600765" lon="14.33557577201047"><ele>4.5</ele><time>2026-03-29T10:29:42.001Z</time></trkpt><trkpt lat="42.395580006141884" lon="14.335855738406634"><ele>3.0</ele><time>2026-03-29T10:29:43.001Z</time></trkpt><trkpt lat="42.39546387805827" lon="14.336146614651105"><ele>8.0</ele><time>2026-03-29T10:29:44.001Z</time></trkpt><trkpt lat="42.395345445513826" lon="14.336432814256934"><ele>13.0</ele><time>2026-03-29T10:29:45.001Z</time></trkpt><trkpt lat="42.39523089582917" lon="14.336714161920739"><ele>13.0</ele><time>2026-03-29T10:29:46.001Z</time></trkpt><trkpt lat="42.3951185500125" lon="14.336994471113792"><ele>13.0</ele><time>2026-03-29T10:29:47.001Z</time></trkpt><trkpt lat="42.395007856258296" lon="14.337264369596129"><ele>11.0</ele><time>2026-03-29T10:29:48.001Z</time></trkpt><trkpt lat="42.39490747481269" lon="14.337515427334834"><ele>9.0</ele><time>2026-03-29T10:29:49.001Z</time></trkpt><trkpt lat="42.39480657075403" lon="14.33775652787563"><ele>7.0</ele><time>2026-03-29T10:29:50.001Z</time></trkpt><trkpt lat="42.39470970398309" lon="14.337987822026053"><ele>10.0</ele><time>2026-03-29T10:29:51.001Z</time></trkpt><trkpt lat="42.39459627219253" lon="14.338196518322471"><ele>13.0</ele><time>2026-03-29T10:29:52.001Z</time></trkpt><trkpt lat="42.394476496526984" lon="14.338376086217028"><ele>16.0</ele><time>2026-03-29T10:29:53.001Z</time></trkpt><trkpt lat="42.39435791147624" lon="14.338550384043112"><ele>16.0</ele><time>2026-03-29T10:29:54.001Z</time></trkpt><trkpt lat="42.39426594341808" lon="14.338718945496556"><ele>16.0</ele><time>2026-03-29T10:29:55.001Z</time></trkpt><trkpt lat="42.39417791400966" lon="14.338867222415464"><ele>16.0</ele><time>2026-03-29T10:29:56.001Z</time></trkpt><trkpt lat="42.394092522285234" lon="14.339041897795587"><ele>13.5</ele><time>2026-03-29T10:29:57.001Z</time></trkpt><trkpt lat="42.39401923709839" lon="14.339227125810535"><ele>11.0</ele><time>2026-03-29T10:29:58.001Z</time></trkpt><trkpt lat="42.39395529493864" lon="14.339403016715577"><ele>8.5</ele><time>2026-03-29T10:29:59.001Z</time></trkpt><trkpt lat="42.39388386412488" lon="14.339546045727586"><ele>6.0</ele><time>2026-03-29T10:30:00.001Z</time></trkpt><trkpt lat="42.393828790349566" lon="14.339692601625792"><ele>6.25</ele><time>2026-03-29T10:30:01.001Z</time></trkpt><trkpt lat="42.39379742904292" lon="14.339791359223534"><ele>6.5</ele><time>2026-03-29T10:30:02.001Z</time></trkpt><trkpt lat="42.39376824969988" lon="14.339908870299128"><ele>6.75</ele><time>2026-03-29T10:30:03.001Z</time></trkpt><trkpt lat="42.39374464057315" lon="14.340036322826284"><ele>7.0</ele><time>2026-03-29T10:30:05.001Z</time></trkpt><trkpt lat="42.38629595614291" lon="14.355395252802747"><ele>5.0</ele><time>2026-03-29T10:31:20Z</time></trkpt><trkpt lat="42.38616952556911" lon="14.355672429577737"><ele>3.0</ele><time>2026-03-29T10:31:21Z</time></trkpt><trkpt lat="42.386040065580666" lon="14.35593579695254"><ele>3.0</ele><time>2026-03-29T10:31:22Z</time></trkpt><trkpt lat="42.38589889929062" lon="14.35615795835945"><ele>3.0</ele><time>2026-03-29T10:31:23Z</time></trkpt><trkpt lat="42.385779820850416" lon="14.356367681163693"><ele>3.0</ele><time>2026-03-29T10:31:24Z</time></trkpt><trkpt lat="42.38568047559962" lon="14.356577954690463"><ele>2.6666666666666665</ele><time>2026-03-29T10:31:25Z</time></trkpt><trkpt lat="42.385569730096" lon="14.35677826915166"><ele>2.333333333333333</ele><time>2026-03-29T10:31:26Z</time></trkpt><trkpt lat="42.385456926702645" lon="14.356984010838751"><ele>2.0</ele><time>2026-03-29T10:31:27Z</time></trkpt><trkpt lat="42.385339566257954" lon="14.357182889617018"><ele>2.6666666666666665</ele><time>2026-03-29T10:31:28Z</time></trkpt><trkpt lat="42.385213795295606" lon="14.357370286533937"><ele>3.333333333333333</ele><time>2026-03-29T10:31:29Z</time></trkpt><trkpt lat="42.38508193955223" lon="14.357549686845008"><ele>4.0</ele><time>2026-03-29T10:31:30Z</time></trkpt><trkpt lat="42.384949408839574" lon="14.357725155747705"><ele>4.0</ele><time>2026-03-29T10:31:31Z</time></trkpt><trkpt lat="42.38481802966295" lon="14.357899967013887"><ele>4.0</ele><time>2026-03-29T10:31:32Z</time></trkpt><trkpt lat="42.384695752228055" lon="14.358073484428893"><ele>4.0</ele><time>2026-03-29T10:31:33Z</time></trkpt><trkpt lat="42.384566240671965" lon="14.35823623544051"><ele>4.0</ele><time>2026-03-29T10:31:34Z</time></trkpt><trkpt lat="42.38447274794785" lon="14.358426838695324"><ele>4.0</ele><time>2026-03-29T10:31:35Z</time></trkpt><trkpt lat="42.38437564692308" lon="14.358596828703512"><ele>4.0</ele><time>2026-03-29T10:31:36.001Z</time></trkpt><trkpt lat="42.384280242524554" lon="14.358765217563043"><ele>3.6666666666666665</ele><time>2026-03-29T10:31:37.001Z</time></trkpt><trkpt lat="42.38418422932027" lon="14.358939440658625"><ele>3.333333333333333</ele><time>2026-03-29T10:31:38.001Z</time></trkpt><trkpt lat="42.38408866952514" lon="14.359116271838943"><ele>3.0</ele><time>2026-03-29T10:31:39.001Z</time></trkpt><trkpt lat="42.384002153986785" lon="14.35927780763938"><ele>3.0</ele><time>2026-03-29T10:31:40.001Z</time></trkpt><trkpt lat="42.383918926558536" lon="14.35943339520694"><ele>3.0</ele><time>2026-03-29T10:31:41.001Z</time></trkpt><trkpt lat="42.383835778460394" lon="14.359585837250773"><ele>3.0</ele><time>2026-03-29T10:31:42.001Z</time></trkpt><trkpt lat="42.38374997037871" lon="14.35974548816865"><ele>3.0</ele><time>2026-03-29T10:31:43.001Z</time></trkpt><trkpt lat="42.383658388108756" lon="14.359919942342264"><ele>4.333333333333334</ele><time>2026-03-29T10:31:44.001Z</time></trkpt><trkpt lat="42.383549645082375" lon="14.360083878657075"><ele>5.666666666666667</ele><time>2026-03-29T10:31:45.001Z</time></trkpt><trkpt lat="42.38345085883738" lon="14.360266885096172"><ele>7.0</ele><time>2026-03-29T10:31:46.001Z</time></trkpt><trkpt lat="42.3833365908396" lon="14.360478538650522"><ele>5.0</ele><time>2026-03-29T10:31:47.001Z</time></trkpt><trkpt lat="42.38320450950948" lon="14.360723187204295"><ele>3.0</ele><time>2026-03-29T10:31:48.001Z</time></trkpt><trkpt lat="42.38306401909248" lon="14.360983411365577"><ele>5.0</ele><time>2026-03-29T10:31:49.001Z</time></trkpt><trkpt lat="42.38292007929002" lon="14.361249577080999"><ele>7.0</ele><time>2026-03-29T10:31:50.001Z</time></trkpt><trkpt lat="42.38277446283685" lon="14.361518564350243"><ele>7.0</ele><time>2026-03-29T10:31:51.001Z</time></trkpt><trkpt lat="42.38264781175289" lon="14.36179130269295"><ele>7.0</ele><time>2026-03-29T10:31:52.001Z</time></trkpt><trkpt lat="42.38251194660428" lon="14.362037064210096"><ele>5.333333333333334</ele><time>2026-03-29T10:31:53.001Z</time></trkpt><trkpt lat="42.38238088703648" lon="14.362280906881551"><ele>3.666666666666667</ele><time>2026-03-29T10:31:54.001Z</time></trkpt><trkpt lat="42.38225448882183" lon="14.362512884320791"><ele>2.0</ele><time>2026-03-29T10:31:55.001Z</time></trkpt><trkpt lat="42.38214096613053" lon="14.362721900026186"><ele>3.333333333333333</ele><time>2026-03-29T10:31:56.001Z</time></trkpt><trkpt lat="42.382033193425464" lon="14.3629213442801"><ele>4.666666666666667</ele><time>2026-03-29T10:31:57.001Z</time></trkpt><trkpt lat="42.381924513153166" lon="14.363125272575981"><ele>6.0</ele><time>2026-03-29T10:31:58.001Z</time></trkpt><trkpt lat="42.38181528023564" lon="14.363328205578314"><ele>6.0</ele><time>2026-03-29T10:31:59.001Z</time></trkpt><trkpt lat="42.38170951432826" lon="14.363520864774571"><ele>6.0</ele><time>2026-03-29T10:32:00.001Z</time></trkpt><trkpt lat="42.38161363035217" lon="14.363701920214568"><ele>6.0</ele><time>2026-03-29T10:32:01.001Z</time></trkpt><trkpt lat="42.381522747283576" lon="14.363870529710747"><ele>5.25</ele><time>2026-03-29T10:32:02.001Z</time></trkpt><trkpt lat="42.38144681065983" lon="14.364014570861139"><ele>4.5</ele><time>2026-03-29T10:32:03.001Z</time></trkpt><trkpt lat="42.381373350108746" lon="14.36413618416751"><ele>3.75</ele><time>2026-03-29T10:32:04.001Z</time></trkpt><trkpt lat="42.381302460952014" lon="14.36425358381194"><ele>3.0</ele><time>2026-03-29T10:32:05.001Z</time></trkpt><trkpt lat="42.38123301868628" lon="14.364364867388653"><ele>3.833333333333333</ele><time>2026-03-29T10:32:06.001Z</time></trkpt><trkpt lat="42.381168371891306" lon="14.364480119389953"><ele>4.666666666666666</ele><time>2026-03-29T10:32:07.001Z</time></trkpt><trkpt lat="42.38111898006017" lon="14.364583249995254"><ele>5.5</ele><time>2026-03-29T10:32:08.001Z</time></trkpt><trkpt lat="42.38107396939614" lon="14.364669878970759"><ele>6.333333333333333</ele><time>2026-03-29T10:32:09.001Z</time></trkpt><trkpt lat="42.381025769563806" lon="14.364754023275202"><ele>7.166666666666666</ele><time>2026-03-29T10:32:10.001Z</time></trkpt><trkpt lat="42.38098630954786" lon="14.364825151845398"><ele>8.0</ele><time>2026-03-29T10:32:11.001Z</time></trkpt><trkpt lat="42.38094814293575" lon="14.364897437399991"><ele>7.999999999999999</ele><time>2026-03-29T10:32:12.001Z</time></trkpt><trkpt lat="42.38091087381232" lon="14.364968289294985"><ele>8.0</ele><time>2026-03-29T10:32:13.001Z</time></trkpt><trkpt lat="42.38087375451791" lon="14.365043396854277"><ele>8.0</ele><time>2026-03-29T10:32:14.001Z</time></trkpt><trkpt lat="42.38081650759501" lon="14.365130735990038"><ele>8.0</ele><time>2026-03-29T10:32:15.001Z</time></trkpt><trkpt lat="42.380748019183486" lon="14.36525259795596"><ele>7.999999999999999</ele><time>2026-03-29T10:32:16.001Z</time></trkpt><trkpt lat="42.38068129715475" lon="14.365377657271049"><ele>8.0</ele><time>2026-03-29T10:32:17.001Z</time></trkpt><trkpt lat="42.38061226244202" lon="14.36551504216718"><ele>6.0</ele><time>2026-03-29T10:32:18.001Z</time></trkpt><trkpt lat="42.380537468254175" lon="14.36566260446846"><ele>4.0</ele><time>2026-03-29T10:32:19.001Z</time></trkpt><trkpt lat="42.374142663617285" lon="14.373798818741683"><ele>16.333333333333332</ele><time>2026-03-29T10:33:20Z</time></trkpt><trkpt lat="42.37413766528518" lon="14.374094707880905"><ele>28.666666666666664</ele><time>2026-03-29T10:33:21Z</time></trkpt><trkpt lat="42.3741244957804" lon="14.374387945111298"><ele>41.0</ele><time>2026-03-29T10:33:22Z</time></trkpt><trkpt lat="42.37409468905516" lon="14.374670994213394"><ele>41.0</ele><time>2026-03-29T10:33:23Z</time></trkpt><trkpt lat="42.374046378400436" lon="14.374945883570067"><ele>41.0</ele><time>2026-03-29T10:33:24Z</time></trkpt><trkpt lat="42.373983161678574" lon="14.375213181167288"><ele>41.0</ele><time>2026-03-29T10:33:25Z</time></trkpt><trkpt lat="42.373916642322826" lon="14.375475299949466"><ele>45.33333333333333</ele><time>2026-03-29T10:33:26Z</time></trkpt><trkpt lat="42.37385251318976" lon="14.375731048016064"><ele>49.666666666666664</ele><time>2026-03-29T10:33:27Z</time></trkpt><trkpt lat="42.37379295312918" lon="14.375970756261138"><ele>54.0</ele><time>2026-03-29T10:33:28Z</time></trkpt><trkpt lat="42.37373591548079" lon="14.376205903958034"><ele>53.33333333333333</ele><time>2026-03-29T10:33:29Z</time></trkpt><trkpt lat="42.37367595702874" lon="14.37643912529981"><ele>52.666666666666664</ele><time>2026-03-29T10:33:30Z</time></trkpt><trkpt lat="42.37360939062542" lon="14.376667632816101"><ele>52.0</ele><time>2026-03-29T10:33:31Z</time></trkpt><trkpt lat="42.373528368262846" lon="14.376882951650813"><ele>52.0</ele><time>2026-03-29T10:33:32Z</time></trkpt><trkpt lat="42.373448500119316" lon="14.377081328141838"><ele>52.0</ele><time>2026-03-29T10:33:33Z</time></trkpt><trkpt lat="42.3733657343828" lon="14.377271319291964"><ele>52.0</ele><time>2026-03-29T10:33:34Z</time></trkpt><trkpt lat="42.37326833810187" lon="14.377445206729126"><ele>52.25</ele><time>2026-03-29T10:33:35Z</time></trkpt><trkpt lat="42.37317523374406" lon="14.377615851557218"><ele>52.5</ele><time>2026-03-29T10:33:36Z</time></trkpt><trkpt lat="42.37308516947817" lon="14.377776372079495"><ele>52.75</ele><time>2026-03-29T10:33:37Z</time></trkpt><trkpt lat="42.37300511727819" lon="14.377917746372828"><ele>53.0</ele><time>2026-03-29T10:33:38Z</time></trkpt><trkpt lat="42.37292660207611" lon="14.378048006814161"><ele>53.0</ele><time>2026-03-29T10:33:39Z</time></trkpt><trkpt lat="42.372852499367546" lon="14.378171512348557"><ele>53.0</ele><time>2026-03-29T10:33:40Z</time></trkpt><trkpt lat="42.37277300045097" lon="14.37828741234672"><ele>53.0</ele><time>2026-03-29T10:33:41Z</time></trkpt><trkpt lat="42.372700925756455" lon="14.378408212181627"><ele>53.0</ele><time>2026-03-29T10:33:42.001Z</time></trkpt><trkpt lat="42.37263518264944" lon="14.378515877682373"><ele>53.0</ele><time>2026-03-29T10:33:43.001Z</time></trkpt><trkpt lat="42.372563486087046" lon="14.37864200991098"><ele>53.0</ele><time>2026-03-29T10:33:44.001Z</time></trkpt><trkpt lat="42.372477668997576" lon="14.378773912592406"><ele>53.0</ele><time>2026-03-29T10:33:45.001Z</time></trkpt><trkpt lat="42.37239936187177" lon="14.378909589387286"><ele>53.0</ele><time>2026-03-29T10:33:46.001Z</time></trkpt><trkpt lat="42.372323102905014" lon="14.3790468232735"><ele>53.25</ele><time>2026-03-29T10:33:47.001Z</time></trkpt><trkpt lat="42.372221836762016" lon="14.3791507316202"><ele>53.5</ele><time>2026-03-29T10:33:48.001Z</time></trkpt><trkpt lat="42.37211964942437" lon="14.379274942169396"><ele>53.75</ele><time>2026-03-29T10:33:49.001Z</time></trkpt><trkpt lat="42.372007851110936" lon="14.379428897686722"><ele>54.0</ele><time>2026-03-29T10:33:50.001Z</time></trkpt><trkpt lat="42.37190256445999" lon="14.379626577978026"><ele>55.66666666666667</ele><time>2026-03-29T10:33:51.001Z</time></trkpt><trkpt lat="42.371765433918604" lon="14.379810570061377"><ele>57.333333333333336</ele><time>2026-03-29T10:33:52.001Z</time></trkpt><trkpt lat="42.371655020334806" lon="14.3800198414144"><ele>59.0</ele><time>2026-03-29T10:33:53.001Z</time></trkpt><trkpt lat="42.37153545235318" lon="14.38021068935574"><ele>59.0</ele><time>2026-03-29T10:33:54.001Z</time></trkpt><trkpt lat="42.37141495548476" lon="14.38040068046455"><ele>59.0</ele><time>2026-03-29T10:33:55.001Z</time></trkpt><trkpt lat="42.371305689548485" lon="14.380576426031384"><ele>59.0</ele><time>2026-03-29T10:33:56.001Z</time></trkpt><trkpt lat="42.37118609605387" lon="14.380717381928923"><ele>59.333333333333336</ele><time>2026-03-29T10:33:57.001Z</time></trkpt><trkpt lat="42.37109247198703" lon="14.380893565475084"><ele>59.66666666666667</ele><time>2026-03-29T10:33:58.001Z</time></trkpt><trkpt lat="42.37098418849763" lon="14.381056843200867"><ele>60.0</ele><time>2026-03-29T10:33:59.001Z</time></trkpt><trkpt lat="42.370872932528535" lon="14.38122881442365"><ele>60.0</ele><time>2026-03-29T10:34:00.001Z</time></trkpt><trkpt lat="42.37075658651735" lon="14.38140485429153"><ele>60.0</ele><time>2026-03-29T10:34:01.001Z</time></trkpt><trkpt lat="42.37062776812245" lon="14.381583125016224"><ele>60.0</ele><time>2026-03-29T10:34:02.001Z</time></trkpt><trkpt lat="42.3704774197612" lon="14.381732947985398"><ele>60.66666666666667</ele><time>2026-03-29T10:34:03.001Z</time></trkpt><trkpt lat="42.3703248685879" lon="14.38186898707578"><ele>61.333333333333336</ele><time>2026-03-29T10:34:04.001Z</time></trkpt><trkpt lat="42.37016044089309" lon="14.38199205970421"><ele>62.0</ele><time>2026-03-29T10:34:05.001Z</time></trkpt><trkpt lat="42.36998971144507" lon="14.382095414810168"><ele>62.0</ele><time>2026-03-29T10:34:06.001Z</time></trkpt><trkpt lat="42.36981743786491" lon="14.382177471408507"><ele>62.0</ele><time>2026-03-29T10:34:07.001Z</time></trkpt><trkpt lat="42.36963760269492" lon="14.382243579592995"><ele>62.0</ele><time>2026-03-29T10:34:08.001Z</time></trkpt><trkpt lat="42.369455546069865" lon="14.382282215357925"><ele>62.66666666666667</ele><time>2026-03-29T10:34:09.001Z</time></trkpt><trkpt lat="42.369265007089915" lon="14.382306378966565"><ele>63.33333333333333</ele><time>2026-03-29T10:34:10.001Z</time></trkpt><trkpt lat="42.369072304078806" lon="14.382323345706428"><ele>64.0</ele><time>2026-03-29T10:34:11.001Z</time></trkpt><trkpt lat="42.36887755685855" lon="14.382361744945172"><ele>63.666666666666664</ele><time>2026-03-29T10:34:12.001Z</time></trkpt><trkpt lat="42.36869332098121" lon="14.38236596060091"><ele>63.33333333333333</ele><time>2026-03-29T10:34:13.001Z</time></trkpt><trkpt lat="42.368517387648886" lon="14.382382991048036"><ele>63.0</ele><time>2026-03-29T10:34:14.001Z</time></trkpt><trkpt lat="42.36835059863771" lon="14.382400600897414"><ele>63.0</ele><time>2026-03-29T10:34:15.001Z</time></trkpt><trkpt lat="42.3681857544997" lon="14.382420454399652"><ele>63.0</ele><time>2026-03-29T10:34:16.001Z</time></trkpt><trkpt lat="42.36801249385209" lon="14.382416657872316"><ele>63.0</ele><time>2026-03-29T10:34:17.001Z</time></trkpt><trkpt lat="42.36783715522148" lon="14.382432095757201"><ele>62.0</ele><time>2026-03-29T10:34:18.001Z</time></trkpt><trkpt lat="42.36766359649267" lon="14.382447411308023"><ele>61.0</ele><time>2026-03-29T10:34:19.001Z</time></trkpt><trkpt lat="42.359049780299195" lon="14.383755091579593"><ele>68.0</ele><time>2026-03-29T10:35:20Z</time></trkpt><trkpt lat="42.35879561449507" lon="14.383854071816078"><ele>75.0</ele><time>2026-03-29T10:35:21Z</time></trkpt><trkpt lat="42.35854878020738" lon="14.383949935849992"><ele>75.0</ele><time>2026-03-29T10:35:22Z</time></trkpt><trkpt lat="42.35830564244004" lon="14.38404343183633"><ele>75.0</ele><time>2026-03-29T10:35:23Z</time></trkpt><trkpt lat="42.35806575223284" lon="14.384136461771746"><ele>73.0</ele><time>2026-03-29T10:35:24Z</time></trkpt><trkpt lat="42.35781787145531" lon="14.38423264925165"><ele>71.0</ele><time>2026-03-29T10:35:25Z</time></trkpt><trkpt lat="42.357552336220046" lon="14.384335687383427"><ele>71.0</ele><time>2026-03-29T10:35:26Z</time></trkpt><trkpt lat="42.35728921237081" lon="14.384437789725819"><ele>71.0</ele><time>2026-03-29T10:35:27Z</time></trkpt><trkpt lat="42.357033515944316" lon="14.384537009976755"><ele>71.0</ele><time>2026-03-29T10:35:28Z</time></trkpt><trkpt lat="42.35678592728272" lon="14.38463308410828"><ele>71.0</ele><time>2026-03-29T10:35:29Z</time></trkpt><trkpt lat="42.35654709247581" lon="14.384725761375037"><ele>72.0</ele><time>2026-03-29T10:35:30Z</time></trkpt><trkpt lat="42.356317085237066" lon="14.384844901422635"><ele>73.0</ele><time>2026-03-29T10:35:31Z</time></trkpt><trkpt lat="42.35608714585843" lon="14.384935185516653"><ele>73.0</ele><time>2026-03-29T10:35:32Z</time></trkpt><trkpt lat="42.355860821814474" lon="14.385022953763022"><ele>73.0</ele><time>2026-03-29T10:35:33Z</time></trkpt><trkpt lat="42.35563178120389" lon="14.385111982031358"><ele>73.0</ele><time>2026-03-29T10:35:34Z</time></trkpt><trkpt lat="42.355403646758" lon="14.385204928692348"><ele>73.0</ele><time>2026-03-29T10:35:35Z</time></trkpt><trkpt lat="42.35517838296741" lon="14.385259381264245"><ele>73.0</ele><time>2026-03-29T10:35:36Z</time></trkpt><trkpt lat="42.354970762489884" lon="14.38533970272405"><ele>73.0</ele><time>2026-03-29T10:35:37Z</time></trkpt><trkpt lat="42.35477085209741" lon="14.38541690246449"><ele>73.0</ele><time>2026-03-29T10:35:38Z</time></trkpt><trkpt lat="42.35457627233407" lon="14.385493142614745"><ele>68.33333333333333</ele><time>2026-03-29T10:35:39Z</time></trkpt><trkpt lat="42.35441052998882" lon="14.385558083569416"><ele>63.66666666666667</ele><time>2026-03-29T10:35:40Z</time></trkpt><trkpt lat="42.35423911874897" lon="14.385625245848832"><ele>59.0</ele><time>2026-03-29T10:35:41Z</time></trkpt><trkpt lat="42.35405797950135" lon="14.385696118149083"><ele>57.0</ele><time>2026-03-29T10:35:42Z</time></trkpt><trkpt lat="42.35387179301207" lon="14.385768851081005"><ele>55.0</ele><time>2026-03-29T10:35:43Z</time></trkpt><trkpt lat="42.353687843533095" lon="14.385840710198957"><ele>53.0</ele><time>2026-03-29T10:35:44Z</time></trkpt><trkpt lat="42.35350806803147" lon="14.385910938726566"><ele>53.0</ele><time>2026-03-29T10:35:45Z</time></trkpt><trkpt lat="42.353326302321584" lon="14.385981574397036"><ele>53.0</ele><time>2026-03-29T10:35:46Z</time></trkpt><trkpt lat="42.353149746203215" lon="14.386071827159691"><ele>53.0</ele><time>2026-03-29T10:35:47Z</time></trkpt><trkpt lat="42.35297343946124" lon="14.386138072514985"><ele>55.66666666666667</ele><time>2026-03-29T10:35:48.001Z</time></trkpt><trkpt lat="42.35280252748827" lon="14.386207399093381"><ele>58.33333333333333</ele><time>2026-03-29T10:35:49.001Z</time></trkpt><trkpt lat="42.35262551826074" lon="14.386276725844127"><ele>61.0</ele><time>2026-03-29T10:35:50.001Z</time></trkpt><trkpt lat="42.35244468086359" lon="14.386343875709382"><ele>63.33333333333333</ele><time>2026-03-29T10:35:51.001Z</time></trkpt><trkpt lat="42.35226189811822" lon="14.38641650341267"><ele>65.66666666666667</ele><time>2026-03-29T10:35:52.001Z</time></trkpt><trkpt lat="42.352080660123114" lon="14.386486989593074"><ele>68.0</ele><time>2026-03-29T10:35:53.001Z</time></trkpt><trkpt lat="42.35189508144903" lon="14.38655831853946"><ele>72.0</ele><time>2026-03-29T10:35:54.001Z</time></trkpt><trkpt lat="42.35170830779694" lon="14.386630160436116"><ele>76.0</ele><time>2026-03-29T10:35:55.001Z</time></trkpt><trkpt lat="42.35151275512344" lon="14.386706703818506"><ele>80.0</ele><time>2026-03-29T10:35:56.001Z</time></trkpt><trkpt lat="42.35131790194253" lon="14.386783801567475"><ele>81.33333333333334</ele><time>2026-03-29T10:35:57.001Z</time></trkpt><trkpt lat="42.351126381474636" lon="14.38685808213183"><ele>82.66666666666667</ele><time>2026-03-29T10:35:58.001Z</time></trkpt><trkpt lat="42.3509386292102" lon="14.386908461596489"><ele>84.0</ele><time>2026-03-29T10:35:59.001Z</time></trkpt><trkpt lat="42.35076486438244" lon="14.386976014929987"><ele>84.0</ele><time>2026-03-29T10:36:00.001Z</time></trkpt><trkpt lat="42.3505995233345" lon="14.387040188789483"><ele>84.0</ele><time>2026-03-29T10:36:01.001Z</time></trkpt><trkpt lat="42.350445997523245" lon="14.387099711144522"><ele>84.0</ele><time>2026-03-29T10:36:02.001Z</time></trkpt><trkpt lat="42.350302838111816" lon="14.387179650229637"><ele>84.0</ele><time>2026-03-29T10:36:03.001Z</time></trkpt><trkpt lat="42.350158508509494" lon="14.3872347117162"><ele>84.0</ele><time>2026-03-29T10:36:04.001Z</time></trkpt><trkpt lat="42.350011321874966" lon="14.387292949085895"><ele>84.0</ele><time>2026-03-29T10:36:05.001Z</time></trkpt><trkpt lat="42.34984393378687" lon="14.387358724407523"><ele>85.33333333333333</ele><time>2026-03-29T10:36:06.001Z</time></trkpt><trkpt lat="42.349658920813724" lon="14.387407876544897"><ele>86.66666666666666</ele><time>2026-03-29T10:36:07.001Z</time></trkpt><trkpt lat="42.34947969010447" lon="14.38747855986964"><ele>88.0</ele><time>2026-03-29T10:36:08Z</time></trkpt><trkpt lat="42.349305798556124" lon="14.387567922858553"><ele>88.0</ele><time>2026-03-29T10:36:09Z</time></trkpt><trkpt lat="42.349098073352195" lon="14.38764372275742"><ele>88.0</ele><time>2026-03-29T10:36:10Z</time></trkpt><trkpt lat="42.34886097292481" lon="14.38773267901183"><ele>87.5</ele><time>2026-03-29T10:36:11Z</time></trkpt><trkpt lat="42.34862228986154" lon="14.387822088033412"><ele>87.0</ele><time>2026-03-29T10:36:12Z</time></trkpt><trkpt lat="42.34838732102312" lon="14.387914625364125"><ele>87.0</ele><time>2026-03-29T10:36:13Z</time></trkpt><trkpt lat="42.34814863083668" lon="14.388004897322372"><ele>87.0</ele><time>2026-03-29T10:36:14Z</time></trkpt><trkpt lat="42.34791065100837" lon="14.388097017954463"><ele>86.0</ele><time>2026-03-29T10:36:15Z</time></trkpt><trkpt lat="42.347676561873705" lon="14.388191287682917"><ele>85.0</ele><time>2026-03-29T10:36:16Z</time></trkpt><trkpt lat="42.34745435706152" lon="14.388291281494652"><ele>85.0</ele><time>2026-03-29T10:36:17Z</time></trkpt><trkpt lat="42.347245045419676" lon="14.388400006549858"><ele>85.0</ele><time>2026-03-29T10:36:18Z</time></trkpt><trkpt lat="42.347051159224925" lon="14.388518479438737"><ele>85.0</ele><time>2026-03-29T10:36:19Z</time></trkpt><trkpt lat="42.34410510343739" lon="14.397517647096965"><ele>76.33333333333333</ele><time>2026-03-29T10:37:20Z</time></trkpt><trkpt lat="42.34404897996533" lon="14.397723258843005"><ele>67.66666666666667</ele><time>2026-03-29T10:37:21Z</time></trkpt><trkpt lat="42.34400766943463" lon="14.397932284382472"><ele>59.0</ele><time>2026-03-29T10:37:22Z</time></trkpt><trkpt lat="42.34395261249075" lon="14.398154091656794"><ele>59.0</ele><time>2026-03-29T10:37:23Z</time></trkpt><trkpt lat="42.34389369858302" lon="14.39838102970257"><ele>59.0</ele><time>2026-03-29T10:37:24Z</time></trkpt><trkpt lat="42.34383670416044" lon="14.398609947702614"><ele>59.0</ele><time>2026-03-29T10:37:25Z</time></trkpt><trkpt lat="42.34377911516764" lon="14.398838984579491"><ele>60.333333333333336</ele><time>2026-03-29T10:37:26Z</time></trkpt><trkpt lat="42.343715777147224" lon="14.399071152897912"><ele>61.66666666666667</ele><time>2026-03-29T10:37:27Z</time></trkpt><trkpt lat="42.34365398796397" lon="14.39930203365641"><ele>63.0</ele><time>2026-03-29T10:37:28Z</time></trkpt><trkpt lat="42.343595808798604" lon="14.399530722462071"><ele>68.0</ele><time>2026-03-29T10:37:29Z</time></trkpt><trkpt lat="42.343534753022816" lon="14.399773652938304"><ele>73.0</ele><time>2026-03-29T10:37:30Z</time></trkpt><trkpt lat="42.34347538165344" lon="14.40000560882196"><ele>78.0</ele><time>2026-03-29T10:37:31Z</time></trkpt><trkpt lat="42.343418512013294" lon="14.400246009068987"><ele>78.0</ele><time>2026-03-29T10:37:32Z</time></trkpt><trkpt lat="42.34335090900486" lon="14.400462829253598"><ele>78.0</ele><time>2026-03-29T10:37:33Z</time></trkpt><trkpt lat="42.34329417357579" lon="14.40072588366966"><ele>78.0</ele><time>2026-03-29T10:37:34.065Z</time></trkpt><trkpt lat="42.34328714994912" lon="14.400960820528814"><ele>79.5</ele><time>2026-03-29T10:37:35.062Z</time></trkpt><trkpt lat="42.34328013371123" lon="14.401192804332405"><ele>81.0</ele><time>2026-03-29T10:37:36.06Z</time></trkpt><trkpt lat="42.34367433353509" lon="14.403239124732936"><ele>71.33333333333333</ele><time>2026-03-29T10:37:46Z</time></trkpt><trkpt lat="42.343737801056996" lon="14.403441469862592"><ele>61.666666666666664</ele><time>2026-03-29T10:37:47Z</time></trkpt><trkpt lat="42.34385164157399" lon="14.403607482408134"><ele>52.0</ele><time>2026-03-29T10:37:48Z</time></trkpt><trkpt lat="42.34391713205816" lon="14.403794055405763"><ele>47.666666666666664</ele><time>2026-03-29T10:37:49Z</time></trkpt><trkpt lat="42.343999432294595" lon="14.403991009379931"><ele>43.33333333333333</ele><time>2026-03-29T10:37:50Z</time></trkpt><trkpt lat="42.34409755233417" lon="14.40417877598961"><ele>39.0</ele><time>2026-03-29T10:37:51Z</time></trkpt><trkpt lat="42.344180115744585" lon="14.404396383374552"><ele>39.0</ele><time>2026-03-29T10:37:52Z</time></trkpt><trkpt lat="42.34426276057301" lon="14.404601844998"><ele>39.0</ele><time>2026-03-29T10:37:53Z</time></trkpt><trkpt lat="42.344342086677" lon="14.404802407045915"><ele>39.0</ele><time>2026-03-29T10:37:54Z</time></trkpt><trkpt lat="42.34441985587353" lon="14.404998492386847"><ele>34.666666666666664</ele><time>2026-03-29T10:37:55Z</time></trkpt><trkpt lat="42.344502318700364" lon="14.405200823406178"><ele>30.333333333333332</ele><time>2026-03-29T10:37:56Z</time></trkpt><trkpt lat="42.344588323828596" lon="14.405405078558761"><ele>26.0</ele><time>2026-03-29T10:37:57Z</time></trkpt><trkpt lat="42.344671868704495" lon="14.405599253287779"><ele>29.25</ele><time>2026-03-29T10:37:58Z</time></trkpt><trkpt lat="42.34475050214852" lon="14.405778984735942"><ele>32.5</ele><time>2026-03-29T10:37:59Z</time></trkpt><trkpt lat="42.34482003318755" lon="14.405948267492606"><ele>35.75</ele><time>2026-03-29T10:38:00Z</time></trkpt><trkpt lat="42.34489236814311" lon="14.406127944239048"><ele>39.0</ele><time>2026-03-29T10:38:01Z</time></trkpt><trkpt lat="42.34494739040227" lon="14.406316079817852"><ele>37.25</ele><time>2026-03-29T10:38:02Z</time></trkpt><trkpt lat="42.34498084756378" lon="14.406495056189046"><ele>35.5</ele><time>2026-03-29T10:38:03Z</time></trkpt><trkpt lat="42.34498648094807" lon="14.406687449814289"><ele>33.75</ele><time>2026-03-29T10:38:04Z</time></trkpt><trkpt lat="42.344969372017" lon="14.406899056790284"><ele>32.0</ele><time>2026-03-29T10:38:05Z</time></trkpt><trkpt lat="42.34495269119483" lon="14.40711145962402"><ele>31.333333333333332</ele><time>2026-03-29T10:38:06Z</time></trkpt><trkpt lat="42.34493550121291" lon="14.407351539419809"><ele>30.666666666666664</ele><time>2026-03-29T10:38:07Z</time></trkpt><trkpt lat="42.34492071758796" lon="14.407578316134442"><ele>30.0</ele><time>2026-03-29T10:38:08Z</time></trkpt><trkpt lat="42.34491721234323" lon="14.40780159354095"><ele>27.75</ele><time>2026-03-29T10:38:09Z</time></trkpt><trkpt lat="42.34490782709895" lon="14.408006620538277"><ele>25.5</ele><time>2026-03-29T10:38:10Z</time></trkpt><trkpt lat="42.34488967761871" lon="14.40820410105553"><ele>23.25</ele><time>2026-03-29T10:38:11Z</time></trkpt><trkpt lat="42.34485152599134" lon="14.408386102973134"><ele>21.0</ele><time>2026-03-29T10:38:12Z</time></trkpt><trkpt lat="42.344783146952" lon="14.408554785253019"><ele>22.0</ele><time>2026-03-29T10:38:13Z</time></trkpt><trkpt lat="42.3446603881132" lon="14.4086679455047"><ele>23.0</ele><time>2026-03-29T10:38:14Z</time></trkpt><trkpt lat="42.34454231956595" lon="14.408806469349395"><ele>24.0</ele><time>2026-03-29T10:38:15Z</time></trkpt><trkpt lat="42.34442019284111" lon="14.40896058056316"><ele>21.0</ele><time>2026-03-29T10:38:16Z</time></trkpt><trkpt lat="42.3442781040968" lon="14.409118817270597"><ele>18.0</ele><time>2026-03-29T10:38:17Z</time></trkpt><trkpt lat="42.34412427291908" lon="14.40929088230504"><ele>15.0</ele><time>2026-03-29T10:38:18Z</time></trkpt><trkpt lat="42.34397279832225" lon="14.409461152200734"><ele>64.0</ele><time>2026-03-29T10:38:19Z</time></trkpt><trkpt lat="42.336720600820165" lon="14.413902234838218"><ele>64.0</ele><time>2026-03-29T10:39:20Z</time></trkpt><trkpt lat="42.33662113751085" lon="14.414090186025636"><ele>64.0</ele><time>2026-03-29T10:39:21Z</time></trkpt><trkpt lat="42.33653585374885" lon="14.414286463228974"><ele>64.0</ele><time>2026-03-29T10:39:22Z</time></trkpt><trkpt lat="42.336454944632905" lon="14.41448160291943"><ele>65.33333333333333</ele><time>2026-03-29T10:39:23Z</time></trkpt><trkpt lat="42.33637776450515" lon="14.414666822244415"><ele>66.66666666666667</ele><time>2026-03-29T10:39:24Z</time></trkpt><trkpt lat="42.33629908116378" lon="14.414841869697849"><ele>68.0</ele><time>2026-03-29T10:39:25Z</time></trkpt><trkpt lat="42.33621057332887" lon="14.415012641311389"><ele>68.0</ele><time>2026-03-29T10:39:26Z</time></trkpt><trkpt lat="42.336111330669986" lon="14.415174180242312"><ele>68.0</ele><time>2026-03-29T10:39:27Z</time></trkpt><trkpt lat="42.33601037527524" lon="14.41533555146823"><ele>68.0</ele><time>2026-03-29T10:39:28Z</time></trkpt><trkpt lat="42.33592093700256" lon="14.415479241606299"><ele>68.0</ele><time>2026-03-29T10:39:29Z</time></trkpt><trkpt lat="42.33583238272018" lon="14.415616999091004"><ele>68.0</ele><time>2026-03-29T10:39:30Z</time></trkpt><trkpt lat="42.33573515968502" lon="14.415739119448494"><ele>68.0</ele><time>2026-03-29T10:39:31Z</time></trkpt><trkpt lat="42.33561149965671" lon="14.415805684268701"><ele>68.0</ele><time>2026-03-29T10:39:32Z</time></trkpt><trkpt lat="42.33549249935833" lon="14.415877550791903"><ele>68.0</ele><time>2026-03-29T10:39:33Z</time></trkpt><trkpt lat="42.33537825670361" lon="14.415918370144071"><ele>68.0</ele><time>2026-03-29T10:39:34Z</time></trkpt><trkpt lat="42.3352884145565" lon="14.415968874207561"><ele>68.0</ele><time>2026-03-29T10:39:35Z</time></trkpt><trkpt lat="42.3352144588494" lon="14.41604992038749"><ele>68.0</ele><time>2026-03-29T10:39:36Z</time></trkpt><trkpt lat="42.335169401662746" lon="14.416165472949192"><ele>68.0</ele><time>2026-03-29T10:39:37Z</time></trkpt><trkpt lat="42.335155558040064" lon="14.416306653181453"><ele>68.25</ele><time>2026-03-29T10:39:38Z</time></trkpt><trkpt lat="42.3351762075969" lon="14.416469315445761"><ele>68.5</ele><time>2026-03-29T10:39:39Z</time></trkpt><trkpt lat="42.33520512732078" lon="14.416649408374504"><ele>68.75</ele><time>2026-03-29T10:39:40Z</time></trkpt><trkpt lat="42.335219158845916" lon="14.41681308075387"><ele>69.0</ele><time>2026-03-29T10:39:41Z</time></trkpt><trkpt lat="42.335213391646505" lon="14.41696535418274"><ele>69.0</ele><time>2026-03-29T10:39:42Z</time></trkpt><trkpt lat="42.33517635167595" lon="14.417109636805833"><ele>69.0</ele><time>2026-03-29T10:39:43Z</time></trkpt><trkpt lat="42.33510225174725" lon="14.41723455235658"><ele>69.0</ele><time>2026-03-29T10:39:44Z</time></trkpt><trkpt lat="42.33499542643423" lon="14.417318364991663"><ele>69.0</ele><time>2026-03-29T10:39:45Z</time></trkpt><trkpt lat="42.33487131734045" lon="14.417373337118203"><ele>69.5</ele><time>2026-03-29T10:39:46Z</time></trkpt><trkpt lat="42.33473198310234" lon="14.417417841348351"><ele>70.0</ele><time>2026-03-29T10:39:47Z</time></trkpt><trkpt lat="42.33458985524269" lon="14.417446420933413"><ele>70.5</ele><time>2026-03-29T10:39:48Z</time></trkpt><trkpt lat="42.334444422650165" lon="14.417483602332787"><ele>71.0</ele><time>2026-03-29T10:39:49Z</time></trkpt><trkpt lat="42.3342841902576" lon="14.417532772261497"><ele>71.66666666666667</ele><time>2026-03-29T10:39:50Z</time></trkpt><trkpt lat="42.334102957952744" lon="14.417556685761523"><ele>72.33333333333333</ele><time>2026-03-29T10:39:51Z</time></trkpt><trkpt lat="42.33388776497461" lon="14.417597779752422"><ele>73.0</ele><time>2026-03-29T10:39:52Z</time></trkpt><trkpt lat="42.333657011218925" lon="14.417633553997812"><ele>73.66666666666666</ele><time>2026-03-29T10:39:53Z</time></trkpt><trkpt lat="42.33343549053587" lon="14.417678092672695"><ele>74.33333333333333</ele><time>2026-03-29T10:39:54Z</time></trkpt><trkpt lat="42.3332299057377" lon="14.417684870370651"><ele>75.0</ele><time>2026-03-29T10:39:55Z</time></trkpt><trkpt lat="42.33303444562819" lon="14.417699204754294"><ele>76.0</ele><time>2026-03-29T10:39:56Z</time></trkpt><trkpt lat="42.332832805407584" lon="14.41768422536517"><ele>77.0</ele><time>2026-03-29T10:39:57Z</time></trkpt><trkpt lat="42.33262674406635" lon="14.417645535211934"><ele>78.0</ele><time>2026-03-29T10:39:58Z</time></trkpt><trkpt lat="42.33242232720328" lon="14.41759719486768"><ele>78.0</ele><time>2026-03-29T10:39:59.001Z</time></trkpt><trkpt lat="42.332213180584915" lon="14.417550844656326"><ele>78.0</ele><time>2026-03-29T10:40:00.001Z</time></trkpt><trkpt lat="42.332006750713404" lon="14.417505104408868"><ele>78.0</ele><time>2026-03-29T10:40:01.001Z</time></trkpt><trkpt lat="42.33179796548788" lon="14.41746249593737"><ele>78.0</ele><time>2026-03-29T10:40:02.001Z</time></trkpt><trkpt lat="42.331595747733964" lon="14.417424607438985"><ele>78.0</ele><time>2026-03-29T10:40:03.001Z</time></trkpt><trkpt lat="42.33139002991497" lon="14.417391508212994"><ele>78.0</ele><time>2026-03-29T10:40:04Z</time></trkpt><trkpt lat="42.331195752390926" lon="14.417358346276353"><ele>78.0</ele><time>2026-03-29T10:40:05Z</time></trkpt><trkpt lat="42.3310131925396" lon="14.417329194976581"><ele>78.0</ele><time>2026-03-29T10:40:06Z</time></trkpt><trkpt lat="42.330841673872804" lon="14.417301571464536"><ele>78.0</ele><time>2026-03-29T10:40:07Z</time></trkpt><trkpt lat="42.33067890220462" lon="14.417280296400737"><ele>77.0</ele><time>2026-03-29T10:40:08Z</time></trkpt><trkpt lat="42.33053211535859" lon="14.41726868512478"><ele>76.0</ele><time>2026-03-29T10:40:09Z</time></trkpt><trkpt lat="42.330391458266696" lon="14.4172532132374"><ele>75.0</ele><time>2026-03-29T10:40:10Z</time></trkpt><trkpt lat="42.33025075511801" lon="14.41723408993064"><ele>74.0</ele><time>2026-03-29T10:40:11Z</time></trkpt><trkpt lat="42.33010994966752" lon="14.417212911874765"><ele>74.0</ele><time>2026-03-29T10:40:12Z</time></trkpt><trkpt lat="42.329967006360334" lon="14.417189633406862"><ele>74.0</ele><time>2026-03-29T10:40:13Z</time></trkpt><trkpt lat="42.329818698023246" lon="14.417160353944512"><ele>74.0</ele><time>2026-03-29T10:40:14Z</time></trkpt><trkpt lat="42.329670247838976" lon="14.417118627333531"><ele>74.0</ele><time>2026-03-29T10:40:15Z</time></trkpt><trkpt lat="42.32953242137159" lon="14.417061070486618"><ele>74.0</ele><time>2026-03-29T10:40:16Z</time></trkpt><trkpt lat="42.329402595054304" lon="14.416985757099432"><ele>74.0</ele><time>2026-03-29T10:40:17Z</time></trkpt><trkpt lat="42.32928218157963" lon="14.416905152947201"><ele>74.0</ele><time>2026-03-29T10:40:18Z</time></trkpt><trkpt lat="42.329162260449664" lon="14.416843894967037"><ele>74.0</ele><time>2026-03-29T10:40:19Z</time></trkpt><trkpt lat="42.323449596934395" lon="14.415967963838996"><ele>65.75</ele><time>2026-03-29T10:41:20Z</time></trkpt><trkpt lat="42.32338153061142" lon="14.416095102806464"><ele>57.5</ele><time>2026-03-29T10:41:21Z</time></trkpt><trkpt lat="42.32334322712926" lon="14.416228773083365"><ele>49.25</ele><time>2026-03-29T10:41:22Z</time></trkpt><trkpt lat="42.32333953199036" lon="14.416392818314216"><ele>41.0</ele><time>2026-03-29T10:41:23Z</time></trkpt><trkpt lat="42.32335075670169" lon="14.41657674340027"><ele>39.0</ele><time>2026-03-29T10:41:24Z</time></trkpt><trkpt lat="42.32334413918071" lon="14.416770018158596"><ele>37.0</ele><time>2026-03-29T10:41:25Z</time></trkpt><trkpt lat="42.32332965237903" lon="14.416964385663961"><ele>35.0</ele><time>2026-03-29T10:41:26Z</time></trkpt><trkpt lat="42.3233209871917" lon="14.417150962864103"><ele>33.0</ele><time>2026-03-29T10:41:27Z</time></trkpt><trkpt lat="42.3233119026027" lon="14.417332905823784"><ele>32.0</ele><time>2026-03-29T10:41:28Z</time></trkpt><trkpt lat="42.32332068034249" lon="14.41750768702719"><ele>31.0</ele><time>2026-03-29T10:41:29Z</time></trkpt><trkpt lat="42.32334939052313" lon="14.417682713377223"><ele>30.0</ele><time>2026-03-29T10:41:30Z</time></trkpt><trkpt lat="42.32337986528483" lon="14.417857097901111"><ele>29.0</ele><time>2026-03-29T10:41:31Z</time></trkpt><trkpt lat="42.32340709976435" lon="14.418013100605423"><ele>27.666666666666664</ele><time>2026-03-29T10:41:32Z</time></trkpt><trkpt lat="42.323419188748076" lon="14.41813364281017"><ele>26.333333333333332</ele><time>2026-03-29T10:41:33Z</time></trkpt><trkpt lat="42.3234046669153" lon="14.418224814629209"><ele>25.0</ele><time>2026-03-29T10:41:34Z</time></trkpt><trkpt lat="42.32336601609225" lon="14.418328106179967"><ele>23.666666666666664</ele><time>2026-03-29T10:41:35Z</time></trkpt><trkpt lat="42.323298353433444" lon="14.418410501464002"><ele>22.333333333333332</ele><time>2026-03-29T10:41:36Z</time></trkpt><trkpt lat="42.32319841101623" lon="14.418466198933158"><ele>21.0</ele><time>2026-03-29T10:41:37Z</time></trkpt><trkpt lat="42.32307957713541" lon="14.418494812417016"><ele>21.0</ele><time>2026-03-29T10:41:38Z</time></trkpt><trkpt lat="42.322951176145445" lon="14.41850715246562"><ele>21.0</ele><time>2026-03-29T10:41:39Z</time></trkpt><trkpt lat="42.3228394193057" lon="14.418524767953471"><ele>21.0</ele><time>2026-03-29T10:41:40Z</time></trkpt><trkpt lat="42.32273871110962" lon="14.418602266491838"><ele>21.0</ele><time>2026-03-29T10:41:41Z</time></trkpt><trkpt lat="42.32266239078887" lon="14.418735218758997"><ele>18.666666666666668</ele><time>2026-03-29T10:41:42Z</time></trkpt><trkpt lat="42.32260954109616" lon="14.418908927884262"><ele>16.333333333333336</ele><time>2026-03-29T10:41:43Z</time></trkpt><trkpt lat="42.32257916421193" lon="14.41911662058635"><ele>14.0</ele><time>2026-03-29T10:41:44Z</time></trkpt><trkpt lat="42.32253946080673" lon="14.419352729909287"><ele>14.0</ele><time>2026-03-29T10:41:45Z</time></trkpt><trkpt lat="42.32248541100671" lon="14.419601920427736"><ele>14.0</ele><time>2026-03-29T10:41:46Z</time></trkpt><trkpt lat="42.322429170695294" lon="14.419837344578058"><ele>14.0</ele><time>2026-03-29T10:41:47Z</time></trkpt><trkpt lat="42.322377497569306" lon="14.420072143959368"><ele>14.0</ele><time>2026-03-29T10:41:48Z</time></trkpt><trkpt lat="42.322328153263896" lon="14.420304465169254"><ele>14.0</ele><time>2026-03-29T10:41:49Z</time></trkpt><trkpt lat="42.32227425352062" lon="14.42053106772832"><ele>14.0</ele><time>2026-03-29T10:41:50Z</time></trkpt><trkpt lat="42.32222438837748" lon="14.420753947456586"><ele>14.0</ele><time>2026-03-29T10:41:51Z</time></trkpt><trkpt lat="42.322181588282724" lon="14.42097669394836"><ele>14.0</ele><time>2026-03-29T10:41:52Z</time></trkpt><trkpt lat="42.32215383358496" lon="14.421199137179972"><ele>14.0</ele><time>2026-03-29T10:41:53Z</time></trkpt><trkpt lat="42.32214922030685" lon="14.421405650725848"><ele>14.0</ele><time>2026-03-29T10:41:54Z</time></trkpt><trkpt lat="42.322159966600005" lon="14.421600945197412"><ele>14.0</ele><time>2026-03-29T10:41:55Z</time></trkpt><trkpt lat="42.32217807198288" lon="14.42178653953043"><ele>14.0</ele><time>2026-03-29T10:41:56Z</time></trkpt><trkpt lat="42.32220303634399" lon="14.421965779584546"><ele>14.0</ele><time>2026-03-29T10:41:57Z</time></trkpt><trkpt lat="42.32223394012419" lon="14.422114931498454"><ele>14.399999999999999</ele><time>2026-03-29T10:41:58Z</time></trkpt><trkpt lat="42.32225710881535" lon="14.422249652163988"><ele>14.799999999999999</ele><time>2026-03-29T10:41:59Z</time></trkpt><trkpt lat="42.32227482660748" lon="14.422371259439396"><ele>15.200000000000001</ele><time>2026-03-29T10:42:00Z</time></trkpt><trkpt lat="42.322280003289265" lon="14.422476863955849"><ele>15.600000000000001</ele><time>2026-03-29T10:42:01Z</time></trkpt><trkpt lat="42.32227259873682" lon="14.422562514677203"><ele>16.0</ele><time>2026-03-29T10:42:02Z</time></trkpt><trkpt lat="42.32233508074218" lon="14.422699033662713"><ele>16.0</ele><time>2026-03-29T10:42:04Z</time></trkpt><trkpt lat="42.32236865098091" lon="14.422798333097345"><ele>16.0</ele><time>2026-03-29T10:42:05Z</time></trkpt><trkpt lat="42.32242494374809" lon="14.422895616832118"><ele>16.0</ele><time>2026-03-29T10:42:06Z</time></trkpt><trkpt lat="42.322502377722564" lon="14.42300131582636"><ele>16.0</ele><time>2026-03-29T10:42:07Z</time></trkpt><trkpt lat="42.322563451612076" lon="14.423138388541664"><ele>16.0</ele><time>2026-03-29T10:42:08Z</time></trkpt><trkpt lat="42.322620883949526" lon="14.42330629675332"><ele>17.25</ele><time>2026-03-29T10:42:09Z</time></trkpt><trkpt lat="42.32268127282113" lon="14.423489013734844"><ele>18.5</ele><time>2026-03-29T10:42:10Z</time></trkpt><trkpt lat="42.322738203124224" lon="14.423658656619011"><ele>19.75</ele><time>2026-03-29T10:42:11Z</time></trkpt><trkpt lat="42.32278824194701" lon="14.423841197123126"><ele>21.0</ele><time>2026-03-29T10:42:12Z</time></trkpt><trkpt lat="42.32282867461729" lon="14.424038969045064"><ele>23.333333333333336</ele><time>2026-03-29T10:42:13Z</time></trkpt><trkpt lat="42.322857634063276" lon="14.42424938328577"><ele>25.666666666666668</ele><time>2026-03-29T10:42:14Z</time></trkpt><trkpt lat="42.322872584751" lon="14.424490024776365"><ele>28.0</ele><time>2026-03-29T10:42:15Z</time></trkpt><trkpt lat="42.322871011638256" lon="14.424744792998958"><ele>31.0</ele><time>2026-03-29T10:42:16Z</time></trkpt><trkpt lat="42.32284868206046" lon="14.424998385660892"><ele>34.0</ele><time>2026-03-29T10:42:17Z</time></trkpt><trkpt lat="42.322799918782145" lon="14.425236956758278"><ele>37.0</ele><time>2026-03-29T10:42:18Z</time></trkpt><trkpt lat="42.322720719371404" lon="14.425454910733103"><ele>15.0</ele><time>2026-03-29T10:42:19Z</time></trkpt><trkpt lat="42.31256906355385" lon="14.439012224439125"><ele>15.0</ele><time>2026-03-29T10:43:20Z</time></trkpt><trkpt lat="42.3124337143291" lon="14.439285944184636"><ele>15.0</ele><time>2026-03-29T10:43:21Z</time></trkpt><trkpt lat="42.312303683868066" lon="14.43956395445906"><ele>16.0</ele><time>2026-03-29T10:43:22Z</time></trkpt><trkpt lat="42.31216558710237" lon="14.43984344320431"><ele>17.0</ele><time>2026-03-29T10:43:23Z</time></trkpt><trkpt lat="42.31202550718647" lon="14.440117692448293"><ele>17.0</ele><time>2026-03-29T10:43:24Z</time></trkpt><trkpt lat="42.31189080725585" lon="14.440383435136498"><ele>17.0</ele><time>2026-03-29T10:43:25Z</time></trkpt><trkpt lat="42.311769070530765" lon="14.440624907156987"><ele>15.0</ele><time>2026-03-29T10:43:26Z</time></trkpt><trkpt lat="42.31166010956947" lon="14.440837162096377"><ele>13.0</ele><time>2026-03-29T10:43:27Z</time></trkpt><trkpt lat="42.31155735636674" lon="14.441024329084842"><ele>11.0</ele><time>2026-03-29T10:43:28Z</time></trkpt><trkpt lat="42.31146246983877" lon="14.441178584844291"><ele>12.25</ele><time>2026-03-29T10:43:29Z</time></trkpt><trkpt lat="42.31135431985998" lon="14.441312651655334"><ele>13.5</ele><time>2026-03-29T10:43:30Z</time></trkpt><trkpt lat="42.31123298682688" lon="14.441417748951713"><ele>14.75</ele><time>2026-03-29T10:43:31Z</time></trkpt><trkpt lat="42.31109520509382" lon="14.441506700156404"><ele>16.0</ele><time>2026-03-29T10:43:32Z</time></trkpt><trkpt lat="42.31093998206347" lon="14.441559085298694"><ele>16.0</ele><time>2026-03-29T10:43:33Z</time></trkpt><trkpt lat="42.31077480689385" lon="14.44158745352519"><ele>16.0</ele><time>2026-03-29T10:43:34Z</time></trkpt><trkpt lat="42.31060258596129" lon="14.441603791152259"><ele>16.0</ele><time>2026-03-29T10:43:35Z</time></trkpt><trkpt lat="42.31042344017578" lon="14.441618537116144"><ele>16.333333333333332</ele><time>2026-03-29T10:43:36Z</time></trkpt><trkpt lat="42.31024016532129" lon="14.441639132939798"><ele>16.666666666666668</ele><time>2026-03-29T10:43:37Z</time></trkpt><trkpt lat="42.310056034169506" lon="14.441667955574502"><ele>17.0</ele><time>2026-03-29T10:43:38Z</time></trkpt><trkpt lat="42.309869199405725" lon="14.441693758284124"><ele>15.666666666666668</ele><time>2026-03-29T10:43:39Z</time></trkpt><trkpt lat="42.30969380338562" lon="14.441716564901911"><ele>14.333333333333332</ele><time>2026-03-29T10:43:40Z</time></trkpt><trkpt lat="42.30952955985219" lon="14.441741603110083"><ele>13.0</ele><time>2026-03-29T10:43:41Z</time></trkpt><trkpt lat="42.309381239441095" lon="14.441761694047994"><ele>13.0</ele><time>2026-03-29T10:43:42Z</time></trkpt><trkpt lat="42.3092553343954" lon="14.441776458429025"><ele>13.0</ele><time>2026-03-29T10:43:43Z</time></trkpt><trkpt lat="42.309138870858476" lon="14.441793783532443"><ele>13.0</ele><time>2026-03-29T10:43:44Z</time></trkpt><trkpt lat="42.30902317200988" lon="14.44181297341883"><ele>13.0</ele><time>2026-03-29T10:43:45Z</time></trkpt><trkpt lat="42.30890776664718" lon="14.441838107336146"><ele>12.4</ele><time>2026-03-29T10:43:46Z</time></trkpt><trkpt lat="42.30879667075331" lon="14.441879502705769"><ele>11.8</ele><time>2026-03-29T10:43:47Z</time></trkpt><trkpt lat="42.3086952313476" lon="14.441930632751323"><ele>11.2</ele><time>2026-03-29T10:43:48Z</time></trkpt><trkpt lat="42.3086058492423" lon="14.441993242738885"><ele>10.6</ele><time>2026-03-29T10:43:49Z</time></trkpt><trkpt lat="42.308527726717784" lon="14.442058070759412"><ele>10.0</ele><time>2026-03-29T10:43:50Z</time></trkpt><trkpt lat="42.308460909717795" lon="14.442121513823086"><ele>10.0</ele><time>2026-03-29T10:43:51Z</time></trkpt><trkpt lat="42.308393217618146" lon="14.442194635836527"><ele>10.0</ele><time>2026-03-29T10:43:52Z</time></trkpt><trkpt lat="42.30832259219327" lon="14.44228191627815"><ele>10.0</ele><time>2026-03-29T10:43:53Z</time></trkpt><trkpt lat="42.308257435183634" lon="14.442374330912768"><ele>10.0</ele><time>2026-03-29T10:43:54Z</time></trkpt><trkpt lat="42.308200621350004" lon="14.442475116542669"><ele>10.0</ele><time>2026-03-29T10:43:55Z</time></trkpt><trkpt lat="42.30814380847739" lon="14.442593693808368"><ele>10.0</ele><time>2026-03-29T10:43:56Z</time></trkpt><trkpt lat="42.30809070187381" lon="14.44272192556629"><ele>10.0</ele><time>2026-03-29T10:43:57Z</time></trkpt><trkpt lat="42.308048463097315" lon="14.442853335413906"><ele>10.0</ele><time>2026-03-29T10:43:58Z</time></trkpt><trkpt lat="42.308018341900066" lon="14.442977719156236"><ele>10.0</ele><time>2026-03-29T10:43:59Z</time></trkpt><trkpt lat="42.307997216618965" lon="14.443112005857744"><ele>10.0</ele><time>2026-03-29T10:44:00Z</time></trkpt><trkpt lat="42.30798803239244" lon="14.443256071808678"><ele>10.0</ele><time>2026-03-29T10:44:01Z</time></trkpt><trkpt lat="42.30798370859828" lon="14.443407111316446"><ele>10.0</ele><time>2026-03-29T10:44:02Z</time></trkpt><trkpt lat="42.30797918366716" lon="14.443553660525305"><ele>10.0</ele><time>2026-03-29T10:44:03Z</time></trkpt><trkpt lat="42.30797584270987" lon="14.443688164379703"><ele>10.0</ele><time>2026-03-29T10:44:04Z</time></trkpt><trkpt lat="42.30797217594375" lon="14.443814479654252"><ele>10.0</ele><time>2026-03-29T10:44:05Z</time></trkpt><trkpt lat="42.30796729988193" lon="14.443944962901034"><ele>10.833333333333334</ele><time>2026-03-29T10:44:06Z</time></trkpt><trkpt lat="42.30796071401899" lon="14.444073089701568"><ele>11.666666666666668</ele><time>2026-03-29T10:44:07Z</time></trkpt><trkpt lat="42.3079576359745" lon="14.44420046224955"><ele>12.5</ele><time>2026-03-29T10:44:08Z</time></trkpt><trkpt lat="42.30794995455787" lon="14.444322328770593"><ele>13.333333333333334</ele><time>2026-03-29T10:44:09Z</time></trkpt><trkpt lat="42.30793046304099" lon="14.444429363385852"><ele>14.166666666666666</ele><time>2026-03-29T10:44:10Z</time></trkpt><trkpt lat="42.307894027402924" lon="14.444510617880555"><ele>15.0</ele><time>2026-03-29T10:44:11Z</time></trkpt><trkpt lat="42.30784719249955" lon="14.444579037278926"><ele>15.666666666666666</ele><time>2026-03-29T10:44:12Z</time></trkpt><trkpt lat="42.307794113178176" lon="14.44464069448057"><ele>16.333333333333332</ele><time>2026-03-29T10:44:13Z</time></trkpt><trkpt lat="42.3077723698263" lon="14.444821184018751"><ele>17.0</ele><time>2026-03-29T10:44:15Z</time></trkpt><trkpt lat="42.307815056284646" lon="14.444915478960699"><ele>17.666666666666664</ele><time>2026-03-29T10:44:16Z</time></trkpt><trkpt lat="42.307879794042314" lon="14.444995285248327"><ele>18.333333333333332</ele><time>2026-03-29T10:44:17Z</time></trkpt><trkpt lat="42.307915405323094" lon="14.445079954941145"><ele>19.0</ele><time>2026-03-29T10:44:18Z</time></trkpt><trkpt lat="42.30419610506544" lon="14.451233716477217"><ele>17.333333333333332</ele><time>2026-03-29T10:45:20Z</time></trkpt><trkpt lat="42.30410030968951" lon="14.451380625419477"><ele>15.666666666666668</ele><time>2026-03-29T10:45:21Z</time></trkpt><trkpt lat="42.304003182319214" lon="14.45156741085632"><ele>14.0</ele><time>2026-03-29T10:45:22Z</time></trkpt><trkpt lat="42.30391325055893" lon="14.451777691111689"><ele>17.666666666666668</ele><time>2026-03-29T10:45:23Z</time></trkpt><trkpt lat="42.303823121322026" lon="14.451996273040457"><ele>21.333333333333336</ele><time>2026-03-29T10:45:24Z</time></trkpt><trkpt lat="42.30372710712469" lon="14.452217328303611"><ele>25.0</ele><time>2026-03-29T10:45:25Z</time></trkpt><trkpt lat="42.30363409627159" lon="14.452438502172722"><ele>25.0</ele><time>2026-03-29T10:45:26Z</time></trkpt><trkpt lat="42.303538332125605" lon="14.452654099090362"><ele>25.0</ele><time>2026-03-29T10:45:27Z</time></trkpt><trkpt lat="42.30344657734443" lon="14.452850207008627"><ele>25.0</ele><time>2026-03-29T10:45:28Z</time></trkpt><trkpt lat="42.30336020120277" lon="14.453040975171433"><ele>22.0</ele><time>2026-03-29T10:45:29Z</time></trkpt><trkpt lat="42.30327406925437" lon="14.453222434885653"><ele>19.0</ele><time>2026-03-29T10:45:30Z</time></trkpt><trkpt lat="42.3031855287571" lon="14.453394188180777"><ele>16.0</ele><time>2026-03-29T10:45:31Z</time></trkpt><trkpt lat="42.303089050498336" lon="14.453554828369569"><ele>19.0</ele><time>2026-03-29T10:45:32Z</time></trkpt><trkpt lat="42.30297876842542" lon="14.453709208821055"><ele>22.0</ele><time>2026-03-29T10:45:33Z</time></trkpt><trkpt lat="42.30285962453643" lon="14.453848972686167"><ele>25.0</ele><time>2026-03-29T10:45:34Z</time></trkpt><trkpt lat="42.30272895595069" lon="14.453980339549243"><ele>25.0</ele><time>2026-03-29T10:45:35Z</time></trkpt><trkpt lat="42.30259112330722" lon="14.454100312734806"><ele>25.0</ele><time>2026-03-29T10:45:36Z</time></trkpt><trkpt lat="42.30245026166181" lon="14.454210385502005"><ele>25.0</ele><time>2026-03-29T10:45:37Z</time></trkpt><trkpt lat="42.302314465059396" lon="14.454317692340036"><ele>27.666666666666668</ele><time>2026-03-29T10:45:38Z</time></trkpt><trkpt lat="42.30218594952527" lon="14.454442634207199"><ele>30.333333333333336</ele><time>2026-03-29T10:45:39Z</time></trkpt><trkpt lat="42.302068976563035" lon="14.45458993343118"><ele>33.0</ele><time>2026-03-29T10:45:40Z</time></trkpt><trkpt lat="42.3019715513533" lon="14.454769512166893"><ele>33.0</ele><time>2026-03-29T10:45:41Z</time></trkpt><trkpt lat="42.3018937635292" lon="14.454981400443662"><ele>33.0</ele><time>2026-03-29T10:45:42Z</time></trkpt><trkpt lat="42.30182560974512" lon="14.455225891124892"><ele>33.0</ele><time>2026-03-29T10:45:43Z</time></trkpt><trkpt lat="42.301748897459134" lon="14.455479996635056"><ele>29.666666666666668</ele><time>2026-03-29T10:45:44Z</time></trkpt><trkpt lat="42.30166065714639" lon="14.455725653413445"><ele>26.333333333333336</ele><time>2026-03-29T10:45:45Z</time></trkpt><trkpt lat="42.30156539856074" lon="14.455961986240867"><ele>23.0</ele><time>2026-03-29T10:45:46Z</time></trkpt><trkpt lat="42.30145998083299" lon="14.456190108018442"><ele>26.333333333333336</ele><time>2026-03-29T10:45:47Z</time></trkpt><trkpt lat="42.301340269981075" lon="14.456407689599372"><ele>29.666666666666668</ele><time>2026-03-29T10:45:48Z</time></trkpt><trkpt lat="42.301215197693736" lon="14.456626270316706"><ele>33.0</ele><time>2026-03-29T10:45:49Z</time></trkpt><trkpt lat="42.30108557047975" lon="14.456832743877667"><ele>33.0</ele><time>2026-03-29T10:45:50Z</time></trkpt><trkpt lat="42.300953427666116" lon="14.457019475404115"><ele>33.0</ele><time>2026-03-29T10:45:51Z</time></trkpt><trkpt lat="42.30082180838759" lon="14.457185563753036"><ele>33.0</ele><time>2026-03-29T10:45:52Z</time></trkpt><trkpt lat="42.300698236279906" lon="14.457341392783881"><ele>33.0</ele><time>2026-03-29T10:45:53Z</time></trkpt><trkpt lat="42.30058405741184" lon="14.457486304035903"><ele>33.0</ele><time>2026-03-29T10:45:54Z</time></trkpt><trkpt lat="42.30048781727759" lon="14.457642440364197"><ele>33.0</ele><time>2026-03-29T10:45:55Z</time></trkpt><trkpt lat="42.30041355850232" lon="14.457829458469217"><ele>31.0</ele><time>2026-03-29T10:45:56Z</time></trkpt><trkpt lat="42.30036370500473" lon="14.458041539548812"><ele>29.0</ele><time>2026-03-29T10:45:57Z</time></trkpt><trkpt lat="42.30033427245606" lon="14.458242019360876"><ele>27.0</ele><time>2026-03-29T10:45:58Z</time></trkpt><trkpt lat="42.30029415317582" lon="14.45841043325605"><ele>25.0</ele><time>2026-03-29T10:45:59Z</time></trkpt><trkpt lat="42.300222000443036" lon="14.458551148600765"><ele>25.0</ele><time>2026-03-29T10:46:00Z</time></trkpt><trkpt lat="42.30012012148617" lon="14.458679334233974"><ele>25.0</ele><time>2026-03-29T10:46:01Z</time></trkpt><trkpt lat="42.300007434196864" lon="14.458799911064602"><ele>25.0</ele><time>2026-03-29T10:46:02Z</time></trkpt><trkpt lat="42.29991270969761" lon="14.458914593956806"><ele>25.0</ele><time>2026-03-29T10:46:03Z</time></trkpt><trkpt lat="42.29984490190575" lon="14.459045687088377"><ele>22.0</ele><time>2026-03-29T10:46:04Z</time></trkpt><trkpt lat="42.299808750547236" lon="14.459212831522732"><ele>19.0</ele><time>2026-03-29T10:46:05Z</time></trkpt><trkpt lat="42.299800213473596" lon="14.459394906650607"><ele>16.0</ele><time>2026-03-29T10:46:06Z</time></trkpt><trkpt lat="42.29983200184558" lon="14.459573731864284"><ele>13.0</ele><time>2026-03-29T10:46:07Z</time></trkpt><trkpt lat="42.2998981921178" lon="14.459747682754898"><ele>12.5</ele><time>2026-03-29T10:46:08Z</time></trkpt><trkpt lat="42.29996655148907" lon="14.459923209410428"><ele>12.0</ele><time>2026-03-29T10:46:09Z</time></trkpt><trkpt lat="42.30000018678596" lon="14.46009380976557"><ele>11.5</ele><time>2026-03-29T10:46:10Z</time></trkpt><trkpt lat="42.30000079801047" lon="14.460265183415581"><ele>11.0</ele><time>2026-03-29T10:46:11Z</time></trkpt><trkpt lat="42.299967249928116" lon="14.460441159661741"><ele>10.0</ele><time>2026-03-29T10:46:12Z</time></trkpt><trkpt lat="42.299896397502906" lon="14.460610161658325"><ele>9.0</ele><time>2026-03-29T10:46:13Z</time></trkpt><trkpt lat="42.29979111624139" lon="14.460748672915978"><ele>8.0</ele><time>2026-03-29T10:46:14Z</time></trkpt><trkpt lat="42.299667080697866" lon="14.460861750749448"><ele>7.0</ele><time>2026-03-29T10:46:15Z</time></trkpt><trkpt lat="42.299520037457654" lon="14.460894208538377"><ele>11.333333333333334</ele><time>2026-03-29T10:46:16Z</time></trkpt><trkpt lat="42.29936995224962" lon="14.46095538510222"><ele>15.666666666666668</ele><time>2026-03-29T10:46:17Z</time></trkpt><trkpt lat="42.29920636989662" lon="14.460981579845107"><ele>20.0</ele><time>2026-03-29T10:46:18Z</time></trkpt><trkpt lat="42.29903597819039" lon="14.461045714270604"><ele>43.0</ele><time>2026-03-29T10:46:19Z</time></trkpt><trkpt lat="42.29224772329396" lon="14.470821171566774"><ele>43.0</ele><time>2026-03-29T10:47:20Z</time></trkpt><trkpt lat="42.29213768398529" lon="14.470988501502248"><ele>43.0</ele><time>2026-03-29T10:47:21Z</time></trkpt><trkpt lat="42.29200685802217" lon="14.471125582557022"><ele>43.0</ele><time>2026-03-29T10:47:22Z</time></trkpt><trkpt lat="42.291844090466775" lon="14.471249021931033"><ele>40.66666666666667</ele><time>2026-03-29T10:47:23Z</time></trkpt><trkpt lat="42.29166211800841" lon="14.471375207345249"><ele>38.333333333333336</ele><time>2026-03-29T10:47:24Z</time></trkpt><trkpt lat="42.291486003749704" lon="14.471503831861172"><ele>36.0</ele><time>2026-03-29T10:47:25Z</time></trkpt><trkpt lat="42.291320793282196" lon="14.471633033256825"><ele>36.0</ele><time>2026-03-29T10:47:26Z</time></trkpt><trkpt lat="42.291183518993506" lon="14.47174472524461"><ele>36.0</ele><time>2026-03-29T10:47:27Z</time></trkpt><trkpt lat="42.29107499084554" lon="14.4718545356166"><ele>36.0</ele><time>2026-03-29T10:47:28Z</time></trkpt><trkpt lat="42.29098742205448" lon="14.471978457089405"><ele>36.0</ele><time>2026-03-29T10:47:29Z</time></trkpt><trkpt lat="42.29091474216282" lon="14.472125644838117"><ele>33.0</ele><time>2026-03-29T10:47:30Z</time></trkpt><trkpt lat="42.29085881604685" lon="14.472305239784372"><ele>30.0</ele><time>2026-03-29T10:47:31Z</time></trkpt><trkpt lat="42.29082629985814" lon="14.472515842075069"><ele>27.0</ele><time>2026-03-29T10:47:32Z</time></trkpt><trkpt lat="42.29081465724963" lon="14.472751236823681"><ele>23.333333333333332</ele><time>2026-03-29T10:47:33Z</time></trkpt><trkpt lat="42.290812106916874" lon="14.472994486379152"><ele>19.666666666666664</ele><time>2026-03-29T10:47:34Z</time></trkpt><trkpt lat="42.29080323342791" lon="14.473239687045515"><ele>16.0</ele><time>2026-03-29T10:47:35Z</time></trkpt><trkpt lat="42.29078179123905" lon="14.473461428769424"><ele>16.0</ele><time>2026-03-29T10:47:36Z</time></trkpt><trkpt lat="42.290756478784296" lon="14.473670879596408"><ele>16.0</ele><time>2026-03-29T10:47:37Z</time></trkpt><trkpt lat="42.29071319402005" lon="14.473879289371382"><ele>16.0</ele><time>2026-03-29T10:47:38Z</time></trkpt><trkpt lat="42.29064241911832" lon="14.474081640821511"><ele>17.0</ele><time>2026-03-29T10:47:39Z</time></trkpt><trkpt lat="42.29054155778928" lon="14.474275412204465"><ele>18.0</ele><time>2026-03-29T10:47:40Z</time></trkpt><trkpt lat="42.29041476871789" lon="14.474454445495876"><ele>19.0</ele><time>2026-03-29T10:47:41Z</time></trkpt><trkpt lat="42.29026665492091" lon="14.474613239305334"><ele>16.333333333333332</ele><time>2026-03-29T10:47:42Z</time></trkpt><trkpt lat="42.29010005234611" lon="14.474745633963066"><ele>13.666666666666666</ele><time>2026-03-29T10:47:43Z</time></trkpt><trkpt lat="42.2899275947082" lon="14.474870158134266"><ele>11.0</ele><time>2026-03-29T10:47:44Z</time></trkpt><trkpt lat="42.28976469310164" lon="14.474986103872814"><ele>13.333333333333332</ele><time>2026-03-29T10:47:45Z</time></trkpt><trkpt lat="42.28962055247435" lon="14.475097221389225"><ele>15.666666666666666</ele><time>2026-03-29T10:47:46Z</time></trkpt><trkpt lat="42.28949968109255" lon="14.475221393131719"><ele>18.0</ele><time>2026-03-29T10:47:47Z</time></trkpt><trkpt lat="42.28941990428169" lon="14.47537943672015"><ele>17.333333333333332</ele><time>2026-03-29T10:47:48Z</time></trkpt><trkpt lat="42.289346104804565" lon="14.475571438796985"><ele>16.666666666666664</ele><time>2026-03-29T10:47:49Z</time></trkpt><trkpt lat="42.28929855699506" lon="14.475798891693158"><ele>16.0</ele><time>2026-03-29T10:47:50Z</time></trkpt><trkpt lat="42.289267132438" lon="14.476040347158275"><ele>14.333333333333332</ele><time>2026-03-29T10:47:51Z</time></trkpt><trkpt lat="42.289245953869504" lon="14.476272351178984"><ele>12.666666666666666</ele><time>2026-03-29T10:47:52Z</time></trkpt><trkpt lat="42.28920161723792" lon="14.47649994252069"><ele>11.0</ele><time>2026-03-29T10:47:53Z</time></trkpt><trkpt lat="42.289140272332354" lon="14.476720983978085"><ele>11.0</ele><time>2026-03-29T10:47:54Z</time></trkpt><trkpt lat="42.28904811129094" lon="14.476935550331813"><ele>11.0</ele><time>2026-03-29T10:47:55Z</time></trkpt><trkpt lat="42.28893750002484" lon="14.477137074536266"><ele>11.0</ele><time>2026-03-29T10:47:56Z</time></trkpt><trkpt lat="42.288812637401016" lon="14.477335673439685"><ele>10.333333333333332</ele><time>2026-03-29T10:47:57Z</time></trkpt><trkpt lat="42.28868020958856" lon="14.477532300329269"><ele>9.666666666666666</ele><time>2026-03-29T10:47:58Z</time></trkpt><trkpt lat="42.288545959781516" lon="14.477738308640395"><ele>9.0</ele><time>2026-03-29T10:47:59Z</time></trkpt><trkpt lat="42.288410903148325" lon="14.477944793665475"><ele>9.0</ele><time>2026-03-29T10:48:00Z</time></trkpt><trkpt lat="42.28827324275777" lon="14.478155086550352"><ele>9.0</ele><time>2026-03-29T10:48:01Z</time></trkpt><trkpt lat="42.288133839333995" lon="14.478365637688094"><ele>9.0</ele><time>2026-03-29T10:48:02Z</time></trkpt><trkpt lat="42.28799748107571" lon="14.478565132828706"><ele>10.666666666666668</ele><time>2026-03-29T10:48:03Z</time></trkpt><trkpt lat="42.28787754995805" lon="14.478751982842391"><ele>12.333333333333334</ele><time>2026-03-29T10:48:04Z</time></trkpt><trkpt lat="42.287772131730684" lon="14.478936701797371"><ele>14.0</ele><time>2026-03-29T10:48:05Z</time></trkpt><trkpt lat="42.287670428981194" lon="14.479146952304413"><ele>14.0</ele><time>2026-03-29T10:48:06Z</time></trkpt><trkpt lat="42.287574490115766" lon="14.479388460872453"><ele>14.0</ele><time>2026-03-29T10:48:07Z</time></trkpt><trkpt lat="42.287484233859246" lon="14.47964368562075"><ele>14.0</ele><time>2026-03-29T10:48:08Z</time></trkpt><trkpt lat="42.28739852360817" lon="14.479886386611444"><ele>14.0</ele><time>2026-03-29T10:48:09Z</time></trkpt><trkpt lat="42.287311397490186" lon="14.480108326620714"><ele>14.0</ele><time>2026-03-29T10:48:10Z</time></trkpt><trkpt lat="42.287219522495405" lon="14.48030621432386"><ele>14.0</ele><time>2026-03-29T10:48:11Z</time></trkpt><trkpt lat="42.28710460048378" lon="14.480503455029883"><ele>14.0</ele><time>2026-03-29T10:48:12Z</time></trkpt><trkpt lat="42.28696001720038" lon="14.480691757209305"><ele>14.0</ele><time>2026-03-29T10:48:13Z</time></trkpt><trkpt lat="42.28679480242158" lon="14.480867796813262"><ele>14.0</ele><time>2026-03-29T10:48:14Z</time></trkpt><trkpt lat="42.286618544281524" lon="14.481024016618079"><ele>14.0</ele><time>2026-03-29T10:48:15Z</time></trkpt><trkpt lat="42.28643878111129" lon="14.481181552681257"><ele>14.0</ele><time>2026-03-29T10:48:16Z</time></trkpt><trkpt lat="42.28626282850356" lon="14.481349229763639"><ele>14.0</ele><time>2026-03-29T10:48:17Z</time></trkpt><trkpt lat="42.28609155268886" lon="14.48152262213915"><ele>15.5</ele><time>2026-03-29T10:48:18Z</time></trkpt><trkpt lat="42.285923313264114" lon="14.481695202538113"><ele>17.0</ele><time>2026-03-29T10:48:19Z</time></trkpt><trkpt lat="42.27677654139427" lon="14.493264342809898"><ele>17.0</ele><time>2026-03-29T10:49:20Z</time></trkpt><trkpt lat="42.276592885812164" lon="14.49353145873473"><ele>17.0</ele><time>2026-03-29T10:49:21Z</time></trkpt><trkpt lat="42.27640744475308" lon="14.493789967290757"><ele>17.0</ele><time>2026-03-29T10:49:22Z</time></trkpt><trkpt lat="42.276222275007406" lon="14.494048915614062"><ele>17.0</ele><time>2026-03-29T10:49:23Z</time></trkpt><trkpt lat="42.276035496994176" lon="14.494303751759166"><ele>17.0</ele><time>2026-03-29T10:49:24Z</time></trkpt><trkpt lat="42.27585447201361" lon="14.494550198887715"><ele>17.0</ele><time>2026-03-29T10:49:25Z</time></trkpt><trkpt lat="42.27567814527008" lon="14.494781367772983"><ele>23.0</ele><time>2026-03-29T10:49:26Z</time></trkpt><trkpt lat="42.27550046628574" lon="14.495009987738271"><ele>29.0</ele><time>2026-03-29T10:49:27Z</time></trkpt><trkpt lat="42.27532172563392" lon="14.495236926362699"><ele>22.0</ele><time>2026-03-29T10:49:28Z</time></trkpt><trkpt lat="42.27514950434659" lon="14.495450536349932"><ele>15.0</ele><time>2026-03-29T10:49:29Z</time></trkpt><trkpt lat="42.27498479474094" lon="14.495655770305554"><ele>15.0</ele><time>2026-03-29T10:49:30Z</time></trkpt><trkpt lat="42.27481993015883" lon="14.49586109775165"><ele>15.0</ele><time>2026-03-29T10:49:31Z</time></trkpt><trkpt lat="42.27465703452391" lon="14.49606155926695"><ele>15.0</ele><time>2026-03-29T10:49:32Z</time></trkpt><trkpt lat="42.274502439446735" lon="14.49625522087885"><ele>16.333333333333332</ele><time>2026-03-29T10:49:33Z</time></trkpt><trkpt lat="42.27434929244583" lon="14.496440823435622"><ele>17.666666666666664</ele><time>2026-03-29T10:49:34Z</time></trkpt><trkpt lat="42.27420194991009" lon="14.496621497383092"><ele>19.0</ele><time>2026-03-29T10:49:35Z</time></trkpt><trkpt lat="42.2740651486208" lon="14.49679083371285"><ele>19.0</ele><time>2026-03-29T10:49:36Z</time></trkpt><trkpt lat="42.27394070064629" lon="14.496949870307494"><ele>19.0</ele><time>2026-03-29T10:49:37Z</time></trkpt><trkpt lat="42.27382349448309" lon="14.497110724707236"><ele>19.0</ele><time>2026-03-29T10:49:38Z</time></trkpt><trkpt lat="42.27371411383193" lon="14.497304060035788"><ele>19.666666666666664</ele><time>2026-03-29T10:49:39Z</time></trkpt><trkpt lat="42.27362421028923" lon="14.49753216821797"><ele>20.333333333333332</ele><time>2026-03-29T10:49:40Z</time></trkpt><trkpt lat="42.27354372576244" lon="14.497775987615675"><ele>21.0</ele><time>2026-03-29T10:49:41Z</time></trkpt><trkpt lat="42.27346323011593" lon="14.49801384669529"><ele>19.0</ele><time>2026-03-29T10:49:42Z</time></trkpt><trkpt lat="42.27337858145094" lon="14.498256334944077"><ele>17.0</ele><time>2026-03-29T10:49:43Z</time></trkpt><trkpt lat="42.27329835658878" lon="14.498489634075785"><ele>15.0</ele><time>2026-03-29T10:49:44Z</time></trkpt><trkpt lat="42.27321614086485" lon="14.498716997588076"><ele>12.666666666666666</ele><time>2026-03-29T10:49:45Z</time></trkpt><trkpt lat="42.27313195302269" lon="14.498933484723286"><ele>10.333333333333332</ele><time>2026-03-29T10:49:46Z</time></trkpt><trkpt lat="42.27304871851682" lon="14.499147667486978"><ele>8.0</ele><time>2026-03-29T10:49:47Z</time></trkpt><trkpt lat="42.27296891556108" lon="14.499355439648076"><ele>13.0</ele><time>2026-03-29T10:49:48Z</time></trkpt><trkpt lat="42.27289252324837" lon="14.499545670650456"><ele>18.0</ele><time>2026-03-29T10:49:49Z</time></trkpt><trkpt lat="42.27281388524436" lon="14.49973001939157"><ele>23.0</ele><time>2026-03-29T10:49:50Z</time></trkpt><trkpt lat="42.27273240893533" lon="14.49990148994772"><ele>23.0</ele><time>2026-03-29T10:49:51Z</time></trkpt><trkpt lat="42.272641008076526" lon="14.500058837929597"><ele>23.0</ele><time>2026-03-29T10:49:52Z</time></trkpt><trkpt lat="42.27253114145273" lon="14.500201133434851"><ele>23.0</ele><time>2026-03-29T10:49:53Z</time></trkpt><trkpt lat="42.27240928077306" lon="14.500332856927212"><ele>24.0</ele><time>2026-03-29T10:49:54Z</time></trkpt><trkpt lat="42.272284049934704" lon="14.500462086982855"><ele>25.0</ele><time>2026-03-29T10:49:55Z</time></trkpt><trkpt lat="42.27215815995165" lon="14.500601824393456"><ele>26.0</ele><time>2026-03-29T10:49:56Z</time></trkpt><trkpt lat="42.27202710716868" lon="14.500749053988006"><ele>26.0</ele><time>2026-03-29T10:49:57Z</time></trkpt><trkpt lat="42.27189464771514" lon="14.500898611490573"><ele>26.0</ele><time>2026-03-29T10:49:58Z</time></trkpt><trkpt lat="42.271762024903374" lon="14.501045403292546"><ele>26.0</ele><time>2026-03-29T10:49:59Z</time></trkpt><trkpt lat="42.271632638989814" lon="14.501196367015519"><ele>24.666666666666664</ele><time>2026-03-29T10:50:00Z</time></trkpt><trkpt lat="42.27150399712935" lon="14.501347701494947"><ele>23.333333333333332</ele><time>2026-03-29T10:50:01Z</time></trkpt><trkpt lat="42.27137323918113" lon="14.501486392634167"><ele>22.0</ele><time>2026-03-29T10:50:02Z</time></trkpt><trkpt lat="42.27123480399648" lon="14.501604551535966"><ele>22.0</ele><time>2026-03-29T10:50:03Z</time></trkpt><trkpt lat="42.27108359522632" lon="14.501696987509552"><ele>22.0</ele><time>2026-03-29T10:50:04Z</time></trkpt><trkpt lat="42.270924655710495" lon="14.501765839752784"><ele>22.0</ele><time>2026-03-29T10:50:05Z</time></trkpt><trkpt lat="42.270748503789456" lon="14.501800753321051"><ele>23.666666666666664</ele><time>2026-03-29T10:50:06Z</time></trkpt><trkpt lat="42.270576237283315" lon="14.50186936143542"><ele>25.333333333333332</ele><time>2026-03-29T10:50:07Z</time></trkpt><trkpt lat="42.27039533326298" lon="14.50191034527433"><ele>27.0</ele><time>2026-03-29T10:50:08Z</time></trkpt><trkpt lat="42.27022309714355" lon="14.50195535698408"><ele>27.0</ele><time>2026-03-29T10:50:09Z</time></trkpt><trkpt lat="42.27005318652555" lon="14.50200281789132"><ele>27.0</ele><time>2026-03-29T10:50:10Z</time></trkpt><trkpt lat="42.26988467503521" lon="14.502049128683298"><ele>27.0</ele><time>2026-03-29T10:50:11Z</time></trkpt><trkpt lat="42.2697218432376" lon="14.502096357512244"><ele>21.0</ele><time>2026-03-29T10:50:12Z</time></trkpt><trkpt lat="42.26956172356828" lon="14.502139750079465"><ele>15.0</ele><time>2026-03-29T10:50:13Z</time></trkpt><trkpt lat="42.26940933873858" lon="14.502158135881665"><ele>9.0</ele><time>2026-03-29T10:50:14Z</time></trkpt><trkpt lat="42.26924876045044" lon="14.50215820448231"><ele>9.0</ele><time>2026-03-29T10:50:15Z</time></trkpt><trkpt lat="42.26907883528468" lon="14.502123967916535"><ele>9.0</ele><time>2026-03-29T10:50:16Z</time></trkpt><trkpt lat="42.26890711751919" lon="14.50205599256583"><ele>9.0</ele><time>2026-03-29T10:50:17Z</time></trkpt><trkpt lat="42.26873978546868" lon="14.501977310666772"><ele>12.0</ele><time>2026-03-29T10:50:18Z</time></trkpt><trkpt lat="42.26858852847899" lon="14.501901121104835"><ele>15.0</ele><time>2026-03-29T10:50:19Z</time></trkpt><trkpt lat="42.26587620709856" lon="14.500749933403517"><ele>15.0</ele><time>2026-03-29T10:51:20Z</time></trkpt><trkpt lat="42.26575646327723" lon="14.500713019245996"><ele>15.0</ele><time>2026-03-29T10:51:56Z</time></trkpt><trkpt lat="42.26562168144016" lon="14.500690644178025"><ele>15.0</ele><time>2026-03-29T10:51:57Z</time></trkpt><trkpt lat="42.26548294851205" lon="14.500665360087147"><ele>15.0</ele><time>2026-03-29T10:51:58Z</time></trkpt><trkpt lat="42.26531870446985" lon="14.500637339758045"><ele>13.0</ele><time>2026-03-29T10:51:59Z</time></trkpt><trkpt lat="42.26515345089422" lon="14.500612784875461"><ele>11.0</ele><time>2026-03-29T10:52:00Z</time></trkpt><trkpt lat="42.264966979962075" lon="14.500582680169869"><ele>9.0</ele><time>2026-03-29T10:52:01Z</time></trkpt><trkpt lat="42.264772316913245" lon="14.500550458722442"><ele>8.0</ele><time>2026-03-29T10:52:02Z</time></trkpt><trkpt lat="42.26456654057569" lon="14.50051319632366"><ele>7.0</ele><time>2026-03-29T10:52:03Z</time></trkpt><trkpt lat="42.26435412169951" lon="14.500474595415497"><ele>6.0</ele><time>2026-03-29T10:52:04Z</time></trkpt><trkpt lat="42.26414296545741" lon="14.500438706054059"><ele>10.333333333333332</ele><time>2026-03-29T10:52:05Z</time></trkpt><trkpt lat="42.26392540491697" lon="14.500402667160971"><ele>14.666666666666666</ele><time>2026-03-29T10:52:06Z</time></trkpt><trkpt lat="42.263705176489594" lon="14.500363818776568"><ele>19.0</ele><time>2026-03-29T10:52:07Z</time></trkpt><trkpt lat="42.26348508263481" lon="14.500325810460135"><ele>19.0</ele><time>2026-03-29T10:52:08Z</time></trkpt><trkpt lat="42.263263765732965" lon="14.50028755395152"><ele>19.0</ele><time>2026-03-29T10:52:09Z</time></trkpt><trkpt lat="42.26304783780306" lon="14.500248385808101"><ele>19.0</ele><time>2026-03-29T10:52:10Z</time></trkpt><trkpt lat="42.262836768795665" lon="14.500210498967192"><ele>18.333333333333332</ele><time>2026-03-29T10:52:11Z</time></trkpt><trkpt lat="42.26262991337773" lon="14.500178710223432"><ele>17.666666666666668</ele><time>2026-03-29T10:52:12Z</time></trkpt><trkpt lat="42.2624144682319" lon="14.500169798432877"><ele>17.0</ele><time>2026-03-29T10:52:13Z</time></trkpt><trkpt lat="42.26219577851162" lon="14.500185175490575"><ele>17.0</ele><time>2026-03-29T10:52:14Z</time></trkpt><trkpt lat="42.261973144778096" lon="14.500216498028331"><ele>17.0</ele><time>2026-03-29T10:52:15Z</time></trkpt><trkpt lat="42.261751063593614" lon="14.500258760876177"><ele>17.0</ele><time>2026-03-29T10:52:16Z</time></trkpt><trkpt lat="42.26152926448745" lon="14.500304721809956"><ele>17.0</ele><time>2026-03-29T10:52:17Z</time></trkpt><trkpt lat="42.26130457856677" lon="14.500345190360079"><ele>17.0</ele><time>2026-03-29T10:52:18Z</time></trkpt><trkpt lat="42.26107823594751" lon="14.500379740246482"><ele>17.0</ele><time>2026-03-29T10:52:19Z</time></trkpt><trkpt lat="42.25086946972399" lon="14.50831502053836"><ele>17.0</ele><time>2026-03-29T10:53:20Z</time></trkpt><trkpt lat="42.250686534483734" lon="14.508541895338746"><ele>17.0</ele><time>2026-03-29T10:53:21Z</time></trkpt><trkpt lat="42.25049625729103" lon="14.5087743892348"><ele>17.5</ele><time>2026-03-29T10:53:22Z</time></trkpt><trkpt lat="42.25030786873887" lon="14.509003866895522"><ele>18.0</ele><time>2026-03-29T10:53:23Z</time></trkpt><trkpt lat="42.250117996524146" lon="14.509230401099297"><ele>18.0</ele><time>2026-03-29T10:53:24Z</time></trkpt><trkpt lat="42.24993110703594" lon="14.509446291683012"><ele>18.0</ele><time>2026-03-29T10:53:25Z</time></trkpt><trkpt lat="42.24975349431365" lon="14.509669347912208"><ele>20.0</ele><time>2026-03-29T10:53:26Z</time></trkpt><trkpt lat="42.24957949679151" lon="14.509899378066494"><ele>22.0</ele><time>2026-03-29T10:53:27Z</time></trkpt><trkpt lat="42.24940850071351" lon="14.510149104603038"><ele>18.5</ele><time>2026-03-29T10:53:28Z</time></trkpt><trkpt lat="42.24924467151013" lon="14.510412343019434"><ele>15.0</ele><time>2026-03-29T10:53:29Z</time></trkpt><trkpt lat="42.24907712532314" lon="14.510679162430945"><ele>20.5</ele><time>2026-03-29T10:53:30Z</time></trkpt><trkpt lat="42.248917103466916" lon="14.510949884665083"><ele>26.0</ele><time>2026-03-29T10:53:31Z</time></trkpt><trkpt lat="42.24875584511337" lon="14.51122433863623"><ele>21.0</ele><time>2026-03-29T10:53:32Z</time></trkpt><trkpt lat="42.24858995573042" lon="14.511495334197244"><ele>16.0</ele><time>2026-03-29T10:53:33Z</time></trkpt><trkpt lat="42.24842429666603" lon="14.511769253848932"><ele>16.0</ele><time>2026-03-29T10:53:34Z</time></trkpt><trkpt lat="42.24825606388309" lon="14.512045790666"><ele>16.0</ele><time>2026-03-29T10:53:35Z</time></trkpt><trkpt lat="42.248098183767574" lon="14.512300642139701"><ele>18.5</ele><time>2026-03-29T10:53:36Z</time></trkpt><trkpt lat="42.2479360118512" lon="14.51255624426621"><ele>21.0</ele><time>2026-03-29T10:53:37Z</time></trkpt><trkpt lat="42.24778186492756" lon="14.51281674543676"><ele>18.5</ele><time>2026-03-29T10:53:38Z</time></trkpt><trkpt lat="42.24763766902416" lon="14.513084973720996"><ele>16.0</ele><time>2026-03-29T10:53:39Z</time></trkpt><trkpt lat="42.24748932272426" lon="14.513359615065655"><ele>16.0</ele><time>2026-03-29T10:53:40Z</time></trkpt><trkpt lat="42.247343011383016" lon="14.513637448703655"><ele>16.0</ele><time>2026-03-29T10:53:41Z</time></trkpt><trkpt lat="42.2471946256865" lon="14.513906200126216"><ele>16.0</ele><time>2026-03-29T10:53:42Z</time></trkpt><trkpt lat="42.24704661890608" lon="14.514176051293168"><ele>16.0</ele><time>2026-03-29T10:53:43Z</time></trkpt><trkpt lat="42.246900124330786" lon="14.514435727108632"><ele>15.0</ele><time>2026-03-29T10:53:44Z</time></trkpt><trkpt lat="42.24675938848175" lon="14.514694454180486"><ele>14.0</ele><time>2026-03-29T10:53:45Z</time></trkpt><trkpt lat="42.24662284933573" lon="14.514943546005"><ele>14.0</ele><time>2026-03-29T10:53:46Z</time></trkpt><trkpt lat="42.2464840070187" lon="14.515196914948294"><ele>14.0</ele><time>2026-03-29T10:53:47Z</time></trkpt><trkpt lat="42.24634796197215" lon="14.515439458581197"><ele>13.666666666666668</ele><time>2026-03-29T10:53:48Z</time></trkpt><trkpt lat="42.24621484196547" lon="14.515671103779935"><ele>13.333333333333332</ele><time>2026-03-29T10:53:49Z</time></trkpt><trkpt lat="42.2460838213737" lon="14.51588912898689"><ele>13.0</ele><time>2026-03-29T10:53:50Z</time></trkpt><trkpt lat="42.24594939133753" lon="14.516101294684669"><ele>12.333333333333332</ele><time>2026-03-29T10:53:51Z</time></trkpt><trkpt lat="42.24582166291414" lon="14.51630107739788"><ele>11.666666666666666</ele><time>2026-03-29T10:53:52Z</time></trkpt><trkpt lat="42.24568612036451" lon="14.516521699955428"><ele>11.0</ele><time>2026-03-29T10:53:53Z</time></trkpt><trkpt lat="42.24552193904879" lon="14.516773645984161"><ele>11.0</ele><time>2026-03-29T10:53:54Z</time></trkpt><trkpt lat="42.24535292312281" lon="14.517021126024103"><ele>11.0</ele><time>2026-03-29T10:53:55Z</time></trkpt><trkpt lat="42.245182213006665" lon="14.517278357613716"><ele>10.0</ele><time>2026-03-29T10:53:56Z</time></trkpt><trkpt lat="42.24501392447227" lon="14.517541877535612"><ele>9.0</ele><time>2026-03-29T10:53:57Z</time></trkpt><trkpt lat="42.24484425909697" lon="14.517802858180186"><ele>9.0</ele><time>2026-03-29T10:53:58Z</time></trkpt><trkpt lat="42.24467254691013" lon="14.518059396213303"><ele>9.0</ele><time>2026-03-29T10:53:59Z</time></trkpt><trkpt lat="42.244497901815635" lon="14.518307736107577"><ele>9.0</ele><time>2026-03-29T10:54:00Z</time></trkpt><trkpt lat="42.244323913235824" lon="14.51855714056497"><ele>9.0</ele><time>2026-03-29T10:54:01Z</time></trkpt><trkpt lat="42.244146825364425" lon="14.518805048241822"><ele>9.0</ele><time>2026-03-29T10:54:02Z</time></trkpt><trkpt lat="42.24396637626906" lon="14.519043268034702"><ele>9.0</ele><time>2026-03-29T10:54:03Z</time></trkpt><trkpt lat="42.24378358483496" lon="14.519278668926797"><ele>9.5</ele><time>2026-03-29T10:54:04Z</time></trkpt><trkpt lat="42.243601730639774" lon="14.519517603119986"><ele>10.0</ele><time>2026-03-29T10:54:05Z</time></trkpt><trkpt lat="42.24342387108217" lon="14.519760396569053"><ele>10.0</ele><time>2026-03-29T10:54:06Z</time></trkpt><trkpt lat="42.243253292785504" lon="14.520004994347566"><ele>10.0</ele><time>2026-03-29T10:54:07Z</time></trkpt><trkpt lat="42.24310173685218" lon="14.520244549229732"><ele>8.666666666666668</ele><time>2026-03-29T10:54:08Z</time></trkpt><trkpt lat="42.242967213229484" lon="14.520480748214734"><ele>7.333333333333334</ele><time>2026-03-29T10:54:09Z</time></trkpt><trkpt lat="42.24284242307991" lon="14.52071170423058"><ele>6.0</ele><time>2026-03-29T10:54:10Z</time></trkpt><trkpt lat="42.242734268590425" lon="14.520937164066764"><ele>6.0</ele><time>2026-03-29T10:54:11Z</time></trkpt><trkpt lat="42.24262230004952" lon="14.521185593741274"><ele>6.0</ele><time>2026-03-29T10:54:12Z</time></trkpt><trkpt lat="42.242521955168044" lon="14.521436201993133"><ele>6.0</ele><time>2026-03-29T10:54:13Z</time></trkpt><trkpt lat="42.24243106027017" lon="14.52168740455894"><ele>5.0</ele><time>2026-03-29T10:54:14Z</time></trkpt><trkpt lat="42.24235130883006" lon="14.521940794420287"><ele>4.0</ele><time>2026-03-29T10:54:15Z</time></trkpt><trkpt lat="42.24228334242046" lon="14.52219854639393"><ele>3.0</ele><time>2026-03-29T10:54:16Z</time></trkpt><trkpt lat="42.242226705690264" lon="14.52244160899635"><ele>2.6666666666666665</ele><time>2026-03-29T10:54:17Z</time></trkpt><trkpt lat="42.24217194205914" lon="14.522679638452637"><ele>2.333333333333333</ele><time>2026-03-29T10:54:18Z</time></trkpt><trkpt lat="42.24211721494131" lon="14.522909653668973"><ele>2.0</ele><time>2026-03-29T10:54:19Z</time></trkpt><trkpt lat="42.233696739655784" lon="14.54229149772043"><ele>12.0</ele><time>2026-03-29T10:55:20Z</time></trkpt><trkpt lat="42.2335762628645" lon="14.542558814814726"><ele>22.0</ele><time>2026-03-29T10:55:21Z</time></trkpt><trkpt lat="42.233453086996" lon="14.542824736385993"><ele>16.5</ele><time>2026-03-29T10:55:22Z</time></trkpt><trkpt lat="42.233324349510596" lon="14.54309863030319"><ele>11.0</ele><time>2026-03-29T10:55:23Z</time></trkpt><trkpt lat="42.23318796217851" lon="14.543361595668701"><ele>12.5</ele><time>2026-03-29T10:55:24Z</time></trkpt><trkpt lat="42.233041987681595" lon="14.543608889299046"><ele>14.0</ele><time>2026-03-29T10:55:25Z</time></trkpt><trkpt lat="42.23288593035435" lon="14.543842307591103"><ele>14.0</ele><time>2026-03-29T10:55:26Z</time></trkpt><trkpt lat="42.23271369628351" lon="14.54406254759237"><ele>14.0</ele><time>2026-03-29T10:55:27Z</time></trkpt><trkpt lat="42.23253089031457" lon="14.544272536444453"><ele>14.0</ele><time>2026-03-29T10:55:28Z</time></trkpt><trkpt lat="42.232350805223334" lon="14.544482583936013"><ele>14.0</ele><time>2026-03-29T10:55:29Z</time></trkpt><trkpt lat="42.23217584266653" lon="14.544703341944338"><ele>17.5</ele><time>2026-03-29T10:55:30Z</time></trkpt><trkpt lat="42.23200560604056" lon="14.544943726011963"><ele>21.0</ele><time>2026-03-29T10:55:31Z</time></trkpt><trkpt lat="42.2318350125444" lon="14.545183646777623"><ele>14.5</ele><time>2026-03-29T10:55:32Z</time></trkpt><trkpt lat="42.23166367463391" lon="14.545421979781068"><ele>8.0</ele><time>2026-03-29T10:55:33Z</time></trkpt><trkpt lat="42.231492426142495" lon="14.5456475072663"><ele>19.0</ele><time>2026-03-29T10:55:34Z</time></trkpt><trkpt lat="42.23132260022377" lon="14.545870078562753"><ele>30.0</ele><time>2026-03-29T10:55:35Z</time></trkpt><trkpt lat="42.231154581728994" lon="14.546094366528907"><ele>22.5</ele><time>2026-03-29T10:55:36Z</time></trkpt><trkpt lat="42.23099789202489" lon="14.546320923481092"><ele>15.0</ele><time>2026-03-29T10:55:37Z</time></trkpt><trkpt lat="42.23084745076395" lon="14.546576128114056"><ele>15.0</ele><time>2026-03-29T10:55:38Z</time></trkpt><trkpt lat="42.230730697989465" lon="14.546832115203484"><ele>15.0</ele><time>2026-03-29T10:55:39Z</time></trkpt><trkpt lat="42.230609135994975" lon="14.547111495313862"><ele>20.0</ele><time>2026-03-29T10:55:40Z</time></trkpt><trkpt lat="42.23049980474916" lon="14.547394732957795"><ele>25.0</ele><time>2026-03-29T10:55:41Z</time></trkpt><trkpt lat="42.230390048300166" lon="14.547672444205412"><ele>21.0</ele><time>2026-03-29T10:55:42Z</time></trkpt><trkpt lat="42.23028371519098" lon="14.547923948415635"><ele>17.0</ele><time>2026-03-29T10:55:43Z</time></trkpt><trkpt lat="42.230176997898866" lon="14.548156233234751"><ele>13.0</ele><time>2026-03-29T10:55:44Z</time></trkpt><trkpt lat="42.23007407197964" lon="14.548386957197867"><ele>13.0</ele><time>2026-03-29T10:55:45Z</time></trkpt><trkpt lat="42.22997392880089" lon="14.548605100918426"><ele>13.0</ele><time>2026-03-29T10:55:46Z</time></trkpt><trkpt lat="42.22987845032312" lon="14.54881832145094"><ele>13.0</ele><time>2026-03-29T10:55:47Z</time></trkpt><trkpt lat="42.2297748735257" lon="14.549027179276976"><ele>12.0</ele><time>2026-03-29T10:55:48Z</time></trkpt><trkpt lat="42.22967516178809" lon="14.549242767775672"><ele>11.0</ele><time>2026-03-29T10:55:49Z</time></trkpt><trkpt lat="42.22957539558117" lon="14.549459676439247"><ele>10.0</ele><time>2026-03-29T10:55:50Z</time></trkpt><trkpt lat="42.22947411981199" lon="14.549676759664967"><ele>10.0</ele><time>2026-03-29T10:55:51Z</time></trkpt><trkpt lat="42.229380002415866" lon="14.549873316936528"><ele>10.0</ele><time>2026-03-29T10:55:52Z</time></trkpt><trkpt lat="42.22928762129233" lon="14.550062141884625"><ele>10.0</ele><time>2026-03-29T10:55:53Z</time></trkpt><trkpt lat="42.22919914466428" lon="14.550249345602097"><ele>8.333333333333334</ele><time>2026-03-29T10:55:54Z</time></trkpt><trkpt lat="42.229110567776715" lon="14.550439210917771"><ele>6.666666666666667</ele><time>2026-03-29T10:55:55Z</time></trkpt><trkpt lat="42.2290196518297" lon="14.550625899365356"><ele>5.0</ele><time>2026-03-29T10:55:56Z</time></trkpt><trkpt lat="42.228932081141885" lon="14.550816536620435"><ele>6.666666666666667</ele><time>2026-03-29T10:55:57Z</time></trkpt><trkpt lat="42.22884554911902" lon="14.551005965339897"><ele>8.333333333333334</ele><time>2026-03-29T10:55:58Z</time></trkpt><trkpt lat="42.22875620962035" lon="14.551193338153121"><ele>10.0</ele><time>2026-03-29T10:55:59Z</time></trkpt><trkpt lat="42.22865283498589" lon="14.551369575982106"><ele>10.0</ele><time>2026-03-29T10:56:00Z</time></trkpt><trkpt lat="42.228547195078434" lon="14.55155120335958"><ele>10.0</ele><time>2026-03-29T10:56:01Z</time></trkpt><trkpt lat="42.22842924761466" lon="14.551709887088847"><ele>10.0</ele><time>2026-03-29T10:56:02Z</time></trkpt><trkpt lat="42.22830964814596" lon="14.551866023230676"><ele>7.666666666666667</ele><time>2026-03-29T10:56:03Z</time></trkpt><trkpt lat="42.228195315766875" lon="14.552040861636295"><ele>5.333333333333334</ele><time>2026-03-29T10:56:04Z</time></trkpt><trkpt lat="42.22806831625394" lon="14.552281417841545"><ele>3.0</ele><time>2026-03-29T10:56:05Z</time></trkpt><trkpt lat="42.227940159739966" lon="14.552530912026448"><ele>7.5</ele><time>2026-03-29T10:56:06Z</time></trkpt><trkpt lat="42.22781347163481" lon="14.5528181344201"><ele>12.0</ele><time>2026-03-29T10:56:07Z</time></trkpt><trkpt lat="42.22766447198248" lon="14.553125680877814"><ele>12.0</ele><time>2026-03-29T10:56:08Z</time></trkpt><trkpt lat="42.22751228096266" lon="14.553417292264028"><ele>12.0</ele><time>2026-03-29T10:56:09Z</time></trkpt><trkpt lat="42.22735918363891" lon="14.55370989164551"><ele>18.5</ele><time>2026-03-29T10:56:10Z</time></trkpt><trkpt lat="42.22721292423649" lon="14.554018812026081"><ele>25.0</ele><time>2026-03-29T10:56:11Z</time></trkpt><trkpt lat="42.22706350552" lon="14.554327151115315"><ele>19.0</ele><time>2026-03-29T10:56:12Z</time></trkpt><trkpt lat="42.226906900029526" lon="14.55463668560668"><ele>13.0</ele><time>2026-03-29T10:56:13Z</time></trkpt><trkpt lat="42.22674793728023" lon="14.554954637149343"><ele>13.0</ele><time>2026-03-29T10:56:14Z</time></trkpt><trkpt lat="42.22659696058117" lon="14.555270484918406"><ele>13.0</ele><time>2026-03-29T10:56:15Z</time></trkpt><trkpt lat="42.22645271340543" lon="14.555587698614621"><ele>14.5</ele><time>2026-03-29T10:56:16Z</time></trkpt><trkpt lat="42.226320705952496" lon="14.555923940594443"><ele>16.0</ele><time>2026-03-29T10:56:17Z</time></trkpt><trkpt lat="42.22619295054226" lon="14.55625079225251"><ele>16.0</ele><time>2026-03-29T10:56:18Z</time></trkpt><trkpt lat="42.22607637217876" lon="14.556557610516943"><ele>16.0</ele><time>2026-03-29T10:56:19Z</time></trkpt><trkpt lat="42.218111838741464" lon="14.573801545729959"><ele>19.666666666666664</ele><time>2026-03-29T10:57:20Z</time></trkpt><trkpt lat="42.218014380121176" lon="14.57404720080516"><ele>23.333333333333332</ele><time>2026-03-29T10:57:21Z</time></trkpt><trkpt lat="42.217902957765034" lon="14.5742731184812"><ele>27.0</ele><time>2026-03-29T10:57:22Z</time></trkpt><trkpt lat="42.21776822437096" lon="14.574478928616557"><ele>28.333333333333336</ele><time>2026-03-29T10:57:23Z</time></trkpt><trkpt lat="42.21761409420899" lon="14.57465619346491"><ele>29.666666666666668</ele><time>2026-03-29T10:57:24Z</time></trkpt><trkpt lat="42.21745219192661" lon="14.574812638955583"><ele>31.0</ele><time>2026-03-29T10:57:25Z</time></trkpt><trkpt lat="42.21730260076821" lon="14.574951548095253"><ele>31.0</ele><time>2026-03-29T10:57:26Z</time></trkpt><trkpt lat="42.217174374395825" lon="14.575094851686206"><ele>31.0</ele><time>2026-03-29T10:57:27Z</time></trkpt><trkpt lat="42.217063811534096" lon="14.575258933876672"><ele>31.0</ele><time>2026-03-29T10:57:28Z</time></trkpt><trkpt lat="42.2169851302632" lon="14.575458875768026"><ele>30.666666666666668</ele><time>2026-03-29T10:57:29Z</time></trkpt><trkpt lat="42.216939196691015" lon="14.575689774136643"><ele>30.333333333333336</ele><time>2026-03-29T10:57:30Z</time></trkpt><trkpt lat="42.216921790638374" lon="14.575943796044243"><ele>30.0</ele><time>2026-03-29T10:57:31Z</time></trkpt><trkpt lat="42.21692541717852" lon="14.576212716119054"><ele>30.0</ele><time>2026-03-29T10:57:32Z</time></trkpt><trkpt lat="42.21692748030842" lon="14.576487826015278"><ele>30.0</ele><time>2026-03-29T10:57:33Z</time></trkpt><trkpt lat="42.21690573520611" lon="14.576754843771115"><ele>30.0</ele><time>2026-03-29T10:57:34Z</time></trkpt><trkpt lat="42.21685688994748" lon="14.576993896594743"><ele>26.666666666666668</ele><time>2026-03-29T10:57:35Z</time></trkpt><trkpt lat="42.21676915406659" lon="14.57721821193298"><ele>23.333333333333336</ele><time>2026-03-29T10:57:36Z</time></trkpt><trkpt lat="42.21664968481748" lon="14.577448560385152"><ele>20.0</ele><time>2026-03-29T10:57:37Z</time></trkpt><trkpt lat="42.21651838894421" lon="14.577698181696228"><ele>21.0</ele><time>2026-03-29T10:57:38Z</time></trkpt><trkpt lat="42.21637665670251" lon="14.577970706258519"><ele>22.0</ele><time>2026-03-29T10:57:39Z</time></trkpt><trkpt lat="42.21622946641457" lon="14.578256307227491"><ele>22.0</ele><time>2026-03-29T10:57:40Z</time></trkpt><trkpt lat="42.216081060057704" lon="14.57855123538703"><ele>22.0</ele><time>2026-03-29T10:57:41Z</time></trkpt><trkpt lat="42.21593806634753" lon="14.578833282793543"><ele>21.0</ele><time>2026-03-29T10:57:42Z</time></trkpt><trkpt lat="42.215794727671955" lon="14.579111090214337"><ele>20.0</ele><time>2026-03-29T10:57:43Z</time></trkpt><trkpt lat="42.215649702040025" lon="14.579393078342205"><ele>21.5</ele><time>2026-03-29T10:57:44Z</time></trkpt><trkpt lat="42.21550094352976" lon="14.579681791332483"><ele>23.0</ele><time>2026-03-29T10:57:45Z</time></trkpt><trkpt lat="42.21535001763498" lon="14.579975066046327"><ele>23.0</ele><time>2026-03-29T10:57:46Z</time></trkpt><trkpt lat="42.21519448844873" lon="14.580275395515564"><ele>23.0</ele><time>2026-03-29T10:57:47Z</time></trkpt><trkpt lat="42.21504045869206" lon="14.58057796776612"><ele>24.0</ele><time>2026-03-29T10:57:48Z</time></trkpt><trkpt lat="42.21488568561465" lon="14.580885263974443"><ele>25.0</ele><time>2026-03-29T10:57:49Z</time></trkpt><trkpt lat="42.21472867234659" lon="14.581195453415475"><ele>25.0</ele><time>2026-03-29T10:57:50Z</time></trkpt><trkpt lat="42.21456992428193" lon="14.58150400687686"><ele>25.0</ele><time>2026-03-29T10:57:51Z</time></trkpt><trkpt lat="42.21441371660706" lon="14.581810115329072"><ele>22.0</ele><time>2026-03-29T10:57:52Z</time></trkpt><trkpt lat="42.21425845625058" lon="14.582112028977361"><ele>19.0</ele><time>2026-03-29T10:57:53Z</time></trkpt><trkpt lat="42.21410458671284" lon="14.582411041699658"><ele>22.0</ele><time>2026-03-29T10:57:54Z</time></trkpt><trkpt lat="42.21395250883438" lon="14.582708617467805"><ele>25.0</ele><time>2026-03-29T10:57:55Z</time></trkpt><trkpt lat="42.21380351774174" lon="14.583009013333061"><ele>25.0</ele><time>2026-03-29T10:57:56Z</time></trkpt><trkpt lat="42.21366321099409" lon="14.58330908808365"><ele>25.0</ele><time>2026-03-29T10:57:57Z</time></trkpt><trkpt lat="42.213530020759315" lon="14.583616952578657"><ele>23.5</ele><time>2026-03-29T10:57:58Z</time></trkpt><trkpt lat="42.213407574959895" lon="14.583938921545775"><ele>22.0</ele><time>2026-03-29T10:57:59Z</time></trkpt><trkpt lat="42.213290934526555" lon="14.584270897427505"><ele>22.0</ele><time>2026-03-29T10:58:00Z</time></trkpt><trkpt lat="42.213171959033616" lon="14.584604667151705"><ele>22.0</ele><time>2026-03-29T10:58:01Z</time></trkpt><trkpt lat="42.21305073829196" lon="14.584928093931675"><ele>22.0</ele><time>2026-03-29T10:58:02Z</time></trkpt><trkpt lat="42.2129292280522" lon="14.585231401533875"><ele>22.0</ele><time>2026-03-29T10:58:03Z</time></trkpt><trkpt lat="42.212806829532994" lon="14.58551371984923"><ele>19.0</ele><time>2026-03-29T10:58:04Z</time></trkpt><trkpt lat="42.21267655507989" lon="14.585781949916317"><ele>16.0</ele><time>2026-03-29T10:58:05Z</time></trkpt><trkpt lat="42.21253593703894" lon="14.586040725739169"><ele>12.5</ele><time>2026-03-29T10:58:06Z</time></trkpt><trkpt lat="42.21238909697512" lon="14.586297197531284"><ele>9.0</ele><time>2026-03-29T10:58:07Z</time></trkpt><trkpt lat="42.21223971258068" lon="14.586558871427922"><ele>14.5</ele><time>2026-03-29T10:58:08Z</time></trkpt><trkpt lat="42.21209184623413" lon="14.586827953099425"><ele>20.0</ele><time>2026-03-29T10:58:09Z</time></trkpt><trkpt lat="42.2119501200708" lon="14.58710736894503"><ele>20.0</ele><time>2026-03-29T10:58:10Z</time></trkpt><trkpt lat="42.21181829291891" lon="14.587397411974646"><ele>20.0</ele><time>2026-03-29T10:58:11Z</time></trkpt><trkpt lat="42.211696546333805" lon="14.587694946278747"><ele>17.5</ele><time>2026-03-29T10:58:12Z</time></trkpt><trkpt lat="42.21158465860828" lon="14.587987963133225"><ele>15.0</ele><time>2026-03-29T10:58:13Z</time></trkpt><trkpt lat="42.21148260488738" lon="14.588260777990596"><ele>18.0</ele><time>2026-03-29T10:58:14Z</time></trkpt><trkpt lat="42.21137746765553" lon="14.588513079900594"><ele>21.0</ele><time>2026-03-29T10:58:15Z</time></trkpt><trkpt lat="42.21126178338591" lon="14.588752964063678"><ele>24.0</ele><time>2026-03-29T10:58:16Z</time></trkpt><trkpt lat="42.21114204900665" lon="14.58898620662278"><ele>24.0</ele><time>2026-03-29T10:58:17Z</time></trkpt><trkpt lat="42.21102058014536" lon="14.58921137442122"><ele>24.0</ele><time>2026-03-29T10:58:18Z</time></trkpt><trkpt lat="42.2109038650857" lon="14.589429084272803"><ele>24.0</ele><time>2026-03-29T10:58:19Z</time></trkpt><trkpt lat="42.20054087281972" lon="14.59934891226201"><ele>16.0</ele><time>2026-03-29T10:59:20Z</time></trkpt><trkpt lat="42.20034287277548" lon="14.599525765290293"><ele>8.0</ele><time>2026-03-29T10:59:21Z</time></trkpt><trkpt lat="42.20015346807131" lon="14.599694156326699"><ele>8.0</ele><time>2026-03-29T10:59:22Z</time></trkpt><trkpt lat="42.199976279242485" lon="14.599856801181561"><ele>8.0</ele><time>2026-03-29T10:59:23Z</time></trkpt><trkpt lat="42.19981031692854" lon="14.600002716639802"><ele>8.0</ele><time>2026-03-29T10:59:24Z</time></trkpt><trkpt lat="42.19965285776329" lon="14.600156337707977"><ele>9.0</ele><time>2026-03-29T10:59:25Z</time></trkpt><trkpt lat="42.19950529071976" lon="14.600333806488335"><ele>10.0</ele><time>2026-03-29T10:59:26Z</time></trkpt><trkpt lat="42.19936615789957" lon="14.600534374276357"><ele>11.0</ele><time>2026-03-29T10:59:27Z</time></trkpt><trkpt lat="42.19924177501993" lon="14.600749532348239"><ele>11.0</ele><time>2026-03-29T10:59:28Z</time></trkpt><trkpt lat="42.19913315700112" lon="14.600980161284998"><ele>11.0</ele><time>2026-03-29T10:59:29Z</time></trkpt><trkpt lat="42.19904098458293" lon="14.601224491210575"><ele>11.0</ele><time>2026-03-29T10:59:30Z</time></trkpt><trkpt lat="42.19896858904723" lon="14.60149490587396"><ele>13.0</ele><time>2026-03-29T10:59:31Z</time></trkpt><trkpt lat="42.19891021336465" lon="14.601813991929733"><ele>15.0</ele><time>2026-03-29T10:59:32Z</time></trkpt><trkpt lat="42.198860896523406" lon="14.602164345987477"><ele>15.0</ele><time>2026-03-29T10:59:33Z</time></trkpt><trkpt lat="42.19881734364616" lon="14.60253260554248"><ele>15.0</ele><time>2026-03-29T10:59:34Z</time></trkpt><trkpt lat="42.19876673345573" lon="14.602896822871449"><ele>16.0</ele><time>2026-03-29T10:59:35Z</time></trkpt><trkpt lat="42.19871344176626" lon="14.603241785559907"><ele>17.0</ele><time>2026-03-29T10:59:36Z</time></trkpt><trkpt lat="42.19866269102545" lon="14.603579081324156"><ele>17.0</ele><time>2026-03-29T10:59:37Z</time></trkpt><trkpt lat="42.19861600902872" lon="14.603906628501136"><ele>17.0</ele><time>2026-03-29T10:59:38Z</time></trkpt><trkpt lat="42.1985766320612" lon="14.604224205635022"><ele>18.0</ele><time>2026-03-29T10:59:39Z</time></trkpt><trkpt lat="42.1985546009111" lon="14.604541730821317"><ele>19.0</ele><time>2026-03-29T10:59:40Z</time></trkpt><trkpt lat="42.19855536284777" lon="14.604857570869587"><ele>19.0</ele><time>2026-03-29T10:59:41Z</time></trkpt><trkpt lat="42.19857209813542" lon="14.605174844306598"><ele>19.0</ele><time>2026-03-29T10:59:42Z</time></trkpt><trkpt lat="42.19860186946299" lon="14.605494878770257"><ele>19.0</ele><time>2026-03-29T10:59:43Z</time></trkpt><trkpt lat="42.19865703301245" lon="14.605823051089637"><ele>19.0</ele><time>2026-03-29T10:59:44Z</time></trkpt><trkpt lat="42.19873366090612" lon="14.606162296017327"><ele>19.0</ele><time>2026-03-29T10:59:45Z</time></trkpt><trkpt lat="42.19882224122429" lon="14.606504798004153"><ele>19.0</ele><time>2026-03-29T10:59:46Z</time></trkpt><trkpt lat="42.198907616097465" lon="14.606855272661807"><ele>19.5</ele><time>2026-03-29T10:59:47Z</time></trkpt><trkpt lat="42.19898865181603" lon="14.607218056960381"><ele>20.0</ele><time>2026-03-29T10:59:48Z</time></trkpt><trkpt lat="42.19907101472729" lon="14.60758072773188"><ele>17.0</ele><time>2026-03-29T10:59:49Z</time></trkpt><trkpt lat="42.19915751697578" lon="14.60795042121971"><ele>14.0</ele><time>2026-03-29T10:59:50Z</time></trkpt><trkpt lat="42.199241443192264" lon="14.608313111410757"><ele>16.5</ele><time>2026-03-29T10:59:51Z</time></trkpt><trkpt lat="42.199325355019475" lon="14.608665731168033"><ele>19.0</ele><time>2026-03-29T10:59:52Z</time></trkpt><trkpt lat="42.19940873869085" lon="14.60901306606221"><ele>19.0</ele><time>2026-03-29T10:59:53Z</time></trkpt><trkpt lat="42.19948645671769" lon="14.609350573656783"><ele>19.0</ele><time>2026-03-29T10:59:54Z</time></trkpt><trkpt lat="42.19956108029187" lon="14.609685171286017"><ele>20.0</ele><time>2026-03-29T10:59:55Z</time></trkpt><trkpt lat="42.199632574092156" lon="14.610018019934316"><ele>21.0</ele><time>2026-03-29T10:59:56Z</time></trkpt><trkpt lat="42.19970565793125" lon="14.61034939427438"><ele>22.0</ele><time>2026-03-29T10:59:57Z</time></trkpt><trkpt lat="42.19977506075954" lon="14.610669081290226"><ele>23.0</ele><time>2026-03-29T10:59:58Z</time></trkpt><trkpt lat="42.1998398451061" lon="14.610973710887109"><ele>19.333333333333336</ele><time>2026-03-29T10:59:59Z</time></trkpt><trkpt lat="42.19990038925579" lon="14.611263269280073"><ele>15.666666666666668</ele><time>2026-03-29T11:00:00Z</time></trkpt><trkpt lat="42.199951024894986" lon="14.61155439172853"><ele>12.0</ele><time>2026-03-29T11:00:01Z</time></trkpt><trkpt lat="42.199990520984834" lon="14.611854499059465"><ele>12.5</ele><time>2026-03-29T11:00:02Z</time></trkpt><trkpt lat="42.20001543378466" lon="14.612161930434961"><ele>13.0</ele><time>2026-03-29T11:00:03Z</time></trkpt><trkpt lat="42.20001986244315" lon="14.612473193491905"><ele>13.0</ele><time>2026-03-29T11:00:04Z</time></trkpt><trkpt lat="42.1999989969205" lon="14.612784128318099"><ele>13.0</ele><time>2026-03-29T11:00:05Z</time></trkpt><trkpt lat="42.19995857111272" lon="14.613094259673854"><ele>13.5</ele><time>2026-03-29T11:00:06Z</time></trkpt><trkpt lat="42.19989825098978" lon="14.613393728976888"><ele>14.0</ele><time>2026-03-29T11:00:07Z</time></trkpt><trkpt lat="42.19981622120171" lon="14.613686603131166"><ele>21.5</ele><time>2026-03-29T11:00:08Z</time></trkpt><trkpt lat="42.19971466272953" lon="14.613977756205482"><ele>29.0</ele><time>2026-03-29T11:00:09Z</time></trkpt><trkpt lat="42.19959029518409" lon="14.614263793048657"><ele>25.0</ele><time>2026-03-29T11:00:10Z</time></trkpt><trkpt lat="42.19943479247422" lon="14.614551530108725"><ele>21.0</ele><time>2026-03-29T11:00:11Z</time></trkpt><trkpt lat="42.19926708012454" lon="14.614856296857427"><ele>21.0</ele><time>2026-03-29T11:00:12Z</time></trkpt><trkpt lat="42.19909192823712" lon="14.61517891832138"><ele>21.0</ele><time>2026-03-29T11:00:13Z</time></trkpt><trkpt lat="42.19892572914464" lon="14.61548761577963"><ele>25.5</ele><time>2026-03-29T11:00:14Z</time></trkpt><trkpt lat="42.19876485071351" lon="14.61579304994851"><ele>30.0</ele><time>2026-03-29T11:00:15Z</time></trkpt><trkpt lat="42.198601625918585" lon="14.616093551552636"><ele>24.5</ele><time>2026-03-29T11:00:16Z</time></trkpt><trkpt lat="42.1984397784236" lon="14.616386836194295"><ele>19.0</ele><time>2026-03-29T11:00:17Z</time></trkpt><trkpt lat="42.19828437422092" lon="14.616672839104666"><ele>22.0</ele><time>2026-03-29T11:00:18Z</time></trkpt><trkpt lat="42.198134127584396" lon="14.616946065898992"><ele>25.0</ele><time>2026-03-29T11:00:19Z</time></trkpt><trkpt lat="42.19374229713375" lon="14.630210016755804"><ele>19.5</ele><time>2026-03-29T11:01:20Z</time></trkpt><trkpt lat="42.19366945047663" lon="14.630541808625022"><ele>14.0</ele><time>2026-03-29T11:01:21Z</time></trkpt><trkpt lat="42.19359681348179" lon="14.630865478785747"><ele>13.0</ele><time>2026-03-29T11:01:22Z</time></trkpt><trkpt lat="42.19352629374118" lon="14.63116420912779"><ele>12.0</ele><time>2026-03-29T11:01:23Z</time></trkpt><trkpt lat="42.193463952239796" lon="14.631439809556156"><ele>11.0</ele><time>2026-03-29T11:01:24Z</time></trkpt><trkpt lat="42.193405514333676" lon="14.631687601610178"><ele>11.0</ele><time>2026-03-29T11:01:25Z</time></trkpt><trkpt lat="42.193352033269406" lon="14.631918289974289"><ele>11.0</ele><time>2026-03-29T11:01:26Z</time></trkpt><trkpt lat="42.193302468923015" lon="14.63213102404867"><ele>11.0</ele><time>2026-03-29T11:01:27Z</time></trkpt><trkpt lat="42.193241038612705" lon="14.632319367626168"><ele>12.0</ele><time>2026-03-29T11:01:28Z</time></trkpt><trkpt lat="42.19315230614627" lon="14.632502726479707"><ele>13.0</ele><time>2026-03-29T11:01:29Z</time></trkpt><trkpt lat="42.19303159779751" lon="14.632668619294385"><ele>14.0</ele><time>2026-03-29T11:01:30Z</time></trkpt><trkpt lat="42.192882558802715" lon="14.632812048275165"><ele>14.0</ele><time>2026-03-29T11:01:31Z</time></trkpt><trkpt lat="42.192712164554244" lon="14.632918323779645"><ele>14.0</ele><time>2026-03-29T11:01:32Z</time></trkpt><trkpt lat="42.192533005389315" lon="14.632980448622748"><ele>14.0</ele><time>2026-03-29T11:01:33Z</time></trkpt><trkpt lat="42.19233792789179" lon="14.633012096238442"><ele>12.5</ele><time>2026-03-29T11:01:34Z</time></trkpt><trkpt lat="42.19212038032526" lon="14.633041444211146"><ele>11.0</ele><time>2026-03-29T11:01:35Z</time></trkpt><trkpt lat="42.19188699917352" lon="14.633078857770812"><ele>11.0</ele><time>2026-03-29T11:01:36Z</time></trkpt><trkpt lat="42.19163894568948" lon="14.633122429127972"><ele>11.0</ele><time>2026-03-29T11:01:37Z</time></trkpt><trkpt lat="42.19139806952665" lon="14.63316499048922"><ele>12.5</ele><time>2026-03-29T11:01:38Z</time></trkpt><trkpt lat="42.191161514911" lon="14.633214293480972"><ele>14.0</ele><time>2026-03-29T11:01:39Z</time></trkpt><trkpt lat="42.19091090137632" lon="14.633257985466386"><ele>16.5</ele><time>2026-03-29T11:01:40Z</time></trkpt><trkpt lat="42.19065644242199" lon="14.633301429211159"><ele>19.0</ele><time>2026-03-29T11:01:41Z</time></trkpt><trkpt lat="42.19039687057908" lon="14.633346866137966"><ele>19.0</ele><time>2026-03-29T11:01:42Z</time></trkpt><trkpt lat="42.19013551500425" lon="14.633396004505691"><ele>19.0</ele><time>2026-03-29T11:01:43Z</time></trkpt><trkpt lat="42.18987281380469" lon="14.633443121153467"><ele>19.0</ele><time>2026-03-29T11:01:44Z</time></trkpt><trkpt lat="42.18961131761157" lon="14.633490740398207"><ele>19.0</ele><time>2026-03-29T11:01:45Z</time></trkpt><trkpt lat="42.18935431519399" lon="14.633534969349741"><ele>19.0</ele><time>2026-03-29T11:01:46Z</time></trkpt><trkpt lat="42.18910122106536" lon="14.63357687374084"><ele>19.0</ele><time>2026-03-29T11:01:47Z</time></trkpt><trkpt lat="42.18884806535805" lon="14.633620122096756"><ele>15.5</ele><time>2026-03-29T11:01:48Z</time></trkpt><trkpt lat="42.18859876556506" lon="14.633663986989454"><ele>12.0</ele><time>2026-03-29T11:01:49Z</time></trkpt><trkpt lat="42.18835317257525" lon="14.633706509579131"><ele>12.0</ele><time>2026-03-29T11:01:50Z</time></trkpt><trkpt lat="42.18810800924149" lon="14.63374995060935"><ele>12.0</ele><time>2026-03-29T11:01:51Z</time></trkpt><trkpt lat="42.18786707811132" lon="14.633790382171798"><ele>12.0</ele><time>2026-03-29T11:01:52Z</time></trkpt><trkpt lat="42.18763294226658" lon="14.633832411011182"><ele>12.0</ele><time>2026-03-29T11:01:53Z</time></trkpt><trkpt lat="42.1874005064779" lon="14.633873600127597"><ele>12.0</ele><time>2026-03-29T11:01:54Z</time></trkpt><trkpt lat="42.18716892716271" lon="14.633913284889422"><ele>12.0</ele><time>2026-03-29T11:01:55Z</time></trkpt><trkpt lat="42.186938889015636" lon="14.633952314347736"><ele>12.0</ele><time>2026-03-29T11:01:56Z</time></trkpt><trkpt lat="42.18671006742665" lon="14.633990286081769"><ele>12.0</ele><time>2026-03-29T11:01:57Z</time></trkpt><trkpt lat="42.1864810002429" lon="14.634029040987413"><ele>12.5</ele><time>2026-03-29T11:01:58Z</time></trkpt><trkpt lat="42.18625635238935" lon="14.634071837828122"><ele>13.0</ele><time>2026-03-29T11:01:59Z</time></trkpt><trkpt lat="42.18603466899471" lon="14.634112535832191"><ele>13.0</ele><time>2026-03-29T11:02:00Z</time></trkpt><trkpt lat="42.18582668396902" lon="14.634147494100347"><ele>13.0</ele><time>2026-03-29T11:02:01Z</time></trkpt><trkpt lat="42.18562704711459" lon="14.63417991412477"><ele>13.0</ele><time>2026-03-29T11:02:02Z</time></trkpt><trkpt lat="42.185443310673904" lon="14.634211766353314"><ele>13.333333333333332</ele><time>2026-03-29T11:02:03Z</time></trkpt><trkpt lat="42.185256386921" lon="14.634243618985277"><ele>13.666666666666668</ele><time>2026-03-29T11:02:04Z</time></trkpt><trkpt lat="42.18506558132931" lon="14.634274721431593"><ele>14.0</ele><time>2026-03-29T11:02:05Z</time></trkpt><trkpt lat="42.18487762942146" lon="14.634306572962616"><ele>14.0</ele><time>2026-03-29T11:02:06Z</time></trkpt><trkpt lat="42.184691609649185" lon="14.63434328306929"><ele>14.0</ele><time>2026-03-29T11:02:07Z</time></trkpt><trkpt lat="42.18450020194328" lon="14.634392769933124"><ele>14.0</ele><time>2026-03-29T11:02:08Z</time></trkpt><trkpt lat="42.184309615144414" lon="14.634465256557792"><ele>13.333333333333334</ele><time>2026-03-29T11:02:09Z</time></trkpt><trkpt lat="42.184111188745305" lon="14.634550923521418"><ele>12.666666666666668</ele><time>2026-03-29T11:02:10Z</time></trkpt><trkpt lat="42.18390984894565" lon="14.634644990976678"><ele>12.0</ele><time>2026-03-29T11:02:11Z</time></trkpt><trkpt lat="42.18371749995398" lon="14.63474539376529"><ele>12.0</ele><time>2026-03-29T11:02:12Z</time></trkpt><trkpt lat="42.18353259991974" lon="14.634852436630934"><ele>12.0</ele><time>2026-03-29T11:02:13Z</time></trkpt><trkpt lat="42.18336042584095" lon="14.634957780256535"><ele>12.0</ele><time>2026-03-29T11:02:14Z</time></trkpt><trkpt lat="42.18318661100353" lon="14.635073519584527"><ele>12.666666666666668</ele><time>2026-03-29T11:02:15Z</time></trkpt><trkpt lat="42.183009658264126" lon="14.635193950462556"><ele>13.333333333333334</ele><time>2026-03-29T11:02:16Z</time></trkpt><trkpt lat="42.18282878908699" lon="14.63531469850336"><ele>14.0</ele><time>2026-03-29T11:02:17Z</time></trkpt><trkpt lat="42.18264535947266" lon="14.635437730152118"><ele>15.0</ele><time>2026-03-29T11:02:18Z</time></trkpt><trkpt lat="42.18246202305852" lon="14.635561677599565"><ele>16.0</ele><time>2026-03-29T11:02:19Z</time></trkpt><trkpt lat="42.17027343093333" lon="14.639539452399584"><ele>16.0</ele><time>2026-03-29T11:03:20Z</time></trkpt><trkpt lat="42.17007344667595" lon="14.639574627032072"><ele>16.0</ele><time>2026-03-29T11:03:21Z</time></trkpt><trkpt lat="42.169873215819415" lon="14.63960799579268"><ele>16.0</ele><time>2026-03-29T11:03:22Z</time></trkpt><trkpt lat="42.16967278400397" lon="14.639639600551686"><ele>16.666666666666664</ele><time>2026-03-29T11:03:23Z</time></trkpt><trkpt lat="42.169474465964434" lon="14.639668936103876"><ele>17.333333333333332</ele><time>2026-03-29T11:03:24Z</time></trkpt><trkpt lat="42.16927637563938" lon="14.639702479558867"><ele>18.0</ele><time>2026-03-29T11:03:25Z</time></trkpt><trkpt lat="42.16908834890401" lon="14.639733738593913"><ele>18.0</ele><time>2026-03-29T11:03:26Z</time></trkpt><trkpt lat="42.16890784880417" lon="14.639763424803144"><ele>18.0</ele><time>2026-03-29T11:03:27Z</time></trkpt><trkpt lat="42.1687212838877" lon="14.639794653072054"><ele>18.0</ele><time>2026-03-29T11:03:28Z</time></trkpt><trkpt lat="42.16852969833838" lon="14.639825789449578"><ele>18.0</ele><time>2026-03-29T11:03:29Z</time></trkpt><trkpt lat="42.168339669355206" lon="14.639859571494188"><ele>18.0</ele><time>2026-03-29T11:03:30Z</time></trkpt><trkpt lat="42.16814654711028" lon="14.63989299950498"><ele>18.0</ele><time>2026-03-29T11:03:31Z</time></trkpt><trkpt lat="42.167950652648656" lon="14.639924992653013"><ele>17.666666666666668</ele><time>2026-03-29T11:03:32Z</time></trkpt><trkpt lat="42.16775559865906" lon="14.63995548348666"><ele>17.333333333333336</ele><time>2026-03-29T11:03:33Z</time></trkpt><trkpt lat="42.16755878038911" lon="14.639990005815324"><ele>17.0</ele><time>2026-03-29T11:03:34Z</time></trkpt><trkpt lat="42.16736694375826" lon="14.640022935068409"><ele>17.0</ele><time>2026-03-29T11:03:35Z</time></trkpt><trkpt lat="42.16717255662387" lon="14.640053010501585"><ele>17.0</ele><time>2026-03-29T11:03:36Z</time></trkpt><trkpt lat="42.16697819303248" lon="14.640081213449266"><ele>17.0</ele><time>2026-03-29T11:03:37Z</time></trkpt><trkpt lat="42.1667840830492" lon="14.640114036878666"><ele>17.0</ele><time>2026-03-29T11:03:38Z</time></trkpt><trkpt lat="42.16659555299874" lon="14.640143993530513"><ele>17.0</ele><time>2026-03-29T11:03:39Z</time></trkpt><trkpt lat="42.166410610535394" lon="14.640176637737676"><ele>17.0</ele><time>2026-03-29T11:03:40Z</time></trkpt><trkpt lat="42.16622726280498" lon="14.640206973713523"><ele>17.333333333333336</ele><time>2026-03-29T11:03:41Z</time></trkpt><trkpt lat="42.16604486775498" lon="14.640234142090824"><ele>17.666666666666668</ele><time>2026-03-29T11:03:42Z</time></trkpt><trkpt lat="42.16586737118273" lon="14.640257835126564"><ele>18.0</ele><time>2026-03-29T11:03:43Z</time></trkpt><trkpt lat="42.16569812826151" lon="14.64028529166519"><ele>18.333333333333332</ele><time>2026-03-29T11:03:44Z</time></trkpt><trkpt lat="42.16553401892777" lon="14.640314215374415"><ele>18.666666666666664</ele><time>2026-03-29T11:03:45Z</time></trkpt><trkpt lat="42.165378771122306" lon="14.640339016535586"><ele>19.0</ele><time>2026-03-29T11:03:46Z</time></trkpt><trkpt lat="42.165233489878325" lon="14.64036586061358"><ele>19.0</ele><time>2026-03-29T11:03:47Z</time></trkpt><trkpt lat="42.16509777575887" lon="14.640391081323259"><ele>19.0</ele><time>2026-03-29T11:03:48Z</time></trkpt><trkpt lat="42.16496913192867" lon="14.640433979694773"><ele>19.0</ele><time>2026-03-29T11:03:49Z</time></trkpt><trkpt lat="42.1648523447884" lon="14.640479990161833"><ele>19.0</ele><time>2026-03-29T11:03:50Z</time></trkpt><trkpt lat="42.164741144681926" lon="14.640532030890546"><ele>19.2</ele><time>2026-03-29T11:03:51Z</time></trkpt><trkpt lat="42.16463664732721" lon="14.640579584103685"><ele>19.4</ele><time>2026-03-29T11:03:52Z</time></trkpt><trkpt lat="42.164538187420206" lon="14.640620996187561"><ele>19.6</ele><time>2026-03-29T11:03:53Z</time></trkpt><trkpt lat="42.16444129837433" lon="14.64064709391822"><ele>19.8</ele><time>2026-03-29T11:03:54Z</time></trkpt><trkpt lat="42.16434878880186" lon="14.640657035631762"><ele>20.0</ele><time>2026-03-29T11:03:55Z</time></trkpt><trkpt lat="42.16425850308389" lon="14.6406517752414"><ele>20.0</ele><time>2026-03-29T11:03:56Z</time></trkpt><trkpt lat="42.16416419453316" lon="14.640629726437183"><ele>20.0</ele><time>2026-03-29T11:03:57Z</time></trkpt><trkpt lat="42.16407715982061" lon="14.640602513376763"><ele>20.0</ele><time>2026-03-29T11:03:58Z</time></trkpt><trkpt lat="42.16399682431969" lon="14.640606032695787"><ele>20.0</ele><time>2026-03-29T11:03:59Z</time></trkpt><trkpt lat="42.16391774632987" lon="14.64065726606716"><ele>20.0</ele><time>2026-03-29T11:04:00Z</time></trkpt><trkpt lat="42.16385721496194" lon="14.640748148522011"><ele>20.0</ele><time>2026-03-29T11:04:01Z</time></trkpt><trkpt lat="42.16382888786882" lon="14.640863825054954"><ele>19.8</ele><time>2026-03-29T11:04:02Z</time></trkpt><trkpt lat="42.16383102474295" lon="14.64099130832308"><ele>19.6</ele><time>2026-03-29T11:04:03Z</time></trkpt><trkpt lat="42.163861825611306" lon="14.641123089733771"><ele>19.4</ele><time>2026-03-29T11:04:04Z</time></trkpt><trkpt lat="42.16391115632036" lon="14.641259908295076"><ele>19.2</ele><time>2026-03-29T11:04:05Z</time></trkpt><trkpt lat="42.1639469897579" lon="14.641409591303653"><ele>19.0</ele><time>2026-03-29T11:04:06Z</time></trkpt><trkpt lat="42.16393617248275" lon="14.641580130912937"><ele>19.0</ele><time>2026-03-29T11:04:07Z</time></trkpt><trkpt lat="42.1639052953734" lon="14.641780116027451"><ele>19.0</ele><time>2026-03-29T11:04:08Z</time></trkpt><trkpt lat="42.163880150906444" lon="14.641991107704134"><ele>19.0</ele><time>2026-03-29T11:04:09Z</time></trkpt><trkpt lat="42.16386960634678" lon="14.642192076223042"><ele>19.333333333333332</ele><time>2026-03-29T11:04:10Z</time></trkpt><trkpt lat="42.16387339801213" lon="14.642402712065238"><ele>19.666666666666668</ele><time>2026-03-29T11:04:11Z</time></trkpt><trkpt lat="42.16388383840553" lon="14.64261996774892"><ele>20.0</ele><time>2026-03-29T11:04:12Z</time></trkpt><trkpt lat="42.16389276534646" lon="14.642838431033226"><ele>20.0</ele><time>2026-03-29T11:04:13Z</time></trkpt><trkpt lat="42.16390151871342" lon="14.643044547683546"><ele>20.0</ele><time>2026-03-29T11:04:14Z</time></trkpt><trkpt lat="42.163911741541156" lon="14.643238645143848"><ele>20.0</ele><time>2026-03-29T11:04:15Z</time></trkpt><trkpt lat="42.163920891467136" lon="14.643431041350057"><ele>20.0</ele><time>2026-03-29T11:04:16Z</time></trkpt><trkpt lat="42.163925145681276" lon="14.643625944358325"><ele>19.0</ele><time>2026-03-29T11:04:17Z</time></trkpt><trkpt lat="42.163924309055666" lon="14.643834604298352"><ele>18.0</ele><time>2026-03-29T11:04:18Z</time></trkpt><trkpt lat="42.16393064930803" lon="14.64406640411569"><ele>17.0</ele><time>2026-03-29T11:04:19Z</time></trkpt><trkpt lat="42.16766703043565" lon="14.656778717100325"><ele>38.0</ele><time>2026-03-29T11:05:20Z</time></trkpt><trkpt lat="42.167682079999395" lon="14.657026344144674"><ele>59.0</ele><time>2026-03-29T11:05:21Z</time></trkpt><trkpt lat="42.16768735592507" lon="14.65728054577818"><ele>80.0</ele><time>2026-03-29T11:05:22Z</time></trkpt><trkpt lat="42.16768741654941" lon="14.657533471041031"><ele>79.0</ele><time>2026-03-29T11:05:23Z</time></trkpt><trkpt lat="42.16767416903357" lon="14.65778601507388"><ele>78.0</ele><time>2026-03-29T11:05:24Z</time></trkpt><trkpt lat="42.167643945098305" lon="14.658036483981023"><ele>77.0</ele><time>2026-03-29T11:05:25Z</time></trkpt><trkpt lat="42.16759881491261" lon="14.658277970197435"><ele>77.0</ele><time>2026-03-29T11:05:26Z</time></trkpt><trkpt lat="42.16754523659309" lon="14.65851748582938"><ele>77.0</ele><time>2026-03-29T11:05:27Z</time></trkpt><trkpt lat="42.167483670121754" lon="14.658755061881573"><ele>77.0</ele><time>2026-03-29T11:05:28Z</time></trkpt><trkpt lat="42.16740849853932" lon="14.658990666126714"><ele>77.66666666666667</ele><time>2026-03-29T11:05:29Z</time></trkpt><trkpt lat="42.16733200918935" lon="14.65922447092476"><ele>78.33333333333333</ele><time>2026-03-29T11:05:30Z</time></trkpt><trkpt lat="42.16726050471934" lon="14.659459710963839"><ele>79.0</ele><time>2026-03-29T11:05:31Z</time></trkpt><trkpt lat="42.16719113053768" lon="14.659701186973228"><ele>79.0</ele><time>2026-03-29T11:05:32Z</time></trkpt><trkpt lat="42.16712700582687" lon="14.659931059667825"><ele>79.0</ele><time>2026-03-29T11:05:33Z</time></trkpt><trkpt lat="42.167062263814415" lon="14.66015276897374"><ele>79.0</ele><time>2026-03-29T11:05:34Z</time></trkpt><trkpt lat="42.16700113303178" lon="14.660361085058547"><ele>78.33333333333333</ele><time>2026-03-29T11:05:35Z</time></trkpt><trkpt lat="42.166943734386024" lon="14.660557155550697"><ele>77.66666666666667</ele><time>2026-03-29T11:05:36Z</time></trkpt><trkpt lat="42.16688525057034" lon="14.66074933104266"><ele>77.0</ele><time>2026-03-29T11:05:37Z</time></trkpt><trkpt lat="42.16682434798124" lon="14.660961066774664"><ele>76.25</ele><time>2026-03-29T11:05:38Z</time></trkpt><trkpt lat="42.16677104164546" lon="14.66114902819157"><ele>75.5</ele><time>2026-03-29T11:05:39Z</time></trkpt><trkpt lat="42.166719416827" lon="14.661334885856228"><ele>74.75</ele><time>2026-03-29T11:05:40Z</time></trkpt><trkpt lat="42.16666680213852" lon="14.661508172606533"><ele>74.0</ele><time>2026-03-29T11:05:41Z</time></trkpt><trkpt lat="42.16662020469194" lon="14.661670799027199"><ele>74.0</ele><time>2026-03-29T11:05:42Z</time></trkpt><trkpt lat="42.16657541761881" lon="14.661816118396017"><ele>74.0</ele><time>2026-03-29T11:05:43Z</time></trkpt><trkpt lat="42.166529738558324" lon="14.661942994962834"><ele>74.0</ele><time>2026-03-29T11:05:44Z</time></trkpt><trkpt lat="42.166472371421634" lon="14.662047977186802"><ele>74.0</ele><time>2026-03-29T11:05:45Z</time></trkpt><trkpt lat="42.16640305419317" lon="14.662129930222212"><ele>74.0</ele><time>2026-03-29T11:05:46Z</time></trkpt><trkpt lat="42.166324797810724" lon="14.662194361221724"><ele>74.16666666666667</ele><time>2026-03-29T11:05:47Z</time></trkpt><trkpt lat="42.1662647042145" lon="14.662270693703563"><ele>74.33333333333334</ele><time>2026-03-29T11:05:48Z</time></trkpt><trkpt lat="42.16623551766943" lon="14.662363576753167"><ele>74.5</ele><time>2026-03-29T11:05:49Z</time></trkpt><trkpt lat="42.16623224581873" lon="14.66247603419412"><ele>74.66666666666667</ele><time>2026-03-29T11:05:50Z</time></trkpt><trkpt lat="42.16625548052025" lon="14.662606441399637"><ele>74.83333333333333</ele><time>2026-03-29T11:05:51Z</time></trkpt><trkpt lat="42.16627743938535" lon="14.662748338043777"><ele>75.0</ele><time>2026-03-29T11:05:52Z</time></trkpt><trkpt lat="42.1662586586443" lon="14.662911330102611"><ele>75.0</ele><time>2026-03-29T11:05:53Z</time></trkpt><trkpt lat="42.166204544831835" lon="14.663108838293457"><ele>75.0</ele><time>2026-03-29T11:05:54Z</time></trkpt><trkpt lat="42.16614988727406" lon="14.663292617958232"><ele>75.0</ele><time>2026-03-29T11:05:55Z</time></trkpt><trkpt lat="42.16609653160886" lon="14.663473381716404"><ele>75.0</ele><time>2026-03-29T11:05:56Z</time></trkpt><trkpt lat="42.16604409519824" lon="14.663635023336456"><ele>75.25</ele><time>2026-03-29T11:05:57Z</time></trkpt><trkpt lat="42.16599341742816" lon="14.663796701639027"><ele>75.5</ele><time>2026-03-29T11:05:58Z</time></trkpt><trkpt lat="42.16594616587667" lon="14.663966324854675"><ele>75.75</ele><time>2026-03-29T11:05:59Z</time></trkpt><trkpt lat="42.165894946631596" lon="14.664149817514458"><ele>76.0</ele><time>2026-03-29T11:06:00Z</time></trkpt><trkpt lat="42.16583413848411" lon="14.664337528825264"><ele>76.0</ele><time>2026-03-29T11:06:01Z</time></trkpt><trkpt lat="42.16577486665464" lon="14.664530739904238"><ele>76.0</ele><time>2026-03-29T11:06:02Z</time></trkpt><trkpt lat="42.165717026172175" lon="14.664729427976225"><ele>76.0</ele><time>2026-03-29T11:06:03Z</time></trkpt><trkpt lat="42.165657816868865" lon="14.66493235181119"><ele>76.0</ele><time>2026-03-29T11:06:04Z</time></trkpt><trkpt lat="42.16559630220206" lon="14.665144769992109"><ele>76.0</ele><time>2026-03-29T11:06:05Z</time></trkpt><trkpt lat="42.165532646866616" lon="14.665359585210759"><ele>76.0</ele><time>2026-03-29T11:06:06Z</time></trkpt><trkpt lat="42.16547019463602" lon="14.665568710205505"><ele>75.33333333333333</ele><time>2026-03-29T11:06:07Z</time></trkpt><trkpt lat="42.16540501485509" lon="14.665779066368046"><ele>74.66666666666667</ele><time>2026-03-29T11:06:08Z</time></trkpt><trkpt lat="42.165344944531796" lon="14.665998834085961"><ele>74.0</ele><time>2026-03-29T11:06:09Z</time></trkpt><trkpt lat="42.16528664581081" lon="14.666228310731324"><ele>74.0</ele><time>2026-03-29T11:06:10Z</time></trkpt><trkpt lat="42.165245689793366" lon="14.666477890380149"><ele>74.0</ele><time>2026-03-29T11:06:11Z</time></trkpt><trkpt lat="42.165208308734826" lon="14.666739919650023"><ele>74.0</ele><time>2026-03-29T11:06:12Z</time></trkpt><trkpt lat="42.16516580927882" lon="14.666996997100352"><ele>73.66666666666667</ele><time>2026-03-29T11:06:13Z</time></trkpt><trkpt lat="42.16512281046744" lon="14.6672569592304"><ele>73.33333333333333</ele><time>2026-03-29T11:06:14Z</time></trkpt><trkpt lat="42.1650795485884" lon="14.66752466838848"><ele>73.0</ele><time>2026-03-29T11:06:15Z</time></trkpt><trkpt lat="42.16503396047181" lon="14.66779041303535"><ele>72.66666666666666</ele><time>2026-03-29T11:06:16Z</time></trkpt><trkpt lat="42.164989661862535" lon="14.668062079734424"><ele>72.33333333333333</ele><time>2026-03-29T11:06:17Z</time></trkpt><trkpt lat="42.16494240440899" lon="14.668335275239315"><ele>72.0</ele><time>2026-03-29T11:06:18Z</time></trkpt><trkpt lat="42.16489668450409" lon="14.668605505167806"><ele>51.0</ele><time>2026-03-29T11:06:19Z</time></trkpt><trkpt lat="42.16519108353608" lon="14.683547077919622"><ele>51.25</ele><time>2026-03-29T11:07:20Z</time></trkpt><trkpt lat="42.16514523560862" lon="14.683705309597403"><ele>51.5</ele><time>2026-03-29T11:07:21Z</time></trkpt><trkpt lat="42.16509625056851" lon="14.683850378966005"><ele>51.75</ele><time>2026-03-29T11:07:22Z</time></trkpt><trkpt lat="42.165037788968455" lon="14.683984493155654"><ele>52.0</ele><time>2026-03-29T11:07:23Z</time></trkpt><trkpt lat="42.16494665698809" lon="14.68408918049884"><ele>52.25</ele><time>2026-03-29T11:07:24Z</time></trkpt><trkpt lat="42.16483409255946" lon="14.684186973354391"><ele>52.5</ele><time>2026-03-29T11:07:25Z</time></trkpt><trkpt lat="42.16471831242287" lon="14.684309648288666"><ele>52.75</ele><time>2026-03-29T11:07:26Z</time></trkpt><trkpt lat="42.16460206537594" lon="14.68444989702818"><ele>53.0</ele><time>2026-03-29T11:07:27Z</time></trkpt><trkpt lat="42.16448832943289" lon="14.68460772320328"><ele>53.0</ele><time>2026-03-29T11:07:28Z</time></trkpt><trkpt lat="42.16437219966444" lon="14.68477716632647"><ele>53.0</ele><time>2026-03-29T11:07:29Z</time></trkpt><trkpt lat="42.164255304150366" lon="14.684949627004535"><ele>53.0</ele><time>2026-03-29T11:07:30Z</time></trkpt><trkpt lat="42.164152689650464" lon="14.685101037112473"><ele>53.0</ele><time>2026-03-29T11:07:31Z</time></trkpt><trkpt lat="42.1640555156637" lon="14.6852400292153"><ele>53.0</ele><time>2026-03-29T11:07:32Z</time></trkpt><trkpt lat="42.16396304692569" lon="14.685371713037247"><ele>53.0</ele><time>2026-03-29T11:07:33Z</time></trkpt><trkpt lat="42.16388235885684" lon="14.685496476158864"><ele>53.0</ele><time>2026-03-29T11:07:34Z</time></trkpt><trkpt lat="42.16379710162829" lon="14.685619888334461"><ele>52.333333333333336</ele><time>2026-03-29T11:07:35Z</time></trkpt><trkpt lat="42.16370340524209" lon="14.685760825464484"><ele>51.66666666666667</ele><time>2026-03-29T11:07:36Z</time></trkpt><trkpt lat="42.16360243687447" lon="14.685915614140928"><ele>51.0</ele><time>2026-03-29T11:07:37Z</time></trkpt><trkpt lat="42.16349966047942" lon="14.686077399548568"><ele>49.666666666666664</ele><time>2026-03-29T11:07:38Z</time></trkpt><trkpt lat="42.163398134808325" lon="14.686235232281991"><ele>48.33333333333333</ele><time>2026-03-29T11:07:39Z</time></trkpt><trkpt lat="42.16328184550929" lon="14.686368204007573"><ele>47.0</ele><time>2026-03-29T11:07:40Z</time></trkpt><trkpt lat="42.16317221753185" lon="14.686511061772643"><ele>45.75</ele><time>2026-03-29T11:07:41Z</time></trkpt><trkpt lat="42.16306675718914" lon="14.686635937780254"><ele>44.5</ele><time>2026-03-29T11:07:42Z</time></trkpt><trkpt lat="42.16295209880936" lon="14.686758300125971"><ele>43.25</ele><time>2026-03-29T11:07:43Z</time></trkpt><trkpt lat="42.16283226558427" lon="14.686880415501058"><ele>42.0</ele><time>2026-03-29T11:07:44Z</time></trkpt><trkpt lat="42.16271736746159" lon="14.687012236804907"><ele>40.25</ele><time>2026-03-29T11:07:45Z</time></trkpt><trkpt lat="42.16259798914663" lon="14.68713016158696"><ele>38.5</ele><time>2026-03-29T11:07:46Z</time></trkpt><trkpt lat="42.16246750796038" lon="14.68722157283853"><ele>36.75</ele><time>2026-03-29T11:07:47Z</time></trkpt><trkpt lat="42.16236145452553" lon="14.687335664707938"><ele>35.0</ele><time>2026-03-29T11:07:48Z</time></trkpt><trkpt lat="42.162261130733135" lon="14.687426763824373"><ele>34.0</ele><time>2026-03-29T11:07:49Z</time></trkpt><trkpt lat="42.162174116017695" lon="14.687500218825113"><ele>33.0</ele><time>2026-03-29T11:07:50Z</time></trkpt><trkpt lat="42.16207583195124" lon="14.687536023793166"><ele>32.0</ele><time>2026-03-29T11:07:51Z</time></trkpt><trkpt lat="42.16197049843893" lon="14.687550104763941"><ele>31.0</ele><time>2026-03-29T11:07:52Z</time></trkpt><trkpt lat="42.16185078405964" lon="14.687526732470724"><ele>30.0</ele><time>2026-03-29T11:07:53Z</time></trkpt><trkpt lat="42.1617117623404" lon="14.68746532384648"><ele>28.666666666666664</ele><time>2026-03-29T11:07:54Z</time></trkpt><trkpt lat="42.16150953537386" lon="14.68738209787124"><ele>27.333333333333332</ele><time>2026-03-29T11:07:55Z</time></trkpt><trkpt lat="42.16132532075019" lon="14.687323959590445"><ele>26.0</ele><time>2026-03-29T11:07:56Z</time></trkpt><trkpt lat="42.16113082406901" lon="14.687244085524105"><ele>26.0</ele><time>2026-03-29T11:07:57Z</time></trkpt><trkpt lat="42.16093272392947" lon="14.687164720473595"><ele>26.0</ele><time>2026-03-29T11:07:58Z</time></trkpt><trkpt lat="42.160755739858665" lon="14.687091254269738"><ele>26.0</ele><time>2026-03-29T11:07:59Z</time></trkpt><trkpt lat="42.16061377072717" lon="14.687034990324568"><ele>25.8</ele><time>2026-03-29T11:08:00Z</time></trkpt><trkpt lat="42.16049137605519" lon="14.686980854580337"><ele>25.6</ele><time>2026-03-29T11:08:01Z</time></trkpt><trkpt lat="42.16039222876819" lon="14.686933430713214"><ele>25.4</ele><time>2026-03-29T11:08:02Z</time></trkpt><trkpt lat="42.160321564258886" lon="14.686901506075488"><ele>25.2</ele><time>2026-03-29T11:08:03Z</time></trkpt><trkpt lat="42.16021329846345" lon="14.68686525561805"><ele>25.0</ele><time>2026-03-29T11:08:05Z</time></trkpt><trkpt lat="42.160124638050455" lon="14.68680735547574"><ele>25.75</ele><time>2026-03-29T11:08:06Z</time></trkpt><trkpt lat="42.16000994183297" lon="14.686755775719442"><ele>26.5</ele><time>2026-03-29T11:08:07Z</time></trkpt><trkpt lat="42.1598887048016" lon="14.686731017009844"><ele>27.25</ele><time>2026-03-29T11:08:08Z</time></trkpt><trkpt lat="42.159757492125074" lon="14.686672500468951"><ele>28.0</ele><time>2026-03-29T11:08:09Z</time></trkpt><trkpt lat="42.159609885868115" lon="14.686625572418452"><ele>28.666666666666668</ele><time>2026-03-29T11:08:10Z</time></trkpt><trkpt lat="42.159446348480465" lon="14.686594723153245"><ele>29.333333333333336</ele><time>2026-03-29T11:08:11Z</time></trkpt><trkpt lat="42.15926814718088" lon="14.686590597153634"><ele>30.0</ele><time>2026-03-29T11:08:12Z</time></trkpt><trkpt lat="42.15908415882322" lon="14.686607909926336"><ele>31.333333333333336</ele><time>2026-03-29T11:08:13Z</time></trkpt><trkpt lat="42.15890032248368" lon="14.686635288314436"><ele>32.66666666666667</ele><time>2026-03-29T11:08:14Z</time></trkpt><trkpt lat="42.158695545072305" lon="14.686656642906927"><ele>34.0</ele><time>2026-03-29T11:08:15Z</time></trkpt><trkpt lat="42.15847513058399" lon="14.686670794122916"><ele>34.0</ele><time>2026-03-29T11:08:16Z</time></trkpt><trkpt lat="42.158248299232156" lon="14.686692740854637"><ele>34.0</ele><time>2026-03-29T11:08:17Z</time></trkpt><trkpt lat="42.15802716208026" lon="14.686691893736214"><ele>34.0</ele><time>2026-03-29T11:08:18Z</time></trkpt><trkpt lat="42.15782364884725" lon="14.686710266738634"><ele>65.0</ele><time>2026-03-29T11:08:19Z</time></trkpt><trkpt lat="42.15678959880769" lon="14.691802352026524"><ele>65.0</ele><time>2026-03-29T11:09:20Z</time></trkpt><trkpt lat="42.15669174312585" lon="14.691878222962755"><ele>65.0</ele><time>2026-03-29T11:09:21Z</time></trkpt><trkpt lat="42.156574385412505" lon="14.691904748220072"><ele>65.0</ele><time>2026-03-29T11:09:22Z</time></trkpt><trkpt lat="42.15645930035214" lon="14.691945287246254"><ele>65.0</ele><time>2026-03-29T11:09:23Z</time></trkpt><trkpt lat="42.15634030470554" lon="14.691978600883324"><ele>65.33333333333334</ele><time>2026-03-29T11:09:24Z</time></trkpt><trkpt lat="42.156202780070494" lon="14.692005568866696"><ele>65.66666666666667</ele><time>2026-03-29T11:09:25Z</time></trkpt><trkpt lat="42.15603221591155" lon="14.692024691816082"><ele>66.0</ele><time>2026-03-29T11:09:26Z</time></trkpt><trkpt lat="42.155832648118206" lon="14.692037106307064"><ele>66.66666666666667</ele><time>2026-03-29T11:09:27Z</time></trkpt><trkpt lat="42.155611259375156" lon="14.692046015153228"><ele>67.33333333333334</ele><time>2026-03-29T11:09:28Z</time></trkpt><trkpt lat="42.155390363378444" lon="14.69207215227288"><ele>68.0</ele><time>2026-03-29T11:09:29Z</time></trkpt><trkpt lat="42.155167860287406" lon="14.692076859736055"><ele>68.0</ele><time>2026-03-29T11:09:30Z</time></trkpt><trkpt lat="42.15494262001083" lon="14.692060250976603"><ele>68.0</ele><time>2026-03-29T11:09:31Z</time></trkpt><trkpt lat="42.154715396980585" lon="14.692082930620787"><ele>68.0</ele><time>2026-03-29T11:09:32Z</time></trkpt><trkpt lat="42.15448902304219" lon="14.69208253164233"><ele>68.0</ele><time>2026-03-29T11:09:33Z</time></trkpt><trkpt lat="42.154262566385135" lon="14.692086226763097"><ele>69.5</ele><time>2026-03-29T11:09:34Z</time></trkpt><trkpt lat="42.15403627862236" lon="14.692099545266547"><ele>71.0</ele><time>2026-03-29T11:09:35Z</time></trkpt><trkpt lat="42.15380990238373" lon="14.692131924126071"><ele>71.0</ele><time>2026-03-29T11:09:36Z</time></trkpt><trkpt lat="42.15358174276553" lon="14.692190708032893"><ele>71.0</ele><time>2026-03-29T11:09:37Z</time></trkpt><trkpt lat="42.153345480905436" lon="14.692262009604145"><ele>72.5</ele><time>2026-03-29T11:09:38Z</time></trkpt><trkpt lat="42.153106586773596" lon="14.692339201352977"><ele>74.0</ele><time>2026-03-29T11:09:39Z</time></trkpt><trkpt lat="42.152871665545455" lon="14.692428825872364"><ele>74.0</ele><time>2026-03-29T11:09:40Z</time></trkpt><trkpt lat="42.152644554654614" lon="14.692528052588216"><ele>74.0</ele><time>2026-03-29T11:09:41Z</time></trkpt><trkpt lat="42.15242628175468" lon="14.692647397920043"><ele>75.0</ele><time>2026-03-29T11:09:42Z</time></trkpt><trkpt lat="42.152209619294574" lon="14.69277970391073"><ele>76.0</ele><time>2026-03-29T11:09:43Z</time></trkpt><trkpt lat="42.15199181595545" lon="14.692914995065642"><ele>76.0</ele><time>2026-03-29T11:09:44Z</time></trkpt><trkpt lat="42.151775015245185" lon="14.693055770752352"><ele>76.0</ele><time>2026-03-29T11:09:45Z</time></trkpt><trkpt lat="42.15156117709406" lon="14.693212883631732"><ele>77.0</ele><time>2026-03-29T11:09:46Z</time></trkpt><trkpt lat="42.15134611420039" lon="14.693379180466152"><ele>78.0</ele><time>2026-03-29T11:09:47Z</time></trkpt><trkpt lat="42.15113073765088" lon="14.693548544977688"><ele>77.5</ele><time>2026-03-29T11:09:48Z</time></trkpt><trkpt lat="42.150908445518816" lon="14.693708668120568"><ele>77.0</ele><time>2026-03-29T11:09:49Z</time></trkpt><trkpt lat="42.15067948468292" lon="14.693859931672606"><ele>78.5</ele><time>2026-03-29T11:09:50Z</time></trkpt><trkpt lat="42.15046518521238" lon="14.69403494393545"><ele>80.0</ele><time>2026-03-29T11:09:51Z</time></trkpt><trkpt lat="42.15026499707256" lon="14.694179474303397"><ele>80.0</ele><time>2026-03-29T11:09:52Z</time></trkpt><trkpt lat="42.15008639184763" lon="14.694324382494896"><ele>80.0</ele><time>2026-03-29T11:09:53Z</time></trkpt><trkpt lat="42.14991148754265" lon="14.694449962031136"><ele>80.0</ele><time>2026-03-29T11:09:54Z</time></trkpt><trkpt lat="42.14974790179133" lon="14.694570118932704"><ele>80.33333333333334</ele><time>2026-03-29T11:09:55Z</time></trkpt><trkpt lat="42.14959657045668" lon="14.694682507608695"><ele>80.66666666666667</ele><time>2026-03-29T11:09:56Z</time></trkpt><trkpt lat="42.149460058001885" lon="14.694788290375563"><ele>81.0</ele><time>2026-03-29T11:09:57Z</time></trkpt><trkpt lat="42.14932921967659" lon="14.694889154977892"><ele>81.0</ele><time>2026-03-29T11:09:58Z</time></trkpt><trkpt lat="42.14920763953245" lon="14.694973038778118"><ele>81.0</ele><time>2026-03-29T11:09:59Z</time></trkpt><trkpt lat="42.14909719842642" lon="14.695052501238884"><ele>81.0</ele><time>2026-03-29T11:10:00Z</time></trkpt><trkpt lat="42.14900076257069" lon="14.695120066363026"><ele>81.0</ele><time>2026-03-29T11:10:01Z</time></trkpt><trkpt lat="42.14892375820833" lon="14.695179571822397"><ele>81.16666666666667</ele><time>2026-03-29T11:10:02Z</time></trkpt><trkpt lat="42.14886035084364" lon="14.695225824619458"><ele>81.33333333333333</ele><time>2026-03-29T11:10:03Z</time></trkpt><trkpt lat="42.148776766661044" lon="14.695280484758094"><ele>81.5</ele><time>2026-03-29T11:10:05Z</time></trkpt><trkpt lat="42.14871310949664" lon="14.695280429599764"><ele>81.66666666666666</ele><time>2026-03-29T11:10:08Z</time></trkpt><trkpt lat="42.148692632770455" lon="14.69515191467934"><ele>81.83333333333333</ele><time>2026-03-29T11:10:09Z</time></trkpt><trkpt lat="42.148655121269265" lon="14.695061926337045"><ele>82.0</ele><time>2026-03-29T11:10:10Z</time></trkpt><trkpt lat="42.14859006143708" lon="14.694961843112045"><ele>82.19999999999999</ele><time>2026-03-29T11:10:11Z</time></trkpt><trkpt lat="42.14853823762909" lon="14.694838634338216"><ele>82.4</ele><time>2026-03-29T11:10:12Z</time></trkpt><trkpt lat="42.1484785644781" lon="14.694729225598818"><ele>82.6</ele><time>2026-03-29T11:10:13Z</time></trkpt><trkpt lat="42.14840471141543" lon="14.694626297014485"><ele>82.80000000000001</ele><time>2026-03-29T11:10:14Z</time></trkpt><trkpt lat="42.14834392861002" lon="14.69451357189672"><ele>83.0</ele><time>2026-03-29T11:10:15Z</time></trkpt><trkpt lat="42.14828417944246" lon="14.694404993332345"><ele>83.0</ele><time>2026-03-29T11:10:16Z</time></trkpt></trkseg></trk></gpx>